<?xml version="1.0" encoding="UTF-8" standalone="no" ?>
<gpx xmlns="http://www.topografix.com/GPX/1/1" xmlns:xsi="http://www.w3.org/2001/XMLSchema-instance" xsi:schemaLocation="http://www.topografix.com/GPX/1/1 http://www.topografix.com/GPX/1/1/gpx.xsd" version="1.1" creator="VisuGPX - https://www.visugpx.com">
  <metadata>
    <name>les arcs la plagne</name>
    <desc><![CDATA[TOPO DE MATHIEU
-départ du sommet du télésiège de cachette au arc 1600
-passer par nancroix direction les bauche pente 6% 
-monter au chalet du carroley pente 15%
-portage du chalet au col du carroley 
-petit détoure par le mont st Jacques 
-rejoindre la piste 7 du domaine de la plagne jusque a sangot]]></desc>
  </metadata>
  <trk>
    <name><![CDATA[2015-08-03 15:47:49]]></name>
    <trkseg>
      <trkpt lat="45.58318" lon="6.80603">
        <ele>2165.65</ele>
        <time>2015-08-03T07:55:31Z</time>
      </trkpt>
      <trkpt lat="45.58318" lon="6.80603">
        <ele>2165.65</ele>
        <time>2015-08-03T07:55:32Z</time>
      </trkpt>
      <trkpt lat="45.58315" lon="6.80598">
        <ele>2165.3</ele>
        <time>2015-08-03T07:55:52Z</time>
      </trkpt>
      <trkpt lat="45.58314" lon="6.80597">
        <ele>2165.11</ele>
        <time>2015-08-03T07:56:11Z</time>
      </trkpt>
      <trkpt lat="45.58315" lon="6.80598">
        <ele>2165.34</ele>
        <time>2015-08-03T07:56:31Z</time>
      </trkpt>
      <trkpt lat="45.58314" lon="6.80595">
        <ele>2165.06</ele>
        <time>2015-08-03T07:56:47Z</time>
      </trkpt>
      <trkpt lat="45.58312" lon="6.80598">
        <ele>2164.86</ele>
        <time>2015-08-03T07:56:49Z</time>
      </trkpt>
      <trkpt lat="45.58302" lon="6.80611">
        <ele>2165.14</ele>
        <time>2015-08-03T07:56:56Z</time>
      </trkpt>
      <trkpt lat="45.58295" lon="6.80614">
        <ele>2165.12</ele>
        <time>2015-08-03T07:56:58Z</time>
      </trkpt>
      <trkpt lat="45.58282" lon="6.80618">
        <ele>2164.97</ele>
        <time>2015-08-03T07:57:01Z</time>
      </trkpt>
      <trkpt lat="45.58251" lon="6.80613">
        <ele>2164.03</ele>
        <time>2015-08-03T07:57:09Z</time>
      </trkpt>
      <trkpt lat="45.58247" lon="6.8061">
        <ele>2163.95</ele>
        <time>2015-08-03T07:57:10Z</time>
      </trkpt>
      <trkpt lat="45.58213" lon="6.80587">
        <ele>2163.5</ele>
        <time>2015-08-03T07:57:17Z</time>
      </trkpt>
      <trkpt lat="45.58195" lon="6.80557">
        <ele>2162.81</ele>
        <time>2015-08-03T07:57:22Z</time>
      </trkpt>
      <trkpt lat="45.58182" lon="6.80522">
        <ele>2162.08</ele>
        <time>2015-08-03T07:57:26Z</time>
      </trkpt>
      <trkpt lat="45.58158" lon="6.80504">
        <ele>2160.44</ele>
        <time>2015-08-03T07:57:30Z</time>
      </trkpt>
      <trkpt lat="45.58108" lon="6.80507">
        <ele>2157.27</ele>
        <time>2015-08-03T07:57:36Z</time>
      </trkpt>
      <trkpt lat="45.58072" lon="6.80506">
        <ele>2155.27</ele>
        <time>2015-08-03T07:57:41Z</time>
      </trkpt>
      <trkpt lat="45.58042" lon="6.80513">
        <ele>2154.53</ele>
        <time>2015-08-03T07:57:46Z</time>
      </trkpt>
      <trkpt lat="45.58018" lon="6.80518">
        <ele>2154.32</ele>
        <time>2015-08-03T07:57:51Z</time>
      </trkpt>
      <trkpt lat="45.57989" lon="6.8051">
        <ele>2154.94</ele>
        <time>2015-08-03T07:57:58Z</time>
      </trkpt>
      <trkpt lat="45.57976" lon="6.80491">
        <ele>2155.38</ele>
        <time>2015-08-03T07:58:02Z</time>
      </trkpt>
      <trkpt lat="45.57958" lon="6.8046">
        <ele>2155.67</ele>
        <time>2015-08-03T07:58:08Z</time>
      </trkpt>
      <trkpt lat="45.57948" lon="6.80446">
        <ele>2155.8</ele>
        <time>2015-08-03T07:58:11Z</time>
      </trkpt>
      <trkpt lat="45.57938" lon="6.80433">
        <ele>2155.9</ele>
        <time>2015-08-03T07:58:14Z</time>
      </trkpt>
      <trkpt lat="45.57893" lon="6.80374">
        <ele>2155.28</ele>
        <time>2015-08-03T07:58:26Z</time>
      </trkpt>
      <trkpt lat="45.57877" lon="6.8036">
        <ele>2154.94</ele>
        <time>2015-08-03T07:58:29Z</time>
      </trkpt>
      <trkpt lat="45.57849" lon="6.80355">
        <ele>2153.73</ele>
        <time>2015-08-03T07:58:33Z</time>
      </trkpt>
      <trkpt lat="45.57837" lon="6.80355">
        <ele>2150.68</ele>
        <time>2015-08-03T07:58:39Z</time>
      </trkpt>
      <trkpt lat="45.57838" lon="6.80357">
        <ele>2148.89</ele>
        <time>2015-08-03T07:58:56Z</time>
      </trkpt>
      <trkpt lat="45.57835" lon="6.80357">
        <ele>2148.83</ele>
        <time>2015-08-03T07:59:14Z</time>
      </trkpt>
      <trkpt lat="45.57834" lon="6.80356">
        <ele>2148.66</ele>
        <time>2015-08-03T07:59:26Z</time>
      </trkpt>
      <trkpt lat="45.57822" lon="6.80358">
        <ele>2148.52</ele>
        <time>2015-08-03T07:59:30Z</time>
      </trkpt>
      <trkpt lat="45.57806" lon="6.80357">
        <ele>2148.33</ele>
        <time>2015-08-03T07:59:33Z</time>
      </trkpt>
      <trkpt lat="45.57794" lon="6.80357">
        <ele>2148.17</ele>
        <time>2015-08-03T07:59:35Z</time>
      </trkpt>
      <trkpt lat="45.57769" lon="6.80354">
        <ele>2147.58</ele>
        <time>2015-08-03T07:59:39Z</time>
      </trkpt>
      <trkpt lat="45.57738" lon="6.80342">
        <ele>2146.1</ele>
        <time>2015-08-03T07:59:45Z</time>
      </trkpt>
      <trkpt lat="45.57718" lon="6.80327">
        <ele>2145.46</ele>
        <time>2015-08-03T07:59:49Z</time>
      </trkpt>
      <trkpt lat="45.57692" lon="6.80302">
        <ele>2144.53</ele>
        <time>2015-08-03T07:59:54Z</time>
      </trkpt>
      <trkpt lat="45.57682" lon="6.80286">
        <ele>2144.09</ele>
        <time>2015-08-03T07:59:56Z</time>
      </trkpt>
      <trkpt lat="45.57659" lon="6.80256">
        <ele>2142.28</ele>
        <time>2015-08-03T08:00:01Z</time>
      </trkpt>
      <trkpt lat="45.57624" lon="6.80228">
        <ele>2139.99</ele>
        <time>2015-08-03T08:00:07Z</time>
      </trkpt>
      <trkpt lat="45.57599" lon="6.80202">
        <ele>2136.57</ele>
        <time>2015-08-03T08:00:13Z</time>
      </trkpt>
      <trkpt lat="45.57599" lon="6.80191">
        <ele>2135.99</ele>
        <time>2015-08-03T08:00:14Z</time>
      </trkpt>
      <trkpt lat="45.5759" lon="6.80147">
        <ele>2133.06</ele>
        <time>2015-08-03T08:00:19Z</time>
      </trkpt>
      <trkpt lat="45.57571" lon="6.80159">
        <ele>2130.47</ele>
        <time>2015-08-03T08:00:22Z</time>
      </trkpt>
      <trkpt lat="45.57552" lon="6.80169">
        <ele>2128.27</ele>
        <time>2015-08-03T08:00:25Z</time>
      </trkpt>
      <trkpt lat="45.57507" lon="6.80151">
        <ele>2124.65</ele>
        <time>2015-08-03T08:00:32Z</time>
      </trkpt>
      <trkpt lat="45.57497" lon="6.80146">
        <ele>2123.72</ele>
        <time>2015-08-03T08:00:34Z</time>
      </trkpt>
      <trkpt lat="45.57478" lon="6.80108">
        <ele>2122.48</ele>
        <time>2015-08-03T08:00:39Z</time>
      </trkpt>
      <trkpt lat="45.57458" lon="6.80055">
        <ele>2118.72</ele>
        <time>2015-08-03T08:00:46Z</time>
      </trkpt>
      <trkpt lat="45.57483" lon="6.80045">
        <ele>2115.69</ele>
        <time>2015-08-03T08:00:50Z</time>
      </trkpt>
      <trkpt lat="45.57496" lon="6.8004">
        <ele>2113.59</ele>
        <time>2015-08-03T08:00:53Z</time>
      </trkpt>
      <trkpt lat="45.57483" lon="6.80023">
        <ele>2111.81</ele>
        <time>2015-08-03T08:00:56Z</time>
      </trkpt>
      <trkpt lat="45.57476" lon="6.80022">
        <ele>2111.11</ele>
        <time>2015-08-03T08:00:57Z</time>
      </trkpt>
      <trkpt lat="45.5747" lon="6.79995">
        <ele>2107.14</ele>
        <time>2015-08-03T08:01:02Z</time>
      </trkpt>
      <trkpt lat="45.57466" lon="6.7999">
        <ele>2106.42</ele>
        <time>2015-08-03T08:01:03Z</time>
      </trkpt>
      <trkpt lat="45.5744" lon="6.79962">
        <ele>2103.05</ele>
        <time>2015-08-03T08:01:07Z</time>
      </trkpt>
      <trkpt lat="45.57431" lon="6.79929">
        <ele>2100.21</ele>
        <time>2015-08-03T08:01:10Z</time>
      </trkpt>
      <trkpt lat="45.57447" lon="6.79899">
        <ele>2096</ele>
        <time>2015-08-03T08:01:15Z</time>
      </trkpt>
      <trkpt lat="45.57448" lon="6.79884">
        <ele>2092.38</ele>
        <time>2015-08-03T08:01:19Z</time>
      </trkpt>
      <trkpt lat="45.57438" lon="6.79879">
        <ele>2089.21</ele>
        <time>2015-08-03T08:01:23Z</time>
      </trkpt>
      <trkpt lat="45.57436" lon="6.79877">
        <ele>2088.72</ele>
        <time>2015-08-03T08:01:24Z</time>
      </trkpt>
      <trkpt lat="45.57414" lon="6.79861">
        <ele>2087.99</ele>
        <time>2015-08-03T08:01:35Z</time>
      </trkpt>
      <trkpt lat="45.57395" lon="6.79855">
        <ele>2089.67</ele>
        <time>2015-08-03T08:01:46Z</time>
      </trkpt>
      <trkpt lat="45.57388" lon="6.79852">
        <ele>2090.45</ele>
        <time>2015-08-03T08:01:50Z</time>
      </trkpt>
      <trkpt lat="45.57378" lon="6.79832">
        <ele>2091.58</ele>
        <time>2015-08-03T08:01:58Z</time>
      </trkpt>
      <trkpt lat="45.57367" lon="6.79816">
        <ele>2093.22</ele>
        <time>2015-08-03T08:02:07Z</time>
      </trkpt>
      <trkpt lat="45.57346" lon="6.79816">
        <ele>2094.82</ele>
        <time>2015-08-03T08:02:17Z</time>
      </trkpt>
      <trkpt lat="45.57327" lon="6.79837">
        <ele>2095.69</ele>
        <time>2015-08-03T08:02:26Z</time>
      </trkpt>
      <trkpt lat="45.57306" lon="6.79836">
        <ele>2096.02</ele>
        <time>2015-08-03T08:02:34Z</time>
      </trkpt>
      <trkpt lat="45.57281" lon="6.7982">
        <ele>2097.55</ele>
        <time>2015-08-03T08:02:46Z</time>
      </trkpt>
      <trkpt lat="45.57255" lon="6.79812">
        <ele>2098.9</ele>
        <time>2015-08-03T08:02:57Z</time>
      </trkpt>
      <trkpt lat="45.57232" lon="6.79805">
        <ele>2101.04</ele>
        <time>2015-08-03T08:03:09Z</time>
      </trkpt>
      <trkpt lat="45.57205" lon="6.79794">
        <ele>2101.67</ele>
        <time>2015-08-03T08:03:16Z</time>
      </trkpt>
      <trkpt lat="45.57178" lon="6.79783">
        <ele>2101.28</ele>
        <time>2015-08-03T08:03:24Z</time>
      </trkpt>
      <trkpt lat="45.57163" lon="6.79777">
        <ele>2101.23</ele>
        <time>2015-08-03T08:03:28Z</time>
      </trkpt>
      <trkpt lat="45.57149" lon="6.79775">
        <ele>2101.1</ele>
        <time>2015-08-03T08:03:31Z</time>
      </trkpt>
      <trkpt lat="45.57125" lon="6.79779">
        <ele>2100.73</ele>
        <time>2015-08-03T08:03:36Z</time>
      </trkpt>
      <trkpt lat="45.57096" lon="6.79793">
        <ele>2100.18</ele>
        <time>2015-08-03T08:03:45Z</time>
      </trkpt>
      <trkpt lat="45.57073" lon="6.79792">
        <ele>2101.04</ele>
        <time>2015-08-03T08:03:54Z</time>
      </trkpt>
      <trkpt lat="45.57054" lon="6.79788">
        <ele>2101.92</ele>
        <time>2015-08-03T08:04:02Z</time>
      </trkpt>
      <trkpt lat="45.57024" lon="6.79773">
        <ele>2104.3</ele>
        <time>2015-08-03T08:04:15Z</time>
      </trkpt>
      <trkpt lat="45.57007" lon="6.79758">
        <ele>2105.31</ele>
        <time>2015-08-03T08:04:24Z</time>
      </trkpt>
      <trkpt lat="45.56992" lon="6.79734">
        <ele>2106.8</ele>
        <time>2015-08-03T08:04:34Z</time>
      </trkpt>
      <trkpt lat="45.56977" lon="6.79719">
        <ele>2108.04</ele>
        <time>2015-08-03T08:04:43Z</time>
      </trkpt>
      <trkpt lat="45.56954" lon="6.79708">
        <ele>2109.32</ele>
        <time>2015-08-03T08:04:54Z</time>
      </trkpt>
      <trkpt lat="45.56933" lon="6.79705">
        <ele>2109.91</ele>
        <time>2015-08-03T08:05:04Z</time>
      </trkpt>
      <trkpt lat="45.56913" lon="6.797">
        <ele>2110.8</ele>
        <time>2015-08-03T08:05:13Z</time>
      </trkpt>
      <trkpt lat="45.56891" lon="6.79693">
        <ele>2112.26</ele>
        <time>2015-08-03T08:05:24Z</time>
      </trkpt>
      <trkpt lat="45.56871" lon="6.79681">
        <ele>2112.88</ele>
        <time>2015-08-03T08:05:33Z</time>
      </trkpt>
      <trkpt lat="45.56851" lon="6.79653">
        <ele>2113.63</ele>
        <time>2015-08-03T08:05:44Z</time>
      </trkpt>
      <trkpt lat="45.56834" lon="6.79624">
        <ele>2114.96</ele>
        <time>2015-08-03T08:05:55Z</time>
      </trkpt>
      <trkpt lat="45.56812" lon="6.79617">
        <ele>2116.44</ele>
        <time>2015-08-03T08:06:06Z</time>
      </trkpt>
      <trkpt lat="45.56781" lon="6.79612">
        <ele>2117.85</ele>
        <time>2015-08-03T08:06:19Z</time>
      </trkpt>
      <trkpt lat="45.56751" lon="6.7962">
        <ele>2119.65</ele>
        <time>2015-08-03T08:06:32Z</time>
      </trkpt>
      <trkpt lat="45.56724" lon="6.79641">
        <ele>2121.87</ele>
        <time>2015-08-03T08:06:45Z</time>
      </trkpt>
      <trkpt lat="45.56697" lon="6.79662">
        <ele>2122.46</ele>
        <time>2015-08-03T08:06:55Z</time>
      </trkpt>
      <trkpt lat="45.56669" lon="6.79692">
        <ele>2122.99</ele>
        <time>2015-08-03T08:07:06Z</time>
      </trkpt>
      <trkpt lat="45.56643" lon="6.79699">
        <ele>2123.43</ele>
        <time>2015-08-03T08:07:16Z</time>
      </trkpt>
      <trkpt lat="45.56612" lon="6.79676">
        <ele>2122.9</ele>
        <time>2015-08-03T08:07:22Z</time>
      </trkpt>
      <trkpt lat="45.56576" lon="6.79662">
        <ele>2121.39</ele>
        <time>2015-08-03T08:07:26Z</time>
      </trkpt>
      <trkpt lat="45.56534" lon="6.79633">
        <ele>2117.72</ele>
        <time>2015-08-03T08:07:31Z</time>
      </trkpt>
      <trkpt lat="45.56526" lon="6.79626">
        <ele>2116.15</ele>
        <time>2015-08-03T08:07:32Z</time>
      </trkpt>
      <trkpt lat="45.565" lon="6.79606">
        <ele>2114.19</ele>
        <time>2015-08-03T08:07:35Z</time>
      </trkpt>
      <trkpt lat="45.56453" lon="6.79555">
        <ele>2109.89</ele>
        <time>2015-08-03T08:07:41Z</time>
      </trkpt>
      <trkpt lat="45.56447" lon="6.79546">
        <ele>2108.93</ele>
        <time>2015-08-03T08:07:42Z</time>
      </trkpt>
      <trkpt lat="45.56424" lon="6.79502">
        <ele>2105.19</ele>
        <time>2015-08-03T08:07:46Z</time>
      </trkpt>
      <trkpt lat="45.56394" lon="6.79468">
        <ele>2101.16</ele>
        <time>2015-08-03T08:07:50Z</time>
      </trkpt>
      <trkpt lat="45.56362" lon="6.79466">
        <ele>2097.61</ele>
        <time>2015-08-03T08:07:54Z</time>
      </trkpt>
      <trkpt lat="45.56344" lon="6.79459">
        <ele>2096.09</ele>
        <time>2015-08-03T08:07:57Z</time>
      </trkpt>
      <trkpt lat="45.56314" lon="6.79435">
        <ele>2095.38</ele>
        <time>2015-08-03T08:08:05Z</time>
      </trkpt>
      <trkpt lat="45.56287" lon="6.79424">
        <ele>2096.3</ele>
        <time>2015-08-03T08:08:14Z</time>
      </trkpt>
      <trkpt lat="45.56285" lon="6.79424">
        <ele>2096.5</ele>
        <time>2015-08-03T08:08:15Z</time>
      </trkpt>
      <trkpt lat="45.56278" lon="6.79428">
        <ele>2097.47</ele>
        <time>2015-08-03T08:08:19Z</time>
      </trkpt>
      <trkpt lat="45.56271" lon="6.79436">
        <ele>2099.85</ele>
        <time>2015-08-03T08:08:29Z</time>
      </trkpt>
      <trkpt lat="45.56271" lon="6.79436">
        <ele>2100.35</ele>
        <time>2015-08-03T08:08:48Z</time>
      </trkpt>
      <trkpt lat="45.56273" lon="6.79436">
        <ele>2100.62</ele>
        <time>2015-08-03T08:09:02Z</time>
      </trkpt>
      <trkpt lat="45.56272" lon="6.79439">
        <ele>2100.55</ele>
        <time>2015-08-03T08:09:31Z</time>
      </trkpt>
      <trkpt lat="45.56272" lon="6.79438">
        <ele>2100.12</ele>
        <time>2015-08-03T08:09:57Z</time>
      </trkpt>
      <trkpt lat="45.5627" lon="6.79438">
        <ele>2100.02</ele>
        <time>2015-08-03T08:10:06Z</time>
      </trkpt>
      <trkpt lat="45.56252" lon="6.79423">
        <ele>2099.76</ele>
        <time>2015-08-03T08:10:13Z</time>
      </trkpt>
      <trkpt lat="45.56225" lon="6.79378">
        <ele>2097.39</ele>
        <time>2015-08-03T08:10:18Z</time>
      </trkpt>
      <trkpt lat="45.56214" lon="6.79346">
        <ele>2094.46</ele>
        <time>2015-08-03T08:10:21Z</time>
      </trkpt>
      <trkpt lat="45.56208" lon="6.79312">
        <ele>2092.11</ele>
        <time>2015-08-03T08:10:24Z</time>
      </trkpt>
      <trkpt lat="45.56177" lon="6.79242">
        <ele>2087.94</ele>
        <time>2015-08-03T08:10:30Z</time>
      </trkpt>
      <trkpt lat="45.56149" lon="6.79192">
        <ele>2083.63</ele>
        <time>2015-08-03T08:10:34Z</time>
      </trkpt>
      <trkpt lat="45.56131" lon="6.79155">
        <ele>2080.17</ele>
        <time>2015-08-03T08:10:37Z</time>
      </trkpt>
      <trkpt lat="45.56126" lon="6.79145">
        <ele>2078.92</ele>
        <time>2015-08-03T08:10:38Z</time>
      </trkpt>
      <trkpt lat="45.56105" lon="6.7911">
        <ele>2073.99</ele>
        <time>2015-08-03T08:10:42Z</time>
      </trkpt>
      <trkpt lat="45.56087" lon="6.79097">
        <ele>2071.63</ele>
        <time>2015-08-03T08:10:44Z</time>
      </trkpt>
      <trkpt lat="45.56045" lon="6.79071">
        <ele>2066.16</ele>
        <time>2015-08-03T08:10:48Z</time>
      </trkpt>
      <trkpt lat="45.56032" lon="6.79049">
        <ele>2061.31</ele>
        <time>2015-08-03T08:10:51Z</time>
      </trkpt>
      <trkpt lat="45.56036" lon="6.79033">
        <ele>2058.08</ele>
        <time>2015-08-03T08:10:53Z</time>
      </trkpt>
      <trkpt lat="45.56048" lon="6.79022">
        <ele>2054.99</ele>
        <time>2015-08-03T08:10:55Z</time>
      </trkpt>
      <trkpt lat="45.56068" lon="6.79017">
        <ele>2052.08</ele>
        <time>2015-08-03T08:10:57Z</time>
      </trkpt>
      <trkpt lat="45.56101" lon="6.7901">
        <ele>2046.54</ele>
        <time>2015-08-03T08:11:00Z</time>
      </trkpt>
      <trkpt lat="45.56122" lon="6.79005">
        <ele>2043.45</ele>
        <time>2015-08-03T08:11:02Z</time>
      </trkpt>
      <trkpt lat="45.56157" lon="6.78998">
        <ele>2038.99</ele>
        <time>2015-08-03T08:11:05Z</time>
      </trkpt>
      <trkpt lat="45.56196" lon="6.78992">
        <ele>2034.77</ele>
        <time>2015-08-03T08:11:08Z</time>
      </trkpt>
      <trkpt lat="45.56208" lon="6.78992">
        <ele>2033.4</ele>
        <time>2015-08-03T08:11:09Z</time>
      </trkpt>
      <trkpt lat="45.56238" lon="6.78999">
        <ele>2028.34</ele>
        <time>2015-08-03T08:11:12Z</time>
      </trkpt>
      <trkpt lat="45.56256" lon="6.79009">
        <ele>2025.16</ele>
        <time>2015-08-03T08:11:14Z</time>
      </trkpt>
      <trkpt lat="45.56276" lon="6.7901">
        <ele>2021.25</ele>
        <time>2015-08-03T08:11:17Z</time>
      </trkpt>
      <trkpt lat="45.56279" lon="6.78987">
        <ele>2017.8</ele>
        <time>2015-08-03T08:11:20Z</time>
      </trkpt>
      <trkpt lat="45.56272" lon="6.7897">
        <ele>2015.81</ele>
        <time>2015-08-03T08:11:22Z</time>
      </trkpt>
      <trkpt lat="45.56251" lon="6.78933">
        <ele>2011.25</ele>
        <time>2015-08-03T08:11:26Z</time>
      </trkpt>
      <trkpt lat="45.56237" lon="6.78917">
        <ele>2009.64</ele>
        <time>2015-08-03T08:11:28Z</time>
      </trkpt>
      <trkpt lat="45.56192" lon="6.78889">
        <ele>2005.8</ele>
        <time>2015-08-03T08:11:33Z</time>
      </trkpt>
      <trkpt lat="45.5615" lon="6.78875">
        <ele>2002.7</ele>
        <time>2015-08-03T08:11:37Z</time>
      </trkpt>
      <trkpt lat="45.56102" lon="6.78842">
        <ele>1998.64</ele>
        <time>2015-08-03T08:11:42Z</time>
      </trkpt>
      <trkpt lat="45.56095" lon="6.78832">
        <ele>1997.81</ele>
        <time>2015-08-03T08:11:43Z</time>
      </trkpt>
      <trkpt lat="45.56076" lon="6.78797">
        <ele>1994.98</ele>
        <time>2015-08-03T08:11:46Z</time>
      </trkpt>
      <trkpt lat="45.56057" lon="6.78745">
        <ele>1990.86</ele>
        <time>2015-08-03T08:11:50Z</time>
      </trkpt>
      <trkpt lat="45.56044" lon="6.78703">
        <ele>1988.63</ele>
        <time>2015-08-03T08:11:53Z</time>
      </trkpt>
      <trkpt lat="45.56029" lon="6.78625">
        <ele>1984.06</ele>
        <time>2015-08-03T08:11:58Z</time>
      </trkpt>
      <trkpt lat="45.56022" lon="6.78562">
        <ele>1980.64</ele>
        <time>2015-08-03T08:12:02Z</time>
      </trkpt>
      <trkpt lat="45.56012" lon="6.78488">
        <ele>1976.69</ele>
        <time>2015-08-03T08:12:07Z</time>
      </trkpt>
      <trkpt lat="45.55986" lon="6.78438">
        <ele>1972.71</ele>
        <time>2015-08-03T08:12:12Z</time>
      </trkpt>
      <trkpt lat="45.55968" lon="6.78404">
        <ele>1969.41</ele>
        <time>2015-08-03T08:12:15Z</time>
      </trkpt>
      <trkpt lat="45.55939" lon="6.7835">
        <ele>1966.28</ele>
        <time>2015-08-03T08:12:19Z</time>
      </trkpt>
      <trkpt lat="45.55916" lon="6.78307">
        <ele>1962.92</ele>
        <time>2015-08-03T08:12:22Z</time>
      </trkpt>
      <trkpt lat="45.55894" lon="6.78266">
        <ele>1959.84</ele>
        <time>2015-08-03T08:12:25Z</time>
      </trkpt>
      <trkpt lat="45.55862" lon="6.78211">
        <ele>1955.99</ele>
        <time>2015-08-03T08:12:29Z</time>
      </trkpt>
      <trkpt lat="45.5584" lon="6.78168">
        <ele>1952.97</ele>
        <time>2015-08-03T08:12:32Z</time>
      </trkpt>
      <trkpt lat="45.55811" lon="6.78107">
        <ele>1949.47</ele>
        <time>2015-08-03T08:12:36Z</time>
      </trkpt>
      <trkpt lat="45.55789" lon="6.78063">
        <ele>1945.68</ele>
        <time>2015-08-03T08:12:39Z</time>
      </trkpt>
      <trkpt lat="45.55771" lon="6.78039">
        <ele>1943.8</ele>
        <time>2015-08-03T08:12:41Z</time>
      </trkpt>
      <trkpt lat="45.55742" lon="6.7798">
        <ele>1939.82</ele>
        <time>2015-08-03T08:12:46Z</time>
      </trkpt>
      <trkpt lat="45.55739" lon="6.77971">
        <ele>1939.05</ele>
        <time>2015-08-03T08:12:47Z</time>
      </trkpt>
      <trkpt lat="45.55721" lon="6.77936">
        <ele>1936.09</ele>
        <time>2015-08-03T08:12:54Z</time>
      </trkpt>
      <trkpt lat="45.55722" lon="6.77935">
        <ele>1934.88</ele>
        <time>2015-08-03T08:13:11Z</time>
      </trkpt>
      <trkpt lat="45.5572" lon="6.77935">
        <ele>1934.18</ele>
        <time>2015-08-03T08:13:24Z</time>
      </trkpt>
      <trkpt lat="45.55718" lon="6.77934">
        <ele>1934.17</ele>
        <time>2015-08-03T08:13:25Z</time>
      </trkpt>
      <trkpt lat="45.55715" lon="6.77932">
        <ele>1934.04</ele>
        <time>2015-08-03T08:13:26Z</time>
      </trkpt>
      <trkpt lat="45.55692" lon="6.7791">
        <ele>1933.59</ele>
        <time>2015-08-03T08:13:32Z</time>
      </trkpt>
      <trkpt lat="45.55685" lon="6.77907">
        <ele>1933.45</ele>
        <time>2015-08-03T08:13:33Z</time>
      </trkpt>
      <trkpt lat="45.5567" lon="6.77902">
        <ele>1932.96</ele>
        <time>2015-08-03T08:13:35Z</time>
      </trkpt>
      <trkpt lat="45.55654" lon="6.77901">
        <ele>1932.29</ele>
        <time>2015-08-03T08:13:37Z</time>
      </trkpt>
      <trkpt lat="45.55636" lon="6.77903">
        <ele>1931.36</ele>
        <time>2015-08-03T08:13:39Z</time>
      </trkpt>
      <trkpt lat="45.55628" lon="6.77901">
        <ele>1930.91</ele>
        <time>2015-08-03T08:13:40Z</time>
      </trkpt>
      <trkpt lat="45.55622" lon="6.77896">
        <ele>1930.39</ele>
        <time>2015-08-03T08:13:41Z</time>
      </trkpt>
      <trkpt lat="45.55614" lon="6.77876">
        <ele>1929.19</ele>
        <time>2015-08-03T08:13:43Z</time>
      </trkpt>
      <trkpt lat="45.55613" lon="6.77865">
        <ele>1928.39</ele>
        <time>2015-08-03T08:13:44Z</time>
      </trkpt>
      <trkpt lat="45.55612" lon="6.77854">
        <ele>1927.46</ele>
        <time>2015-08-03T08:13:45Z</time>
      </trkpt>
      <trkpt lat="45.55611" lon="6.77845">
        <ele>1926.5</ele>
        <time>2015-08-03T08:13:46Z</time>
      </trkpt>
      <trkpt lat="45.55609" lon="6.77835">
        <ele>1925.54</ele>
        <time>2015-08-03T08:13:47Z</time>
      </trkpt>
      <trkpt lat="45.55606" lon="6.77827">
        <ele>1924.67</ele>
        <time>2015-08-03T08:13:48Z</time>
      </trkpt>
      <trkpt lat="45.55601" lon="6.77821">
        <ele>1923.86</ele>
        <time>2015-08-03T08:13:49Z</time>
      </trkpt>
      <trkpt lat="45.55594" lon="6.77817">
        <ele>1923.04</ele>
        <time>2015-08-03T08:13:50Z</time>
      </trkpt>
      <trkpt lat="45.55586" lon="6.77815">
        <ele>1922.26</ele>
        <time>2015-08-03T08:13:51Z</time>
      </trkpt>
      <trkpt lat="45.55578" lon="6.77814">
        <ele>1921.48</ele>
        <time>2015-08-03T08:13:52Z</time>
      </trkpt>
      <trkpt lat="45.55569" lon="6.77814">
        <ele>1920.64</ele>
        <time>2015-08-03T08:13:53Z</time>
      </trkpt>
      <trkpt lat="45.5556" lon="6.77815">
        <ele>1919.07</ele>
        <time>2015-08-03T08:13:54Z</time>
      </trkpt>
      <trkpt lat="45.55551" lon="6.77816">
        <ele>1918.33</ele>
        <time>2015-08-03T08:13:55Z</time>
      </trkpt>
      <trkpt lat="45.55516" lon="6.77821">
        <ele>1915.57</ele>
        <time>2015-08-03T08:13:59Z</time>
      </trkpt>
      <trkpt lat="45.55509" lon="6.77819">
        <ele>1914.94</ele>
        <time>2015-08-03T08:14:00Z</time>
      </trkpt>
      <trkpt lat="45.55505" lon="6.77813">
        <ele>1914.21</ele>
        <time>2015-08-03T08:14:01Z</time>
      </trkpt>
      <trkpt lat="45.55502" lon="6.77804">
        <ele>1913.41</ele>
        <time>2015-08-03T08:14:02Z</time>
      </trkpt>
      <trkpt lat="45.55501" lon="6.77794">
        <ele>1912.57</ele>
        <time>2015-08-03T08:14:03Z</time>
      </trkpt>
      <trkpt lat="45.55502" lon="6.77784">
        <ele>1911.68</ele>
        <time>2015-08-03T08:14:04Z</time>
      </trkpt>
      <trkpt lat="45.55506" lon="6.77774">
        <ele>1910.71</ele>
        <time>2015-08-03T08:14:05Z</time>
      </trkpt>
      <trkpt lat="45.55511" lon="6.77765">
        <ele>1909.74</ele>
        <time>2015-08-03T08:14:06Z</time>
      </trkpt>
      <trkpt lat="45.55527" lon="6.77734">
        <ele>1907.03</ele>
        <time>2015-08-03T08:14:09Z</time>
      </trkpt>
      <trkpt lat="45.55532" lon="6.77721">
        <ele>1906.23</ele>
        <time>2015-08-03T08:14:10Z</time>
      </trkpt>
      <trkpt lat="45.55537" lon="6.77708">
        <ele>1905.51</ele>
        <time>2015-08-03T08:14:11Z</time>
      </trkpt>
      <trkpt lat="45.55549" lon="6.77665">
        <ele>1903.38</ele>
        <time>2015-08-03T08:14:14Z</time>
      </trkpt>
      <trkpt lat="45.55551" lon="6.77651">
        <ele>1902.56</ele>
        <time>2015-08-03T08:14:15Z</time>
      </trkpt>
      <trkpt lat="45.55551" lon="6.77638">
        <ele>1901.74</ele>
        <time>2015-08-03T08:14:16Z</time>
      </trkpt>
      <trkpt lat="45.55551" lon="6.77626">
        <ele>1900.94</ele>
        <time>2015-08-03T08:14:17Z</time>
      </trkpt>
      <trkpt lat="45.55549" lon="6.77615">
        <ele>1900.13</ele>
        <time>2015-08-03T08:14:18Z</time>
      </trkpt>
      <trkpt lat="45.55545" lon="6.77606">
        <ele>1899.27</ele>
        <time>2015-08-03T08:14:19Z</time>
      </trkpt>
      <trkpt lat="45.55539" lon="6.77598">
        <ele>1898.33</ele>
        <time>2015-08-03T08:14:20Z</time>
      </trkpt>
      <trkpt lat="45.55532" lon="6.77592">
        <ele>1897.4</ele>
        <time>2015-08-03T08:14:21Z</time>
      </trkpt>
      <trkpt lat="45.55524" lon="6.77587">
        <ele>1895.64</ele>
        <time>2015-08-03T08:14:22Z</time>
      </trkpt>
      <trkpt lat="45.55515" lon="6.77582">
        <ele>1894.76</ele>
        <time>2015-08-03T08:14:23Z</time>
      </trkpt>
      <trkpt lat="45.55505" lon="6.77579">
        <ele>1893.93</ele>
        <time>2015-08-03T08:14:24Z</time>
      </trkpt>
      <trkpt lat="45.55496" lon="6.77578">
        <ele>1893.13</ele>
        <time>2015-08-03T08:14:25Z</time>
      </trkpt>
      <trkpt lat="45.55486" lon="6.77576">
        <ele>1892.38</ele>
        <time>2015-08-03T08:14:26Z</time>
      </trkpt>
      <trkpt lat="45.55447" lon="6.77568">
        <ele>1889.33</ele>
        <time>2015-08-03T08:14:30Z</time>
      </trkpt>
      <trkpt lat="45.55439" lon="6.77562">
        <ele>1888.42</ele>
        <time>2015-08-03T08:14:31Z</time>
      </trkpt>
      <trkpt lat="45.55431" lon="6.77555">
        <ele>1887.56</ele>
        <time>2015-08-03T08:14:32Z</time>
      </trkpt>
      <trkpt lat="45.55424" lon="6.77547">
        <ele>1886.72</ele>
        <time>2015-08-03T08:14:33Z</time>
      </trkpt>
      <trkpt lat="45.55418" lon="6.77538">
        <ele>1885.88</ele>
        <time>2015-08-03T08:14:34Z</time>
      </trkpt>
      <trkpt lat="45.55392" lon="6.77496">
        <ele>1882.46</ele>
        <time>2015-08-03T08:14:38Z</time>
      </trkpt>
      <trkpt lat="45.55386" lon="6.77487">
        <ele>1881.56</ele>
        <time>2015-08-03T08:14:39Z</time>
      </trkpt>
      <trkpt lat="45.55379" lon="6.77479">
        <ele>1880.77</ele>
        <time>2015-08-03T08:14:40Z</time>
      </trkpt>
      <trkpt lat="45.55371" lon="6.77473">
        <ele>1880.03</ele>
        <time>2015-08-03T08:14:41Z</time>
      </trkpt>
      <trkpt lat="45.55362" lon="6.77468">
        <ele>1879.25</ele>
        <time>2015-08-03T08:14:42Z</time>
      </trkpt>
      <trkpt lat="45.55354" lon="6.77464">
        <ele>1878.49</ele>
        <time>2015-08-03T08:14:43Z</time>
      </trkpt>
      <trkpt lat="45.55346" lon="6.77463">
        <ele>1877.77</ele>
        <time>2015-08-03T08:14:44Z</time>
      </trkpt>
      <trkpt lat="45.55337" lon="6.77464">
        <ele>1877.05</ele>
        <time>2015-08-03T08:14:45Z</time>
      </trkpt>
      <trkpt lat="45.55328" lon="6.77467">
        <ele>1876.31</ele>
        <time>2015-08-03T08:14:46Z</time>
      </trkpt>
      <trkpt lat="45.5532" lon="6.7747">
        <ele>1875.57</ele>
        <time>2015-08-03T08:14:47Z</time>
      </trkpt>
      <trkpt lat="45.55312" lon="6.77471">
        <ele>1874.06</ele>
        <time>2015-08-03T08:14:48Z</time>
      </trkpt>
      <trkpt lat="45.55306" lon="6.7747">
        <ele>1873.28</ele>
        <time>2015-08-03T08:14:49Z</time>
      </trkpt>
      <trkpt lat="45.55299" lon="6.77466">
        <ele>1872.48</ele>
        <time>2015-08-03T08:14:50Z</time>
      </trkpt>
      <trkpt lat="45.55292" lon="6.77459">
        <ele>1871.61</ele>
        <time>2015-08-03T08:14:51Z</time>
      </trkpt>
      <trkpt lat="45.55287" lon="6.7745">
        <ele>1870.66</ele>
        <time>2015-08-03T08:14:52Z</time>
      </trkpt>
      <trkpt lat="45.55282" lon="6.77441">
        <ele>1869.69</ele>
        <time>2015-08-03T08:14:53Z</time>
      </trkpt>
      <trkpt lat="45.55278" lon="6.77431">
        <ele>1868.76</ele>
        <time>2015-08-03T08:14:54Z</time>
      </trkpt>
      <trkpt lat="45.55274" lon="6.77421">
        <ele>1867.91</ele>
        <time>2015-08-03T08:14:55Z</time>
      </trkpt>
      <trkpt lat="45.55264" lon="6.77395">
        <ele>1865.77</ele>
        <time>2015-08-03T08:14:58Z</time>
      </trkpt>
      <trkpt lat="45.55254" lon="6.77375">
        <ele>1862.93</ele>
        <time>2015-08-03T08:15:04Z</time>
      </trkpt>
      <trkpt lat="45.55254" lon="6.77374">
        <ele>1860.83</ele>
        <time>2015-08-03T08:15:19Z</time>
      </trkpt>
      <trkpt lat="45.55252" lon="6.77373">
        <ele>1860.87</ele>
        <time>2015-08-03T08:15:37Z</time>
      </trkpt>
      <trkpt lat="45.55252" lon="6.77369">
        <ele>1860.46</ele>
        <time>2015-08-03T08:15:45Z</time>
      </trkpt>
      <trkpt lat="45.55251" lon="6.77366">
        <ele>1860.36</ele>
        <time>2015-08-03T08:15:46Z</time>
      </trkpt>
      <trkpt lat="45.5525" lon="6.77362">
        <ele>1860.22</ele>
        <time>2015-08-03T08:15:47Z</time>
      </trkpt>
      <trkpt lat="45.55231" lon="6.77307">
        <ele>1858.13</ele>
        <time>2015-08-03T08:15:55Z</time>
      </trkpt>
      <trkpt lat="45.55211" lon="6.77256">
        <ele>1855.02</ele>
        <time>2015-08-03T08:16:00Z</time>
      </trkpt>
      <trkpt lat="45.55206" lon="6.77245">
        <ele>1854.3</ele>
        <time>2015-08-03T08:16:01Z</time>
      </trkpt>
      <trkpt lat="45.55194" lon="6.77227">
        <ele>1852.54</ele>
        <time>2015-08-03T08:16:03Z</time>
      </trkpt>
      <trkpt lat="45.55178" lon="6.77211">
        <ele>1849.64</ele>
        <time>2015-08-03T08:16:05Z</time>
      </trkpt>
      <trkpt lat="45.5515" lon="6.77171">
        <ele>1845.16</ele>
        <time>2015-08-03T08:16:09Z</time>
      </trkpt>
      <trkpt lat="45.55127" lon="6.77126">
        <ele>1840.57</ele>
        <time>2015-08-03T08:16:13Z</time>
      </trkpt>
      <trkpt lat="45.55105" lon="6.77096">
        <ele>1836.84</ele>
        <time>2015-08-03T08:16:16Z</time>
      </trkpt>
      <trkpt lat="45.5508" lon="6.77072">
        <ele>1833.64</ele>
        <time>2015-08-03T08:16:19Z</time>
      </trkpt>
      <trkpt lat="45.55063" lon="6.7706">
        <ele>1831.61</ele>
        <time>2015-08-03T08:16:21Z</time>
      </trkpt>
      <trkpt lat="45.55026" lon="6.77051">
        <ele>1827.03</ele>
        <time>2015-08-03T08:16:25Z</time>
      </trkpt>
      <trkpt lat="45.55016" lon="6.77053">
        <ele>1825.89</ele>
        <time>2015-08-03T08:16:26Z</time>
      </trkpt>
      <trkpt lat="45.54977" lon="6.7707">
        <ele>1821.35</ele>
        <time>2015-08-03T08:16:30Z</time>
      </trkpt>
      <trkpt lat="45.54959" lon="6.77081">
        <ele>1817.86</ele>
        <time>2015-08-03T08:16:32Z</time>
      </trkpt>
      <trkpt lat="45.54934" lon="6.77104">
        <ele>1814.81</ele>
        <time>2015-08-03T08:16:35Z</time>
      </trkpt>
      <trkpt lat="45.5491" lon="6.77127">
        <ele>1811.44</ele>
        <time>2015-08-03T08:16:38Z</time>
      </trkpt>
      <trkpt lat="45.54901" lon="6.77134">
        <ele>1810.4</ele>
        <time>2015-08-03T08:16:39Z</time>
      </trkpt>
      <trkpt lat="45.5486" lon="6.77147">
        <ele>1806.32</ele>
        <time>2015-08-03T08:16:43Z</time>
      </trkpt>
      <trkpt lat="45.5483" lon="6.77142">
        <ele>1803.07</ele>
        <time>2015-08-03T08:16:46Z</time>
      </trkpt>
      <trkpt lat="45.54821" lon="6.77137">
        <ele>1801.98</ele>
        <time>2015-08-03T08:16:47Z</time>
      </trkpt>
      <trkpt lat="45.54795" lon="6.77118">
        <ele>1798.44</ele>
        <time>2015-08-03T08:16:50Z</time>
      </trkpt>
      <trkpt lat="45.54778" lon="6.77095">
        <ele>1793.03</ele>
        <time>2015-08-03T08:16:54Z</time>
      </trkpt>
      <trkpt lat="45.54788" lon="6.77081">
        <ele>1790.97</ele>
        <time>2015-08-03T08:16:58Z</time>
      </trkpt>
      <trkpt lat="45.54811" lon="6.77064">
        <ele>1788.88</ele>
        <time>2015-08-03T08:17:01Z</time>
      </trkpt>
      <trkpt lat="45.54836" lon="6.77037">
        <ele>1783.92</ele>
        <time>2015-08-03T08:17:04Z</time>
      </trkpt>
      <trkpt lat="45.54851" lon="6.77011">
        <ele>1777.76</ele>
        <time>2015-08-03T08:17:07Z</time>
      </trkpt>
      <trkpt lat="45.54855" lon="6.76998">
        <ele>1774.63</ele>
        <time>2015-08-03T08:17:09Z</time>
      </trkpt>
      <trkpt lat="45.54853" lon="6.76992">
        <ele>1769.67</ele>
        <time>2015-08-03T08:17:14Z</time>
      </trkpt>
      <trkpt lat="45.54851" lon="6.76989">
        <ele>1767.14</ele>
        <time>2015-08-03T08:17:26Z</time>
      </trkpt>
      <trkpt lat="45.54844" lon="6.76986">
        <ele>1767.02</ele>
        <time>2015-08-03T08:17:29Z</time>
      </trkpt>
      <trkpt lat="45.54795" lon="6.7699">
        <ele>1764.59</ele>
        <time>2015-08-03T08:17:38Z</time>
      </trkpt>
      <trkpt lat="45.54757" lon="6.76981">
        <ele>1762.52</ele>
        <time>2015-08-03T08:17:43Z</time>
      </trkpt>
      <trkpt lat="45.54724" lon="6.76961">
        <ele>1758.83</ele>
        <time>2015-08-03T08:17:47Z</time>
      </trkpt>
      <trkpt lat="45.54706" lon="6.76949">
        <ele>1757.14</ele>
        <time>2015-08-03T08:17:49Z</time>
      </trkpt>
      <trkpt lat="45.54678" lon="6.76935">
        <ele>1754.06</ele>
        <time>2015-08-03T08:17:52Z</time>
      </trkpt>
      <trkpt lat="45.54651" lon="6.7692">
        <ele>1749.71</ele>
        <time>2015-08-03T08:17:56Z</time>
      </trkpt>
      <trkpt lat="45.54643" lon="6.76916">
        <ele>1747.91</ele>
        <time>2015-08-03T08:17:58Z</time>
      </trkpt>
      <trkpt lat="45.54625" lon="6.76908">
        <ele>1745.76</ele>
        <time>2015-08-03T08:18:01Z</time>
      </trkpt>
      <trkpt lat="45.54604" lon="6.76896">
        <ele>1741.12</ele>
        <time>2015-08-03T08:18:04Z</time>
      </trkpt>
      <trkpt lat="45.54597" lon="6.76891">
        <ele>1741.12</ele>
        <time>2015-08-03T08:18:05Z</time>
      </trkpt>
      <trkpt lat="45.54576" lon="6.76883">
        <ele>1736.39</ele>
        <time>2015-08-03T08:18:08Z</time>
      </trkpt>
      <trkpt lat="45.5457" lon="6.76882">
        <ele>1734.64</ele>
        <time>2015-08-03T08:18:09Z</time>
      </trkpt>
      <trkpt lat="45.54564" lon="6.76881">
        <ele>1731.17</ele>
        <time>2015-08-03T08:18:10Z</time>
      </trkpt>
      <trkpt lat="45.54555" lon="6.76881">
        <ele>1727.92</ele>
        <time>2015-08-03T08:18:12Z</time>
      </trkpt>
      <trkpt lat="45.5455" lon="6.76879">
        <ele>1726.54</ele>
        <time>2015-08-03T08:18:13Z</time>
      </trkpt>
      <trkpt lat="45.54534" lon="6.76872">
        <ele>1723.21</ele>
        <time>2015-08-03T08:18:16Z</time>
      </trkpt>
      <trkpt lat="45.54527" lon="6.76867">
        <ele>1722.08</ele>
        <time>2015-08-03T08:18:17Z</time>
      </trkpt>
      <trkpt lat="45.5452" lon="6.76861">
        <ele>1720.91</ele>
        <time>2015-08-03T08:18:18Z</time>
      </trkpt>
      <trkpt lat="45.54502" lon="6.76847">
        <ele>1717.41</ele>
        <time>2015-08-03T08:18:21Z</time>
      </trkpt>
      <trkpt lat="45.54478" lon="6.76832">
        <ele>1714.16</ele>
        <time>2015-08-03T08:18:24Z</time>
      </trkpt>
      <trkpt lat="45.5447" lon="6.7683">
        <ele>1713.05</ele>
        <time>2015-08-03T08:18:25Z</time>
      </trkpt>
      <trkpt lat="45.54462" lon="6.76828">
        <ele>1711.98</ele>
        <time>2015-08-03T08:18:26Z</time>
      </trkpt>
      <trkpt lat="45.54447" lon="6.76828">
        <ele>1709.83</ele>
        <time>2015-08-03T08:18:28Z</time>
      </trkpt>
      <trkpt lat="45.54439" lon="6.76831">
        <ele>1708.8</ele>
        <time>2015-08-03T08:18:29Z</time>
      </trkpt>
      <trkpt lat="45.54431" lon="6.76836">
        <ele>1707.83</ele>
        <time>2015-08-03T08:18:30Z</time>
      </trkpt>
      <trkpt lat="45.54424" lon="6.76842">
        <ele>1706.91</ele>
        <time>2015-08-03T08:18:31Z</time>
      </trkpt>
      <trkpt lat="45.54416" lon="6.76847">
        <ele>1706.06</ele>
        <time>2015-08-03T08:18:32Z</time>
      </trkpt>
      <trkpt lat="45.54409" lon="6.7685">
        <ele>1705.12</ele>
        <time>2015-08-03T08:18:33Z</time>
      </trkpt>
      <trkpt lat="45.54402" lon="6.76851">
        <ele>1703.05</ele>
        <time>2015-08-03T08:18:34Z</time>
      </trkpt>
      <trkpt lat="45.54395" lon="6.76851">
        <ele>1702.17</ele>
        <time>2015-08-03T08:18:35Z</time>
      </trkpt>
      <trkpt lat="45.54389" lon="6.76848">
        <ele>1701.42</ele>
        <time>2015-08-03T08:18:36Z</time>
      </trkpt>
      <trkpt lat="45.54383" lon="6.76845">
        <ele>1700.77</ele>
        <time>2015-08-03T08:18:37Z</time>
      </trkpt>
      <trkpt lat="45.54376" lon="6.76842">
        <ele>1700.22</ele>
        <time>2015-08-03T08:18:38Z</time>
      </trkpt>
      <trkpt lat="45.54346" lon="6.76831">
        <ele>1696.56</ele>
        <time>2015-08-03T08:18:42Z</time>
      </trkpt>
      <trkpt lat="45.54339" lon="6.76829">
        <ele>1695.4</ele>
        <time>2015-08-03T08:18:43Z</time>
      </trkpt>
      <trkpt lat="45.54332" lon="6.76829">
        <ele>1694.36</ele>
        <time>2015-08-03T08:18:44Z</time>
      </trkpt>
      <trkpt lat="45.5432" lon="6.76832">
        <ele>1692.81</ele>
        <time>2015-08-03T08:18:46Z</time>
      </trkpt>
      <trkpt lat="45.54314" lon="6.76832">
        <ele>1692.24</ele>
        <time>2015-08-03T08:18:47Z</time>
      </trkpt>
      <trkpt lat="45.54308" lon="6.7683">
        <ele>1691.81</ele>
        <time>2015-08-03T08:18:48Z</time>
      </trkpt>
      <trkpt lat="45.54302" lon="6.76829">
        <ele>1691.46</ele>
        <time>2015-08-03T08:18:49Z</time>
      </trkpt>
      <trkpt lat="45.54296" lon="6.76828">
        <ele>1691.15</ele>
        <time>2015-08-03T08:18:50Z</time>
      </trkpt>
      <trkpt lat="45.5429" lon="6.76828">
        <ele>1690.85</ele>
        <time>2015-08-03T08:18:51Z</time>
      </trkpt>
      <trkpt lat="45.54284" lon="6.7683">
        <ele>1690.58</ele>
        <time>2015-08-03T08:18:52Z</time>
      </trkpt>
      <trkpt lat="45.54278" lon="6.76833">
        <ele>1690.34</ele>
        <time>2015-08-03T08:18:53Z</time>
      </trkpt>
      <trkpt lat="45.54272" lon="6.76836">
        <ele>1690.11</ele>
        <time>2015-08-03T08:18:54Z</time>
      </trkpt>
      <trkpt lat="45.54236" lon="6.76866">
        <ele>1687.91</ele>
        <time>2015-08-03T08:18:59Z</time>
      </trkpt>
      <trkpt lat="45.54228" lon="6.76874">
        <ele>1686.84</ele>
        <time>2015-08-03T08:19:00Z</time>
      </trkpt>
      <trkpt lat="45.54215" lon="6.76889">
        <ele>1683.36</ele>
        <time>2015-08-03T08:19:02Z</time>
      </trkpt>
      <trkpt lat="45.54187" lon="6.76919">
        <ele>1680.26</ele>
        <time>2015-08-03T08:19:08Z</time>
      </trkpt>
      <trkpt lat="45.54154" lon="6.76949">
        <ele>1676.43</ele>
        <time>2015-08-03T08:19:14Z</time>
      </trkpt>
      <trkpt lat="45.54136" lon="6.76966">
        <ele>1672.38</ele>
        <time>2015-08-03T08:19:17Z</time>
      </trkpt>
      <trkpt lat="45.54125" lon="6.76976">
        <ele>1669.27</ele>
        <time>2015-08-03T08:19:19Z</time>
      </trkpt>
      <trkpt lat="45.54107" lon="6.76996">
        <ele>1665.14</ele>
        <time>2015-08-03T08:19:22Z</time>
      </trkpt>
      <trkpt lat="45.541" lon="6.77001">
        <ele>1663.7</ele>
        <time>2015-08-03T08:19:23Z</time>
      </trkpt>
      <trkpt lat="45.54092" lon="6.77005">
        <ele>1662.24</ele>
        <time>2015-08-03T08:19:24Z</time>
      </trkpt>
      <trkpt lat="45.54084" lon="6.77008">
        <ele>1659.38</ele>
        <time>2015-08-03T08:19:25Z</time>
      </trkpt>
      <trkpt lat="45.54075" lon="6.7701">
        <ele>1658.02</ele>
        <time>2015-08-03T08:19:26Z</time>
      </trkpt>
      <trkpt lat="45.54058" lon="6.77013">
        <ele>1655.1</ele>
        <time>2015-08-03T08:19:28Z</time>
      </trkpt>
      <trkpt lat="45.54051" lon="6.77012">
        <ele>1653.83</ele>
        <time>2015-08-03T08:19:29Z</time>
      </trkpt>
      <trkpt lat="45.54045" lon="6.77011">
        <ele>1652.82</ele>
        <time>2015-08-03T08:19:30Z</time>
      </trkpt>
      <trkpt lat="45.54042" lon="6.7701">
        <ele>1652</ele>
        <time>2015-08-03T08:19:31Z</time>
      </trkpt>
      <trkpt lat="45.5404" lon="6.7701">
        <ele>1651.42</ele>
        <time>2015-08-03T08:19:32Z</time>
      </trkpt>
      <trkpt lat="45.54042" lon="6.7701">
        <ele>1650.33</ele>
        <time>2015-08-03T08:19:40Z</time>
      </trkpt>
      <trkpt lat="45.54038" lon="6.77008">
        <ele>1650.29</ele>
        <time>2015-08-03T08:19:57Z</time>
      </trkpt>
      <trkpt lat="45.54023" lon="6.76995">
        <ele>1647.86</ele>
        <time>2015-08-03T08:20:06Z</time>
      </trkpt>
      <trkpt lat="45.54007" lon="6.76976">
        <ele>1644.27</ele>
        <time>2015-08-03T08:20:12Z</time>
      </trkpt>
      <trkpt lat="45.53993" lon="6.76977">
        <ele>1640.16</ele>
        <time>2015-08-03T08:20:18Z</time>
      </trkpt>
      <trkpt lat="45.53973" lon="6.76978">
        <ele>1637.54</ele>
        <time>2015-08-03T08:20:23Z</time>
      </trkpt>
      <trkpt lat="45.53957" lon="6.76987">
        <ele>1634.06</ele>
        <time>2015-08-03T08:20:28Z</time>
      </trkpt>
      <trkpt lat="45.53957" lon="6.76988">
        <ele>1630.88</ele>
        <time>2015-08-03T08:20:35Z</time>
      </trkpt>
      <trkpt lat="45.53955" lon="6.76989">
        <ele>1630.39</ele>
        <time>2015-08-03T08:20:48Z</time>
      </trkpt>
      <trkpt lat="45.53946" lon="6.76996">
        <ele>1630.31</ele>
        <time>2015-08-03T08:20:54Z</time>
      </trkpt>
      <trkpt lat="45.5393" lon="6.77015">
        <ele>1630.44</ele>
        <time>2015-08-03T08:21:01Z</time>
      </trkpt>
      <trkpt lat="45.53906" lon="6.77033">
        <ele>1627.02</ele>
        <time>2015-08-03T08:21:07Z</time>
      </trkpt>
      <trkpt lat="45.53891" lon="6.77052">
        <ele>1624.77</ele>
        <time>2015-08-03T08:21:10Z</time>
      </trkpt>
      <trkpt lat="45.53885" lon="6.77063">
        <ele>1621.06</ele>
        <time>2015-08-03T08:21:16Z</time>
      </trkpt>
      <trkpt lat="45.53867" lon="6.77075">
        <ele>1619.03</ele>
        <time>2015-08-03T08:21:22Z</time>
      </trkpt>
      <trkpt lat="45.53851" lon="6.77097">
        <ele>1615.39</ele>
        <time>2015-08-03T08:21:28Z</time>
      </trkpt>
      <trkpt lat="45.53849" lon="6.77101">
        <ele>1614.73</ele>
        <time>2015-08-03T08:21:29Z</time>
      </trkpt>
      <trkpt lat="45.5383" lon="6.77128">
        <ele>1611.52</ele>
        <time>2015-08-03T08:21:34Z</time>
      </trkpt>
      <trkpt lat="45.53827" lon="6.77131">
        <ele>1608.76</ele>
        <time>2015-08-03T08:21:38Z</time>
      </trkpt>
      <trkpt lat="45.53814" lon="6.77139">
        <ele>1606.6</ele>
        <time>2015-08-03T08:21:44Z</time>
      </trkpt>
      <trkpt lat="45.53805" lon="6.77159">
        <ele>1605.44</ele>
        <time>2015-08-03T08:21:50Z</time>
      </trkpt>
      <trkpt lat="45.53803" lon="6.77165">
        <ele>1605.56</ele>
        <time>2015-08-03T08:21:52Z</time>
      </trkpt>
      <trkpt lat="45.53801" lon="6.77172">
        <ele>1605.81</ele>
        <time>2015-08-03T08:21:56Z</time>
      </trkpt>
      <trkpt lat="45.53786" lon="6.77187">
        <ele>1605.14</ele>
        <time>2015-08-03T08:22:02Z</time>
      </trkpt>
      <trkpt lat="45.53767" lon="6.77195">
        <ele>1601.84</ele>
        <time>2015-08-03T08:22:10Z</time>
      </trkpt>
      <trkpt lat="45.53765" lon="6.77195">
        <ele>1601.38</ele>
        <time>2015-08-03T08:22:11Z</time>
      </trkpt>
      <trkpt lat="45.53759" lon="6.772">
        <ele>1597.65</ele>
        <time>2015-08-03T08:22:19Z</time>
      </trkpt>
      <trkpt lat="45.53758" lon="6.77202">
        <ele>1597.06</ele>
        <time>2015-08-03T08:22:20Z</time>
      </trkpt>
      <trkpt lat="45.53752" lon="6.77204">
        <ele>1596.22</ele>
        <time>2015-08-03T08:22:24Z</time>
      </trkpt>
      <trkpt lat="45.53749" lon="6.7721">
        <ele>1593.36</ele>
        <time>2015-08-03T08:22:33Z</time>
      </trkpt>
      <trkpt lat="45.53749" lon="6.7721">
        <ele>1593.02</ele>
        <time>2015-08-03T08:22:34Z</time>
      </trkpt>
      <trkpt lat="45.53756" lon="6.77223">
        <ele>1591.24</ele>
        <time>2015-08-03T08:22:51Z</time>
      </trkpt>
      <trkpt lat="45.53759" lon="6.77227">
        <ele>1591.76</ele>
        <time>2015-08-03T08:23:14Z</time>
      </trkpt>
      <trkpt lat="45.53756" lon="6.77223">
        <ele>1592.35</ele>
        <time>2015-08-03T08:23:40Z</time>
      </trkpt>
      <trkpt lat="45.53758" lon="6.77223">
        <ele>1592.73</ele>
        <time>2015-08-03T08:23:44Z</time>
      </trkpt>
      <trkpt lat="45.53751" lon="6.77224">
        <ele>1592.82</ele>
        <time>2015-08-03T08:24:02Z</time>
      </trkpt>
      <trkpt lat="45.53748" lon="6.77227">
        <ele>1592.44</ele>
        <time>2015-08-03T08:24:06Z</time>
      </trkpt>
      <trkpt lat="45.53741" lon="6.77229">
        <ele>1590.55</ele>
        <time>2015-08-03T08:24:15Z</time>
      </trkpt>
      <trkpt lat="45.53742" lon="6.77229">
        <ele>1590.05</ele>
        <time>2015-08-03T08:24:31Z</time>
      </trkpt>
      <trkpt lat="45.53743" lon="6.77228">
        <ele>1590.08</ele>
        <time>2015-08-03T08:24:55Z</time>
      </trkpt>
      <trkpt lat="45.53743" lon="6.77232">
        <ele>1590.29</ele>
        <time>2015-08-03T08:25:11Z</time>
      </trkpt>
      <trkpt lat="45.53744" lon="6.77235">
        <ele>1590.64</ele>
        <time>2015-08-03T08:25:50Z</time>
      </trkpt>
      <trkpt lat="45.53746" lon="6.77234">
        <ele>1590.29</ele>
        <time>2015-08-03T08:26:10Z</time>
      </trkpt>
      <trkpt lat="45.53749" lon="6.77234">
        <ele>1589.74</ele>
        <time>2015-08-03T08:26:43Z</time>
      </trkpt>
      <trkpt lat="45.53749" lon="6.77234">
        <ele>1590.5</ele>
        <time>2015-08-03T08:27:11Z</time>
      </trkpt>
      <trkpt lat="45.53748" lon="6.77231">
        <ele>1590.41</ele>
        <time>2015-08-03T08:27:26Z</time>
      </trkpt>
      <trkpt lat="45.53746" lon="6.7723">
        <ele>1590.12</ele>
        <time>2015-08-03T08:27:46Z</time>
      </trkpt>
      <trkpt lat="45.53746" lon="6.77232">
        <ele>1589.61</ele>
        <time>2015-08-03T08:28:01Z</time>
      </trkpt>
      <trkpt lat="45.53745" lon="6.7723">
        <ele>1589.81</ele>
        <time>2015-08-03T08:28:16Z</time>
      </trkpt>
      <trkpt lat="45.53746" lon="6.77229">
        <ele>1589.9</ele>
        <time>2015-08-03T08:28:42Z</time>
      </trkpt>
      <trkpt lat="45.53748" lon="6.77234">
        <ele>1589.67</ele>
        <time>2015-08-03T08:29:01Z</time>
      </trkpt>
      <trkpt lat="45.53745" lon="6.77235">
        <ele>1590.08</ele>
        <time>2015-08-03T08:29:11Z</time>
      </trkpt>
      <trkpt lat="45.53743" lon="6.77234">
        <ele>1590.33</ele>
        <time>2015-08-03T08:29:30Z</time>
      </trkpt>
      <trkpt lat="45.53742" lon="6.77233">
        <ele>1590.51</ele>
        <time>2015-08-03T08:29:49Z</time>
      </trkpt>
      <trkpt lat="45.53744" lon="6.7723">
        <ele>1590.22</ele>
        <time>2015-08-03T08:30:06Z</time>
      </trkpt>
      <trkpt lat="45.53743" lon="6.77229">
        <ele>1590.32</ele>
        <time>2015-08-03T08:30:20Z</time>
      </trkpt>
      <trkpt lat="45.53745" lon="6.77227">
        <ele>1590.19</ele>
        <time>2015-08-03T08:30:25Z</time>
      </trkpt>
      <trkpt lat="45.53744" lon="6.77227">
        <ele>1589.8</ele>
        <time>2015-08-03T08:30:37Z</time>
      </trkpt>
      <trkpt lat="45.53748" lon="6.77229">
        <ele>1589.45</ele>
        <time>2015-08-03T08:30:50Z</time>
      </trkpt>
      <trkpt lat="45.53752" lon="6.77229">
        <ele>1589.45</ele>
        <time>2015-08-03T08:30:54Z</time>
      </trkpt>
      <trkpt lat="45.53759" lon="6.77227">
        <ele>1591.34</ele>
        <time>2015-08-03T08:31:05Z</time>
      </trkpt>
      <trkpt lat="45.53758" lon="6.77223">
        <ele>1592.5</ele>
        <time>2015-08-03T08:31:22Z</time>
      </trkpt>
      <trkpt lat="45.5375" lon="6.77228">
        <ele>1592.12</ele>
        <time>2015-08-03T08:31:35Z</time>
      </trkpt>
      <trkpt lat="45.53744" lon="6.77229">
        <ele>1590.82</ele>
        <time>2015-08-03T08:31:43Z</time>
      </trkpt>
      <trkpt lat="45.5374" lon="6.77232">
        <ele>1589.86</ele>
        <time>2015-08-03T08:31:56Z</time>
      </trkpt>
      <trkpt lat="45.53744" lon="6.77231">
        <ele>1589.63</ele>
        <time>2015-08-03T08:32:13Z</time>
      </trkpt>
      <trkpt lat="45.53743" lon="6.77228">
        <ele>1589.34</ele>
        <time>2015-08-03T08:32:30Z</time>
      </trkpt>
      <trkpt lat="45.53742" lon="6.77229">
        <ele>1589.39</ele>
        <time>2015-08-03T08:32:47Z</time>
      </trkpt>
      <trkpt lat="45.53743" lon="6.7723">
        <ele>1589.38</ele>
        <time>2015-08-03T08:33:05Z</time>
      </trkpt>
      <trkpt lat="45.53742" lon="6.77229">
        <ele>1589.37</ele>
        <time>2015-08-03T08:33:22Z</time>
      </trkpt>
      <trkpt lat="45.53743" lon="6.77229">
        <ele>1589.31</ele>
        <time>2015-08-03T08:33:41Z</time>
      </trkpt>
      <trkpt lat="45.53742" lon="6.77229">
        <ele>1589.28</ele>
        <time>2015-08-03T08:34:07Z</time>
      </trkpt>
      <trkpt lat="45.53744" lon="6.77228">
        <ele>1588.83</ele>
        <time>2015-08-03T08:34:23Z</time>
      </trkpt>
      <trkpt lat="45.53747" lon="6.77225">
        <ele>1589.5</ele>
        <time>2015-08-03T08:34:39Z</time>
      </trkpt>
      <trkpt lat="45.53748" lon="6.77224">
        <ele>1589.51</ele>
        <time>2015-08-03T08:34:40Z</time>
      </trkpt>
      <trkpt lat="45.53749" lon="6.77217">
        <ele>1588.75</ele>
        <time>2015-08-03T08:34:48Z</time>
      </trkpt>
      <trkpt lat="45.53746" lon="6.77218">
        <ele>1588.62</ele>
        <time>2015-08-03T08:35:08Z</time>
      </trkpt>
      <trkpt lat="45.53745" lon="6.77221">
        <ele>1588.63</ele>
        <time>2015-08-03T08:35:14Z</time>
      </trkpt>
      <trkpt lat="45.53743" lon="6.77231">
        <ele>1588.79</ele>
        <time>2015-08-03T08:35:19Z</time>
      </trkpt>
      <trkpt lat="45.5374" lon="6.77242">
        <ele>1589.09</ele>
        <time>2015-08-03T08:35:25Z</time>
      </trkpt>
      <trkpt lat="45.53726" lon="6.77257">
        <ele>1590.22</ele>
        <time>2015-08-03T08:35:35Z</time>
      </trkpt>
      <trkpt lat="45.53708" lon="6.77292">
        <ele>1589.84</ele>
        <time>2015-08-03T08:35:42Z</time>
      </trkpt>
      <trkpt lat="45.537" lon="6.7731">
        <ele>1589.53</ele>
        <time>2015-08-03T08:35:45Z</time>
      </trkpt>
      <trkpt lat="45.53681" lon="6.77355">
        <ele>1585.97</ele>
        <time>2015-08-03T08:35:52Z</time>
      </trkpt>
      <trkpt lat="45.53677" lon="6.77359">
        <ele>1585.28</ele>
        <time>2015-08-03T08:35:53Z</time>
      </trkpt>
      <trkpt lat="45.53674" lon="6.77364">
        <ele>1584.66</ele>
        <time>2015-08-03T08:35:54Z</time>
      </trkpt>
      <trkpt lat="45.5366" lon="6.77384">
        <ele>1583.16</ele>
        <time>2015-08-03T08:35:57Z</time>
      </trkpt>
      <trkpt lat="45.53654" lon="6.77389">
        <ele>1582.62</ele>
        <time>2015-08-03T08:35:58Z</time>
      </trkpt>
      <trkpt lat="45.53647" lon="6.77394">
        <ele>1582.06</ele>
        <time>2015-08-03T08:35:59Z</time>
      </trkpt>
      <trkpt lat="45.53634" lon="6.77404">
        <ele>1580.82</ele>
        <time>2015-08-03T08:36:01Z</time>
      </trkpt>
      <trkpt lat="45.53627" lon="6.77412">
        <ele>1579.54</ele>
        <time>2015-08-03T08:36:02Z</time>
      </trkpt>
      <trkpt lat="45.53622" lon="6.77422">
        <ele>1578.81</ele>
        <time>2015-08-03T08:36:03Z</time>
      </trkpt>
      <trkpt lat="45.53599" lon="6.77463">
        <ele>1575.73</ele>
        <time>2015-08-03T08:36:07Z</time>
      </trkpt>
      <trkpt lat="45.53577" lon="6.77499">
        <ele>1572.33</ele>
        <time>2015-08-03T08:36:11Z</time>
      </trkpt>
      <trkpt lat="45.53572" lon="6.77509">
        <ele>1571.54</ele>
        <time>2015-08-03T08:36:12Z</time>
      </trkpt>
      <trkpt lat="45.53555" lon="6.77556">
        <ele>1568.32</ele>
        <time>2015-08-03T08:36:16Z</time>
      </trkpt>
      <trkpt lat="45.53542" lon="6.77608">
        <ele>1565.22</ele>
        <time>2015-08-03T08:36:20Z</time>
      </trkpt>
      <trkpt lat="45.53537" lon="6.77635">
        <ele>1563.18</ele>
        <time>2015-08-03T08:36:22Z</time>
      </trkpt>
      <trkpt lat="45.53532" lon="6.77648">
        <ele>1562.12</ele>
        <time>2015-08-03T08:36:23Z</time>
      </trkpt>
      <trkpt lat="45.53517" lon="6.77686">
        <ele>1557.94</ele>
        <time>2015-08-03T08:36:26Z</time>
      </trkpt>
      <trkpt lat="45.53511" lon="6.77698">
        <ele>1557.94</ele>
        <time>2015-08-03T08:36:27Z</time>
      </trkpt>
      <trkpt lat="45.53499" lon="6.77723">
        <ele>1554.68</ele>
        <time>2015-08-03T08:36:29Z</time>
      </trkpt>
      <trkpt lat="45.53476" lon="6.77768">
        <ele>1550.96</ele>
        <time>2015-08-03T08:36:33Z</time>
      </trkpt>
      <trkpt lat="45.53465" lon="6.77788">
        <ele>1549.66</ele>
        <time>2015-08-03T08:36:35Z</time>
      </trkpt>
      <trkpt lat="45.53459" lon="6.77795">
        <ele>1548.98</ele>
        <time>2015-08-03T08:36:36Z</time>
      </trkpt>
      <trkpt lat="45.53452" lon="6.77801">
        <ele>1548.29</ele>
        <time>2015-08-03T08:36:37Z</time>
      </trkpt>
      <trkpt lat="45.53444" lon="6.77805">
        <ele>1547.61</ele>
        <time>2015-08-03T08:36:38Z</time>
      </trkpt>
      <trkpt lat="45.53437" lon="6.77807">
        <ele>1546.94</ele>
        <time>2015-08-03T08:36:39Z</time>
      </trkpt>
      <trkpt lat="45.5343" lon="6.77805">
        <ele>1546.32</ele>
        <time>2015-08-03T08:36:40Z</time>
      </trkpt>
      <trkpt lat="45.53425" lon="6.77801">
        <ele>1545.73</ele>
        <time>2015-08-03T08:36:41Z</time>
      </trkpt>
      <trkpt lat="45.53421" lon="6.77794">
        <ele>1545.12</ele>
        <time>2015-08-03T08:36:42Z</time>
      </trkpt>
      <trkpt lat="45.53419" lon="6.77785">
        <ele>1544.51</ele>
        <time>2015-08-03T08:36:43Z</time>
      </trkpt>
      <trkpt lat="45.53417" lon="6.77775">
        <ele>1543.89</ele>
        <time>2015-08-03T08:36:44Z</time>
      </trkpt>
      <trkpt lat="45.53419" lon="6.77766">
        <ele>1543.24</ele>
        <time>2015-08-03T08:36:45Z</time>
      </trkpt>
      <trkpt lat="45.53424" lon="6.77758">
        <ele>1542.59</ele>
        <time>2015-08-03T08:36:46Z</time>
      </trkpt>
      <trkpt lat="45.53431" lon="6.77749">
        <ele>1541.95</ele>
        <time>2015-08-03T08:36:47Z</time>
      </trkpt>
      <trkpt lat="45.5344" lon="6.7774">
        <ele>1541.29</ele>
        <time>2015-08-03T08:36:48Z</time>
      </trkpt>
      <trkpt lat="45.53447" lon="6.77732">
        <ele>1540.63</ele>
        <time>2015-08-03T08:36:49Z</time>
      </trkpt>
      <trkpt lat="45.53458" lon="6.77718">
        <ele>1539.26</ele>
        <time>2015-08-03T08:36:51Z</time>
      </trkpt>
      <trkpt lat="45.53458" lon="6.7771">
        <ele>1537.66</ele>
        <time>2015-08-03T08:36:52Z</time>
      </trkpt>
      <trkpt lat="45.53456" lon="6.77702">
        <ele>1536.8</ele>
        <time>2015-08-03T08:36:53Z</time>
      </trkpt>
      <trkpt lat="45.53452" lon="6.77697">
        <ele>1535.97</ele>
        <time>2015-08-03T08:36:54Z</time>
      </trkpt>
      <trkpt lat="45.53446" lon="6.77694">
        <ele>1535.2</ele>
        <time>2015-08-03T08:36:55Z</time>
      </trkpt>
      <trkpt lat="45.53439" lon="6.77694">
        <ele>1534.49</ele>
        <time>2015-08-03T08:36:56Z</time>
      </trkpt>
      <trkpt lat="45.53431" lon="6.77694">
        <ele>1533.85</ele>
        <time>2015-08-03T08:36:57Z</time>
      </trkpt>
      <trkpt lat="45.53425" lon="6.77696">
        <ele>1533.25</ele>
        <time>2015-08-03T08:36:58Z</time>
      </trkpt>
      <trkpt lat="45.53391" lon="6.77703">
        <ele>1530.05</ele>
        <time>2015-08-03T08:37:03Z</time>
      </trkpt>
      <trkpt lat="45.53357" lon="6.77709">
        <ele>1527.76</ele>
        <time>2015-08-03T08:37:08Z</time>
      </trkpt>
      <trkpt lat="45.53352" lon="6.77707">
        <ele>1527.17</ele>
        <time>2015-08-03T08:37:09Z</time>
      </trkpt>
      <trkpt lat="45.53346" lon="6.77703">
        <ele>1526.58</ele>
        <time>2015-08-03T08:37:10Z</time>
      </trkpt>
      <trkpt lat="45.53341" lon="6.777">
        <ele>1526.03</ele>
        <time>2015-08-03T08:37:11Z</time>
      </trkpt>
      <trkpt lat="45.53336" lon="6.77696">
        <ele>1525.51</ele>
        <time>2015-08-03T08:37:12Z</time>
      </trkpt>
      <trkpt lat="45.5333" lon="6.77694">
        <ele>1525.02</ele>
        <time>2015-08-03T08:37:13Z</time>
      </trkpt>
      <trkpt lat="45.53323" lon="6.77692">
        <ele>1524.56</ele>
        <time>2015-08-03T08:37:14Z</time>
      </trkpt>
      <trkpt lat="45.53317" lon="6.77691">
        <ele>1524.14</ele>
        <time>2015-08-03T08:37:15Z</time>
      </trkpt>
      <trkpt lat="45.5331" lon="6.77694">
        <ele>1523.73</ele>
        <time>2015-08-03T08:37:16Z</time>
      </trkpt>
      <trkpt lat="45.53303" lon="6.77698">
        <ele>1523.26</ele>
        <time>2015-08-03T08:37:17Z</time>
      </trkpt>
      <trkpt lat="45.53296" lon="6.77704">
        <ele>1522.38</ele>
        <time>2015-08-03T08:37:18Z</time>
      </trkpt>
      <trkpt lat="45.53261" lon="6.7774">
        <ele>1519.97</ele>
        <time>2015-08-03T08:37:23Z</time>
      </trkpt>
      <trkpt lat="45.53256" lon="6.77749">
        <ele>1519.41</ele>
        <time>2015-08-03T08:37:24Z</time>
      </trkpt>
      <trkpt lat="45.53248" lon="6.77762">
        <ele>1518.05</ele>
        <time>2015-08-03T08:37:26Z</time>
      </trkpt>
      <trkpt lat="45.53244" lon="6.77765">
        <ele>1517.26</ele>
        <time>2015-08-03T08:37:27Z</time>
      </trkpt>
      <trkpt lat="45.53241" lon="6.77763">
        <ele>1516.39</ele>
        <time>2015-08-03T08:37:28Z</time>
      </trkpt>
      <trkpt lat="45.5324" lon="6.77757">
        <ele>1515.44</ele>
        <time>2015-08-03T08:37:29Z</time>
      </trkpt>
      <trkpt lat="45.53239" lon="6.77748">
        <ele>1514.53</ele>
        <time>2015-08-03T08:37:30Z</time>
      </trkpt>
      <trkpt lat="45.53239" lon="6.77738">
        <ele>1513.75</ele>
        <time>2015-08-03T08:37:31Z</time>
      </trkpt>
      <trkpt lat="45.53238" lon="6.77729">
        <ele>1513.07</ele>
        <time>2015-08-03T08:37:32Z</time>
      </trkpt>
      <trkpt lat="45.53236" lon="6.77718">
        <ele>1512.46</ele>
        <time>2015-08-03T08:37:33Z</time>
      </trkpt>
      <trkpt lat="45.53234" lon="6.77708">
        <ele>1511.86</ele>
        <time>2015-08-03T08:37:34Z</time>
      </trkpt>
      <trkpt lat="45.53229" lon="6.77685">
        <ele>1510.72</ele>
        <time>2015-08-03T08:37:36Z</time>
      </trkpt>
      <trkpt lat="45.53228" lon="6.77673">
        <ele>1510.19</ele>
        <time>2015-08-03T08:37:37Z</time>
      </trkpt>
      <trkpt lat="45.53228" lon="6.77661">
        <ele>1509.67</ele>
        <time>2015-08-03T08:37:38Z</time>
      </trkpt>
      <trkpt lat="45.53229" lon="6.77648">
        <ele>1509.21</ele>
        <time>2015-08-03T08:37:39Z</time>
      </trkpt>
      <trkpt lat="45.53232" lon="6.77636">
        <ele>1508.81</ele>
        <time>2015-08-03T08:37:40Z</time>
      </trkpt>
      <trkpt lat="45.53235" lon="6.77623">
        <ele>1508.47</ele>
        <time>2015-08-03T08:37:41Z</time>
      </trkpt>
      <trkpt lat="45.53238" lon="6.77611">
        <ele>1508.15</ele>
        <time>2015-08-03T08:37:42Z</time>
      </trkpt>
      <trkpt lat="45.53263" lon="6.77534">
        <ele>1505.18</ele>
        <time>2015-08-03T08:37:48Z</time>
      </trkpt>
      <trkpt lat="45.53265" lon="6.77521">
        <ele>1504.56</ele>
        <time>2015-08-03T08:37:49Z</time>
      </trkpt>
      <trkpt lat="45.53265" lon="6.77507">
        <ele>1503.83</ele>
        <time>2015-08-03T08:37:50Z</time>
      </trkpt>
      <trkpt lat="45.53264" lon="6.77492">
        <ele>1502.99</ele>
        <time>2015-08-03T08:37:51Z</time>
      </trkpt>
      <trkpt lat="45.53264" lon="6.77477">
        <ele>1501.98</ele>
        <time>2015-08-03T08:37:52Z</time>
      </trkpt>
      <trkpt lat="45.53264" lon="6.7745">
        <ele>1499.74</ele>
        <time>2015-08-03T08:37:54Z</time>
      </trkpt>
      <trkpt lat="45.53265" lon="6.77438">
        <ele>1498.62</ele>
        <time>2015-08-03T08:37:55Z</time>
      </trkpt>
      <trkpt lat="45.5327" lon="6.77411">
        <ele>1495.05</ele>
        <time>2015-08-03T08:37:58Z</time>
      </trkpt>
      <trkpt lat="45.53274" lon="6.77403">
        <ele>1493.78</ele>
        <time>2015-08-03T08:37:59Z</time>
      </trkpt>
      <trkpt lat="45.53279" lon="6.77396">
        <ele>1492.61</ele>
        <time>2015-08-03T08:38:00Z</time>
      </trkpt>
      <trkpt lat="45.53301" lon="6.77369">
        <ele>1489.1</ele>
        <time>2015-08-03T08:38:04Z</time>
      </trkpt>
      <trkpt lat="45.53323" lon="6.77331">
        <ele>1486.03</ele>
        <time>2015-08-03T08:38:08Z</time>
      </trkpt>
      <trkpt lat="45.53353" lon="6.77271">
        <ele>1483.02</ele>
        <time>2015-08-03T08:38:13Z</time>
      </trkpt>
      <trkpt lat="45.53388" lon="6.77212">
        <ele>1479.79</ele>
        <time>2015-08-03T08:38:18Z</time>
      </trkpt>
      <trkpt lat="45.53394" lon="6.77203">
        <ele>1478.95</ele>
        <time>2015-08-03T08:38:19Z</time>
      </trkpt>
      <trkpt lat="45.53399" lon="6.77195">
        <ele>1478.14</ele>
        <time>2015-08-03T08:38:20Z</time>
      </trkpt>
      <trkpt lat="45.53402" lon="6.77186">
        <ele>1477.28</ele>
        <time>2015-08-03T08:38:21Z</time>
      </trkpt>
      <trkpt lat="45.53403" lon="6.77176">
        <ele>1476.19</ele>
        <time>2015-08-03T08:38:22Z</time>
      </trkpt>
      <trkpt lat="45.53399" lon="6.77169">
        <ele>1475.14</ele>
        <time>2015-08-03T08:38:23Z</time>
      </trkpt>
      <trkpt lat="45.53393" lon="6.77166">
        <ele>1474.22</ele>
        <time>2015-08-03T08:38:24Z</time>
      </trkpt>
      <trkpt lat="45.53387" lon="6.77167">
        <ele>1473.33</ele>
        <time>2015-08-03T08:38:25Z</time>
      </trkpt>
      <trkpt lat="45.53379" lon="6.7717">
        <ele>1472.47</ele>
        <time>2015-08-03T08:38:26Z</time>
      </trkpt>
      <trkpt lat="45.53349" lon="6.77183">
        <ele>1469.75</ele>
        <time>2015-08-03T08:38:30Z</time>
      </trkpt>
      <trkpt lat="45.53342" lon="6.77186">
        <ele>1469.22</ele>
        <time>2015-08-03T08:38:31Z</time>
      </trkpt>
      <trkpt lat="45.5333" lon="6.77193">
        <ele>1468.3</ele>
        <time>2015-08-03T08:38:33Z</time>
      </trkpt>
      <trkpt lat="45.53315" lon="6.77202">
        <ele>1467.11</ele>
        <time>2015-08-03T08:38:36Z</time>
      </trkpt>
      <trkpt lat="45.53285" lon="6.77218">
        <ele>1466.56</ele>
        <time>2015-08-03T08:38:44Z</time>
      </trkpt>
      <trkpt lat="45.5328" lon="6.77219">
        <ele>1466.09</ele>
        <time>2015-08-03T08:38:52Z</time>
      </trkpt>
      <trkpt lat="45.53284" lon="6.77218">
        <ele>1466.17</ele>
        <time>2015-08-03T08:38:56Z</time>
      </trkpt>
      <trkpt lat="45.53287" lon="6.77218">
        <ele>1466.38</ele>
        <time>2015-08-03T08:38:58Z</time>
      </trkpt>
      <trkpt lat="45.53288" lon="6.77218">
        <ele>1466.4</ele>
        <time>2015-08-03T08:38:59Z</time>
      </trkpt>
      <trkpt lat="45.53288" lon="6.77222">
        <ele>1466.31</ele>
        <time>2015-08-03T08:39:04Z</time>
      </trkpt>
      <trkpt lat="45.53287" lon="6.77223">
        <ele>1466.23</ele>
        <time>2015-08-03T08:39:05Z</time>
      </trkpt>
      <trkpt lat="45.53287" lon="6.77225">
        <ele>1466.09</ele>
        <time>2015-08-03T08:39:06Z</time>
      </trkpt>
      <trkpt lat="45.53286" lon="6.77227">
        <ele>1466.09</ele>
        <time>2015-08-03T08:39:07Z</time>
      </trkpt>
      <trkpt lat="45.53286" lon="6.77229">
        <ele>1466.09</ele>
        <time>2015-08-03T08:39:08Z</time>
      </trkpt>
      <trkpt lat="45.53284" lon="6.7723">
        <ele>1465.86</ele>
        <time>2015-08-03T08:39:18Z</time>
      </trkpt>
      <trkpt lat="45.53288" lon="6.77224">
        <ele>1465.77</ele>
        <time>2015-08-03T08:39:46Z</time>
      </trkpt>
      <trkpt lat="45.53289" lon="6.77224">
        <ele>1465.92</ele>
        <time>2015-08-03T08:40:08Z</time>
      </trkpt>
      <trkpt lat="45.53292" lon="6.77219">
        <ele>1466.96</ele>
        <time>2015-08-03T08:40:20Z</time>
      </trkpt>
      <trkpt lat="45.53292" lon="6.7722">
        <ele>1466.43</ele>
        <time>2015-08-03T08:40:38Z</time>
      </trkpt>
      <trkpt lat="45.5329" lon="6.7722">
        <ele>1466.36</ele>
        <time>2015-08-03T08:40:41Z</time>
      </trkpt>
      <trkpt lat="45.53289" lon="6.77221">
        <ele>1466.34</ele>
        <time>2015-08-03T08:40:42Z</time>
      </trkpt>
      <trkpt lat="45.53287" lon="6.77221">
        <ele>1466.4</ele>
        <time>2015-08-03T08:40:43Z</time>
      </trkpt>
      <trkpt lat="45.53285" lon="6.77221">
        <ele>1466.43</ele>
        <time>2015-08-03T08:40:44Z</time>
      </trkpt>
      <trkpt lat="45.53283" lon="6.77222">
        <ele>1466.37</ele>
        <time>2015-08-03T08:40:45Z</time>
      </trkpt>
      <trkpt lat="45.53266" lon="6.77236">
        <ele>1466.28</ele>
        <time>2015-08-03T08:40:51Z</time>
      </trkpt>
      <trkpt lat="45.53245" lon="6.77252">
        <ele>1465.68</ele>
        <time>2015-08-03T08:40:55Z</time>
      </trkpt>
      <trkpt lat="45.53239" lon="6.77253">
        <ele>1465.38</ele>
        <time>2015-08-03T08:40:56Z</time>
      </trkpt>
      <trkpt lat="45.53234" lon="6.77254">
        <ele>1465.03</ele>
        <time>2015-08-03T08:40:57Z</time>
      </trkpt>
      <trkpt lat="45.53229" lon="6.77254">
        <ele>1464.64</ele>
        <time>2015-08-03T08:40:58Z</time>
      </trkpt>
      <trkpt lat="45.53224" lon="6.77251">
        <ele>1464.24</ele>
        <time>2015-08-03T08:40:59Z</time>
      </trkpt>
      <trkpt lat="45.53221" lon="6.77246">
        <ele>1463.76</ele>
        <time>2015-08-03T08:41:00Z</time>
      </trkpt>
      <trkpt lat="45.53218" lon="6.77238">
        <ele>1463.19</ele>
        <time>2015-08-03T08:41:01Z</time>
      </trkpt>
      <trkpt lat="45.53217" lon="6.77231">
        <ele>1462.61</ele>
        <time>2015-08-03T08:41:02Z</time>
      </trkpt>
      <trkpt lat="45.53214" lon="6.77224">
        <ele>1462.06</ele>
        <time>2015-08-03T08:41:03Z</time>
      </trkpt>
      <trkpt lat="45.53212" lon="6.77218">
        <ele>1461.53</ele>
        <time>2015-08-03T08:41:04Z</time>
      </trkpt>
      <trkpt lat="45.53209" lon="6.77213">
        <ele>1460.52</ele>
        <time>2015-08-03T08:41:05Z</time>
      </trkpt>
      <trkpt lat="45.53206" lon="6.77208">
        <ele>1460.06</ele>
        <time>2015-08-03T08:41:06Z</time>
      </trkpt>
      <trkpt lat="45.53204" lon="6.77202">
        <ele>1459.67</ele>
        <time>2015-08-03T08:41:07Z</time>
      </trkpt>
      <trkpt lat="45.53202" lon="6.77196">
        <ele>1459.32</ele>
        <time>2015-08-03T08:41:08Z</time>
      </trkpt>
      <trkpt lat="45.53203" lon="6.77189">
        <ele>1458.98</ele>
        <time>2015-08-03T08:41:09Z</time>
      </trkpt>
      <trkpt lat="45.53205" lon="6.77184">
        <ele>1458.71</ele>
        <time>2015-08-03T08:41:10Z</time>
      </trkpt>
      <trkpt lat="45.53207" lon="6.77179">
        <ele>1458.48</ele>
        <time>2015-08-03T08:41:11Z</time>
      </trkpt>
      <trkpt lat="45.5321" lon="6.77171">
        <ele>1458.15</ele>
        <time>2015-08-03T08:41:13Z</time>
      </trkpt>
      <trkpt lat="45.53209" lon="6.77168">
        <ele>1458.04</ele>
        <time>2015-08-03T08:41:14Z</time>
      </trkpt>
      <trkpt lat="45.53208" lon="6.77164">
        <ele>1457.97</ele>
        <time>2015-08-03T08:41:15Z</time>
      </trkpt>
      <trkpt lat="45.53207" lon="6.77161">
        <ele>1457.93</ele>
        <time>2015-08-03T08:41:16Z</time>
      </trkpt>
      <trkpt lat="45.53207" lon="6.77154">
        <ele>1457.91</ele>
        <time>2015-08-03T08:41:24Z</time>
      </trkpt>
      <trkpt lat="45.53209" lon="6.77151">
        <ele>1457.62</ele>
        <time>2015-08-03T08:41:41Z</time>
      </trkpt>
      <trkpt lat="45.5321" lon="6.7715">
        <ele>1457.64</ele>
        <time>2015-08-03T08:41:42Z</time>
      </trkpt>
      <trkpt lat="45.53211" lon="6.77145">
        <ele>1457.8</ele>
        <time>2015-08-03T08:42:01Z</time>
      </trkpt>
      <trkpt lat="45.53207" lon="6.77144">
        <ele>1457.7</ele>
        <time>2015-08-03T08:42:23Z</time>
      </trkpt>
      <trkpt lat="45.5321" lon="6.77147">
        <ele>1457.84</ele>
        <time>2015-08-03T08:42:43Z</time>
      </trkpt>
      <trkpt lat="45.53214" lon="6.77149">
        <ele>1457.96</ele>
        <time>2015-08-03T08:43:06Z</time>
      </trkpt>
      <trkpt lat="45.53214" lon="6.77148">
        <ele>1457.65</ele>
        <time>2015-08-03T08:43:28Z</time>
      </trkpt>
      <trkpt lat="45.53215" lon="6.77145">
        <ele>1457.79</ele>
        <time>2015-08-03T08:43:48Z</time>
      </trkpt>
      <trkpt lat="45.53212" lon="6.7715">
        <ele>1457.68</ele>
        <time>2015-08-03T08:44:05Z</time>
      </trkpt>
      <trkpt lat="45.53215" lon="6.77155">
        <ele>1457.93</ele>
        <time>2015-08-03T08:44:31Z</time>
      </trkpt>
      <trkpt lat="45.53218" lon="6.77156">
        <ele>1457.79</ele>
        <time>2015-08-03T08:44:48Z</time>
      </trkpt>
      <trkpt lat="45.5322" lon="6.7715">
        <ele>1457.96</ele>
        <time>2015-08-03T08:44:58Z</time>
      </trkpt>
      <trkpt lat="45.5322" lon="6.77149">
        <ele>1457.93</ele>
        <time>2015-08-03T08:44:59Z</time>
      </trkpt>
      <trkpt lat="45.53221" lon="6.77147">
        <ele>1457.92</ele>
        <time>2015-08-03T08:45:00Z</time>
      </trkpt>
      <trkpt lat="45.53221" lon="6.77144">
        <ele>1457.9</ele>
        <time>2015-08-03T08:45:01Z</time>
      </trkpt>
      <trkpt lat="45.53221" lon="6.77141">
        <ele>1457.9</ele>
        <time>2015-08-03T08:45:02Z</time>
      </trkpt>
      <trkpt lat="45.53221" lon="6.77139">
        <ele>1457.88</ele>
        <time>2015-08-03T08:45:03Z</time>
      </trkpt>
      <trkpt lat="45.53221" lon="6.77135">
        <ele>1457.88</ele>
        <time>2015-08-03T08:45:04Z</time>
      </trkpt>
      <trkpt lat="45.53224" lon="6.77112">
        <ele>1458.47</ele>
        <time>2015-08-03T08:45:13Z</time>
      </trkpt>
      <trkpt lat="45.53224" lon="6.7711">
        <ele>1458.58</ele>
        <time>2015-08-03T08:45:14Z</time>
      </trkpt>
      <trkpt lat="45.53224" lon="6.77107">
        <ele>1458.69</ele>
        <time>2015-08-03T08:45:15Z</time>
      </trkpt>
      <trkpt lat="45.53225" lon="6.77105">
        <ele>1458.79</ele>
        <time>2015-08-03T08:45:16Z</time>
      </trkpt>
      <trkpt lat="45.53226" lon="6.77101">
        <ele>1458.92</ele>
        <time>2015-08-03T08:45:17Z</time>
      </trkpt>
      <trkpt lat="45.53226" lon="6.77098">
        <ele>1459.26</ele>
        <time>2015-08-03T08:45:18Z</time>
      </trkpt>
      <trkpt lat="45.53227" lon="6.77095">
        <ele>1459.43</ele>
        <time>2015-08-03T08:45:19Z</time>
      </trkpt>
      <trkpt lat="45.53228" lon="6.77075">
        <ele>1460.48</ele>
        <time>2015-08-03T08:45:26Z</time>
      </trkpt>
      <trkpt lat="45.53225" lon="6.77058">
        <ele>1461.61</ele>
        <time>2015-08-03T08:45:33Z</time>
      </trkpt>
      <trkpt lat="45.53219" lon="6.77041">
        <ele>1462.67</ele>
        <time>2015-08-03T08:45:41Z</time>
      </trkpt>
      <trkpt lat="45.53225" lon="6.77021">
        <ele>1463.61</ele>
        <time>2015-08-03T08:45:48Z</time>
      </trkpt>
      <trkpt lat="45.53228" lon="6.77016">
        <ele>1463.87</ele>
        <time>2015-08-03T08:45:50Z</time>
      </trkpt>
      <trkpt lat="45.5323" lon="6.77015">
        <ele>1464.01</ele>
        <time>2015-08-03T08:45:51Z</time>
      </trkpt>
      <trkpt lat="45.53232" lon="6.77013">
        <ele>1464.17</ele>
        <time>2015-08-03T08:45:52Z</time>
      </trkpt>
      <trkpt lat="45.53233" lon="6.77011">
        <ele>1464.36</ele>
        <time>2015-08-03T08:45:53Z</time>
      </trkpt>
      <trkpt lat="45.53234" lon="6.7701">
        <ele>1464.58</ele>
        <time>2015-08-03T08:45:54Z</time>
      </trkpt>
      <trkpt lat="45.53235" lon="6.77008">
        <ele>1464.78</ele>
        <time>2015-08-03T08:45:55Z</time>
      </trkpt>
      <trkpt lat="45.53236" lon="6.77006">
        <ele>1464.97</ele>
        <time>2015-08-03T08:45:56Z</time>
      </trkpt>
      <trkpt lat="45.53238" lon="6.77002">
        <ele>1465.29</ele>
        <time>2015-08-03T08:45:58Z</time>
      </trkpt>
      <trkpt lat="45.53239" lon="6.77">
        <ele>1465.45</ele>
        <time>2015-08-03T08:45:59Z</time>
      </trkpt>
      <trkpt lat="45.5324" lon="6.76999">
        <ele>1465.63</ele>
        <time>2015-08-03T08:46:00Z</time>
      </trkpt>
      <trkpt lat="45.53241" lon="6.76996">
        <ele>1465.79</ele>
        <time>2015-08-03T08:46:01Z</time>
      </trkpt>
      <trkpt lat="45.53242" lon="6.76995">
        <ele>1465.95</ele>
        <time>2015-08-03T08:46:02Z</time>
      </trkpt>
      <trkpt lat="45.53247" lon="6.76971">
        <ele>1468.39</ele>
        <time>2015-08-03T08:46:12Z</time>
      </trkpt>
      <trkpt lat="45.53247" lon="6.76969">
        <ele>1468.61</ele>
        <time>2015-08-03T08:46:13Z</time>
      </trkpt>
      <trkpt lat="45.53247" lon="6.76963">
        <ele>1469.02</ele>
        <time>2015-08-03T08:46:15Z</time>
      </trkpt>
      <trkpt lat="45.53247" lon="6.7696">
        <ele>1469.22</ele>
        <time>2015-08-03T08:46:16Z</time>
      </trkpt>
      <trkpt lat="45.53249" lon="6.76935">
        <ele>1470.74</ele>
        <time>2015-08-03T08:46:26Z</time>
      </trkpt>
      <trkpt lat="45.53249" lon="6.76932">
        <ele>1470.89</ele>
        <time>2015-08-03T08:46:27Z</time>
      </trkpt>
      <trkpt lat="45.53249" lon="6.76929">
        <ele>1471.01</ele>
        <time>2015-08-03T08:46:28Z</time>
      </trkpt>
      <trkpt lat="45.5325" lon="6.76927">
        <ele>1471.13</ele>
        <time>2015-08-03T08:46:29Z</time>
      </trkpt>
      <trkpt lat="45.5325" lon="6.76924">
        <ele>1471.26</ele>
        <time>2015-08-03T08:46:30Z</time>
      </trkpt>
      <trkpt lat="45.53255" lon="6.76908">
        <ele>1472.69</ele>
        <time>2015-08-03T08:46:38Z</time>
      </trkpt>
      <trkpt lat="45.53256" lon="6.76906">
        <ele>1472.82</ele>
        <time>2015-08-03T08:46:39Z</time>
      </trkpt>
      <trkpt lat="45.53257" lon="6.76904">
        <ele>1472.95</ele>
        <time>2015-08-03T08:46:40Z</time>
      </trkpt>
      <trkpt lat="45.53258" lon="6.76902">
        <ele>1473.11</ele>
        <time>2015-08-03T08:46:41Z</time>
      </trkpt>
      <trkpt lat="45.53259" lon="6.76901">
        <ele>1473.3</ele>
        <time>2015-08-03T08:46:42Z</time>
      </trkpt>
      <trkpt lat="45.5326" lon="6.76899">
        <ele>1473.5</ele>
        <time>2015-08-03T08:46:43Z</time>
      </trkpt>
      <trkpt lat="45.5326" lon="6.76897">
        <ele>1473.67</ele>
        <time>2015-08-03T08:46:44Z</time>
      </trkpt>
      <trkpt lat="45.53262" lon="6.76894">
        <ele>1473.85</ele>
        <time>2015-08-03T08:46:45Z</time>
      </trkpt>
      <trkpt lat="45.53263" lon="6.76893">
        <ele>1474.03</ele>
        <time>2015-08-03T08:46:46Z</time>
      </trkpt>
      <trkpt lat="45.53264" lon="6.76891">
        <ele>1474.2</ele>
        <time>2015-08-03T08:46:47Z</time>
      </trkpt>
      <trkpt lat="45.53265" lon="6.76889">
        <ele>1474.38</ele>
        <time>2015-08-03T08:46:48Z</time>
      </trkpt>
      <trkpt lat="45.53266" lon="6.76887">
        <ele>1474.54</ele>
        <time>2015-08-03T08:46:49Z</time>
      </trkpt>
      <trkpt lat="45.53266" lon="6.76886">
        <ele>1474.69</ele>
        <time>2015-08-03T08:46:50Z</time>
      </trkpt>
      <trkpt lat="45.53267" lon="6.76884">
        <ele>1474.84</ele>
        <time>2015-08-03T08:46:51Z</time>
      </trkpt>
      <trkpt lat="45.53269" lon="6.76863">
        <ele>1476.76</ele>
        <time>2015-08-03T08:47:02Z</time>
      </trkpt>
      <trkpt lat="45.53266" lon="6.7684">
        <ele>1478.72</ele>
        <time>2015-08-03T08:47:14Z</time>
      </trkpt>
      <trkpt lat="45.53251" lon="6.76829">
        <ele>1479.94</ele>
        <time>2015-08-03T08:47:24Z</time>
      </trkpt>
      <trkpt lat="45.53237" lon="6.76803">
        <ele>1481.64</ele>
        <time>2015-08-03T08:47:36Z</time>
      </trkpt>
      <trkpt lat="45.53228" lon="6.76783">
        <ele>1483.25</ele>
        <time>2015-08-03T08:47:46Z</time>
      </trkpt>
      <trkpt lat="45.53222" lon="6.76762">
        <ele>1484.41</ele>
        <time>2015-08-03T08:47:55Z</time>
      </trkpt>
      <trkpt lat="45.53206" lon="6.76735">
        <ele>1485.32</ele>
        <time>2015-08-03T08:48:06Z</time>
      </trkpt>
      <trkpt lat="45.5321" lon="6.76712">
        <ele>1486.14</ele>
        <time>2015-08-03T08:48:14Z</time>
      </trkpt>
      <trkpt lat="45.53211" lon="6.7671">
        <ele>1486.25</ele>
        <time>2015-08-03T08:48:15Z</time>
      </trkpt>
      <trkpt lat="45.53212" lon="6.76708">
        <ele>1486.38</ele>
        <time>2015-08-03T08:48:16Z</time>
      </trkpt>
      <trkpt lat="45.53213" lon="6.76707">
        <ele>1486.53</ele>
        <time>2015-08-03T08:48:17Z</time>
      </trkpt>
      <trkpt lat="45.53215" lon="6.76705">
        <ele>1486.69</ele>
        <time>2015-08-03T08:48:18Z</time>
      </trkpt>
      <trkpt lat="45.53217" lon="6.76704">
        <ele>1486.88</ele>
        <time>2015-08-03T08:48:19Z</time>
      </trkpt>
      <trkpt lat="45.53235" lon="6.76697">
        <ele>1488.36</ele>
        <time>2015-08-03T08:48:30Z</time>
      </trkpt>
      <trkpt lat="45.5325" lon="6.76693">
        <ele>1489.87</ele>
        <time>2015-08-03T08:48:40Z</time>
      </trkpt>
      <trkpt lat="45.53251" lon="6.76692">
        <ele>1490</ele>
        <time>2015-08-03T08:48:41Z</time>
      </trkpt>
      <trkpt lat="45.53253" lon="6.76691">
        <ele>1490.13</ele>
        <time>2015-08-03T08:48:42Z</time>
      </trkpt>
      <trkpt lat="45.53269" lon="6.76679">
        <ele>1491.72</ele>
        <time>2015-08-03T08:48:53Z</time>
      </trkpt>
      <trkpt lat="45.53279" lon="6.76665">
        <ele>1493.67</ele>
        <time>2015-08-03T08:49:04Z</time>
      </trkpt>
      <trkpt lat="45.5328" lon="6.76664">
        <ele>1493.78</ele>
        <time>2015-08-03T08:49:05Z</time>
      </trkpt>
      <trkpt lat="45.53287" lon="6.76653">
        <ele>1494.74</ele>
        <time>2015-08-03T08:49:12Z</time>
      </trkpt>
      <trkpt lat="45.53287" lon="6.76651">
        <ele>1494.87</ele>
        <time>2015-08-03T08:49:13Z</time>
      </trkpt>
      <trkpt lat="45.53288" lon="6.7665">
        <ele>1495.03</ele>
        <time>2015-08-03T08:49:14Z</time>
      </trkpt>
      <trkpt lat="45.53288" lon="6.76648">
        <ele>1495.2</ele>
        <time>2015-08-03T08:49:15Z</time>
      </trkpt>
      <trkpt lat="45.53289" lon="6.76646">
        <ele>1495.35</ele>
        <time>2015-08-03T08:49:16Z</time>
      </trkpt>
      <trkpt lat="45.53289" lon="6.76644">
        <ele>1495.48</ele>
        <time>2015-08-03T08:49:17Z</time>
      </trkpt>
      <trkpt lat="45.53291" lon="6.7662">
        <ele>1496.9</ele>
        <time>2015-08-03T08:49:28Z</time>
      </trkpt>
      <trkpt lat="45.53292" lon="6.76618">
        <ele>1497</ele>
        <time>2015-08-03T08:49:29Z</time>
      </trkpt>
      <trkpt lat="45.53292" lon="6.76615">
        <ele>1497.11</ele>
        <time>2015-08-03T08:49:30Z</time>
      </trkpt>
      <trkpt lat="45.53293" lon="6.76613">
        <ele>1497.23</ele>
        <time>2015-08-03T08:49:31Z</time>
      </trkpt>
      <trkpt lat="45.53294" lon="6.7659">
        <ele>1498.22</ele>
        <time>2015-08-03T08:49:42Z</time>
      </trkpt>
      <trkpt lat="45.53294" lon="6.76581">
        <ele>1498.75</ele>
        <time>2015-08-03T08:49:46Z</time>
      </trkpt>
      <trkpt lat="45.53295" lon="6.76578">
        <ele>1498.83</ele>
        <time>2015-08-03T08:49:47Z</time>
      </trkpt>
      <trkpt lat="45.53295" lon="6.76577">
        <ele>1498.91</ele>
        <time>2015-08-03T08:49:48Z</time>
      </trkpt>
      <trkpt lat="45.53296" lon="6.76575">
        <ele>1498.96</ele>
        <time>2015-08-03T08:49:49Z</time>
      </trkpt>
      <trkpt lat="45.53297" lon="6.76573">
        <ele>1499.08</ele>
        <time>2015-08-03T08:49:50Z</time>
      </trkpt>
      <trkpt lat="45.53298" lon="6.7657">
        <ele>1499.2</ele>
        <time>2015-08-03T08:49:51Z</time>
      </trkpt>
      <trkpt lat="45.53299" lon="6.76568">
        <ele>1499.33</ele>
        <time>2015-08-03T08:49:52Z</time>
      </trkpt>
      <trkpt lat="45.53299" lon="6.76563">
        <ele>1499.58</ele>
        <time>2015-08-03T08:49:54Z</time>
      </trkpt>
      <trkpt lat="45.53299" lon="6.7656">
        <ele>1499.74</ele>
        <time>2015-08-03T08:49:55Z</time>
      </trkpt>
      <trkpt lat="45.53299" lon="6.76558">
        <ele>1499.89</ele>
        <time>2015-08-03T08:49:56Z</time>
      </trkpt>
      <trkpt lat="45.533" lon="6.76556">
        <ele>1500.03</ele>
        <time>2015-08-03T08:49:57Z</time>
      </trkpt>
      <trkpt lat="45.533" lon="6.76553">
        <ele>1500.15</ele>
        <time>2015-08-03T08:49:58Z</time>
      </trkpt>
      <trkpt lat="45.533" lon="6.76551">
        <ele>1500.26</ele>
        <time>2015-08-03T08:49:59Z</time>
      </trkpt>
      <trkpt lat="45.53301" lon="6.76548">
        <ele>1500.38</ele>
        <time>2015-08-03T08:50:00Z</time>
      </trkpt>
      <trkpt lat="45.533" lon="6.76545">
        <ele>1500.5</ele>
        <time>2015-08-03T08:50:01Z</time>
      </trkpt>
      <trkpt lat="45.53301" lon="6.76543">
        <ele>1500.66</ele>
        <time>2015-08-03T08:50:02Z</time>
      </trkpt>
      <trkpt lat="45.53301" lon="6.76541">
        <ele>1500.87</ele>
        <time>2015-08-03T08:50:03Z</time>
      </trkpt>
      <trkpt lat="45.53304" lon="6.76526">
        <ele>1501.93</ele>
        <time>2015-08-03T08:50:10Z</time>
      </trkpt>
      <trkpt lat="45.53305" lon="6.76523">
        <ele>1502.04</ele>
        <time>2015-08-03T08:50:11Z</time>
      </trkpt>
      <trkpt lat="45.53305" lon="6.76521">
        <ele>1502.12</ele>
        <time>2015-08-03T08:50:12Z</time>
      </trkpt>
      <trkpt lat="45.53305" lon="6.76518">
        <ele>1502.22</ele>
        <time>2015-08-03T08:50:13Z</time>
      </trkpt>
      <trkpt lat="45.53306" lon="6.76515">
        <ele>1502.36</ele>
        <time>2015-08-03T08:50:14Z</time>
      </trkpt>
      <trkpt lat="45.53306" lon="6.76513">
        <ele>1502.52</ele>
        <time>2015-08-03T08:50:15Z</time>
      </trkpt>
      <trkpt lat="45.53306" lon="6.76511">
        <ele>1502.81</ele>
        <time>2015-08-03T08:50:16Z</time>
      </trkpt>
      <trkpt lat="45.53305" lon="6.76509">
        <ele>1502.96</ele>
        <time>2015-08-03T08:50:17Z</time>
      </trkpt>
      <trkpt lat="45.53305" lon="6.76507">
        <ele>1503.12</ele>
        <time>2015-08-03T08:50:18Z</time>
      </trkpt>
      <trkpt lat="45.53305" lon="6.76505">
        <ele>1503.26</ele>
        <time>2015-08-03T08:50:19Z</time>
      </trkpt>
      <trkpt lat="45.53305" lon="6.76503">
        <ele>1503.37</ele>
        <time>2015-08-03T08:50:20Z</time>
      </trkpt>
      <trkpt lat="45.53305" lon="6.76501">
        <ele>1503.47</ele>
        <time>2015-08-03T08:50:21Z</time>
      </trkpt>
      <trkpt lat="45.53305" lon="6.76498">
        <ele>1503.57</ele>
        <time>2015-08-03T08:50:22Z</time>
      </trkpt>
      <trkpt lat="45.53304" lon="6.76496">
        <ele>1503.67</ele>
        <time>2015-08-03T08:50:23Z</time>
      </trkpt>
      <trkpt lat="45.53304" lon="6.76493">
        <ele>1503.77</ele>
        <time>2015-08-03T08:50:24Z</time>
      </trkpt>
      <trkpt lat="45.53308" lon="6.76473">
        <ele>1504.55</ele>
        <time>2015-08-03T08:50:32Z</time>
      </trkpt>
      <trkpt lat="45.53309" lon="6.76471">
        <ele>1504.68</ele>
        <time>2015-08-03T08:50:33Z</time>
      </trkpt>
      <trkpt lat="45.53314" lon="6.76449">
        <ele>1506.28</ele>
        <time>2015-08-03T08:50:44Z</time>
      </trkpt>
      <trkpt lat="45.53318" lon="6.76441">
        <ele>1506.82</ele>
        <time>2015-08-03T08:50:47Z</time>
      </trkpt>
      <trkpt lat="45.5332" lon="6.76413">
        <ele>1508.47</ele>
        <time>2015-08-03T08:50:59Z</time>
      </trkpt>
      <trkpt lat="45.5332" lon="6.76408">
        <ele>1508.69</ele>
        <time>2015-08-03T08:51:01Z</time>
      </trkpt>
      <trkpt lat="45.53325" lon="6.76386">
        <ele>1509.53</ele>
        <time>2015-08-03T08:51:10Z</time>
      </trkpt>
      <trkpt lat="45.53336" lon="6.76369">
        <ele>1510.35</ele>
        <time>2015-08-03T08:51:17Z</time>
      </trkpt>
      <trkpt lat="45.53338" lon="6.76368">
        <ele>1510.48</ele>
        <time>2015-08-03T08:51:18Z</time>
      </trkpt>
      <trkpt lat="45.53339" lon="6.76366">
        <ele>1510.58</ele>
        <time>2015-08-03T08:51:19Z</time>
      </trkpt>
      <trkpt lat="45.5334" lon="6.76365">
        <ele>1510.67</ele>
        <time>2015-08-03T08:51:20Z</time>
      </trkpt>
      <trkpt lat="45.53341" lon="6.76363">
        <ele>1510.75</ele>
        <time>2015-08-03T08:51:21Z</time>
      </trkpt>
      <trkpt lat="45.53342" lon="6.76361">
        <ele>1510.82</ele>
        <time>2015-08-03T08:51:22Z</time>
      </trkpt>
      <trkpt lat="45.53344" lon="6.76359">
        <ele>1510.9</ele>
        <time>2015-08-03T08:51:23Z</time>
      </trkpt>
      <trkpt lat="45.53354" lon="6.76338">
        <ele>1512.18</ele>
        <time>2015-08-03T08:51:34Z</time>
      </trkpt>
      <trkpt lat="45.53356" lon="6.76326">
        <ele>1512.83</ele>
        <time>2015-08-03T08:51:40Z</time>
      </trkpt>
      <trkpt lat="45.53357" lon="6.76323">
        <ele>1512.95</ele>
        <time>2015-08-03T08:51:41Z</time>
      </trkpt>
      <trkpt lat="45.53357" lon="6.76321">
        <ele>1513.07</ele>
        <time>2015-08-03T08:51:42Z</time>
      </trkpt>
      <trkpt lat="45.53357" lon="6.76319">
        <ele>1513.19</ele>
        <time>2015-08-03T08:51:43Z</time>
      </trkpt>
      <trkpt lat="45.53358" lon="6.76316">
        <ele>1513.27</ele>
        <time>2015-08-03T08:51:44Z</time>
      </trkpt>
      <trkpt lat="45.53358" lon="6.76314">
        <ele>1513.38</ele>
        <time>2015-08-03T08:51:45Z</time>
      </trkpt>
      <trkpt lat="45.53357" lon="6.76312">
        <ele>1513.49</ele>
        <time>2015-08-03T08:51:46Z</time>
      </trkpt>
      <trkpt lat="45.53357" lon="6.76309">
        <ele>1513.59</ele>
        <time>2015-08-03T08:51:47Z</time>
      </trkpt>
      <trkpt lat="45.53357" lon="6.76307">
        <ele>1513.68</ele>
        <time>2015-08-03T08:51:48Z</time>
      </trkpt>
      <trkpt lat="45.53357" lon="6.76305">
        <ele>1513.76</ele>
        <time>2015-08-03T08:51:49Z</time>
      </trkpt>
      <trkpt lat="45.53357" lon="6.76303">
        <ele>1513.84</ele>
        <time>2015-08-03T08:51:50Z</time>
      </trkpt>
      <trkpt lat="45.53357" lon="6.76301">
        <ele>1513.93</ele>
        <time>2015-08-03T08:51:51Z</time>
      </trkpt>
      <trkpt lat="45.53357" lon="6.76299">
        <ele>1514.11</ele>
        <time>2015-08-03T08:51:52Z</time>
      </trkpt>
      <trkpt lat="45.53357" lon="6.76297">
        <ele>1514.21</ele>
        <time>2015-08-03T08:51:53Z</time>
      </trkpt>
      <trkpt lat="45.53357" lon="6.76294">
        <ele>1514.21</ele>
        <time>2015-08-03T08:51:54Z</time>
      </trkpt>
      <trkpt lat="45.53357" lon="6.76292">
        <ele>1514.44</ele>
        <time>2015-08-03T08:51:55Z</time>
      </trkpt>
      <trkpt lat="45.53357" lon="6.7629">
        <ele>1514.56</ele>
        <time>2015-08-03T08:51:56Z</time>
      </trkpt>
      <trkpt lat="45.53357" lon="6.76288">
        <ele>1514.66</ele>
        <time>2015-08-03T08:51:57Z</time>
      </trkpt>
      <trkpt lat="45.53358" lon="6.76286">
        <ele>1514.72</ele>
        <time>2015-08-03T08:51:58Z</time>
      </trkpt>
      <trkpt lat="45.53358" lon="6.76283">
        <ele>1514.78</ele>
        <time>2015-08-03T08:51:59Z</time>
      </trkpt>
      <trkpt lat="45.53359" lon="6.76281">
        <ele>1514.82</ele>
        <time>2015-08-03T08:52:00Z</time>
      </trkpt>
      <trkpt lat="45.53359" lon="6.76279">
        <ele>1514.88</ele>
        <time>2015-08-03T08:52:01Z</time>
      </trkpt>
      <trkpt lat="45.53362" lon="6.76268">
        <ele>1515.27</ele>
        <time>2015-08-03T08:52:07Z</time>
      </trkpt>
      <trkpt lat="45.53362" lon="6.76265">
        <ele>1515.37</ele>
        <time>2015-08-03T08:52:08Z</time>
      </trkpt>
      <trkpt lat="45.53362" lon="6.76263">
        <ele>1515.48</ele>
        <time>2015-08-03T08:52:09Z</time>
      </trkpt>
      <trkpt lat="45.53364" lon="6.76255">
        <ele>1515.85</ele>
        <time>2015-08-03T08:52:12Z</time>
      </trkpt>
      <trkpt lat="45.53365" lon="6.76252">
        <ele>1516.01</ele>
        <time>2015-08-03T08:52:13Z</time>
      </trkpt>
      <trkpt lat="45.53365" lon="6.7625">
        <ele>1516.16</ele>
        <time>2015-08-03T08:52:14Z</time>
      </trkpt>
      <trkpt lat="45.53366" lon="6.76247">
        <ele>1516.28</ele>
        <time>2015-08-03T08:52:15Z</time>
      </trkpt>
      <trkpt lat="45.53367" lon="6.76245">
        <ele>1516.37</ele>
        <time>2015-08-03T08:52:16Z</time>
      </trkpt>
      <trkpt lat="45.53367" lon="6.76242">
        <ele>1516.46</ele>
        <time>2015-08-03T08:52:17Z</time>
      </trkpt>
      <trkpt lat="45.53367" lon="6.76239">
        <ele>1516.52</ele>
        <time>2015-08-03T08:52:18Z</time>
      </trkpt>
      <trkpt lat="45.53367" lon="6.76237">
        <ele>1516.58</ele>
        <time>2015-08-03T08:52:19Z</time>
      </trkpt>
      <trkpt lat="45.53367" lon="6.76235">
        <ele>1516.7</ele>
        <time>2015-08-03T08:52:20Z</time>
      </trkpt>
      <trkpt lat="45.53367" lon="6.76209">
        <ele>1517.36</ele>
        <time>2015-08-03T08:52:30Z</time>
      </trkpt>
      <trkpt lat="45.53367" lon="6.76207">
        <ele>1517.43</ele>
        <time>2015-08-03T08:52:31Z</time>
      </trkpt>
      <trkpt lat="45.53366" lon="6.76204">
        <ele>1517.55</ele>
        <time>2015-08-03T08:52:32Z</time>
      </trkpt>
      <trkpt lat="45.53366" lon="6.76192">
        <ele>1518.22</ele>
        <time>2015-08-03T08:52:41Z</time>
      </trkpt>
      <trkpt lat="45.53362" lon="6.7618">
        <ele>1518.82</ele>
        <time>2015-08-03T08:52:54Z</time>
      </trkpt>
      <trkpt lat="45.53362" lon="6.76178">
        <ele>1518.84</ele>
        <time>2015-08-03T08:52:55Z</time>
      </trkpt>
      <trkpt lat="45.53363" lon="6.76175">
        <ele>1518.87</ele>
        <time>2015-08-03T08:52:56Z</time>
      </trkpt>
      <trkpt lat="45.53363" lon="6.76173">
        <ele>1518.93</ele>
        <time>2015-08-03T08:52:57Z</time>
      </trkpt>
      <trkpt lat="45.53363" lon="6.76171">
        <ele>1519</ele>
        <time>2015-08-03T08:52:58Z</time>
      </trkpt>
      <trkpt lat="45.53363" lon="6.76169">
        <ele>1519.08</ele>
        <time>2015-08-03T08:52:59Z</time>
      </trkpt>
      <trkpt lat="45.53362" lon="6.76167">
        <ele>1519.14</ele>
        <time>2015-08-03T08:53:00Z</time>
      </trkpt>
      <trkpt lat="45.53362" lon="6.76165">
        <ele>1519.21</ele>
        <time>2015-08-03T08:53:01Z</time>
      </trkpt>
      <trkpt lat="45.53368" lon="6.76142">
        <ele>1520.34</ele>
        <time>2015-08-03T08:53:11Z</time>
      </trkpt>
      <trkpt lat="45.53373" lon="6.76107">
        <ele>1521.98</ele>
        <time>2015-08-03T08:53:24Z</time>
      </trkpt>
      <trkpt lat="45.53366" lon="6.76094">
        <ele>1522.91</ele>
        <time>2015-08-03T08:53:33Z</time>
      </trkpt>
      <trkpt lat="45.53349" lon="6.76086">
        <ele>1524.85</ele>
        <time>2015-08-03T08:53:44Z</time>
      </trkpt>
      <trkpt lat="45.53333" lon="6.76077">
        <ele>1526.45</ele>
        <time>2015-08-03T08:53:54Z</time>
      </trkpt>
      <trkpt lat="45.53315" lon="6.76052">
        <ele>1528.74</ele>
        <time>2015-08-03T08:54:07Z</time>
      </trkpt>
      <trkpt lat="45.53303" lon="6.76033">
        <ele>1530</ele>
        <time>2015-08-03T08:54:17Z</time>
      </trkpt>
      <trkpt lat="45.533" lon="6.76025">
        <ele>1530.23</ele>
        <time>2015-08-03T08:54:20Z</time>
      </trkpt>
      <trkpt lat="45.53301" lon="6.76021">
        <ele>1530.28</ele>
        <time>2015-08-03T08:54:21Z</time>
      </trkpt>
      <trkpt lat="45.53302" lon="6.76018">
        <ele>1530.44</ele>
        <time>2015-08-03T08:54:22Z</time>
      </trkpt>
      <trkpt lat="45.53303" lon="6.76016">
        <ele>1530.54</ele>
        <time>2015-08-03T08:54:23Z</time>
      </trkpt>
      <trkpt lat="45.53304" lon="6.76014">
        <ele>1530.63</ele>
        <time>2015-08-03T08:54:24Z</time>
      </trkpt>
      <trkpt lat="45.53306" lon="6.76013">
        <ele>1530.7</ele>
        <time>2015-08-03T08:54:25Z</time>
      </trkpt>
      <trkpt lat="45.53307" lon="6.7601">
        <ele>1530.8</ele>
        <time>2015-08-03T08:54:26Z</time>
      </trkpt>
      <trkpt lat="45.53307" lon="6.76008">
        <ele>1530.91</ele>
        <time>2015-08-03T08:54:27Z</time>
      </trkpt>
      <trkpt lat="45.53309" lon="6.76006">
        <ele>1531.04</ele>
        <time>2015-08-03T08:54:28Z</time>
      </trkpt>
      <trkpt lat="45.5331" lon="6.76005">
        <ele>1531.2</ele>
        <time>2015-08-03T08:54:29Z</time>
      </trkpt>
      <trkpt lat="45.53311" lon="6.76003">
        <ele>1531.39</ele>
        <time>2015-08-03T08:54:30Z</time>
      </trkpt>
      <trkpt lat="45.5332" lon="6.75993">
        <ele>1532.51</ele>
        <time>2015-08-03T08:54:37Z</time>
      </trkpt>
      <trkpt lat="45.53321" lon="6.75992">
        <ele>1532.66</ele>
        <time>2015-08-03T08:54:38Z</time>
      </trkpt>
      <trkpt lat="45.53322" lon="6.7599">
        <ele>1532.82</ele>
        <time>2015-08-03T08:54:39Z</time>
      </trkpt>
      <trkpt lat="45.53335" lon="6.75983">
        <ele>1533.98</ele>
        <time>2015-08-03T08:54:46Z</time>
      </trkpt>
      <trkpt lat="45.53337" lon="6.75982">
        <ele>1534.11</ele>
        <time>2015-08-03T08:54:47Z</time>
      </trkpt>
      <trkpt lat="45.53339" lon="6.75981">
        <ele>1534.28</ele>
        <time>2015-08-03T08:54:48Z</time>
      </trkpt>
      <trkpt lat="45.5334" lon="6.7598">
        <ele>1534.46</ele>
        <time>2015-08-03T08:54:49Z</time>
      </trkpt>
      <trkpt lat="45.53342" lon="6.75979">
        <ele>1534.66</ele>
        <time>2015-08-03T08:54:50Z</time>
      </trkpt>
      <trkpt lat="45.53344" lon="6.75977">
        <ele>1534.85</ele>
        <time>2015-08-03T08:54:51Z</time>
      </trkpt>
      <trkpt lat="45.53345" lon="6.75975">
        <ele>1535.02</ele>
        <time>2015-08-03T08:54:52Z</time>
      </trkpt>
      <trkpt lat="45.53346" lon="6.75974">
        <ele>1535.21</ele>
        <time>2015-08-03T08:54:53Z</time>
      </trkpt>
      <trkpt lat="45.53348" lon="6.7597">
        <ele>1535.55</ele>
        <time>2015-08-03T08:54:55Z</time>
      </trkpt>
      <trkpt lat="45.53349" lon="6.75969">
        <ele>1535.7</ele>
        <time>2015-08-03T08:54:56Z</time>
      </trkpt>
      <trkpt lat="45.5335" lon="6.75967">
        <ele>1535.83</ele>
        <time>2015-08-03T08:54:57Z</time>
      </trkpt>
      <trkpt lat="45.53351" lon="6.75965">
        <ele>1535.96</ele>
        <time>2015-08-03T08:54:58Z</time>
      </trkpt>
      <trkpt lat="45.53351" lon="6.75964">
        <ele>1536.09</ele>
        <time>2015-08-03T08:54:59Z</time>
      </trkpt>
      <trkpt lat="45.53352" lon="6.75962">
        <ele>1536.22</ele>
        <time>2015-08-03T08:55:00Z</time>
      </trkpt>
      <trkpt lat="45.53353" lon="6.7596">
        <ele>1536.36</ele>
        <time>2015-08-03T08:55:01Z</time>
      </trkpt>
      <trkpt lat="45.5336" lon="6.75946">
        <ele>1537.65</ele>
        <time>2015-08-03T08:55:10Z</time>
      </trkpt>
      <trkpt lat="45.53364" lon="6.75934">
        <ele>1538.73</ele>
        <time>2015-08-03T08:55:16Z</time>
      </trkpt>
      <trkpt lat="45.53363" lon="6.75931">
        <ele>1538.86</ele>
        <time>2015-08-03T08:55:17Z</time>
      </trkpt>
      <trkpt lat="45.53363" lon="6.7593">
        <ele>1538.98</ele>
        <time>2015-08-03T08:55:18Z</time>
      </trkpt>
      <trkpt lat="45.53363" lon="6.75928">
        <ele>1539.14</ele>
        <time>2015-08-03T08:55:19Z</time>
      </trkpt>
      <trkpt lat="45.53364" lon="6.75925">
        <ele>1539.34</ele>
        <time>2015-08-03T08:55:20Z</time>
      </trkpt>
      <trkpt lat="45.53365" lon="6.75924">
        <ele>1539.53</ele>
        <time>2015-08-03T08:55:21Z</time>
      </trkpt>
      <trkpt lat="45.53367" lon="6.75919">
        <ele>1540.22</ele>
        <time>2015-08-03T08:55:24Z</time>
      </trkpt>
      <trkpt lat="45.53374" lon="6.75899">
        <ele>1541.91</ele>
        <time>2015-08-03T08:55:35Z</time>
      </trkpt>
      <trkpt lat="45.53378" lon="6.75894">
        <ele>1542.22</ele>
        <time>2015-08-03T08:55:38Z</time>
      </trkpt>
      <trkpt lat="45.53379" lon="6.75892">
        <ele>1542.57</ele>
        <time>2015-08-03T08:55:39Z</time>
      </trkpt>
      <trkpt lat="45.5338" lon="6.75891">
        <ele>1542.79</ele>
        <time>2015-08-03T08:55:40Z</time>
      </trkpt>
      <trkpt lat="45.5338" lon="6.75888">
        <ele>1542.98</ele>
        <time>2015-08-03T08:55:41Z</time>
      </trkpt>
      <trkpt lat="45.5338" lon="6.75886">
        <ele>1543.16</ele>
        <time>2015-08-03T08:55:42Z</time>
      </trkpt>
      <trkpt lat="45.5338" lon="6.75884">
        <ele>1543.33</ele>
        <time>2015-08-03T08:55:43Z</time>
      </trkpt>
      <trkpt lat="45.5338" lon="6.75881">
        <ele>1543.51</ele>
        <time>2015-08-03T08:55:44Z</time>
      </trkpt>
      <trkpt lat="45.53383" lon="6.75851">
        <ele>1545.18</ele>
        <time>2015-08-03T08:55:56Z</time>
      </trkpt>
      <trkpt lat="45.53381" lon="6.75823">
        <ele>1547.15</ele>
        <time>2015-08-03T08:56:09Z</time>
      </trkpt>
      <trkpt lat="45.53378" lon="6.758">
        <ele>1549.19</ele>
        <time>2015-08-03T08:56:21Z</time>
      </trkpt>
      <trkpt lat="45.53378" lon="6.75798">
        <ele>1549.34</ele>
        <time>2015-08-03T08:56:22Z</time>
      </trkpt>
      <trkpt lat="45.53377" lon="6.75797">
        <ele>1549.48</ele>
        <time>2015-08-03T08:56:23Z</time>
      </trkpt>
      <trkpt lat="45.53377" lon="6.75795">
        <ele>1549.63</ele>
        <time>2015-08-03T08:56:24Z</time>
      </trkpt>
      <trkpt lat="45.53377" lon="6.75794">
        <ele>1549.8</ele>
        <time>2015-08-03T08:56:25Z</time>
      </trkpt>
      <trkpt lat="45.53376" lon="6.75792">
        <ele>1549.97</ele>
        <time>2015-08-03T08:56:26Z</time>
      </trkpt>
      <trkpt lat="45.53366" lon="6.7578">
        <ele>1551.61</ele>
        <time>2015-08-03T08:56:36Z</time>
      </trkpt>
      <trkpt lat="45.53358" lon="6.75762">
        <ele>1552.64</ele>
        <time>2015-08-03T08:56:45Z</time>
      </trkpt>
      <trkpt lat="45.53356" lon="6.75754">
        <ele>1553.24</ele>
        <time>2015-08-03T08:56:49Z</time>
      </trkpt>
      <trkpt lat="45.53355" lon="6.75751">
        <ele>1553.48</ele>
        <time>2015-08-03T08:56:50Z</time>
      </trkpt>
      <trkpt lat="45.53355" lon="6.75749">
        <ele>1553.71</ele>
        <time>2015-08-03T08:56:51Z</time>
      </trkpt>
      <trkpt lat="45.53351" lon="6.75718">
        <ele>1555.88</ele>
        <time>2015-08-03T08:57:04Z</time>
      </trkpt>
      <trkpt lat="45.53354" lon="6.75689">
        <ele>1557.32</ele>
        <time>2015-08-03T08:57:16Z</time>
      </trkpt>
      <trkpt lat="45.53357" lon="6.75679">
        <ele>1558.1</ele>
        <time>2015-08-03T08:57:21Z</time>
      </trkpt>
      <trkpt lat="45.53357" lon="6.75676">
        <ele>1558.24</ele>
        <time>2015-08-03T08:57:22Z</time>
      </trkpt>
      <trkpt lat="45.53357" lon="6.75674">
        <ele>1558.4</ele>
        <time>2015-08-03T08:57:23Z</time>
      </trkpt>
      <trkpt lat="45.5336" lon="6.75647">
        <ele>1560.37</ele>
        <time>2015-08-03T08:57:36Z</time>
      </trkpt>
      <trkpt lat="45.53372" lon="6.75626">
        <ele>1562.24</ele>
        <time>2015-08-03T08:57:47Z</time>
      </trkpt>
      <trkpt lat="45.53388" lon="6.75609">
        <ele>1563.61</ele>
        <time>2015-08-03T08:57:58Z</time>
      </trkpt>
      <trkpt lat="45.53393" lon="6.75595">
        <ele>1564.48</ele>
        <time>2015-08-03T08:58:05Z</time>
      </trkpt>
      <trkpt lat="45.53398" lon="6.75573">
        <ele>1566.42</ele>
        <time>2015-08-03T08:58:17Z</time>
      </trkpt>
      <trkpt lat="45.53399" lon="6.75552">
        <ele>1567.78</ele>
        <time>2015-08-03T08:58:27Z</time>
      </trkpt>
      <trkpt lat="45.53399" lon="6.7555">
        <ele>1567.9</ele>
        <time>2015-08-03T08:58:28Z</time>
      </trkpt>
      <trkpt lat="45.53398" lon="6.75548">
        <ele>1568.05</ele>
        <time>2015-08-03T08:58:29Z</time>
      </trkpt>
      <trkpt lat="45.53398" lon="6.75547">
        <ele>1568.22</ele>
        <time>2015-08-03T08:58:30Z</time>
      </trkpt>
      <trkpt lat="45.53398" lon="6.75545">
        <ele>1568.4</ele>
        <time>2015-08-03T08:58:31Z</time>
      </trkpt>
      <trkpt lat="45.53399" lon="6.75544">
        <ele>1568.74</ele>
        <time>2015-08-03T08:58:32Z</time>
      </trkpt>
      <trkpt lat="45.53399" lon="6.75542">
        <ele>1568.74</ele>
        <time>2015-08-03T08:58:33Z</time>
      </trkpt>
      <trkpt lat="45.53399" lon="6.7554">
        <ele>1569.03</ele>
        <time>2015-08-03T08:58:34Z</time>
      </trkpt>
      <trkpt lat="45.53399" lon="6.75539">
        <ele>1569.18</ele>
        <time>2015-08-03T08:58:35Z</time>
      </trkpt>
      <trkpt lat="45.53401" lon="6.75531">
        <ele>1569.87</ele>
        <time>2015-08-03T08:58:40Z</time>
      </trkpt>
      <trkpt lat="45.53402" lon="6.75529">
        <ele>1570.04</ele>
        <time>2015-08-03T08:58:41Z</time>
      </trkpt>
      <trkpt lat="45.53412" lon="6.75512">
        <ele>1571.74</ele>
        <time>2015-08-03T08:58:53Z</time>
      </trkpt>
      <trkpt lat="45.53417" lon="6.75491">
        <ele>1573.22</ele>
        <time>2015-08-03T08:59:03Z</time>
      </trkpt>
      <trkpt lat="45.53417" lon="6.75489">
        <ele>1573.37</ele>
        <time>2015-08-03T08:59:05Z</time>
      </trkpt>
      <trkpt lat="45.53418" lon="6.75487">
        <ele>1573.44</ele>
        <time>2015-08-03T08:59:06Z</time>
      </trkpt>
      <trkpt lat="45.53419" lon="6.75485">
        <ele>1573.5</ele>
        <time>2015-08-03T08:59:07Z</time>
      </trkpt>
      <trkpt lat="45.53419" lon="6.75484">
        <ele>1573.57</ele>
        <time>2015-08-03T08:59:08Z</time>
      </trkpt>
      <trkpt lat="45.5342" lon="6.75482">
        <ele>1573.63</ele>
        <time>2015-08-03T08:59:09Z</time>
      </trkpt>
      <trkpt lat="45.53421" lon="6.7548">
        <ele>1573.73</ele>
        <time>2015-08-03T08:59:10Z</time>
      </trkpt>
      <trkpt lat="45.53421" lon="6.75478">
        <ele>1573.85</ele>
        <time>2015-08-03T08:59:11Z</time>
      </trkpt>
      <trkpt lat="45.53421" lon="6.75474">
        <ele>1574.15</ele>
        <time>2015-08-03T08:59:13Z</time>
      </trkpt>
      <trkpt lat="45.53421" lon="6.75473">
        <ele>1574.3</ele>
        <time>2015-08-03T08:59:14Z</time>
      </trkpt>
      <trkpt lat="45.53421" lon="6.75471">
        <ele>1574.45</ele>
        <time>2015-08-03T08:59:15Z</time>
      </trkpt>
      <trkpt lat="45.53421" lon="6.75469">
        <ele>1574.6</ele>
        <time>2015-08-03T08:59:16Z</time>
      </trkpt>
      <trkpt lat="45.53421" lon="6.75467">
        <ele>1574.73</ele>
        <time>2015-08-03T08:59:17Z</time>
      </trkpt>
      <trkpt lat="45.53421" lon="6.75465">
        <ele>1574.85</ele>
        <time>2015-08-03T08:59:18Z</time>
      </trkpt>
      <trkpt lat="45.53426" lon="6.75447">
        <ele>1576.5</ele>
        <time>2015-08-03T08:59:29Z</time>
      </trkpt>
      <trkpt lat="45.53428" lon="6.7543">
        <ele>1577.92</ele>
        <time>2015-08-03T08:59:40Z</time>
      </trkpt>
      <trkpt lat="45.53433" lon="6.75414">
        <ele>1579.29</ele>
        <time>2015-08-03T08:59:51Z</time>
      </trkpt>
      <trkpt lat="45.53443" lon="6.75389">
        <ele>1580.72</ele>
        <time>2015-08-03T09:00:04Z</time>
      </trkpt>
      <trkpt lat="45.53446" lon="6.75379">
        <ele>1581.43</ele>
        <time>2015-08-03T09:00:09Z</time>
      </trkpt>
      <trkpt lat="45.53447" lon="6.75377">
        <ele>1581.64</ele>
        <time>2015-08-03T09:00:10Z</time>
      </trkpt>
      <trkpt lat="45.53448" lon="6.75375">
        <ele>1581.72</ele>
        <time>2015-08-03T09:00:11Z</time>
      </trkpt>
      <trkpt lat="45.53449" lon="6.75373">
        <ele>1581.9</ele>
        <time>2015-08-03T09:00:13Z</time>
      </trkpt>
      <trkpt lat="45.5345" lon="6.75372">
        <ele>1581.99</ele>
        <time>2015-08-03T09:00:14Z</time>
      </trkpt>
      <trkpt lat="45.53455" lon="6.75355">
        <ele>1583.19</ele>
        <time>2015-08-03T09:00:23Z</time>
      </trkpt>
      <trkpt lat="45.53455" lon="6.75354">
        <ele>1583.29</ele>
        <time>2015-08-03T09:00:24Z</time>
      </trkpt>
      <trkpt lat="45.53456" lon="6.75353">
        <ele>1583.41</ele>
        <time>2015-08-03T09:00:25Z</time>
      </trkpt>
      <trkpt lat="45.53456" lon="6.75351">
        <ele>1583.55</ele>
        <time>2015-08-03T09:00:26Z</time>
      </trkpt>
      <trkpt lat="45.53458" lon="6.75345">
        <ele>1584.18</ele>
        <time>2015-08-03T09:00:30Z</time>
      </trkpt>
      <trkpt lat="45.53463" lon="6.75337">
        <ele>1585.01</ele>
        <time>2015-08-03T09:00:35Z</time>
      </trkpt>
      <trkpt lat="45.5347" lon="6.75323">
        <ele>1586.5</ele>
        <time>2015-08-03T09:00:45Z</time>
      </trkpt>
      <trkpt lat="45.53473" lon="6.7532">
        <ele>1586.72</ele>
        <time>2015-08-03T09:00:47Z</time>
      </trkpt>
      <trkpt lat="45.53474" lon="6.75319">
        <ele>1586.84</ele>
        <time>2015-08-03T09:00:48Z</time>
      </trkpt>
      <trkpt lat="45.53481" lon="6.75302">
        <ele>1588.13</ele>
        <time>2015-08-03T09:00:59Z</time>
      </trkpt>
      <trkpt lat="45.53482" lon="6.75298">
        <ele>1588.36</ele>
        <time>2015-08-03T09:01:01Z</time>
      </trkpt>
      <trkpt lat="45.5349" lon="6.75283">
        <ele>1590.05</ele>
        <time>2015-08-03T09:01:12Z</time>
      </trkpt>
      <trkpt lat="45.535" lon="6.7526">
        <ele>1591.94</ele>
        <time>2015-08-03T09:01:26Z</time>
      </trkpt>
      <trkpt lat="45.53501" lon="6.75241">
        <ele>1593.11</ele>
        <time>2015-08-03T09:01:38Z</time>
      </trkpt>
      <trkpt lat="45.53502" lon="6.75222">
        <ele>1593.77</ele>
        <time>2015-08-03T09:01:47Z</time>
      </trkpt>
      <trkpt lat="45.53502" lon="6.75219">
        <ele>1593.87</ele>
        <time>2015-08-03T09:01:48Z</time>
      </trkpt>
      <trkpt lat="45.53501" lon="6.75217">
        <ele>1593.97</ele>
        <time>2015-08-03T09:01:49Z</time>
      </trkpt>
      <trkpt lat="45.535" lon="6.75214">
        <ele>1594.17</ele>
        <time>2015-08-03T09:01:50Z</time>
      </trkpt>
      <trkpt lat="45.535" lon="6.75212">
        <ele>1594.28</ele>
        <time>2015-08-03T09:01:51Z</time>
      </trkpt>
      <trkpt lat="45.535" lon="6.7521">
        <ele>1594.41</ele>
        <time>2015-08-03T09:01:52Z</time>
      </trkpt>
      <trkpt lat="45.53499" lon="6.75208">
        <ele>1594.51</ele>
        <time>2015-08-03T09:01:53Z</time>
      </trkpt>
      <trkpt lat="45.53499" lon="6.75206">
        <ele>1594.61</ele>
        <time>2015-08-03T09:01:54Z</time>
      </trkpt>
      <trkpt lat="45.53499" lon="6.75197">
        <ele>1595.26</ele>
        <time>2015-08-03T09:01:59Z</time>
      </trkpt>
      <trkpt lat="45.53499" lon="6.75195">
        <ele>1595.38</ele>
        <time>2015-08-03T09:02:00Z</time>
      </trkpt>
      <trkpt lat="45.53497" lon="6.75175">
        <ele>1597.09</ele>
        <time>2015-08-03T09:02:11Z</time>
      </trkpt>
      <trkpt lat="45.53497" lon="6.75174">
        <ele>1597.27</ele>
        <time>2015-08-03T09:02:12Z</time>
      </trkpt>
      <trkpt lat="45.53495" lon="6.75162">
        <ele>1598.49</ele>
        <time>2015-08-03T09:02:18Z</time>
      </trkpt>
      <trkpt lat="45.53495" lon="6.7516">
        <ele>1598.68</ele>
        <time>2015-08-03T09:02:19Z</time>
      </trkpt>
      <trkpt lat="45.53495" lon="6.75155">
        <ele>1599.15</ele>
        <time>2015-08-03T09:02:22Z</time>
      </trkpt>
      <trkpt lat="45.53494" lon="6.75154">
        <ele>1599.3</ele>
        <time>2015-08-03T09:02:23Z</time>
      </trkpt>
      <trkpt lat="45.53494" lon="6.75152">
        <ele>1599.43</ele>
        <time>2015-08-03T09:02:24Z</time>
      </trkpt>
      <trkpt lat="45.53494" lon="6.7515">
        <ele>1599.54</ele>
        <time>2015-08-03T09:02:25Z</time>
      </trkpt>
      <trkpt lat="45.53494" lon="6.75139">
        <ele>1600.85</ele>
        <time>2015-08-03T09:02:32Z</time>
      </trkpt>
      <trkpt lat="45.53495" lon="6.75131">
        <ele>1601.63</ele>
        <time>2015-08-03T09:02:37Z</time>
      </trkpt>
      <trkpt lat="45.53496" lon="6.75129">
        <ele>1601.94</ele>
        <time>2015-08-03T09:02:38Z</time>
      </trkpt>
      <trkpt lat="45.53495" lon="6.75126">
        <ele>1602.29</ele>
        <time>2015-08-03T09:02:40Z</time>
      </trkpt>
      <trkpt lat="45.53494" lon="6.75123">
        <ele>1602.67</ele>
        <time>2015-08-03T09:02:42Z</time>
      </trkpt>
      <trkpt lat="45.53493" lon="6.75121">
        <ele>1602.88</ele>
        <time>2015-08-03T09:02:43Z</time>
      </trkpt>
      <trkpt lat="45.5349" lon="6.7512">
        <ele>1603.26</ele>
        <time>2015-08-03T09:02:45Z</time>
      </trkpt>
      <trkpt lat="45.53488" lon="6.7512">
        <ele>1603.43</ele>
        <time>2015-08-03T09:02:46Z</time>
      </trkpt>
      <trkpt lat="45.53487" lon="6.7512">
        <ele>1603.58</ele>
        <time>2015-08-03T09:02:47Z</time>
      </trkpt>
      <trkpt lat="45.53486" lon="6.75121">
        <ele>1603.72</ele>
        <time>2015-08-03T09:02:48Z</time>
      </trkpt>
      <trkpt lat="45.53486" lon="6.75123">
        <ele>1603.86</ele>
        <time>2015-08-03T09:02:49Z</time>
      </trkpt>
      <trkpt lat="45.53485" lon="6.75125">
        <ele>1603.99</ele>
        <time>2015-08-03T09:02:50Z</time>
      </trkpt>
      <trkpt lat="45.53485" lon="6.75127">
        <ele>1604.09</ele>
        <time>2015-08-03T09:02:51Z</time>
      </trkpt>
      <trkpt lat="45.53485" lon="6.75128">
        <ele>1604.18</ele>
        <time>2015-08-03T09:02:52Z</time>
      </trkpt>
      <trkpt lat="45.53485" lon="6.75145">
        <ele>1605.5</ele>
        <time>2015-08-03T09:03:03Z</time>
      </trkpt>
      <trkpt lat="45.53485" lon="6.75156">
        <ele>1606.73</ele>
        <time>2015-08-03T09:03:10Z</time>
      </trkpt>
      <trkpt lat="45.53482" lon="6.75176">
        <ele>1608.44</ele>
        <time>2015-08-03T09:03:21Z</time>
      </trkpt>
      <trkpt lat="45.53479" lon="6.75195">
        <ele>1610.52</ele>
        <time>2015-08-03T09:03:32Z</time>
      </trkpt>
      <trkpt lat="45.53477" lon="6.75207">
        <ele>1612.39</ele>
        <time>2015-08-03T09:03:41Z</time>
      </trkpt>
      <trkpt lat="45.53475" lon="6.75215">
        <ele>1613.21</ele>
        <time>2015-08-03T09:03:46Z</time>
      </trkpt>
      <trkpt lat="45.53463" lon="6.75233">
        <ele>1615.11</ele>
        <time>2015-08-03T09:04:00Z</time>
      </trkpt>
      <trkpt lat="45.53452" lon="6.75251">
        <ele>1617</ele>
        <time>2015-08-03T09:04:14Z</time>
      </trkpt>
      <trkpt lat="45.5345" lon="6.75254">
        <ele>1617.28</ele>
        <time>2015-08-03T09:04:16Z</time>
      </trkpt>
      <trkpt lat="45.53449" lon="6.75257">
        <ele>1617.9</ele>
        <time>2015-08-03T09:04:19Z</time>
      </trkpt>
      <trkpt lat="45.53448" lon="6.75259">
        <ele>1618.06</ele>
        <time>2015-08-03T09:04:20Z</time>
      </trkpt>
      <trkpt lat="45.53447" lon="6.7526">
        <ele>1618.25</ele>
        <time>2015-08-03T09:04:21Z</time>
      </trkpt>
      <trkpt lat="45.53435" lon="6.75282">
        <ele>1620.89</ele>
        <time>2015-08-03T09:04:37Z</time>
      </trkpt>
      <trkpt lat="45.53434" lon="6.75285">
        <ele>1621.18</ele>
        <time>2015-08-03T09:04:39Z</time>
      </trkpt>
      <trkpt lat="45.53433" lon="6.75286">
        <ele>1621.31</ele>
        <time>2015-08-03T09:04:40Z</time>
      </trkpt>
      <trkpt lat="45.53427" lon="6.75292">
        <ele>1622.72</ele>
        <time>2015-08-03T09:04:47Z</time>
      </trkpt>
      <trkpt lat="45.53424" lon="6.75283">
        <ele>1624.22</ele>
        <time>2015-08-03T09:04:57Z</time>
      </trkpt>
      <trkpt lat="45.53424" lon="6.75281">
        <ele>1624.34</ele>
        <time>2015-08-03T09:04:58Z</time>
      </trkpt>
      <trkpt lat="45.53425" lon="6.7528">
        <ele>1624.45</ele>
        <time>2015-08-03T09:04:59Z</time>
      </trkpt>
      <trkpt lat="45.53433" lon="6.75259">
        <ele>1626.27</ele>
        <time>2015-08-03T09:05:14Z</time>
      </trkpt>
      <trkpt lat="45.53437" lon="6.75238">
        <ele>1628</ele>
        <time>2015-08-03T09:05:26Z</time>
      </trkpt>
      <trkpt lat="45.53446" lon="6.75218">
        <ele>1629.74</ele>
        <time>2015-08-03T09:05:39Z</time>
      </trkpt>
      <trkpt lat="45.53447" lon="6.75205">
        <ele>1630.99</ele>
        <time>2015-08-03T09:05:47Z</time>
      </trkpt>
      <trkpt lat="45.53447" lon="6.75203">
        <ele>1631.12</ele>
        <time>2015-08-03T09:05:48Z</time>
      </trkpt>
      <trkpt lat="45.53447" lon="6.75201">
        <ele>1631.24</ele>
        <time>2015-08-03T09:05:49Z</time>
      </trkpt>
      <trkpt lat="45.53447" lon="6.752">
        <ele>1631.35</ele>
        <time>2015-08-03T09:05:50Z</time>
      </trkpt>
      <trkpt lat="45.53447" lon="6.75198">
        <ele>1631.45</ele>
        <time>2015-08-03T09:05:51Z</time>
      </trkpt>
      <trkpt lat="45.53449" lon="6.7518">
        <ele>1632.87</ele>
        <time>2015-08-03T09:06:01Z</time>
      </trkpt>
      <trkpt lat="45.53449" lon="6.75178">
        <ele>1632.98</ele>
        <time>2015-08-03T09:06:02Z</time>
      </trkpt>
      <trkpt lat="45.53449" lon="6.75176">
        <ele>1633.12</ele>
        <time>2015-08-03T09:06:03Z</time>
      </trkpt>
      <trkpt lat="45.53449" lon="6.75174">
        <ele>1633.24</ele>
        <time>2015-08-03T09:06:04Z</time>
      </trkpt>
      <trkpt lat="45.53449" lon="6.75172">
        <ele>1633.34</ele>
        <time>2015-08-03T09:06:05Z</time>
      </trkpt>
      <trkpt lat="45.53449" lon="6.7517">
        <ele>1633.43</ele>
        <time>2015-08-03T09:06:06Z</time>
      </trkpt>
      <trkpt lat="45.53449" lon="6.75169">
        <ele>1633.5</ele>
        <time>2015-08-03T09:06:07Z</time>
      </trkpt>
      <trkpt lat="45.53449" lon="6.75157">
        <ele>1634.29</ele>
        <time>2015-08-03T09:06:14Z</time>
      </trkpt>
      <trkpt lat="45.53447" lon="6.75139">
        <ele>1635.61</ele>
        <time>2015-08-03T09:06:25Z</time>
      </trkpt>
      <trkpt lat="45.53444" lon="6.75123">
        <ele>1636.88</ele>
        <time>2015-08-03T09:06:35Z</time>
      </trkpt>
      <trkpt lat="45.53438" lon="6.75107">
        <ele>1638.07</ele>
        <time>2015-08-03T09:06:45Z</time>
      </trkpt>
      <trkpt lat="45.5343" lon="6.75089">
        <ele>1639.64</ele>
        <time>2015-08-03T09:06:56Z</time>
      </trkpt>
      <trkpt lat="45.53427" lon="6.75076">
        <ele>1640.68</ele>
        <time>2015-08-03T09:07:03Z</time>
      </trkpt>
      <trkpt lat="45.53426" lon="6.75075">
        <ele>1640.81</ele>
        <time>2015-08-03T09:07:04Z</time>
      </trkpt>
      <trkpt lat="45.53425" lon="6.75071">
        <ele>1641.05</ele>
        <time>2015-08-03T09:07:06Z</time>
      </trkpt>
      <trkpt lat="45.53418" lon="6.75043">
        <ele>1642.87</ele>
        <time>2015-08-03T09:07:20Z</time>
      </trkpt>
      <trkpt lat="45.53411" lon="6.75025">
        <ele>1643.99</ele>
        <time>2015-08-03T09:07:31Z</time>
      </trkpt>
      <trkpt lat="45.53404" lon="6.74999">
        <ele>1645.89</ele>
        <time>2015-08-03T09:07:47Z</time>
      </trkpt>
      <trkpt lat="45.53395" lon="6.74973">
        <ele>1647.89</ele>
        <time>2015-08-03T09:08:02Z</time>
      </trkpt>
      <trkpt lat="45.53392" lon="6.74963">
        <ele>1648.64</ele>
        <time>2015-08-03T09:08:08Z</time>
      </trkpt>
      <trkpt lat="45.53392" lon="6.74961">
        <ele>1648.82</ele>
        <time>2015-08-03T09:08:09Z</time>
      </trkpt>
      <trkpt lat="45.53391" lon="6.74959">
        <ele>1649.17</ele>
        <time>2015-08-03T09:08:10Z</time>
      </trkpt>
      <trkpt lat="45.53388" lon="6.74942">
        <ele>1650.55</ele>
        <time>2015-08-03T09:08:20Z</time>
      </trkpt>
      <trkpt lat="45.53381" lon="6.74921">
        <ele>1652.02</ele>
        <time>2015-08-03T09:08:33Z</time>
      </trkpt>
      <trkpt lat="45.53376" lon="6.7491">
        <ele>1652.82</ele>
        <time>2015-08-03T09:08:40Z</time>
      </trkpt>
      <trkpt lat="45.53375" lon="6.74909">
        <ele>1652.96</ele>
        <time>2015-08-03T09:08:41Z</time>
      </trkpt>
      <trkpt lat="45.53365" lon="6.74889">
        <ele>1654.44</ele>
        <time>2015-08-03T09:08:55Z</time>
      </trkpt>
      <trkpt lat="45.53354" lon="6.74873">
        <ele>1655.93</ele>
        <time>2015-08-03T09:09:08Z</time>
      </trkpt>
      <trkpt lat="45.53338" lon="6.7486">
        <ele>1657.23</ele>
        <time>2015-08-03T09:09:20Z</time>
      </trkpt>
      <trkpt lat="45.53323" lon="6.74845">
        <ele>1659.03</ele>
        <time>2015-08-03T09:09:33Z</time>
      </trkpt>
      <trkpt lat="45.53309" lon="6.74834">
        <ele>1660.18</ele>
        <time>2015-08-03T09:09:46Z</time>
      </trkpt>
      <trkpt lat="45.53307" lon="6.74834">
        <ele>1660.23</ele>
        <time>2015-08-03T09:09:47Z</time>
      </trkpt>
      <trkpt lat="45.53306" lon="6.74834">
        <ele>1660.29</ele>
        <time>2015-08-03T09:09:48Z</time>
      </trkpt>
      <trkpt lat="45.53304" lon="6.74834">
        <ele>1660.35</ele>
        <time>2015-08-03T09:09:49Z</time>
      </trkpt>
      <trkpt lat="45.53301" lon="6.74831">
        <ele>1660.56</ele>
        <time>2015-08-03T09:09:52Z</time>
      </trkpt>
      <trkpt lat="45.5329" lon="6.74818">
        <ele>1661.73</ele>
        <time>2015-08-03T09:10:04Z</time>
      </trkpt>
      <trkpt lat="45.53283" lon="6.74809">
        <ele>1662.53</ele>
        <time>2015-08-03T09:10:11Z</time>
      </trkpt>
      <trkpt lat="45.53282" lon="6.74808">
        <ele>1662.62</ele>
        <time>2015-08-03T09:10:12Z</time>
      </trkpt>
      <trkpt lat="45.53281" lon="6.74806">
        <ele>1662.72</ele>
        <time>2015-08-03T09:10:13Z</time>
      </trkpt>
      <trkpt lat="45.53281" lon="6.74805">
        <ele>1662.82</ele>
        <time>2015-08-03T09:10:14Z</time>
      </trkpt>
      <trkpt lat="45.53279" lon="6.74804">
        <ele>1662.92</ele>
        <time>2015-08-03T09:10:15Z</time>
      </trkpt>
      <trkpt lat="45.53278" lon="6.74803">
        <ele>1663.02</ele>
        <time>2015-08-03T09:10:16Z</time>
      </trkpt>
      <trkpt lat="45.53277" lon="6.74802">
        <ele>1663.12</ele>
        <time>2015-08-03T09:10:17Z</time>
      </trkpt>
      <trkpt lat="45.53276" lon="6.74801">
        <ele>1663.31</ele>
        <time>2015-08-03T09:10:18Z</time>
      </trkpt>
      <trkpt lat="45.53263" lon="6.74791">
        <ele>1664.56</ele>
        <time>2015-08-03T09:10:28Z</time>
      </trkpt>
      <trkpt lat="45.53261" lon="6.7479">
        <ele>1664.68</ele>
        <time>2015-08-03T09:10:29Z</time>
      </trkpt>
      <trkpt lat="45.5326" lon="6.74789">
        <ele>1664.83</ele>
        <time>2015-08-03T09:10:30Z</time>
      </trkpt>
      <trkpt lat="45.53249" lon="6.74782">
        <ele>1665.92</ele>
        <time>2015-08-03T09:10:38Z</time>
      </trkpt>
      <trkpt lat="45.53242" lon="6.74777">
        <ele>1666.53</ele>
        <time>2015-08-03T09:10:43Z</time>
      </trkpt>
      <trkpt lat="45.53227" lon="6.74768">
        <ele>1667.86</ele>
        <time>2015-08-03T09:10:54Z</time>
      </trkpt>
      <trkpt lat="45.53209" lon="6.74752">
        <ele>1669.22</ele>
        <time>2015-08-03T09:11:06Z</time>
      </trkpt>
      <trkpt lat="45.53202" lon="6.7473">
        <ele>1670.57</ele>
        <time>2015-08-03T09:11:15Z</time>
      </trkpt>
      <trkpt lat="45.53201" lon="6.74728">
        <ele>1670.67</ele>
        <time>2015-08-03T09:11:16Z</time>
      </trkpt>
      <trkpt lat="45.53201" lon="6.74724">
        <ele>1670.79</ele>
        <time>2015-08-03T09:11:17Z</time>
      </trkpt>
      <trkpt lat="45.532" lon="6.74722">
        <ele>1670.88</ele>
        <time>2015-08-03T09:11:18Z</time>
      </trkpt>
      <trkpt lat="45.53199" lon="6.74718">
        <ele>1670.98</ele>
        <time>2015-08-03T09:11:19Z</time>
      </trkpt>
      <trkpt lat="45.53198" lon="6.74714">
        <ele>1671.09</ele>
        <time>2015-08-03T09:11:20Z</time>
      </trkpt>
      <trkpt lat="45.53197" lon="6.74712">
        <ele>1671.22</ele>
        <time>2015-08-03T09:11:21Z</time>
      </trkpt>
      <trkpt lat="45.53196" lon="6.74708">
        <ele>1671.35</ele>
        <time>2015-08-03T09:11:22Z</time>
      </trkpt>
      <trkpt lat="45.53195" lon="6.74705">
        <ele>1671.47</ele>
        <time>2015-08-03T09:11:23Z</time>
      </trkpt>
      <trkpt lat="45.53193" lon="6.74703">
        <ele>1671.54</ele>
        <time>2015-08-03T09:11:24Z</time>
      </trkpt>
      <trkpt lat="45.53191" lon="6.74701">
        <ele>1671.63</ele>
        <time>2015-08-03T09:11:25Z</time>
      </trkpt>
      <trkpt lat="45.53187" lon="6.74694">
        <ele>1672.01</ele>
        <time>2015-08-03T09:11:28Z</time>
      </trkpt>
      <trkpt lat="45.53186" lon="6.74692">
        <ele>1672.15</ele>
        <time>2015-08-03T09:11:29Z</time>
      </trkpt>
      <trkpt lat="45.53184" lon="6.7469">
        <ele>1672.27</ele>
        <time>2015-08-03T09:11:30Z</time>
      </trkpt>
      <trkpt lat="45.53183" lon="6.74688">
        <ele>1672.4</ele>
        <time>2015-08-03T09:11:31Z</time>
      </trkpt>
      <trkpt lat="45.53182" lon="6.74686">
        <ele>1672.66</ele>
        <time>2015-08-03T09:11:32Z</time>
      </trkpt>
      <trkpt lat="45.5318" lon="6.74683">
        <ele>1672.8</ele>
        <time>2015-08-03T09:11:33Z</time>
      </trkpt>
      <trkpt lat="45.53179" lon="6.7468">
        <ele>1672.92</ele>
        <time>2015-08-03T09:11:34Z</time>
      </trkpt>
      <trkpt lat="45.53177" lon="6.74677">
        <ele>1673.04</ele>
        <time>2015-08-03T09:11:35Z</time>
      </trkpt>
      <trkpt lat="45.53175" lon="6.74674">
        <ele>1673.17</ele>
        <time>2015-08-03T09:11:36Z</time>
      </trkpt>
      <trkpt lat="45.53173" lon="6.74672">
        <ele>1673.31</ele>
        <time>2015-08-03T09:11:37Z</time>
      </trkpt>
      <trkpt lat="45.53171" lon="6.7467">
        <ele>1673.47</ele>
        <time>2015-08-03T09:11:38Z</time>
      </trkpt>
      <trkpt lat="45.53169" lon="6.74668">
        <ele>1673.62</ele>
        <time>2015-08-03T09:11:39Z</time>
      </trkpt>
      <trkpt lat="45.53167" lon="6.74667">
        <ele>1673.76</ele>
        <time>2015-08-03T09:11:40Z</time>
      </trkpt>
      <trkpt lat="45.53164" lon="6.74667">
        <ele>1673.89</ele>
        <time>2015-08-03T09:11:41Z</time>
      </trkpt>
      <trkpt lat="45.53162" lon="6.74666">
        <ele>1674.01</ele>
        <time>2015-08-03T09:11:42Z</time>
      </trkpt>
      <trkpt lat="45.5316" lon="6.74665">
        <ele>1674.12</ele>
        <time>2015-08-03T09:11:43Z</time>
      </trkpt>
      <trkpt lat="45.53144" lon="6.74652">
        <ele>1675.5</ele>
        <time>2015-08-03T09:11:52Z</time>
      </trkpt>
      <trkpt lat="45.53135" lon="6.74647">
        <ele>1676.34</ele>
        <time>2015-08-03T09:11:57Z</time>
      </trkpt>
      <trkpt lat="45.53133" lon="6.74646">
        <ele>1676.61</ele>
        <time>2015-08-03T09:11:58Z</time>
      </trkpt>
      <trkpt lat="45.53128" lon="6.74643">
        <ele>1677.02</ele>
        <time>2015-08-03T09:12:01Z</time>
      </trkpt>
      <trkpt lat="45.53126" lon="6.74642">
        <ele>1677.17</ele>
        <time>2015-08-03T09:12:02Z</time>
      </trkpt>
      <trkpt lat="45.53111" lon="6.74624">
        <ele>1678.87</ele>
        <time>2015-08-03T09:12:11Z</time>
      </trkpt>
      <trkpt lat="45.53097" lon="6.74605">
        <ele>1680.94</ele>
        <time>2015-08-03T09:12:21Z</time>
      </trkpt>
      <trkpt lat="45.53081" lon="6.7458">
        <ele>1682.99</ele>
        <time>2015-08-03T09:12:32Z</time>
      </trkpt>
      <trkpt lat="45.53064" lon="6.74551">
        <ele>1684.16</ele>
        <time>2015-08-03T09:12:44Z</time>
      </trkpt>
      <trkpt lat="45.53057" lon="6.74521">
        <ele>1685.29</ele>
        <time>2015-08-03T09:12:53Z</time>
      </trkpt>
      <trkpt lat="45.53034" lon="6.74497">
        <ele>1686.81</ele>
        <time>2015-08-03T09:13:05Z</time>
      </trkpt>
      <trkpt lat="45.53012" lon="6.74496">
        <ele>1687.96</ele>
        <time>2015-08-03T09:13:16Z</time>
      </trkpt>
      <trkpt lat="45.52995" lon="6.74491">
        <ele>1689.56</ele>
        <time>2015-08-03T09:13:25Z</time>
      </trkpt>
      <trkpt lat="45.52982" lon="6.74471">
        <ele>1691.8</ele>
        <time>2015-08-03T09:13:38Z</time>
      </trkpt>
      <trkpt lat="45.52979" lon="6.74466">
        <ele>1692.14</ele>
        <time>2015-08-03T09:13:41Z</time>
      </trkpt>
      <trkpt lat="45.52978" lon="6.74464">
        <ele>1692.27</ele>
        <time>2015-08-03T09:13:42Z</time>
      </trkpt>
      <trkpt lat="45.52976" lon="6.74463">
        <ele>1692.41</ele>
        <time>2015-08-03T09:13:43Z</time>
      </trkpt>
      <trkpt lat="45.52975" lon="6.74462">
        <ele>1692.57</ele>
        <time>2015-08-03T09:13:44Z</time>
      </trkpt>
      <trkpt lat="45.52974" lon="6.7446">
        <ele>1692.69</ele>
        <time>2015-08-03T09:13:45Z</time>
      </trkpt>
      <trkpt lat="45.52962" lon="6.74445">
        <ele>1694.64</ele>
        <time>2015-08-03T09:13:59Z</time>
      </trkpt>
      <trkpt lat="45.5296" lon="6.7444">
        <ele>1695.26</ele>
        <time>2015-08-03T09:14:34Z</time>
      </trkpt>
      <trkpt lat="45.52957" lon="6.74445">
        <ele>1695.34</ele>
        <time>2015-08-03T09:15:08Z</time>
      </trkpt>
      <trkpt lat="45.52954" lon="6.74442">
        <ele>1695.24</ele>
        <time>2015-08-03T09:15:15Z</time>
      </trkpt>
      <trkpt lat="45.52953" lon="6.7444">
        <ele>1695.24</ele>
        <time>2015-08-03T09:15:16Z</time>
      </trkpt>
      <trkpt lat="45.52952" lon="6.74439">
        <ele>1695.25</ele>
        <time>2015-08-03T09:15:17Z</time>
      </trkpt>
      <trkpt lat="45.52951" lon="6.74438">
        <ele>1695.28</ele>
        <time>2015-08-03T09:15:18Z</time>
      </trkpt>
      <trkpt lat="45.52949" lon="6.74437">
        <ele>1695.35</ele>
        <time>2015-08-03T09:15:19Z</time>
      </trkpt>
      <trkpt lat="45.52948" lon="6.74435">
        <ele>1695.44</ele>
        <time>2015-08-03T09:15:20Z</time>
      </trkpt>
      <trkpt lat="45.52947" lon="6.74434">
        <ele>1695.51</ele>
        <time>2015-08-03T09:15:21Z</time>
      </trkpt>
      <trkpt lat="45.52946" lon="6.74433">
        <ele>1695.59</ele>
        <time>2015-08-03T09:15:22Z</time>
      </trkpt>
      <trkpt lat="45.52945" lon="6.74431">
        <ele>1695.67</ele>
        <time>2015-08-03T09:15:23Z</time>
      </trkpt>
      <trkpt lat="45.52944" lon="6.74429">
        <ele>1695.77</ele>
        <time>2015-08-03T09:15:24Z</time>
      </trkpt>
      <trkpt lat="45.52943" lon="6.74428">
        <ele>1695.9</ele>
        <time>2015-08-03T09:15:25Z</time>
      </trkpt>
      <trkpt lat="45.52942" lon="6.74426">
        <ele>1696</ele>
        <time>2015-08-03T09:15:26Z</time>
      </trkpt>
      <trkpt lat="45.52924" lon="6.74407">
        <ele>1698.13</ele>
        <time>2015-08-03T09:15:42Z</time>
      </trkpt>
      <trkpt lat="45.52905" lon="6.74389">
        <ele>1700.34</ele>
        <time>2015-08-03T09:15:58Z</time>
      </trkpt>
      <trkpt lat="45.52885" lon="6.74368">
        <ele>1702.41</ele>
        <time>2015-08-03T09:16:15Z</time>
      </trkpt>
      <trkpt lat="45.52862" lon="6.74345">
        <ele>1705</ele>
        <time>2015-08-03T09:16:33Z</time>
      </trkpt>
      <trkpt lat="45.52839" lon="6.74323">
        <ele>1707.31</ele>
        <time>2015-08-03T09:16:52Z</time>
      </trkpt>
      <trkpt lat="45.52818" lon="6.74305">
        <ele>1709.14</ele>
        <time>2015-08-03T09:17:08Z</time>
      </trkpt>
      <trkpt lat="45.52799" lon="6.74296">
        <ele>1710.86</ele>
        <time>2015-08-03T09:17:21Z</time>
      </trkpt>
      <trkpt lat="45.52793" lon="6.74292">
        <ele>1711.58</ele>
        <time>2015-08-03T09:17:26Z</time>
      </trkpt>
      <trkpt lat="45.52792" lon="6.74291">
        <ele>1711.7</ele>
        <time>2015-08-03T09:17:27Z</time>
      </trkpt>
      <trkpt lat="45.5279" lon="6.7429">
        <ele>1711.83</ele>
        <time>2015-08-03T09:17:28Z</time>
      </trkpt>
      <trkpt lat="45.52789" lon="6.74289">
        <ele>1711.96</ele>
        <time>2015-08-03T09:17:29Z</time>
      </trkpt>
      <trkpt lat="45.52788" lon="6.74289">
        <ele>1712.09</ele>
        <time>2015-08-03T09:17:30Z</time>
      </trkpt>
      <trkpt lat="45.52768" lon="6.74277">
        <ele>1713.99</ele>
        <time>2015-08-03T09:17:45Z</time>
      </trkpt>
      <trkpt lat="45.52741" lon="6.74267">
        <ele>1716.24</ele>
        <time>2015-08-03T09:18:03Z</time>
      </trkpt>
      <trkpt lat="45.52725" lon="6.74257">
        <ele>1718.65</ele>
        <time>2015-08-03T09:18:15Z</time>
      </trkpt>
      <trkpt lat="45.52712" lon="6.74255">
        <ele>1720.15</ele>
        <time>2015-08-03T09:18:25Z</time>
      </trkpt>
      <trkpt lat="45.52709" lon="6.7426">
        <ele>1720.51</ele>
        <time>2015-08-03T09:18:28Z</time>
      </trkpt>
      <trkpt lat="45.52709" lon="6.74263">
        <ele>1720.62</ele>
        <time>2015-08-03T09:18:29Z</time>
      </trkpt>
      <trkpt lat="45.5271" lon="6.74267">
        <ele>1720.8</ele>
        <time>2015-08-03T09:18:31Z</time>
      </trkpt>
      <trkpt lat="45.5271" lon="6.74269">
        <ele>1720.9</ele>
        <time>2015-08-03T09:18:32Z</time>
      </trkpt>
      <trkpt lat="45.52711" lon="6.74271">
        <ele>1721.01</ele>
        <time>2015-08-03T09:18:33Z</time>
      </trkpt>
      <trkpt lat="45.52713" lon="6.74273">
        <ele>1721.1</ele>
        <time>2015-08-03T09:18:34Z</time>
      </trkpt>
      <trkpt lat="45.52714" lon="6.74275">
        <ele>1721.18</ele>
        <time>2015-08-03T09:18:35Z</time>
      </trkpt>
      <trkpt lat="45.52733" lon="6.74298">
        <ele>1722.52</ele>
        <time>2015-08-03T09:18:49Z</time>
      </trkpt>
      <trkpt lat="45.52744" lon="6.7432">
        <ele>1723.77</ele>
        <time>2015-08-03T09:19:00Z</time>
      </trkpt>
      <trkpt lat="45.52749" lon="6.74332">
        <ele>1724.4</ele>
        <time>2015-08-03T09:19:06Z</time>
      </trkpt>
      <trkpt lat="45.52754" lon="6.74339">
        <ele>1725</ele>
        <time>2015-08-03T09:19:11Z</time>
      </trkpt>
      <trkpt lat="45.5276" lon="6.74357">
        <ele>1726.55</ele>
        <time>2015-08-03T09:19:22Z</time>
      </trkpt>
      <trkpt lat="45.52766" lon="6.74376">
        <ele>1727.96</ele>
        <time>2015-08-03T09:19:32Z</time>
      </trkpt>
      <trkpt lat="45.52767" lon="6.74378">
        <ele>1728.08</ele>
        <time>2015-08-03T09:19:33Z</time>
      </trkpt>
      <trkpt lat="45.52769" lon="6.7438">
        <ele>1728.21</ele>
        <time>2015-08-03T09:19:34Z</time>
      </trkpt>
      <trkpt lat="45.5277" lon="6.74381">
        <ele>1728.33</ele>
        <time>2015-08-03T09:19:35Z</time>
      </trkpt>
      <trkpt lat="45.52771" lon="6.74383">
        <ele>1728.43</ele>
        <time>2015-08-03T09:19:36Z</time>
      </trkpt>
      <trkpt lat="45.52773" lon="6.74384">
        <ele>1728.54</ele>
        <time>2015-08-03T09:19:37Z</time>
      </trkpt>
      <trkpt lat="45.52774" lon="6.74385">
        <ele>1728.65</ele>
        <time>2015-08-03T09:19:38Z</time>
      </trkpt>
      <trkpt lat="45.52775" lon="6.74387">
        <ele>1728.73</ele>
        <time>2015-08-03T09:19:39Z</time>
      </trkpt>
      <trkpt lat="45.52777" lon="6.74388">
        <ele>1728.81</ele>
        <time>2015-08-03T09:19:40Z</time>
      </trkpt>
      <trkpt lat="45.52778" lon="6.74389">
        <ele>1728.89</ele>
        <time>2015-08-03T09:19:41Z</time>
      </trkpt>
      <trkpt lat="45.5278" lon="6.74393">
        <ele>1729.12</ele>
        <time>2015-08-03T09:19:44Z</time>
      </trkpt>
      <trkpt lat="45.52781" lon="6.74395">
        <ele>1729.2</ele>
        <time>2015-08-03T09:19:45Z</time>
      </trkpt>
      <trkpt lat="45.52791" lon="6.74415">
        <ele>1730.31</ele>
        <time>2015-08-03T09:19:57Z</time>
      </trkpt>
      <trkpt lat="45.52796" lon="6.74432">
        <ele>1731.61</ele>
        <time>2015-08-03T09:20:07Z</time>
      </trkpt>
      <trkpt lat="45.52797" lon="6.74434">
        <ele>1731.73</ele>
        <time>2015-08-03T09:20:08Z</time>
      </trkpt>
      <trkpt lat="45.52803" lon="6.74455">
        <ele>1732.65</ele>
        <time>2015-08-03T09:20:18Z</time>
      </trkpt>
      <trkpt lat="45.52804" lon="6.74457">
        <ele>1732.75</ele>
        <time>2015-08-03T09:20:19Z</time>
      </trkpt>
      <trkpt lat="45.52804" lon="6.7446">
        <ele>1732.85</ele>
        <time>2015-08-03T09:20:20Z</time>
      </trkpt>
      <trkpt lat="45.52804" lon="6.74461">
        <ele>1732.98</ele>
        <time>2015-08-03T09:20:21Z</time>
      </trkpt>
      <trkpt lat="45.52803" lon="6.74463">
        <ele>1733.25</ele>
        <time>2015-08-03T09:20:22Z</time>
      </trkpt>
      <trkpt lat="45.52802" lon="6.74464">
        <ele>1733.36</ele>
        <time>2015-08-03T09:20:23Z</time>
      </trkpt>
      <trkpt lat="45.52801" lon="6.74465">
        <ele>1733.45</ele>
        <time>2015-08-03T09:20:24Z</time>
      </trkpt>
      <trkpt lat="45.528" lon="6.74466">
        <ele>1733.53</ele>
        <time>2015-08-03T09:20:25Z</time>
      </trkpt>
      <trkpt lat="45.52798" lon="6.74466">
        <ele>1733.63</ele>
        <time>2015-08-03T09:20:26Z</time>
      </trkpt>
      <trkpt lat="45.52796" lon="6.74464">
        <ele>1733.85</ele>
        <time>2015-08-03T09:20:28Z</time>
      </trkpt>
      <trkpt lat="45.52796" lon="6.74463">
        <ele>1733.95</ele>
        <time>2015-08-03T09:20:29Z</time>
      </trkpt>
      <trkpt lat="45.5279" lon="6.74452">
        <ele>1734.66</ele>
        <time>2015-08-03T09:20:36Z</time>
      </trkpt>
      <trkpt lat="45.52788" lon="6.74448">
        <ele>1735.14</ele>
        <time>2015-08-03T09:20:39Z</time>
      </trkpt>
      <trkpt lat="45.52787" lon="6.74447">
        <ele>1735.33</ele>
        <time>2015-08-03T09:20:40Z</time>
      </trkpt>
      <trkpt lat="45.52771" lon="6.74424">
        <ele>1737.3</ele>
        <time>2015-08-03T09:20:53Z</time>
      </trkpt>
      <trkpt lat="45.52763" lon="6.74419">
        <ele>1738</ele>
        <time>2015-08-03T09:20:59Z</time>
      </trkpt>
      <trkpt lat="45.52762" lon="6.74417">
        <ele>1738.14</ele>
        <time>2015-08-03T09:21:00Z</time>
      </trkpt>
      <trkpt lat="45.5276" lon="6.74417">
        <ele>1738.28</ele>
        <time>2015-08-03T09:21:01Z</time>
      </trkpt>
      <trkpt lat="45.52759" lon="6.74416">
        <ele>1738.42</ele>
        <time>2015-08-03T09:21:02Z</time>
      </trkpt>
      <trkpt lat="45.52758" lon="6.74415">
        <ele>1738.53</ele>
        <time>2015-08-03T09:21:03Z</time>
      </trkpt>
      <trkpt lat="45.52757" lon="6.74415">
        <ele>1738.65</ele>
        <time>2015-08-03T09:21:04Z</time>
      </trkpt>
      <trkpt lat="45.52756" lon="6.74414">
        <ele>1738.79</ele>
        <time>2015-08-03T09:21:05Z</time>
      </trkpt>
      <trkpt lat="45.52755" lon="6.74413">
        <ele>1738.93</ele>
        <time>2015-08-03T09:21:06Z</time>
      </trkpt>
      <trkpt lat="45.52754" lon="6.74412">
        <ele>1739.05</ele>
        <time>2015-08-03T09:21:07Z</time>
      </trkpt>
      <trkpt lat="45.52753" lon="6.74412">
        <ele>1739.18</ele>
        <time>2015-08-03T09:21:08Z</time>
      </trkpt>
      <trkpt lat="45.52743" lon="6.74405">
        <ele>1740.42</ele>
        <time>2015-08-03T09:21:17Z</time>
      </trkpt>
      <trkpt lat="45.52741" lon="6.74404">
        <ele>1740.53</ele>
        <time>2015-08-03T09:21:18Z</time>
      </trkpt>
      <trkpt lat="45.5274" lon="6.74403">
        <ele>1740.64</ele>
        <time>2015-08-03T09:21:19Z</time>
      </trkpt>
      <trkpt lat="45.52726" lon="6.74396">
        <ele>1741.57</ele>
        <time>2015-08-03T09:21:30Z</time>
      </trkpt>
      <trkpt lat="45.52709" lon="6.74391">
        <ele>1742.9</ele>
        <time>2015-08-03T09:21:41Z</time>
      </trkpt>
      <trkpt lat="45.5269" lon="6.74382">
        <ele>1744.64</ele>
        <time>2015-08-03T09:21:54Z</time>
      </trkpt>
      <trkpt lat="45.52677" lon="6.74379">
        <ele>1745.82</ele>
        <time>2015-08-03T09:22:04Z</time>
      </trkpt>
      <trkpt lat="45.52656" lon="6.74373">
        <ele>1747.32</ele>
        <time>2015-08-03T09:22:18Z</time>
      </trkpt>
      <trkpt lat="45.52639" lon="6.74358">
        <ele>1749.17</ele>
        <time>2015-08-03T09:22:32Z</time>
      </trkpt>
      <trkpt lat="45.52638" lon="6.74356">
        <ele>1749.33</ele>
        <time>2015-08-03T09:22:33Z</time>
      </trkpt>
      <trkpt lat="45.52636" lon="6.74354">
        <ele>1749.52</ele>
        <time>2015-08-03T09:22:34Z</time>
      </trkpt>
      <trkpt lat="45.52635" lon="6.74353">
        <ele>1749.72</ele>
        <time>2015-08-03T09:22:35Z</time>
      </trkpt>
      <trkpt lat="45.52634" lon="6.74353">
        <ele>1749.92</ele>
        <time>2015-08-03T09:22:36Z</time>
      </trkpt>
      <trkpt lat="45.52633" lon="6.74352">
        <ele>1750.1</ele>
        <time>2015-08-03T09:22:37Z</time>
      </trkpt>
      <trkpt lat="45.52632" lon="6.74352">
        <ele>1750.25</ele>
        <time>2015-08-03T09:22:38Z</time>
      </trkpt>
      <trkpt lat="45.52631" lon="6.74352">
        <ele>1750.37</ele>
        <time>2015-08-03T09:22:39Z</time>
      </trkpt>
      <trkpt lat="45.5263" lon="6.74353">
        <ele>1750.48</ele>
        <time>2015-08-03T09:22:40Z</time>
      </trkpt>
      <trkpt lat="45.52626" lon="6.74357">
        <ele>1750.73</ele>
        <time>2015-08-03T09:22:43Z</time>
      </trkpt>
      <trkpt lat="45.52626" lon="6.74359">
        <ele>1750.81</ele>
        <time>2015-08-03T09:22:44Z</time>
      </trkpt>
      <trkpt lat="45.52632" lon="6.74377">
        <ele>1752.25</ele>
        <time>2015-08-03T09:22:55Z</time>
      </trkpt>
      <trkpt lat="45.5264" lon="6.74389">
        <ele>1753.17</ele>
        <time>2015-08-03T09:23:04Z</time>
      </trkpt>
      <trkpt lat="45.52658" lon="6.74402">
        <ele>1754.41</ele>
        <time>2015-08-03T09:23:18Z</time>
      </trkpt>
      <trkpt lat="45.5267" lon="6.74409">
        <ele>1755.47</ele>
        <time>2015-08-03T09:23:28Z</time>
      </trkpt>
      <trkpt lat="45.52671" lon="6.74409">
        <ele>1755.63</ele>
        <time>2015-08-03T09:23:29Z</time>
      </trkpt>
      <trkpt lat="45.52683" lon="6.74415">
        <ele>1757.02</ele>
        <time>2015-08-03T09:23:38Z</time>
      </trkpt>
      <trkpt lat="45.52684" lon="6.74417">
        <ele>1757.15</ele>
        <time>2015-08-03T09:23:39Z</time>
      </trkpt>
      <trkpt lat="45.52688" lon="6.74423">
        <ele>1757.56</ele>
        <time>2015-08-03T09:23:42Z</time>
      </trkpt>
      <trkpt lat="45.52689" lon="6.74425">
        <ele>1757.66</ele>
        <time>2015-08-03T09:23:43Z</time>
      </trkpt>
      <trkpt lat="45.52689" lon="6.74427">
        <ele>1757.75</ele>
        <time>2015-08-03T09:23:44Z</time>
      </trkpt>
      <trkpt lat="45.52688" lon="6.74429">
        <ele>1757.82</ele>
        <time>2015-08-03T09:23:45Z</time>
      </trkpt>
      <trkpt lat="45.52687" lon="6.7443">
        <ele>1757.89</ele>
        <time>2015-08-03T09:23:46Z</time>
      </trkpt>
      <trkpt lat="45.52686" lon="6.74432">
        <ele>1757.95</ele>
        <time>2015-08-03T09:23:47Z</time>
      </trkpt>
      <trkpt lat="45.52685" lon="6.74432">
        <ele>1758.03</ele>
        <time>2015-08-03T09:23:48Z</time>
      </trkpt>
      <trkpt lat="45.52683" lon="6.74433">
        <ele>1758.12</ele>
        <time>2015-08-03T09:23:49Z</time>
      </trkpt>
      <trkpt lat="45.52682" lon="6.74433">
        <ele>1758.25</ele>
        <time>2015-08-03T09:23:50Z</time>
      </trkpt>
      <trkpt lat="45.5268" lon="6.74432">
        <ele>1758.38</ele>
        <time>2015-08-03T09:23:51Z</time>
      </trkpt>
      <trkpt lat="45.52679" lon="6.74432">
        <ele>1758.51</ele>
        <time>2015-08-03T09:23:52Z</time>
      </trkpt>
      <trkpt lat="45.52678" lon="6.74432">
        <ele>1758.64</ele>
        <time>2015-08-03T09:23:53Z</time>
      </trkpt>
      <trkpt lat="45.52676" lon="6.74432">
        <ele>1758.79</ele>
        <time>2015-08-03T09:23:54Z</time>
      </trkpt>
      <trkpt lat="45.52673" lon="6.74431">
        <ele>1759.25</ele>
        <time>2015-08-03T09:23:57Z</time>
      </trkpt>
      <trkpt lat="45.52671" lon="6.74431">
        <ele>1759.4</ele>
        <time>2015-08-03T09:23:58Z</time>
      </trkpt>
      <trkpt lat="45.5267" lon="6.74432">
        <ele>1759.56</ele>
        <time>2015-08-03T09:23:59Z</time>
      </trkpt>
      <trkpt lat="45.52668" lon="6.74431">
        <ele>1759.76</ele>
        <time>2015-08-03T09:24:00Z</time>
      </trkpt>
      <trkpt lat="45.52667" lon="6.74431">
        <ele>1759.95</ele>
        <time>2015-08-03T09:24:01Z</time>
      </trkpt>
      <trkpt lat="45.52654" lon="6.74431">
        <ele>1761.51</ele>
        <time>2015-08-03T09:24:12Z</time>
      </trkpt>
      <trkpt lat="45.52639" lon="6.74429">
        <ele>1763.02</ele>
        <time>2015-08-03T09:24:23Z</time>
      </trkpt>
      <trkpt lat="45.52637" lon="6.74428">
        <ele>1763.15</ele>
        <time>2015-08-03T09:24:24Z</time>
      </trkpt>
      <trkpt lat="45.52636" lon="6.74427">
        <ele>1763.29</ele>
        <time>2015-08-03T09:24:25Z</time>
      </trkpt>
      <trkpt lat="45.52635" lon="6.74427">
        <ele>1763.46</ele>
        <time>2015-08-03T09:24:26Z</time>
      </trkpt>
      <trkpt lat="45.52633" lon="6.74426">
        <ele>1763.63</ele>
        <time>2015-08-03T09:24:27Z</time>
      </trkpt>
      <trkpt lat="45.5262" lon="6.74415">
        <ele>1764.8</ele>
        <time>2015-08-03T09:24:37Z</time>
      </trkpt>
      <trkpt lat="45.52611" lon="6.74398">
        <ele>1766.22</ele>
        <time>2015-08-03T09:24:47Z</time>
      </trkpt>
      <trkpt lat="45.52604" lon="6.74378">
        <ele>1767.86</ele>
        <time>2015-08-03T09:24:57Z</time>
      </trkpt>
      <trkpt lat="45.52592" lon="6.74362">
        <ele>1769.07</ele>
        <time>2015-08-03T09:25:08Z</time>
      </trkpt>
      <trkpt lat="45.52584" lon="6.74338">
        <ele>1770.41</ele>
        <time>2015-08-03T09:25:19Z</time>
      </trkpt>
      <trkpt lat="45.52584" lon="6.74335">
        <ele>1771.1</ele>
        <time>2015-08-03T09:25:28Z</time>
      </trkpt>
      <trkpt lat="45.52584" lon="6.74335">
        <ele>1771.58</ele>
        <time>2015-08-03T09:25:40Z</time>
      </trkpt>
      <trkpt lat="45.52585" lon="6.74334">
        <ele>1772.45</ele>
        <time>2015-08-03T09:26:02Z</time>
      </trkpt>
      <trkpt lat="45.52586" lon="6.74315">
        <ele>1771.91</ele>
        <time>2015-08-03T09:26:14Z</time>
      </trkpt>
      <trkpt lat="45.52585" lon="6.74312">
        <ele>1773.02</ele>
        <time>2015-08-03T09:26:25Z</time>
      </trkpt>
      <trkpt lat="45.52584" lon="6.74312">
        <ele>1773.71</ele>
        <time>2015-08-03T09:26:43Z</time>
      </trkpt>
      <trkpt lat="45.52583" lon="6.7431">
        <ele>1773.25</ele>
        <time>2015-08-03T09:26:47Z</time>
      </trkpt>
      <trkpt lat="45.52582" lon="6.74309">
        <ele>1773.19</ele>
        <time>2015-08-03T09:26:48Z</time>
      </trkpt>
      <trkpt lat="45.5258" lon="6.74308">
        <ele>1773.13</ele>
        <time>2015-08-03T09:26:49Z</time>
      </trkpt>
      <trkpt lat="45.52579" lon="6.74306">
        <ele>1773.1</ele>
        <time>2015-08-03T09:26:50Z</time>
      </trkpt>
      <trkpt lat="45.52578" lon="6.74304">
        <ele>1773.09</ele>
        <time>2015-08-03T09:26:51Z</time>
      </trkpt>
      <trkpt lat="45.52577" lon="6.74302">
        <ele>1773.12</ele>
        <time>2015-08-03T09:26:52Z</time>
      </trkpt>
      <trkpt lat="45.52575" lon="6.743">
        <ele>1773.15</ele>
        <time>2015-08-03T09:26:53Z</time>
      </trkpt>
      <trkpt lat="45.52574" lon="6.74298">
        <ele>1773.19</ele>
        <time>2015-08-03T09:26:54Z</time>
      </trkpt>
      <trkpt lat="45.52559" lon="6.74257">
        <ele>1773.96</ele>
        <time>2015-08-03T09:27:09Z</time>
      </trkpt>
      <trkpt lat="45.52544" lon="6.7422">
        <ele>1776.07</ele>
        <time>2015-08-03T09:27:23Z</time>
      </trkpt>
      <trkpt lat="45.52526" lon="6.74179">
        <ele>1777.35</ele>
        <time>2015-08-03T09:27:38Z</time>
      </trkpt>
      <trkpt lat="45.52513" lon="6.7414">
        <ele>1778.12</ele>
        <time>2015-08-03T09:27:50Z</time>
      </trkpt>
      <trkpt lat="45.52497" lon="6.74093">
        <ele>1778.83</ele>
        <time>2015-08-03T09:28:04Z</time>
      </trkpt>
      <trkpt lat="45.52475" lon="6.7405">
        <ele>1779.29</ele>
        <time>2015-08-03T09:28:18Z</time>
      </trkpt>
      <trkpt lat="45.52448" lon="6.74034">
        <ele>1779.21</ele>
        <time>2015-08-03T09:28:28Z</time>
      </trkpt>
      <trkpt lat="45.52427" lon="6.74015">
        <ele>1780.16</ele>
        <time>2015-08-03T09:28:37Z</time>
      </trkpt>
      <trkpt lat="45.52401" lon="6.74003">
        <ele>1780.96</ele>
        <time>2015-08-03T09:28:46Z</time>
      </trkpt>
      <trkpt lat="45.52398" lon="6.74001">
        <ele>1780.85</ele>
        <time>2015-08-03T09:28:47Z</time>
      </trkpt>
      <trkpt lat="45.52396" lon="6.73996">
        <ele>1780.74</ele>
        <time>2015-08-03T09:28:48Z</time>
      </trkpt>
      <trkpt lat="45.52396" lon="6.73992">
        <ele>1780.64</ele>
        <time>2015-08-03T09:28:49Z</time>
      </trkpt>
      <trkpt lat="45.52396" lon="6.73989">
        <ele>1780.54</ele>
        <time>2015-08-03T09:28:50Z</time>
      </trkpt>
      <trkpt lat="45.52395" lon="6.73986">
        <ele>1780.47</ele>
        <time>2015-08-03T09:28:51Z</time>
      </trkpt>
      <trkpt lat="45.52395" lon="6.73983">
        <ele>1780.38</ele>
        <time>2015-08-03T09:28:52Z</time>
      </trkpt>
      <trkpt lat="45.52393" lon="6.7398">
        <ele>1780.32</ele>
        <time>2015-08-03T09:28:53Z</time>
      </trkpt>
      <trkpt lat="45.52391" lon="6.73979">
        <ele>1780.26</ele>
        <time>2015-08-03T09:28:54Z</time>
      </trkpt>
      <trkpt lat="45.52388" lon="6.73979">
        <ele>1780.23</ele>
        <time>2015-08-03T09:28:55Z</time>
      </trkpt>
      <trkpt lat="45.52368" lon="6.73975">
        <ele>1780.99</ele>
        <time>2015-08-03T09:29:05Z</time>
      </trkpt>
      <trkpt lat="45.52345" lon="6.73963">
        <ele>1783.42</ele>
        <time>2015-08-03T09:29:18Z</time>
      </trkpt>
      <trkpt lat="45.52325" lon="6.73934">
        <ele>1786.2</ele>
        <time>2015-08-03T09:29:34Z</time>
      </trkpt>
      <trkpt lat="45.5231" lon="6.73913">
        <ele>1788.12</ele>
        <time>2015-08-03T09:29:48Z</time>
      </trkpt>
      <trkpt lat="45.52293" lon="6.7389">
        <ele>1790.67</ele>
        <time>2015-08-03T09:30:04Z</time>
      </trkpt>
      <trkpt lat="45.52275" lon="6.7387">
        <ele>1793.02</ele>
        <time>2015-08-03T09:30:20Z</time>
      </trkpt>
      <trkpt lat="45.52255" lon="6.73853">
        <ele>1795.59</ele>
        <time>2015-08-03T09:30:36Z</time>
      </trkpt>
      <trkpt lat="45.52236" lon="6.73855">
        <ele>1797.81</ele>
        <time>2015-08-03T09:30:50Z</time>
      </trkpt>
      <trkpt lat="45.52223" lon="6.73857">
        <ele>1798.88</ele>
        <time>2015-08-03T09:30:59Z</time>
      </trkpt>
      <trkpt lat="45.52222" lon="6.73856">
        <ele>1798.96</ele>
        <time>2015-08-03T09:31:00Z</time>
      </trkpt>
      <trkpt lat="45.5222" lon="6.73855">
        <ele>1799.02</ele>
        <time>2015-08-03T09:31:01Z</time>
      </trkpt>
      <trkpt lat="45.52219" lon="6.73853">
        <ele>1799.08</ele>
        <time>2015-08-03T09:31:02Z</time>
      </trkpt>
      <trkpt lat="45.52218" lon="6.73851">
        <ele>1799.14</ele>
        <time>2015-08-03T09:31:03Z</time>
      </trkpt>
      <trkpt lat="45.52217" lon="6.73849">
        <ele>1799.21</ele>
        <time>2015-08-03T09:31:04Z</time>
      </trkpt>
      <trkpt lat="45.52204" lon="6.73825">
        <ele>1800.76</ele>
        <time>2015-08-03T09:31:19Z</time>
      </trkpt>
      <trkpt lat="45.52186" lon="6.73812">
        <ele>1802.19</ele>
        <time>2015-08-03T09:31:33Z</time>
      </trkpt>
      <trkpt lat="45.52168" lon="6.73796">
        <ele>1803.3</ele>
        <time>2015-08-03T09:31:46Z</time>
      </trkpt>
      <trkpt lat="45.52149" lon="6.73769">
        <ele>1804.85</ele>
        <time>2015-08-03T09:32:02Z</time>
      </trkpt>
      <trkpt lat="45.52129" lon="6.73737">
        <ele>1807.44</ele>
        <time>2015-08-03T09:32:19Z</time>
      </trkpt>
      <trkpt lat="45.5212" lon="6.73704">
        <ele>1809.79</ele>
        <time>2015-08-03T09:32:34Z</time>
      </trkpt>
      <trkpt lat="45.52119" lon="6.73702">
        <ele>1809.93</ele>
        <time>2015-08-03T09:32:35Z</time>
      </trkpt>
      <trkpt lat="45.52118" lon="6.73702">
        <ele>1810.21</ele>
        <time>2015-08-03T09:32:37Z</time>
      </trkpt>
      <trkpt lat="45.52116" lon="6.73702">
        <ele>1810.35</ele>
        <time>2015-08-03T09:32:38Z</time>
      </trkpt>
      <trkpt lat="45.52115" lon="6.73702">
        <ele>1810.46</ele>
        <time>2015-08-03T09:32:39Z</time>
      </trkpt>
      <trkpt lat="45.52114" lon="6.73702">
        <ele>1810.57</ele>
        <time>2015-08-03T09:32:40Z</time>
      </trkpt>
      <trkpt lat="45.52112" lon="6.73702">
        <ele>1810.68</ele>
        <time>2015-08-03T09:32:41Z</time>
      </trkpt>
      <trkpt lat="45.52111" lon="6.73702">
        <ele>1810.89</ele>
        <time>2015-08-03T09:32:42Z</time>
      </trkpt>
      <trkpt lat="45.52091" lon="6.73694">
        <ele>1812.75</ele>
        <time>2015-08-03T09:32:56Z</time>
      </trkpt>
      <trkpt lat="45.5206" lon="6.73698">
        <ele>1815.72</ele>
        <time>2015-08-03T09:33:15Z</time>
      </trkpt>
      <trkpt lat="45.52048" lon="6.73718">
        <ele>1817.43</ele>
        <time>2015-08-03T09:33:28Z</time>
      </trkpt>
      <trkpt lat="45.52033" lon="6.73736">
        <ele>1820.04</ele>
        <time>2015-08-03T09:33:43Z</time>
      </trkpt>
      <trkpt lat="45.52013" lon="6.73736">
        <ele>1821.82</ele>
        <time>2015-08-03T09:33:58Z</time>
      </trkpt>
      <trkpt lat="45.51993" lon="6.73735">
        <ele>1823.23</ele>
        <time>2015-08-03T09:34:13Z</time>
      </trkpt>
      <trkpt lat="45.51971" lon="6.73739">
        <ele>1825.71</ele>
        <time>2015-08-03T09:34:30Z</time>
      </trkpt>
      <trkpt lat="45.51964" lon="6.73739">
        <ele>1826.68</ele>
        <time>2015-08-03T09:34:40Z</time>
      </trkpt>
      <trkpt lat="45.51963" lon="6.73739">
        <ele>1827.26</ele>
        <time>2015-08-03T09:35:02Z</time>
      </trkpt>
      <trkpt lat="45.51965" lon="6.73739">
        <ele>1826.77</ele>
        <time>2015-08-03T09:35:21Z</time>
      </trkpt>
      <trkpt lat="45.51965" lon="6.73738">
        <ele>1827.36</ele>
        <time>2015-08-03T09:35:37Z</time>
      </trkpt>
      <trkpt lat="45.51964" lon="6.73735">
        <ele>1826.58</ele>
        <time>2015-08-03T09:35:52Z</time>
      </trkpt>
      <trkpt lat="45.51964" lon="6.73732">
        <ele>1826.66</ele>
        <time>2015-08-03T09:35:54Z</time>
      </trkpt>
      <trkpt lat="45.51963" lon="6.73731">
        <ele>1826.72</ele>
        <time>2015-08-03T09:35:55Z</time>
      </trkpt>
      <trkpt lat="45.51962" lon="6.73729">
        <ele>1826.78</ele>
        <time>2015-08-03T09:35:56Z</time>
      </trkpt>
      <trkpt lat="45.51962" lon="6.73728">
        <ele>1826.81</ele>
        <time>2015-08-03T09:35:57Z</time>
      </trkpt>
      <trkpt lat="45.5196" lon="6.73728">
        <ele>1826.85</ele>
        <time>2015-08-03T09:35:58Z</time>
      </trkpt>
      <trkpt lat="45.51959" lon="6.73729">
        <ele>1826.92</ele>
        <time>2015-08-03T09:35:59Z</time>
      </trkpt>
      <trkpt lat="45.51958" lon="6.73729">
        <ele>1826.99</ele>
        <time>2015-08-03T09:36:00Z</time>
      </trkpt>
      <trkpt lat="45.51957" lon="6.7373">
        <ele>1827.08</ele>
        <time>2015-08-03T09:36:01Z</time>
      </trkpt>
      <trkpt lat="45.51944" lon="6.73726">
        <ele>1829.31</ele>
        <time>2015-08-03T09:36:14Z</time>
      </trkpt>
      <trkpt lat="45.51943" lon="6.73725">
        <ele>1829.49</ele>
        <time>2015-08-03T09:36:15Z</time>
      </trkpt>
      <trkpt lat="45.51943" lon="6.73724">
        <ele>1829.67</ele>
        <time>2015-08-03T09:36:16Z</time>
      </trkpt>
      <trkpt lat="45.51942" lon="6.73722">
        <ele>1829.84</ele>
        <time>2015-08-03T09:36:17Z</time>
      </trkpt>
      <trkpt lat="45.51942" lon="6.7372">
        <ele>1829.99</ele>
        <time>2015-08-03T09:36:18Z</time>
      </trkpt>
      <trkpt lat="45.51942" lon="6.73719">
        <ele>1830.11</ele>
        <time>2015-08-03T09:36:19Z</time>
      </trkpt>
      <trkpt lat="45.51956" lon="6.73708">
        <ele>1831.79</ele>
        <time>2015-08-03T09:36:33Z</time>
      </trkpt>
      <trkpt lat="45.51972" lon="6.73694">
        <ele>1834.2</ele>
        <time>2015-08-03T09:36:48Z</time>
      </trkpt>
      <trkpt lat="45.51989" lon="6.73677">
        <ele>1836.59</ele>
        <time>2015-08-03T09:37:06Z</time>
      </trkpt>
      <trkpt lat="45.52004" lon="6.73659">
        <ele>1838.76</ele>
        <time>2015-08-03T09:37:22Z</time>
      </trkpt>
      <trkpt lat="45.52014" lon="6.73635">
        <ele>1841.33</ele>
        <time>2015-08-03T09:37:38Z</time>
      </trkpt>
      <trkpt lat="45.52022" lon="6.7361">
        <ele>1843.12</ele>
        <time>2015-08-03T09:37:53Z</time>
      </trkpt>
      <trkpt lat="45.52023" lon="6.73602">
        <ele>1843.29</ele>
        <time>2015-08-03T09:37:57Z</time>
      </trkpt>
      <trkpt lat="45.52024" lon="6.73601">
        <ele>1843.39</ele>
        <time>2015-08-03T09:37:58Z</time>
      </trkpt>
      <trkpt lat="45.52024" lon="6.73599">
        <ele>1843.51</ele>
        <time>2015-08-03T09:37:59Z</time>
      </trkpt>
      <trkpt lat="45.52025" lon="6.73597">
        <ele>1843.63</ele>
        <time>2015-08-03T09:38:00Z</time>
      </trkpt>
      <trkpt lat="45.52025" lon="6.73595">
        <ele>1843.74</ele>
        <time>2015-08-03T09:38:01Z</time>
      </trkpt>
      <trkpt lat="45.52038" lon="6.73578">
        <ele>1845.88</ele>
        <time>2015-08-03T09:38:15Z</time>
      </trkpt>
      <trkpt lat="45.52052" lon="6.73574">
        <ele>1847.27</ele>
        <time>2015-08-03T09:38:27Z</time>
      </trkpt>
      <trkpt lat="45.52067" lon="6.73571">
        <ele>1848.42</ele>
        <time>2015-08-03T09:38:39Z</time>
      </trkpt>
      <trkpt lat="45.52081" lon="6.73566">
        <ele>1850.27</ele>
        <time>2015-08-03T09:38:51Z</time>
      </trkpt>
      <trkpt lat="45.52104" lon="6.73575">
        <ele>1852.64</ele>
        <time>2015-08-03T09:39:07Z</time>
      </trkpt>
      <trkpt lat="45.5212" lon="6.73577">
        <ele>1854.19</ele>
        <time>2015-08-03T09:39:18Z</time>
      </trkpt>
      <trkpt lat="45.52141" lon="6.73573">
        <ele>1855.93</ele>
        <time>2015-08-03T09:39:34Z</time>
      </trkpt>
      <trkpt lat="45.52154" lon="6.73561">
        <ele>1857.44</ele>
        <time>2015-08-03T09:39:46Z</time>
      </trkpt>
      <trkpt lat="45.52173" lon="6.73549">
        <ele>1859.47</ele>
        <time>2015-08-03T09:40:02Z</time>
      </trkpt>
      <trkpt lat="45.52181" lon="6.73547">
        <ele>1860.52</ele>
        <time>2015-08-03T09:40:09Z</time>
      </trkpt>
      <trkpt lat="45.52182" lon="6.73547">
        <ele>1860.67</ele>
        <time>2015-08-03T09:40:10Z</time>
      </trkpt>
      <trkpt lat="45.52183" lon="6.73546">
        <ele>1860.79</ele>
        <time>2015-08-03T09:40:11Z</time>
      </trkpt>
      <trkpt lat="45.52199" lon="6.73541">
        <ele>1862.18</ele>
        <time>2015-08-03T09:40:24Z</time>
      </trkpt>
      <trkpt lat="45.52213" lon="6.73531">
        <ele>1863.51</ele>
        <time>2015-08-03T09:40:37Z</time>
      </trkpt>
      <trkpt lat="45.52228" lon="6.7352">
        <ele>1864.41</ele>
        <time>2015-08-03T09:40:49Z</time>
      </trkpt>
      <trkpt lat="45.52245" lon="6.73517">
        <ele>1865.96</ele>
        <time>2015-08-03T09:41:02Z</time>
      </trkpt>
      <trkpt lat="45.5226" lon="6.7352">
        <ele>1867.43</ele>
        <time>2015-08-03T09:41:14Z</time>
      </trkpt>
      <trkpt lat="45.52274" lon="6.73533">
        <ele>1869.54</ele>
        <time>2015-08-03T09:41:28Z</time>
      </trkpt>
      <trkpt lat="45.52289" lon="6.73553">
        <ele>1871.51</ele>
        <time>2015-08-03T09:41:44Z</time>
      </trkpt>
      <trkpt lat="45.52303" lon="6.73566">
        <ele>1873.51</ele>
        <time>2015-08-03T09:41:58Z</time>
      </trkpt>
      <trkpt lat="45.52317" lon="6.73574">
        <ele>1875.33</ele>
        <time>2015-08-03T09:42:11Z</time>
      </trkpt>
      <trkpt lat="45.52328" lon="6.73581">
        <ele>1876.88</ele>
        <time>2015-08-03T09:42:23Z</time>
      </trkpt>
      <trkpt lat="45.52329" lon="6.73579">
        <ele>1877.93</ele>
        <time>2015-08-03T09:42:37Z</time>
      </trkpt>
      <trkpt lat="45.52327" lon="6.73578">
        <ele>1877.93</ele>
        <time>2015-08-03T09:43:01Z</time>
      </trkpt>
      <trkpt lat="45.52326" lon="6.73578">
        <ele>1877.73</ele>
        <time>2015-08-03T09:43:21Z</time>
      </trkpt>
      <trkpt lat="45.52327" lon="6.73577">
        <ele>1877.89</ele>
        <time>2015-08-03T09:43:44Z</time>
      </trkpt>
      <trkpt lat="45.52327" lon="6.73576">
        <ele>1877.78</ele>
        <time>2015-08-03T09:44:07Z</time>
      </trkpt>
      <trkpt lat="45.5233" lon="6.73578">
        <ele>1877.74</ele>
        <time>2015-08-03T09:44:12Z</time>
      </trkpt>
      <trkpt lat="45.52331" lon="6.73579">
        <ele>1877.73</ele>
        <time>2015-08-03T09:44:13Z</time>
      </trkpt>
      <trkpt lat="45.52332" lon="6.7358">
        <ele>1877.73</ele>
        <time>2015-08-03T09:44:14Z</time>
      </trkpt>
      <trkpt lat="45.52345" lon="6.73586">
        <ele>1878.97</ele>
        <time>2015-08-03T09:44:25Z</time>
      </trkpt>
      <trkpt lat="45.5236" lon="6.73592">
        <ele>1881.16</ele>
        <time>2015-08-03T09:44:39Z</time>
      </trkpt>
      <trkpt lat="45.52374" lon="6.736">
        <ele>1883.33</ele>
        <time>2015-08-03T09:44:54Z</time>
      </trkpt>
      <trkpt lat="45.52386" lon="6.73609">
        <ele>1885.9</ele>
        <time>2015-08-03T09:45:08Z</time>
      </trkpt>
      <trkpt lat="45.524" lon="6.73617">
        <ele>1888.1</ele>
        <time>2015-08-03T09:45:23Z</time>
      </trkpt>
      <trkpt lat="45.52407" lon="6.73621">
        <ele>1889.44</ele>
        <time>2015-08-03T09:45:30Z</time>
      </trkpt>
      <trkpt lat="45.52416" lon="6.73623">
        <ele>1890.63</ele>
        <time>2015-08-03T09:45:37Z</time>
      </trkpt>
      <trkpt lat="45.52427" lon="6.73628">
        <ele>1892.94</ele>
        <time>2015-08-03T09:45:50Z</time>
      </trkpt>
      <trkpt lat="45.52438" lon="6.73631">
        <ele>1894.31</ele>
        <time>2015-08-03T09:46:00Z</time>
      </trkpt>
      <trkpt lat="45.52451" lon="6.73638">
        <ele>1896.69</ele>
        <time>2015-08-03T09:46:14Z</time>
      </trkpt>
      <trkpt lat="45.52461" lon="6.73645">
        <ele>1898.73</ele>
        <time>2015-08-03T09:46:26Z</time>
      </trkpt>
      <trkpt lat="45.52475" lon="6.73652">
        <ele>1901.29</ele>
        <time>2015-08-03T09:46:41Z</time>
      </trkpt>
      <trkpt lat="45.52486" lon="6.73654">
        <ele>1903.19</ele>
        <time>2015-08-03T09:46:52Z</time>
      </trkpt>
      <trkpt lat="45.52495" lon="6.73648">
        <ele>1905.7</ele>
        <time>2015-08-03T09:47:05Z</time>
      </trkpt>
      <trkpt lat="45.52495" lon="6.73641">
        <ele>1906.15</ele>
        <time>2015-08-03T09:47:10Z</time>
      </trkpt>
      <trkpt lat="45.52484" lon="6.73631">
        <ele>1907.39</ele>
        <time>2015-08-03T09:47:23Z</time>
      </trkpt>
      <trkpt lat="45.52479" lon="6.73626">
        <ele>1908.49</ele>
        <time>2015-08-03T09:47:29Z</time>
      </trkpt>
      <trkpt lat="45.52471" lon="6.73612">
        <ele>1909.85</ele>
        <time>2015-08-03T09:47:41Z</time>
      </trkpt>
      <trkpt lat="45.52465" lon="6.73596">
        <ele>1911.28</ele>
        <time>2015-08-03T09:47:53Z</time>
      </trkpt>
      <trkpt lat="45.52453" lon="6.73583">
        <ele>1913.03</ele>
        <time>2015-08-03T09:48:07Z</time>
      </trkpt>
      <trkpt lat="45.52452" lon="6.73582">
        <ele>1913.14</ele>
        <time>2015-08-03T09:48:08Z</time>
      </trkpt>
      <trkpt lat="45.52451" lon="6.73583">
        <ele>1913.26</ele>
        <time>2015-08-03T09:48:09Z</time>
      </trkpt>
      <trkpt lat="45.52438" lon="6.73579">
        <ele>1914.61</ele>
        <time>2015-08-03T09:48:20Z</time>
      </trkpt>
      <trkpt lat="45.52436" lon="6.73578">
        <ele>1914.85</ele>
        <time>2015-08-03T09:48:22Z</time>
      </trkpt>
      <trkpt lat="45.52435" lon="6.73577">
        <ele>1914.97</ele>
        <time>2015-08-03T09:48:23Z</time>
      </trkpt>
      <trkpt lat="45.52434" lon="6.73576">
        <ele>1915.07</ele>
        <time>2015-08-03T09:48:24Z</time>
      </trkpt>
      <trkpt lat="45.52421" lon="6.73562">
        <ele>1916.57</ele>
        <time>2015-08-03T09:48:39Z</time>
      </trkpt>
      <trkpt lat="45.52413" lon="6.73544">
        <ele>1918.81</ele>
        <time>2015-08-03T09:48:53Z</time>
      </trkpt>
      <trkpt lat="45.52406" lon="6.73526">
        <ele>1920.34</ele>
        <time>2015-08-03T09:49:05Z</time>
      </trkpt>
      <trkpt lat="45.52402" lon="6.73509">
        <ele>1921.86</ele>
        <time>2015-08-03T09:49:16Z</time>
      </trkpt>
      <trkpt lat="45.52399" lon="6.73502">
        <ele>1922.32</ele>
        <time>2015-08-03T09:49:21Z</time>
      </trkpt>
      <trkpt lat="45.5239" lon="6.73484">
        <ele>1923.52</ele>
        <time>2015-08-03T09:49:34Z</time>
      </trkpt>
      <trkpt lat="45.52385" lon="6.73476">
        <ele>1924.25</ele>
        <time>2015-08-03T09:49:41Z</time>
      </trkpt>
      <trkpt lat="45.52379" lon="6.73472">
        <ele>1924.64</ele>
        <time>2015-08-03T09:49:46Z</time>
      </trkpt>
      <trkpt lat="45.52364" lon="6.73474">
        <ele>1925.72</ele>
        <time>2015-08-03T09:49:58Z</time>
      </trkpt>
      <trkpt lat="45.52362" lon="6.73474">
        <ele>1925.81</ele>
        <time>2015-08-03T09:49:59Z</time>
      </trkpt>
      <trkpt lat="45.52355" lon="6.73465">
        <ele>1927.18</ele>
        <time>2015-08-03T09:50:10Z</time>
      </trkpt>
      <trkpt lat="45.52357" lon="6.73463">
        <ele>1927.44</ele>
        <time>2015-08-03T09:50:13Z</time>
      </trkpt>
      <trkpt lat="45.52365" lon="6.73458">
        <ele>1928.21</ele>
        <time>2015-08-03T09:50:23Z</time>
      </trkpt>
      <trkpt lat="45.52365" lon="6.73455">
        <ele>1928.5</ele>
        <time>2015-08-03T09:50:40Z</time>
      </trkpt>
      <trkpt lat="45.52367" lon="6.73453">
        <ele>1928.2</ele>
        <time>2015-08-03T09:50:59Z</time>
      </trkpt>
      <trkpt lat="45.52365" lon="6.73453">
        <ele>1928.19</ele>
        <time>2015-08-03T09:51:13Z</time>
      </trkpt>
      <trkpt lat="45.52365" lon="6.73454">
        <ele>1928.34</ele>
        <time>2015-08-03T09:51:28Z</time>
      </trkpt>
      <trkpt lat="45.52363" lon="6.73459">
        <ele>1928.54</ele>
        <time>2015-08-03T09:51:49Z</time>
      </trkpt>
      <trkpt lat="45.52364" lon="6.73461">
        <ele>1928.38</ele>
        <time>2015-08-03T09:51:59Z</time>
      </trkpt>
      <trkpt lat="45.52363" lon="6.73462">
        <ele>1928.42</ele>
        <time>2015-08-03T09:52:11Z</time>
      </trkpt>
      <trkpt lat="45.52361" lon="6.73462">
        <ele>1928.22</ele>
        <time>2015-08-03T09:52:24Z</time>
      </trkpt>
      <trkpt lat="45.52359" lon="6.73463">
        <ele>1928.26</ele>
        <time>2015-08-03T09:52:51Z</time>
      </trkpt>
      <trkpt lat="45.5236" lon="6.73459">
        <ele>1928.25</ele>
        <time>2015-08-03T09:53:16Z</time>
      </trkpt>
      <trkpt lat="45.52359" lon="6.73461">
        <ele>1928.16</ele>
        <time>2015-08-03T09:53:37Z</time>
      </trkpt>
      <trkpt lat="45.5236" lon="6.73461">
        <ele>1928.14</ele>
        <time>2015-08-03T09:53:57Z</time>
      </trkpt>
      <trkpt lat="45.52363" lon="6.73461">
        <ele>1928.15</ele>
        <time>2015-08-03T09:53:59Z</time>
      </trkpt>
      <trkpt lat="45.52373" lon="6.73464">
        <ele>1928.29</ele>
        <time>2015-08-03T09:54:06Z</time>
      </trkpt>
      <trkpt lat="45.52388" lon="6.73476">
        <ele>1929.88</ele>
        <time>2015-08-03T09:54:19Z</time>
      </trkpt>
      <trkpt lat="45.52404" lon="6.73491">
        <ele>1931.41</ele>
        <time>2015-08-03T09:54:34Z</time>
      </trkpt>
      <trkpt lat="45.5242" lon="6.735">
        <ele>1934.09</ele>
        <time>2015-08-03T09:54:49Z</time>
      </trkpt>
      <trkpt lat="45.52432" lon="6.73497">
        <ele>1935.33</ele>
        <time>2015-08-03T09:54:58Z</time>
      </trkpt>
      <trkpt lat="45.5245" lon="6.73492">
        <ele>1936.63</ele>
        <time>2015-08-03T09:55:12Z</time>
      </trkpt>
      <trkpt lat="45.52466" lon="6.73493">
        <ele>1938.6</ele>
        <time>2015-08-03T09:55:25Z</time>
      </trkpt>
      <trkpt lat="45.52483" lon="6.73489">
        <ele>1940.54</ele>
        <time>2015-08-03T09:55:38Z</time>
      </trkpt>
      <trkpt lat="45.52496" lon="6.73484">
        <ele>1942.23</ele>
        <time>2015-08-03T09:55:51Z</time>
      </trkpt>
      <trkpt lat="45.52511" lon="6.73486">
        <ele>1944.29</ele>
        <time>2015-08-03T09:56:04Z</time>
      </trkpt>
      <trkpt lat="45.5252" lon="6.73495">
        <ele>1945.8</ele>
        <time>2015-08-03T09:56:14Z</time>
      </trkpt>
      <trkpt lat="45.52528" lon="6.73503">
        <ele>1947.05</ele>
        <time>2015-08-03T09:56:23Z</time>
      </trkpt>
      <trkpt lat="45.52535" lon="6.73511">
        <ele>1948.67</ele>
        <time>2015-08-03T09:56:30Z</time>
      </trkpt>
      <trkpt lat="45.52538" lon="6.73507">
        <ele>1949.76</ele>
        <time>2015-08-03T09:56:40Z</time>
      </trkpt>
      <trkpt lat="45.52537" lon="6.73506">
        <ele>1950.52</ele>
        <time>2015-08-03T09:56:58Z</time>
      </trkpt>
      <trkpt lat="45.52539" lon="6.73504">
        <ele>1950.53</ele>
        <time>2015-08-03T09:57:18Z</time>
      </trkpt>
      <trkpt lat="45.5254" lon="6.73504">
        <ele>1950.39</ele>
        <time>2015-08-03T09:57:36Z</time>
      </trkpt>
      <trkpt lat="45.5254" lon="6.73505">
        <ele>1950.13</ele>
        <time>2015-08-03T09:57:54Z</time>
      </trkpt>
      <trkpt lat="45.5254" lon="6.73505">
        <ele>1950.19</ele>
        <time>2015-08-03T09:58:10Z</time>
      </trkpt>
      <trkpt lat="45.5254" lon="6.73505">
        <ele>1950.3</ele>
        <time>2015-08-03T09:58:32Z</time>
      </trkpt>
      <trkpt lat="45.52539" lon="6.73505">
        <ele>1950.44</ele>
        <time>2015-08-03T09:58:50Z</time>
      </trkpt>
      <trkpt lat="45.52538" lon="6.73503">
        <ele>1950.4</ele>
        <time>2015-08-03T09:59:13Z</time>
      </trkpt>
      <trkpt lat="45.52538" lon="6.73502">
        <ele>1950.38</ele>
        <time>2015-08-03T09:59:14Z</time>
      </trkpt>
      <trkpt lat="45.52537" lon="6.73501">
        <ele>1950.35</ele>
        <time>2015-08-03T09:59:15Z</time>
      </trkpt>
      <trkpt lat="45.52536" lon="6.73496">
        <ele>1950.31</ele>
        <time>2015-08-03T09:59:18Z</time>
      </trkpt>
      <trkpt lat="45.52535" lon="6.73495">
        <ele>1950.32</ele>
        <time>2015-08-03T09:59:19Z</time>
      </trkpt>
      <trkpt lat="45.52535" lon="6.73493">
        <ele>1950.4</ele>
        <time>2015-08-03T09:59:20Z</time>
      </trkpt>
      <trkpt lat="45.5253" lon="6.73477">
        <ele>1952.69</ele>
        <time>2015-08-03T09:59:31Z</time>
      </trkpt>
      <trkpt lat="45.5253" lon="6.73472">
        <ele>1953.11</ele>
        <time>2015-08-03T09:59:34Z</time>
      </trkpt>
      <trkpt lat="45.52522" lon="6.73459">
        <ele>1954.94</ele>
        <time>2015-08-03T09:59:46Z</time>
      </trkpt>
      <trkpt lat="45.52518" lon="6.73456">
        <ele>1955.68</ele>
        <time>2015-08-03T09:59:50Z</time>
      </trkpt>
      <trkpt lat="45.52517" lon="6.73456">
        <ele>1955.68</ele>
        <time>2015-08-03T09:59:51Z</time>
      </trkpt>
      <trkpt lat="45.52516" lon="6.73456">
        <ele>1955.98</ele>
        <time>2015-08-03T09:59:52Z</time>
      </trkpt>
      <trkpt lat="45.52505" lon="6.73443">
        <ele>1958.33</ele>
        <time>2015-08-03T10:00:06Z</time>
      </trkpt>
      <trkpt lat="45.52498" lon="6.73432">
        <ele>1959.91</ele>
        <time>2015-08-03T10:00:16Z</time>
      </trkpt>
      <trkpt lat="45.52493" lon="6.73425">
        <ele>1960.74</ele>
        <time>2015-08-03T10:00:23Z</time>
      </trkpt>
      <trkpt lat="45.52485" lon="6.73422">
        <ele>1962.48</ele>
        <time>2015-08-03T10:00:35Z</time>
      </trkpt>
      <trkpt lat="45.52475" lon="6.73416">
        <ele>1965.08</ele>
        <time>2015-08-03T10:00:49Z</time>
      </trkpt>
      <trkpt lat="45.52467" lon="6.73409">
        <ele>1966.48</ele>
        <time>2015-08-03T10:00:59Z</time>
      </trkpt>
      <trkpt lat="45.52464" lon="6.73406">
        <ele>1966.93</ele>
        <time>2015-08-03T10:01:02Z</time>
      </trkpt>
      <trkpt lat="45.52458" lon="6.73398">
        <ele>1968.12</ele>
        <time>2015-08-03T10:01:11Z</time>
      </trkpt>
      <trkpt lat="45.52455" lon="6.73395">
        <ele>1968.52</ele>
        <time>2015-08-03T10:01:15Z</time>
      </trkpt>
      <trkpt lat="45.52447" lon="6.73385">
        <ele>1970</ele>
        <time>2015-08-03T10:01:26Z</time>
      </trkpt>
      <trkpt lat="45.52436" lon="6.73374">
        <ele>1972.26</ele>
        <time>2015-08-03T10:01:39Z</time>
      </trkpt>
      <trkpt lat="45.52428" lon="6.73365">
        <ele>1973.53</ele>
        <time>2015-08-03T10:01:50Z</time>
      </trkpt>
      <trkpt lat="45.52422" lon="6.73356">
        <ele>1974.89</ele>
        <time>2015-08-03T10:02:00Z</time>
      </trkpt>
      <trkpt lat="45.52413" lon="6.73349">
        <ele>1976.35</ele>
        <time>2015-08-03T10:02:12Z</time>
      </trkpt>
      <trkpt lat="45.52407" lon="6.73339">
        <ele>1978.4</ele>
        <time>2015-08-03T10:02:22Z</time>
      </trkpt>
      <trkpt lat="45.52407" lon="6.73338">
        <ele>1978.59</ele>
        <time>2015-08-03T10:02:23Z</time>
      </trkpt>
      <trkpt lat="45.524" lon="6.73323">
        <ele>1980.84</ele>
        <time>2015-08-03T10:02:37Z</time>
      </trkpt>
      <trkpt lat="45.52397" lon="6.73309">
        <ele>1982.65</ele>
        <time>2015-08-03T10:02:49Z</time>
      </trkpt>
      <trkpt lat="45.52397" lon="6.7329">
        <ele>1984.96</ele>
        <time>2015-08-03T10:03:05Z</time>
      </trkpt>
      <trkpt lat="45.52397" lon="6.73285">
        <ele>1985.55</ele>
        <time>2015-08-03T10:03:08Z</time>
      </trkpt>
      <trkpt lat="45.524" lon="6.73266">
        <ele>1986.75</ele>
        <time>2015-08-03T10:03:18Z</time>
      </trkpt>
      <trkpt lat="45.52399" lon="6.73249">
        <ele>1988.28</ele>
        <time>2015-08-03T10:03:29Z</time>
      </trkpt>
      <trkpt lat="45.52399" lon="6.73247">
        <ele>1988.43</ele>
        <time>2015-08-03T10:03:30Z</time>
      </trkpt>
      <trkpt lat="45.52399" lon="6.73245">
        <ele>1988.66</ele>
        <time>2015-08-03T10:03:31Z</time>
      </trkpt>
      <trkpt lat="45.524" lon="6.73243">
        <ele>1988.79</ele>
        <time>2015-08-03T10:03:32Z</time>
      </trkpt>
      <trkpt lat="45.52403" lon="6.73225">
        <ele>1990.76</ele>
        <time>2015-08-03T10:03:44Z</time>
      </trkpt>
      <trkpt lat="45.52403" lon="6.73224">
        <ele>1990.94</ele>
        <time>2015-08-03T10:03:45Z</time>
      </trkpt>
      <trkpt lat="45.52404" lon="6.73209">
        <ele>1992.11</ele>
        <time>2015-08-03T10:03:54Z</time>
      </trkpt>
      <trkpt lat="45.52405" lon="6.73189">
        <ele>1993.25</ele>
        <time>2015-08-03T10:04:05Z</time>
      </trkpt>
      <trkpt lat="45.524" lon="6.73181">
        <ele>1993.68</ele>
        <time>2015-08-03T10:04:11Z</time>
      </trkpt>
      <trkpt lat="45.52397" lon="6.73181">
        <ele>1993.91</ele>
        <time>2015-08-03T10:04:14Z</time>
      </trkpt>
      <trkpt lat="45.52395" lon="6.73182">
        <ele>1994.18</ele>
        <time>2015-08-03T10:04:16Z</time>
      </trkpt>
      <trkpt lat="45.52391" lon="6.73183">
        <ele>1994.65</ele>
        <time>2015-08-03T10:04:20Z</time>
      </trkpt>
      <trkpt lat="45.5239" lon="6.73183">
        <ele>1994.75</ele>
        <time>2015-08-03T10:04:21Z</time>
      </trkpt>
      <trkpt lat="45.52379" lon="6.73193">
        <ele>1996.53</ele>
        <time>2015-08-03T10:04:32Z</time>
      </trkpt>
      <trkpt lat="45.52378" lon="6.73193">
        <ele>1996.65</ele>
        <time>2015-08-03T10:04:33Z</time>
      </trkpt>
      <trkpt lat="45.52373" lon="6.73196">
        <ele>1997.38</ele>
        <time>2015-08-03T10:04:39Z</time>
      </trkpt>
      <trkpt lat="45.52366" lon="6.73199">
        <ele>1998.61</ele>
        <time>2015-08-03T10:04:46Z</time>
      </trkpt>
      <trkpt lat="45.52357" lon="6.732">
        <ele>2000.02</ele>
        <time>2015-08-03T10:04:56Z</time>
      </trkpt>
      <trkpt lat="45.52355" lon="6.732">
        <ele>2000.1</ele>
        <time>2015-08-03T10:04:57Z</time>
      </trkpt>
      <trkpt lat="45.52354" lon="6.732">
        <ele>2000.18</ele>
        <time>2015-08-03T10:04:58Z</time>
      </trkpt>
      <trkpt lat="45.52343" lon="6.73204">
        <ele>2001.34</ele>
        <time>2015-08-03T10:05:09Z</time>
      </trkpt>
      <trkpt lat="45.52331" lon="6.73209">
        <ele>2002.85</ele>
        <time>2015-08-03T10:05:20Z</time>
      </trkpt>
      <trkpt lat="45.52331" lon="6.73209">
        <ele>2002.95</ele>
        <time>2015-08-03T10:05:21Z</time>
      </trkpt>
      <trkpt lat="45.52328" lon="6.7321">
        <ele>2003.29</ele>
        <time>2015-08-03T10:05:24Z</time>
      </trkpt>
      <trkpt lat="45.52327" lon="6.7321">
        <ele>2003.43</ele>
        <time>2015-08-03T10:05:25Z</time>
      </trkpt>
      <trkpt lat="45.52315" lon="6.73213">
        <ele>2004.97</ele>
        <time>2015-08-03T10:05:37Z</time>
      </trkpt>
      <trkpt lat="45.52306" lon="6.73213">
        <ele>2006.06</ele>
        <time>2015-08-03T10:05:46Z</time>
      </trkpt>
      <trkpt lat="45.52305" lon="6.73213">
        <ele>2006.15</ele>
        <time>2015-08-03T10:05:47Z</time>
      </trkpt>
      <trkpt lat="45.52304" lon="6.73213">
        <ele>2006.25</ele>
        <time>2015-08-03T10:05:48Z</time>
      </trkpt>
      <trkpt lat="45.52299" lon="6.73212">
        <ele>2006.79</ele>
        <time>2015-08-03T10:05:54Z</time>
      </trkpt>
      <trkpt lat="45.52298" lon="6.73211">
        <ele>2006.9</ele>
        <time>2015-08-03T10:05:55Z</time>
      </trkpt>
      <trkpt lat="45.52297" lon="6.73211">
        <ele>2007</ele>
        <time>2015-08-03T10:05:56Z</time>
      </trkpt>
      <trkpt lat="45.52297" lon="6.7321">
        <ele>2007.1</ele>
        <time>2015-08-03T10:05:57Z</time>
      </trkpt>
      <trkpt lat="45.52296" lon="6.7321">
        <ele>2007.22</ele>
        <time>2015-08-03T10:05:58Z</time>
      </trkpt>
      <trkpt lat="45.5229" lon="6.73207">
        <ele>2008.12</ele>
        <time>2015-08-03T10:06:04Z</time>
      </trkpt>
      <trkpt lat="45.52289" lon="6.73206">
        <ele>2008.26</ele>
        <time>2015-08-03T10:06:05Z</time>
      </trkpt>
      <trkpt lat="45.52286" lon="6.73198">
        <ele>2009.03</ele>
        <time>2015-08-03T10:06:11Z</time>
      </trkpt>
      <trkpt lat="45.52277" lon="6.73182">
        <ele>2010.18</ele>
        <time>2015-08-03T10:06:25Z</time>
      </trkpt>
      <trkpt lat="45.52274" lon="6.7318">
        <ele>2010.56</ele>
        <time>2015-08-03T10:06:28Z</time>
      </trkpt>
      <trkpt lat="45.52273" lon="6.7318">
        <ele>2010.73</ele>
        <time>2015-08-03T10:06:29Z</time>
      </trkpt>
      <trkpt lat="45.52272" lon="6.73179">
        <ele>2010.88</ele>
        <time>2015-08-03T10:06:30Z</time>
      </trkpt>
      <trkpt lat="45.52268" lon="6.73177">
        <ele>2011.32</ele>
        <time>2015-08-03T10:06:34Z</time>
      </trkpt>
      <trkpt lat="45.52267" lon="6.73176">
        <ele>2011.41</ele>
        <time>2015-08-03T10:06:35Z</time>
      </trkpt>
      <trkpt lat="45.52263" lon="6.7317">
        <ele>2011.87</ele>
        <time>2015-08-03T10:06:40Z</time>
      </trkpt>
      <trkpt lat="45.52257" lon="6.73167">
        <ele>2012.55</ele>
        <time>2015-08-03T10:06:46Z</time>
      </trkpt>
      <trkpt lat="45.52255" lon="6.73164">
        <ele>2012.73</ele>
        <time>2015-08-03T10:06:49Z</time>
      </trkpt>
      <trkpt lat="45.52254" lon="6.73162">
        <ele>2012.8</ele>
        <time>2015-08-03T10:06:50Z</time>
      </trkpt>
      <trkpt lat="45.52253" lon="6.73161">
        <ele>2012.8</ele>
        <time>2015-08-03T10:06:51Z</time>
      </trkpt>
      <trkpt lat="45.52253" lon="6.73159">
        <ele>2012.91</ele>
        <time>2015-08-03T10:06:52Z</time>
      </trkpt>
      <trkpt lat="45.52247" lon="6.73147">
        <ele>2013.99</ele>
        <time>2015-08-03T10:07:02Z</time>
      </trkpt>
      <trkpt lat="45.5224" lon="6.73129">
        <ele>2015.59</ele>
        <time>2015-08-03T10:07:15Z</time>
      </trkpt>
      <trkpt lat="45.52232" lon="6.7311">
        <ele>2017.01</ele>
        <time>2015-08-03T10:07:26Z</time>
      </trkpt>
      <trkpt lat="45.52222" lon="6.73083">
        <ele>2019.12</ele>
        <time>2015-08-03T10:07:42Z</time>
      </trkpt>
      <trkpt lat="45.52218" lon="6.73076">
        <ele>2020.29</ele>
        <time>2015-08-03T10:07:54Z</time>
      </trkpt>
      <trkpt lat="45.52218" lon="6.73078">
        <ele>2020.81</ele>
        <time>2015-08-03T10:08:13Z</time>
      </trkpt>
      <trkpt lat="45.52218" lon="6.73079">
        <ele>2020.53</ele>
        <time>2015-08-03T10:08:27Z</time>
      </trkpt>
      <trkpt lat="45.52217" lon="6.7308">
        <ele>2020.66</ele>
        <time>2015-08-03T10:08:41Z</time>
      </trkpt>
      <trkpt lat="45.52217" lon="6.7308">
        <ele>2020.76</ele>
        <time>2015-08-03T10:08:57Z</time>
      </trkpt>
      <trkpt lat="45.52217" lon="6.73081">
        <ele>2020.85</ele>
        <time>2015-08-03T10:09:11Z</time>
      </trkpt>
      <trkpt lat="45.52215" lon="6.7308">
        <ele>2020.83</ele>
        <time>2015-08-03T10:09:15Z</time>
      </trkpt>
      <trkpt lat="45.52213" lon="6.7308">
        <ele>2020.83</ele>
        <time>2015-08-03T10:09:16Z</time>
      </trkpt>
      <trkpt lat="45.52211" lon="6.7308">
        <ele>2020.84</ele>
        <time>2015-08-03T10:09:17Z</time>
      </trkpt>
      <trkpt lat="45.52194" lon="6.73074">
        <ele>2021.55</ele>
        <time>2015-08-03T10:09:28Z</time>
      </trkpt>
      <trkpt lat="45.52181" lon="6.73056">
        <ele>2023.61</ele>
        <time>2015-08-03T10:09:40Z</time>
      </trkpt>
      <trkpt lat="45.52178" lon="6.73053">
        <ele>2023.92</ele>
        <time>2015-08-03T10:09:42Z</time>
      </trkpt>
      <trkpt lat="45.52166" lon="6.73043">
        <ele>2025.12</ele>
        <time>2015-08-03T10:09:51Z</time>
      </trkpt>
      <trkpt lat="45.52157" lon="6.73041">
        <ele>2025.78</ele>
        <time>2015-08-03T10:09:57Z</time>
      </trkpt>
      <trkpt lat="45.52143" lon="6.73043">
        <ele>2026.71</ele>
        <time>2015-08-03T10:10:06Z</time>
      </trkpt>
      <trkpt lat="45.52129" lon="6.7305">
        <ele>2028.17</ele>
        <time>2015-08-03T10:10:15Z</time>
      </trkpt>
      <trkpt lat="45.52127" lon="6.7305">
        <ele>2028.38</ele>
        <time>2015-08-03T10:10:16Z</time>
      </trkpt>
      <trkpt lat="45.52126" lon="6.7305">
        <ele>2028.55</ele>
        <time>2015-08-03T10:10:17Z</time>
      </trkpt>
      <trkpt lat="45.52124" lon="6.73051">
        <ele>2028.71</ele>
        <time>2015-08-03T10:10:18Z</time>
      </trkpt>
      <trkpt lat="45.52122" lon="6.73051">
        <ele>2028.84</ele>
        <time>2015-08-03T10:10:19Z</time>
      </trkpt>
      <trkpt lat="45.52121" lon="6.7305">
        <ele>2028.96</ele>
        <time>2015-08-03T10:10:20Z</time>
      </trkpt>
      <trkpt lat="45.5212" lon="6.7305">
        <ele>2029.08</ele>
        <time>2015-08-03T10:10:21Z</time>
      </trkpt>
      <trkpt lat="45.52102" lon="6.7305">
        <ele>2031.23</ele>
        <time>2015-08-03T10:10:34Z</time>
      </trkpt>
      <trkpt lat="45.52087" lon="6.73045">
        <ele>2032.7</ele>
        <time>2015-08-03T10:10:46Z</time>
      </trkpt>
      <trkpt lat="45.52072" lon="6.73042">
        <ele>2034.5</ele>
        <time>2015-08-03T10:10:57Z</time>
      </trkpt>
      <trkpt lat="45.52054" lon="6.73051">
        <ele>2036.54</ele>
        <time>2015-08-03T10:11:09Z</time>
      </trkpt>
      <trkpt lat="45.52052" lon="6.73054">
        <ele>2037.54</ele>
        <time>2015-08-03T10:11:18Z</time>
      </trkpt>
      <trkpt lat="45.5205" lon="6.73056">
        <ele>2037.62</ele>
        <time>2015-08-03T10:11:33Z</time>
      </trkpt>
      <trkpt lat="45.52052" lon="6.73055">
        <ele>2037.72</ele>
        <time>2015-08-03T10:11:46Z</time>
      </trkpt>
      <trkpt lat="45.5205" lon="6.73056">
        <ele>2037.82</ele>
        <time>2015-08-03T10:12:02Z</time>
      </trkpt>
      <trkpt lat="45.52049" lon="6.73057">
        <ele>2038.06</ele>
        <time>2015-08-03T10:12:14Z</time>
      </trkpt>
      <trkpt lat="45.52048" lon="6.73054">
        <ele>2037.85</ele>
        <time>2015-08-03T10:12:32Z</time>
      </trkpt>
      <trkpt lat="45.52047" lon="6.73055">
        <ele>2037.54</ele>
        <time>2015-08-03T10:12:55Z</time>
      </trkpt>
      <trkpt lat="45.52049" lon="6.73056">
        <ele>2037.97</ele>
        <time>2015-08-03T10:13:08Z</time>
      </trkpt>
      <trkpt lat="45.52048" lon="6.73053">
        <ele>2038.13</ele>
        <time>2015-08-03T10:13:21Z</time>
      </trkpt>
      <trkpt lat="45.52048" lon="6.73048">
        <ele>2037.92</ele>
        <time>2015-08-03T10:13:33Z</time>
      </trkpt>
      <trkpt lat="45.52048" lon="6.73046">
        <ele>2037.93</ele>
        <time>2015-08-03T10:13:34Z</time>
      </trkpt>
      <trkpt lat="45.52048" lon="6.73044">
        <ele>2037.91</ele>
        <time>2015-08-03T10:13:35Z</time>
      </trkpt>
      <trkpt lat="45.52048" lon="6.73042">
        <ele>2037.95</ele>
        <time>2015-08-03T10:13:36Z</time>
      </trkpt>
      <trkpt lat="45.5205" lon="6.73028">
        <ele>2039.46</ele>
        <time>2015-08-03T10:13:47Z</time>
      </trkpt>
      <trkpt lat="45.52054" lon="6.73024">
        <ele>2041.49</ele>
        <time>2015-08-03T10:13:56Z</time>
      </trkpt>
      <trkpt lat="45.52058" lon="6.73017">
        <ele>2044.05</ele>
        <time>2015-08-03T10:14:09Z</time>
      </trkpt>
      <trkpt lat="45.52059" lon="6.73012">
        <ele>2045.49</ele>
        <time>2015-08-03T10:14:20Z</time>
      </trkpt>
      <trkpt lat="45.52062" lon="6.73008">
        <ele>2046.47</ele>
        <time>2015-08-03T10:14:29Z</time>
      </trkpt>
      <trkpt lat="45.52065" lon="6.73006">
        <ele>2048.16</ele>
        <time>2015-08-03T10:14:40Z</time>
      </trkpt>
      <trkpt lat="45.52065" lon="6.73005">
        <ele>2048.48</ele>
        <time>2015-08-03T10:14:53Z</time>
      </trkpt>
      <trkpt lat="45.52063" lon="6.73001">
        <ele>2048.96</ele>
        <time>2015-08-03T10:15:00Z</time>
      </trkpt>
      <trkpt lat="45.52064" lon="6.72994">
        <ele>2050.74</ele>
        <time>2015-08-03T10:15:10Z</time>
      </trkpt>
      <trkpt lat="45.52067" lon="6.7299">
        <ele>2052.64</ele>
        <time>2015-08-03T10:15:21Z</time>
      </trkpt>
      <trkpt lat="45.52066" lon="6.72984">
        <ele>2054.03</ele>
        <time>2015-08-03T10:15:30Z</time>
      </trkpt>
      <trkpt lat="45.52071" lon="6.72972">
        <ele>2055.92</ele>
        <time>2015-08-03T10:15:44Z</time>
      </trkpt>
      <trkpt lat="45.52075" lon="6.72965">
        <ele>2057.43</ele>
        <time>2015-08-03T10:15:54Z</time>
      </trkpt>
      <trkpt lat="45.52077" lon="6.72961">
        <ele>2058.92</ele>
        <time>2015-08-03T10:16:05Z</time>
      </trkpt>
      <trkpt lat="45.52083" lon="6.72954">
        <ele>2060.63</ele>
        <time>2015-08-03T10:16:17Z</time>
      </trkpt>
      <trkpt lat="45.52086" lon="6.72948">
        <ele>2061.21</ele>
        <time>2015-08-03T10:16:23Z</time>
      </trkpt>
      <trkpt lat="45.52092" lon="6.72939">
        <ele>2062.39</ele>
        <time>2015-08-03T10:16:34Z</time>
      </trkpt>
      <trkpt lat="45.52099" lon="6.72933">
        <ele>2063.6</ele>
        <time>2015-08-03T10:16:46Z</time>
      </trkpt>
      <trkpt lat="45.52099" lon="6.72933">
        <ele>2064.5</ele>
        <time>2015-08-03T10:16:58Z</time>
      </trkpt>
      <trkpt lat="45.52099" lon="6.72935">
        <ele>2064.49</ele>
        <time>2015-08-03T10:17:17Z</time>
      </trkpt>
      <trkpt lat="45.52101" lon="6.72932">
        <ele>2064.09</ele>
        <time>2015-08-03T10:17:30Z</time>
      </trkpt>
      <trkpt lat="45.52102" lon="6.72932">
        <ele>2064.14</ele>
        <time>2015-08-03T10:17:46Z</time>
      </trkpt>
      <trkpt lat="45.52102" lon="6.72932">
        <ele>2063.81</ele>
        <time>2015-08-03T10:18:04Z</time>
      </trkpt>
      <trkpt lat="45.52103" lon="6.72932">
        <ele>2063.96</ele>
        <time>2015-08-03T10:18:17Z</time>
      </trkpt>
      <trkpt lat="45.52103" lon="6.72932">
        <ele>2064.2</ele>
        <time>2015-08-03T10:18:32Z</time>
      </trkpt>
      <trkpt lat="45.52104" lon="6.72933">
        <ele>2063.95</ele>
        <time>2015-08-03T10:18:47Z</time>
      </trkpt>
      <trkpt lat="45.52103" lon="6.72934">
        <ele>2064.13</ele>
        <time>2015-08-03T10:19:04Z</time>
      </trkpt>
      <trkpt lat="45.52104" lon="6.72934">
        <ele>2063.95</ele>
        <time>2015-08-03T10:19:24Z</time>
      </trkpt>
      <trkpt lat="45.52105" lon="6.72935">
        <ele>2064.21</ele>
        <time>2015-08-03T10:19:42Z</time>
      </trkpt>
      <trkpt lat="45.52105" lon="6.72935">
        <ele>2064.11</ele>
        <time>2015-08-03T10:19:58Z</time>
      </trkpt>
      <trkpt lat="45.52104" lon="6.72935">
        <ele>2063.79</ele>
        <time>2015-08-03T10:20:16Z</time>
      </trkpt>
      <trkpt lat="45.52105" lon="6.72935">
        <ele>2063.89</ele>
        <time>2015-08-03T10:20:31Z</time>
      </trkpt>
      <trkpt lat="45.52105" lon="6.72935">
        <ele>2063.97</ele>
        <time>2015-08-03T10:20:45Z</time>
      </trkpt>
      <trkpt lat="45.52106" lon="6.72935">
        <ele>2063.77</ele>
        <time>2015-08-03T10:21:00Z</time>
      </trkpt>
      <trkpt lat="45.52106" lon="6.72935">
        <ele>2063.84</ele>
        <time>2015-08-03T10:21:13Z</time>
      </trkpt>
      <trkpt lat="45.52106" lon="6.72936">
        <ele>2064</ele>
        <time>2015-08-03T10:21:30Z</time>
      </trkpt>
      <trkpt lat="45.52106" lon="6.72935">
        <ele>2063.66</ele>
        <time>2015-08-03T10:21:46Z</time>
      </trkpt>
      <trkpt lat="45.52106" lon="6.72935">
        <ele>2063.81</ele>
        <time>2015-08-03T10:21:59Z</time>
      </trkpt>
      <trkpt lat="45.52105" lon="6.72936">
        <ele>2063.92</ele>
        <time>2015-08-03T10:22:14Z</time>
      </trkpt>
      <trkpt lat="45.52105" lon="6.72937">
        <ele>2063.93</ele>
        <time>2015-08-03T10:22:31Z</time>
      </trkpt>
      <trkpt lat="45.52105" lon="6.72937">
        <ele>2064.21</ele>
        <time>2015-08-03T10:22:45Z</time>
      </trkpt>
      <trkpt lat="45.52106" lon="6.72937">
        <ele>2064.06</ele>
        <time>2015-08-03T10:22:58Z</time>
      </trkpt>
      <trkpt lat="45.52106" lon="6.72937">
        <ele>2064.12</ele>
        <time>2015-08-03T10:23:11Z</time>
      </trkpt>
      <trkpt lat="45.52106" lon="6.72937">
        <ele>2064.1</ele>
        <time>2015-08-03T10:23:28Z</time>
      </trkpt>
      <trkpt lat="45.52107" lon="6.72937">
        <ele>2063.91</ele>
        <time>2015-08-03T10:23:43Z</time>
      </trkpt>
      <trkpt lat="45.52107" lon="6.72936">
        <ele>2064.04</ele>
        <time>2015-08-03T10:24:00Z</time>
      </trkpt>
      <trkpt lat="45.52107" lon="6.72936">
        <ele>2063.76</ele>
        <time>2015-08-03T10:24:17Z</time>
      </trkpt>
      <trkpt lat="45.52106" lon="6.72937">
        <ele>2063.93</ele>
        <time>2015-08-03T10:24:35Z</time>
      </trkpt>
      <trkpt lat="45.52107" lon="6.72937">
        <ele>2063.82</ele>
        <time>2015-08-03T10:24:52Z</time>
      </trkpt>
      <trkpt lat="45.52107" lon="6.72937">
        <ele>2063.78</ele>
        <time>2015-08-03T10:25:08Z</time>
      </trkpt>
      <trkpt lat="45.52106" lon="6.72937">
        <ele>2063.73</ele>
        <time>2015-08-03T10:25:24Z</time>
      </trkpt>
      <trkpt lat="45.52106" lon="6.72937">
        <ele>2063.86</ele>
        <time>2015-08-03T10:25:40Z</time>
      </trkpt>
      <trkpt lat="45.52106" lon="6.72937">
        <ele>2064</ele>
        <time>2015-08-03T10:25:57Z</time>
      </trkpt>
      <trkpt lat="45.52106" lon="6.72937">
        <ele>2064.09</ele>
        <time>2015-08-03T10:26:15Z</time>
      </trkpt>
      <trkpt lat="45.52106" lon="6.72937">
        <ele>2063.9</ele>
        <time>2015-08-03T10:26:33Z</time>
      </trkpt>
      <trkpt lat="45.52106" lon="6.72937">
        <ele>2063.81</ele>
        <time>2015-08-03T10:26:50Z</time>
      </trkpt>
      <trkpt lat="45.52107" lon="6.72936">
        <ele>2063.75</ele>
        <time>2015-08-03T10:27:11Z</time>
      </trkpt>
      <trkpt lat="45.52107" lon="6.72936">
        <ele>2063.96</ele>
        <time>2015-08-03T10:27:32Z</time>
      </trkpt>
      <trkpt lat="45.52107" lon="6.72936">
        <ele>2063.63</ele>
        <time>2015-08-03T10:27:51Z</time>
      </trkpt>
      <trkpt lat="45.52107" lon="6.72935">
        <ele>2063.65</ele>
        <time>2015-08-03T10:28:13Z</time>
      </trkpt>
      <trkpt lat="45.52107" lon="6.72936">
        <ele>2063.76</ele>
        <time>2015-08-03T10:28:37Z</time>
      </trkpt>
      <trkpt lat="45.52107" lon="6.72935">
        <ele>2063.79</ele>
        <time>2015-08-03T10:29:00Z</time>
      </trkpt>
      <trkpt lat="45.52107" lon="6.72935">
        <ele>2063.96</ele>
        <time>2015-08-03T10:29:37Z</time>
      </trkpt>
      <trkpt lat="45.52107" lon="6.72935">
        <ele>2063.91</ele>
        <time>2015-08-03T10:30:08Z</time>
      </trkpt>
      <trkpt lat="45.52107" lon="6.72935">
        <ele>2064.09</ele>
        <time>2015-08-03T10:30:46Z</time>
      </trkpt>
      <trkpt lat="45.52108" lon="6.72935">
        <ele>2063.67</ele>
        <time>2015-08-03T10:31:28Z</time>
      </trkpt>
      <trkpt lat="45.52108" lon="6.72934">
        <ele>2063.5</ele>
        <time>2015-08-03T10:32:05Z</time>
      </trkpt>
      <trkpt lat="45.52108" lon="6.72934">
        <ele>2063.68</ele>
        <time>2015-08-03T10:32:25Z</time>
      </trkpt>
      <trkpt lat="45.52109" lon="6.72934">
        <ele>2063.73</ele>
        <time>2015-08-03T10:32:45Z</time>
      </trkpt>
      <trkpt lat="45.52109" lon="6.72934">
        <ele>2063.72</ele>
        <time>2015-08-03T10:33:05Z</time>
      </trkpt>
      <trkpt lat="45.52109" lon="6.72934">
        <ele>2063.71</ele>
        <time>2015-08-03T10:33:26Z</time>
      </trkpt>
      <trkpt lat="45.52109" lon="6.72935">
        <ele>2063.72</ele>
        <time>2015-08-03T10:33:48Z</time>
      </trkpt>
      <trkpt lat="45.52109" lon="6.72933">
        <ele>2063.32</ele>
        <time>2015-08-03T10:34:20Z</time>
      </trkpt>
      <trkpt lat="45.52109" lon="6.72934">
        <ele>2063.34</ele>
        <time>2015-08-03T10:34:38Z</time>
      </trkpt>
      <trkpt lat="45.52109" lon="6.72935">
        <ele>2063.36</ele>
        <time>2015-08-03T10:34:58Z</time>
      </trkpt>
      <trkpt lat="45.52109" lon="6.72934">
        <ele>2063.19</ele>
        <time>2015-08-03T10:35:21Z</time>
      </trkpt>
      <trkpt lat="45.52109" lon="6.72935">
        <ele>2063.39</ele>
        <time>2015-08-03T10:35:43Z</time>
      </trkpt>
      <trkpt lat="45.52109" lon="6.72935">
        <ele>2063.1</ele>
        <time>2015-08-03T10:36:04Z</time>
      </trkpt>
      <trkpt lat="45.52109" lon="6.72934">
        <ele>2063.14</ele>
        <time>2015-08-03T10:36:26Z</time>
      </trkpt>
      <trkpt lat="45.52109" lon="6.72934">
        <ele>2063.2</ele>
        <time>2015-08-03T10:36:47Z</time>
      </trkpt>
      <trkpt lat="45.52109" lon="6.72934">
        <ele>2063.32</ele>
        <time>2015-08-03T10:37:10Z</time>
      </trkpt>
      <trkpt lat="45.52109" lon="6.72933">
        <ele>2063.48</ele>
        <time>2015-08-03T10:37:31Z</time>
      </trkpt>
      <trkpt lat="45.52109" lon="6.72933">
        <ele>2063.75</ele>
        <time>2015-08-03T10:37:53Z</time>
      </trkpt>
      <trkpt lat="45.52109" lon="6.72933">
        <ele>2063.65</ele>
        <time>2015-08-03T10:38:16Z</time>
      </trkpt>
      <trkpt lat="45.52109" lon="6.72933">
        <ele>2063.55</ele>
        <time>2015-08-03T10:38:38Z</time>
      </trkpt>
      <trkpt lat="45.52109" lon="6.72934">
        <ele>2063.69</ele>
        <time>2015-08-03T10:39:00Z</time>
      </trkpt>
      <trkpt lat="45.52109" lon="6.72935">
        <ele>2063.64</ele>
        <time>2015-08-03T10:39:20Z</time>
      </trkpt>
      <trkpt lat="45.52109" lon="6.72935">
        <ele>2063.64</ele>
        <time>2015-08-03T10:39:38Z</time>
      </trkpt>
      <trkpt lat="45.52109" lon="6.72935">
        <ele>2063.65</ele>
        <time>2015-08-03T10:39:57Z</time>
      </trkpt>
      <trkpt lat="45.52109" lon="6.72934">
        <ele>2063.49</ele>
        <time>2015-08-03T10:40:17Z</time>
      </trkpt>
      <trkpt lat="45.52113" lon="6.72935">
        <ele>2063.64</ele>
        <time>2015-08-03T10:40:34Z</time>
      </trkpt>
      <trkpt lat="45.52123" lon="6.72936">
        <ele>2065.08</ele>
        <time>2015-08-03T10:40:48Z</time>
      </trkpt>
      <trkpt lat="45.52128" lon="6.7293">
        <ele>2066.82</ele>
        <time>2015-08-03T10:40:59Z</time>
      </trkpt>
      <trkpt lat="45.52134" lon="6.72922">
        <ele>2068.58</ele>
        <time>2015-08-03T10:41:11Z</time>
      </trkpt>
      <trkpt lat="45.52139" lon="6.72908">
        <ele>2070.17</ele>
        <time>2015-08-03T10:41:26Z</time>
      </trkpt>
      <trkpt lat="45.52143" lon="6.72897">
        <ele>2070.96</ele>
        <time>2015-08-03T10:41:37Z</time>
      </trkpt>
      <trkpt lat="45.52148" lon="6.72891">
        <ele>2071.77</ele>
        <time>2015-08-03T10:41:47Z</time>
      </trkpt>
      <trkpt lat="45.52152" lon="6.72889">
        <ele>2072.03</ele>
        <time>2015-08-03T10:41:51Z</time>
      </trkpt>
      <trkpt lat="45.5216" lon="6.72888">
        <ele>2072.55</ele>
        <time>2015-08-03T10:41:59Z</time>
      </trkpt>
      <trkpt lat="45.52161" lon="6.72887">
        <ele>2072.61</ele>
        <time>2015-08-03T10:42:00Z</time>
      </trkpt>
      <trkpt lat="45.52163" lon="6.72886">
        <ele>2072.68</ele>
        <time>2015-08-03T10:42:02Z</time>
      </trkpt>
      <trkpt lat="45.5217" lon="6.72877">
        <ele>2073.66</ele>
        <time>2015-08-03T10:42:14Z</time>
      </trkpt>
      <trkpt lat="45.52173" lon="6.72871">
        <ele>2075.29</ele>
        <time>2015-08-03T10:42:25Z</time>
      </trkpt>
      <trkpt lat="45.52174" lon="6.72865">
        <ele>2077.43</ele>
        <time>2015-08-03T10:42:37Z</time>
      </trkpt>
      <trkpt lat="45.52177" lon="6.72862">
        <ele>2078.61</ele>
        <time>2015-08-03T10:42:47Z</time>
      </trkpt>
      <trkpt lat="45.52183" lon="6.7286">
        <ele>2080.52</ele>
        <time>2015-08-03T10:42:59Z</time>
      </trkpt>
      <trkpt lat="45.52181" lon="6.72856">
        <ele>2081.78</ele>
        <time>2015-08-03T10:43:07Z</time>
      </trkpt>
      <trkpt lat="45.52181" lon="6.72848">
        <ele>2083.3</ele>
        <time>2015-08-03T10:43:18Z</time>
      </trkpt>
      <trkpt lat="45.52179" lon="6.72845">
        <ele>2084.41</ele>
        <time>2015-08-03T10:43:27Z</time>
      </trkpt>
      <trkpt lat="45.52174" lon="6.72839">
        <ele>2085.77</ele>
        <time>2015-08-03T10:43:39Z</time>
      </trkpt>
      <trkpt lat="45.52172" lon="6.72833">
        <ele>2086.94</ele>
        <time>2015-08-03T10:43:50Z</time>
      </trkpt>
      <trkpt lat="45.52172" lon="6.72824">
        <ele>2088.41</ele>
        <time>2015-08-03T10:44:02Z</time>
      </trkpt>
      <trkpt lat="45.52175" lon="6.72813">
        <ele>2090.23</ele>
        <time>2015-08-03T10:44:15Z</time>
      </trkpt>
      <trkpt lat="45.52181" lon="6.72803">
        <ele>2091.83</ele>
        <time>2015-08-03T10:44:29Z</time>
      </trkpt>
      <trkpt lat="45.52182" lon="6.72802">
        <ele>2091.91</ele>
        <time>2015-08-03T10:44:30Z</time>
      </trkpt>
      <trkpt lat="45.52194" lon="6.72788">
        <ele>2092.63</ele>
        <time>2015-08-03T10:44:44Z</time>
      </trkpt>
      <trkpt lat="45.52202" lon="6.72781">
        <ele>2093.19</ele>
        <time>2015-08-03T10:44:56Z</time>
      </trkpt>
      <trkpt lat="45.52212" lon="6.72773">
        <ele>2094.41</ele>
        <time>2015-08-03T10:45:08Z</time>
      </trkpt>
      <trkpt lat="45.52222" lon="6.72769">
        <ele>2095.63</ele>
        <time>2015-08-03T10:45:20Z</time>
      </trkpt>
      <trkpt lat="45.52233" lon="6.72767">
        <ele>2097.38</ele>
        <time>2015-08-03T10:45:34Z</time>
      </trkpt>
      <trkpt lat="45.52235" lon="6.72766">
        <ele>2098.42</ele>
        <time>2015-08-03T10:45:46Z</time>
      </trkpt>
      <trkpt lat="45.52238" lon="6.72766">
        <ele>2098.69</ele>
        <time>2015-08-03T10:45:56Z</time>
      </trkpt>
      <trkpt lat="45.52243" lon="6.72766">
        <ele>2098.7</ele>
        <time>2015-08-03T10:46:13Z</time>
      </trkpt>
      <trkpt lat="45.52242" lon="6.72766">
        <ele>2098.93</ele>
        <time>2015-08-03T10:46:28Z</time>
      </trkpt>
      <trkpt lat="45.52246" lon="6.72759">
        <ele>2099.22</ele>
        <time>2015-08-03T10:46:38Z</time>
      </trkpt>
      <trkpt lat="45.52247" lon="6.72758">
        <ele>2099.27</ele>
        <time>2015-08-03T10:46:39Z</time>
      </trkpt>
      <trkpt lat="45.52257" lon="6.72742">
        <ele>2100.7</ele>
        <time>2015-08-03T10:46:52Z</time>
      </trkpt>
      <trkpt lat="45.52267" lon="6.72737">
        <ele>2102.87</ele>
        <time>2015-08-03T10:47:02Z</time>
      </trkpt>
      <trkpt lat="45.52277" lon="6.7273">
        <ele>2104.72</ele>
        <time>2015-08-03T10:47:13Z</time>
      </trkpt>
      <trkpt lat="45.52293" lon="6.72722">
        <ele>2107.38</ele>
        <time>2015-08-03T10:47:26Z</time>
      </trkpt>
      <trkpt lat="45.52301" lon="6.72717">
        <ele>2108.44</ele>
        <time>2015-08-03T10:47:38Z</time>
      </trkpt>
      <trkpt lat="45.52312" lon="6.72706">
        <ele>2110.03</ele>
        <time>2015-08-03T10:47:53Z</time>
      </trkpt>
      <trkpt lat="45.52317" lon="6.72703">
        <ele>2111.25</ele>
        <time>2015-08-03T10:48:03Z</time>
      </trkpt>
      <trkpt lat="45.52323" lon="6.72699">
        <ele>2112.97</ele>
        <time>2015-08-03T10:48:14Z</time>
      </trkpt>
      <trkpt lat="45.52329" lon="6.72696">
        <ele>2115.09</ele>
        <time>2015-08-03T10:48:26Z</time>
      </trkpt>
      <trkpt lat="45.52337" lon="6.72693">
        <ele>2117.22</ele>
        <time>2015-08-03T10:48:39Z</time>
      </trkpt>
      <trkpt lat="45.52343" lon="6.72688">
        <ele>2119.33</ele>
        <time>2015-08-03T10:48:52Z</time>
      </trkpt>
      <trkpt lat="45.52344" lon="6.72688">
        <ele>2120.75</ele>
        <time>2015-08-03T10:49:02Z</time>
      </trkpt>
      <trkpt lat="45.52344" lon="6.72688">
        <ele>2121.01</ele>
        <time>2015-08-03T10:49:18Z</time>
      </trkpt>
      <trkpt lat="45.5235" lon="6.72684">
        <ele>2121.59</ele>
        <time>2015-08-03T10:49:28Z</time>
      </trkpt>
      <trkpt lat="45.52356" lon="6.72679">
        <ele>2123.28</ele>
        <time>2015-08-03T10:49:38Z</time>
      </trkpt>
      <trkpt lat="45.52363" lon="6.72675">
        <ele>2124.77</ele>
        <time>2015-08-03T10:49:48Z</time>
      </trkpt>
      <trkpt lat="45.52368" lon="6.7267">
        <ele>2126.53</ele>
        <time>2015-08-03T10:49:59Z</time>
      </trkpt>
      <trkpt lat="45.52372" lon="6.72658">
        <ele>2128.39</ele>
        <time>2015-08-03T10:50:12Z</time>
      </trkpt>
      <trkpt lat="45.52374" lon="6.72644">
        <ele>2130.7</ele>
        <time>2015-08-03T10:50:26Z</time>
      </trkpt>
      <trkpt lat="45.52376" lon="6.72632">
        <ele>2132.81</ele>
        <time>2015-08-03T10:50:39Z</time>
      </trkpt>
      <trkpt lat="45.52377" lon="6.72618">
        <ele>2134.75</ele>
        <time>2015-08-03T10:50:53Z</time>
      </trkpt>
      <trkpt lat="45.52379" lon="6.72607">
        <ele>2136.01</ele>
        <time>2015-08-03T10:51:05Z</time>
      </trkpt>
      <trkpt lat="45.5238" lon="6.72591">
        <ele>2138.62</ele>
        <time>2015-08-03T10:51:22Z</time>
      </trkpt>
      <trkpt lat="45.5238" lon="6.72585">
        <ele>2139.54</ele>
        <time>2015-08-03T10:51:28Z</time>
      </trkpt>
      <trkpt lat="45.52378" lon="6.72574">
        <ele>2140.59</ele>
        <time>2015-08-03T10:51:39Z</time>
      </trkpt>
      <trkpt lat="45.52377" lon="6.72557">
        <ele>2142.54</ele>
        <time>2015-08-03T10:51:56Z</time>
      </trkpt>
      <trkpt lat="45.52375" lon="6.7254">
        <ele>2144.81</ele>
        <time>2015-08-03T10:52:13Z</time>
      </trkpt>
      <trkpt lat="45.52374" lon="6.7253">
        <ele>2147.16</ele>
        <time>2015-08-03T10:52:29Z</time>
      </trkpt>
      <trkpt lat="45.52373" lon="6.72519">
        <ele>2149.21</ele>
        <time>2015-08-03T10:52:43Z</time>
      </trkpt>
      <trkpt lat="45.52371" lon="6.72509">
        <ele>2151.2</ele>
        <time>2015-08-03T10:52:55Z</time>
      </trkpt>
      <trkpt lat="45.5237" lon="6.725">
        <ele>2153.02</ele>
        <time>2015-08-03T10:53:06Z</time>
      </trkpt>
      <trkpt lat="45.52371" lon="6.72487">
        <ele>2155.07</ele>
        <time>2015-08-03T10:53:20Z</time>
      </trkpt>
      <trkpt lat="45.52369" lon="6.72479">
        <ele>2156.17</ele>
        <time>2015-08-03T10:53:33Z</time>
      </trkpt>
      <trkpt lat="45.52368" lon="6.72477">
        <ele>2156.66</ele>
        <time>2015-08-03T10:53:51Z</time>
      </trkpt>
      <trkpt lat="45.52364" lon="6.72473">
        <ele>2156.78</ele>
        <time>2015-08-03T10:54:02Z</time>
      </trkpt>
      <trkpt lat="45.52356" lon="6.72457">
        <ele>2157.56</ele>
        <time>2015-08-03T10:54:12Z</time>
      </trkpt>
      <trkpt lat="45.52349" lon="6.72436">
        <ele>2158.45</ele>
        <time>2015-08-03T10:54:23Z</time>
      </trkpt>
      <trkpt lat="45.52343" lon="6.72405">
        <ele>2158.99</ele>
        <time>2015-08-03T10:54:36Z</time>
      </trkpt>
      <trkpt lat="45.52342" lon="6.724">
        <ele>2159.08</ele>
        <time>2015-08-03T10:54:39Z</time>
      </trkpt>
      <trkpt lat="45.52342" lon="6.72398">
        <ele>2159.14</ele>
        <time>2015-08-03T10:54:40Z</time>
      </trkpt>
      <trkpt lat="45.52342" lon="6.72396">
        <ele>2159.18</ele>
        <time>2015-08-03T10:54:41Z</time>
      </trkpt>
      <trkpt lat="45.52342" lon="6.72393">
        <ele>2159.25</ele>
        <time>2015-08-03T10:54:42Z</time>
      </trkpt>
      <trkpt lat="45.52341" lon="6.72391">
        <ele>2159.32</ele>
        <time>2015-08-03T10:54:43Z</time>
      </trkpt>
      <trkpt lat="45.5234" lon="6.72389">
        <ele>2159.4</ele>
        <time>2015-08-03T10:54:44Z</time>
      </trkpt>
      <trkpt lat="45.52339" lon="6.72387">
        <ele>2159.49</ele>
        <time>2015-08-03T10:54:45Z</time>
      </trkpt>
      <trkpt lat="45.52332" lon="6.72374">
        <ele>2161.12</ele>
        <time>2015-08-03T10:54:53Z</time>
      </trkpt>
      <trkpt lat="45.52329" lon="6.72368">
        <ele>2162.36</ele>
        <time>2015-08-03T10:55:00Z</time>
      </trkpt>
      <trkpt lat="45.52327" lon="6.72352">
        <ele>2164.78</ele>
        <time>2015-08-03T10:55:16Z</time>
      </trkpt>
      <trkpt lat="45.52326" lon="6.72342">
        <ele>2166.16</ele>
        <time>2015-08-03T10:55:27Z</time>
      </trkpt>
      <trkpt lat="45.52328" lon="6.72332">
        <ele>2167.74</ele>
        <time>2015-08-03T10:55:38Z</time>
      </trkpt>
      <trkpt lat="45.52326" lon="6.72326">
        <ele>2169.12</ele>
        <time>2015-08-03T10:55:48Z</time>
      </trkpt>
      <trkpt lat="45.52323" lon="6.72313">
        <ele>2169.46</ele>
        <time>2015-08-03T10:55:56Z</time>
      </trkpt>
      <trkpt lat="45.52323" lon="6.72311">
        <ele>2169.56</ele>
        <time>2015-08-03T10:55:57Z</time>
      </trkpt>
      <trkpt lat="45.52322" lon="6.7231">
        <ele>2169.7</ele>
        <time>2015-08-03T10:55:58Z</time>
      </trkpt>
      <trkpt lat="45.52322" lon="6.72308">
        <ele>2169.86</ele>
        <time>2015-08-03T10:55:59Z</time>
      </trkpt>
      <trkpt lat="45.52321" lon="6.72307">
        <ele>2170.01</ele>
        <time>2015-08-03T10:56:00Z</time>
      </trkpt>
      <trkpt lat="45.52319" lon="6.72302">
        <ele>2170.38</ele>
        <time>2015-08-03T10:56:03Z</time>
      </trkpt>
      <trkpt lat="45.52318" lon="6.72301">
        <ele>2170.48</ele>
        <time>2015-08-03T10:56:04Z</time>
      </trkpt>
      <trkpt lat="45.52317" lon="6.723">
        <ele>2170.59</ele>
        <time>2015-08-03T10:56:05Z</time>
      </trkpt>
      <trkpt lat="45.52316" lon="6.72299">
        <ele>2170.72</ele>
        <time>2015-08-03T10:56:06Z</time>
      </trkpt>
      <trkpt lat="45.52314" lon="6.72298">
        <ele>2170.86</ele>
        <time>2015-08-03T10:56:07Z</time>
      </trkpt>
      <trkpt lat="45.52313" lon="6.72296">
        <ele>2170.96</ele>
        <time>2015-08-03T10:56:08Z</time>
      </trkpt>
      <trkpt lat="45.52312" lon="6.72293">
        <ele>2171.04</ele>
        <time>2015-08-03T10:56:09Z</time>
      </trkpt>
      <trkpt lat="45.52311" lon="6.7229">
        <ele>2171.11</ele>
        <time>2015-08-03T10:56:10Z</time>
      </trkpt>
      <trkpt lat="45.52311" lon="6.72287">
        <ele>2171.11</ele>
        <time>2015-08-03T10:56:11Z</time>
      </trkpt>
      <trkpt lat="45.52312" lon="6.72283">
        <ele>2171.09</ele>
        <time>2015-08-03T10:56:12Z</time>
      </trkpt>
      <trkpt lat="45.52312" lon="6.72281">
        <ele>2171.05</ele>
        <time>2015-08-03T10:56:13Z</time>
      </trkpt>
      <trkpt lat="45.52312" lon="6.72276">
        <ele>2171.14</ele>
        <time>2015-08-03T10:56:23Z</time>
      </trkpt>
      <trkpt lat="45.52311" lon="6.72275">
        <ele>2171.41</ele>
        <time>2015-08-03T10:56:36Z</time>
      </trkpt>
      <trkpt lat="45.52309" lon="6.72278">
        <ele>2171.15</ele>
        <time>2015-08-03T10:56:46Z</time>
      </trkpt>
      <trkpt lat="45.52308" lon="6.72277">
        <ele>2171.57</ele>
        <time>2015-08-03T10:56:58Z</time>
      </trkpt>
      <trkpt lat="45.52307" lon="6.72281">
        <ele>2172.96</ele>
        <time>2015-08-03T10:57:13Z</time>
      </trkpt>
      <trkpt lat="45.52309" lon="6.72279">
        <ele>2171.05</ele>
        <time>2015-08-03T10:57:40Z</time>
      </trkpt>
      <trkpt lat="45.52307" lon="6.72277">
        <ele>2171.26</ele>
        <time>2015-08-03T10:57:53Z</time>
      </trkpt>
      <trkpt lat="45.52308" lon="6.72279">
        <ele>2171.23</ele>
        <time>2015-08-03T10:58:10Z</time>
      </trkpt>
      <trkpt lat="45.52306" lon="6.72283">
        <ele>2171.58</ele>
        <time>2015-08-03T10:58:27Z</time>
      </trkpt>
      <trkpt lat="45.52305" lon="6.72285">
        <ele>2171.55</ele>
        <time>2015-08-03T10:58:44Z</time>
      </trkpt>
      <trkpt lat="45.52306" lon="6.72285">
        <ele>2171.36</ele>
        <time>2015-08-03T10:59:01Z</time>
      </trkpt>
      <trkpt lat="45.52307" lon="6.72281">
        <ele>2171.17</ele>
        <time>2015-08-03T10:59:19Z</time>
      </trkpt>
      <trkpt lat="45.52307" lon="6.72282">
        <ele>2171.37</ele>
        <time>2015-08-03T10:59:38Z</time>
      </trkpt>
      <trkpt lat="45.52306" lon="6.72286">
        <ele>2171.5</ele>
        <time>2015-08-03T10:59:57Z</time>
      </trkpt>
      <trkpt lat="45.52306" lon="6.72286">
        <ele>2171.6</ele>
        <time>2015-08-03T11:00:21Z</time>
      </trkpt>
      <trkpt lat="45.52305" lon="6.72284">
        <ele>2171.51</ele>
        <time>2015-08-03T11:00:40Z</time>
      </trkpt>
      <trkpt lat="45.52308" lon="6.72279">
        <ele>2172.13</ele>
        <time>2015-08-03T11:00:55Z</time>
      </trkpt>
      <trkpt lat="45.52311" lon="6.72276">
        <ele>2172.08</ele>
        <time>2015-08-03T11:00:59Z</time>
      </trkpt>
      <trkpt lat="45.52312" lon="6.72275">
        <ele>2172.02</ele>
        <time>2015-08-03T11:01:00Z</time>
      </trkpt>
      <trkpt lat="45.52313" lon="6.72274">
        <ele>2171.93</ele>
        <time>2015-08-03T11:01:01Z</time>
      </trkpt>
      <trkpt lat="45.52314" lon="6.72273">
        <ele>2171.8</ele>
        <time>2015-08-03T11:01:02Z</time>
      </trkpt>
      <trkpt lat="45.52316" lon="6.72273">
        <ele>2171.67</ele>
        <time>2015-08-03T11:01:03Z</time>
      </trkpt>
      <trkpt lat="45.52324" lon="6.72271">
        <ele>2170.79</ele>
        <time>2015-08-03T11:01:13Z</time>
      </trkpt>
      <trkpt lat="45.52335" lon="6.72268">
        <ele>2170.71</ele>
        <time>2015-08-03T11:01:26Z</time>
      </trkpt>
      <trkpt lat="45.52343" lon="6.72265">
        <ele>2171.2</ele>
        <time>2015-08-03T11:01:39Z</time>
      </trkpt>
      <trkpt lat="45.52344" lon="6.72264">
        <ele>2171.18</ele>
        <time>2015-08-03T11:01:40Z</time>
      </trkpt>
      <trkpt lat="45.52345" lon="6.72263">
        <ele>2171.16</ele>
        <time>2015-08-03T11:01:41Z</time>
      </trkpt>
      <trkpt lat="45.52346" lon="6.72263">
        <ele>2171.14</ele>
        <time>2015-08-03T11:01:42Z</time>
      </trkpt>
      <trkpt lat="45.52367" lon="6.72261">
        <ele>2171.58</ele>
        <time>2015-08-03T11:01:53Z</time>
      </trkpt>
      <trkpt lat="45.52391" lon="6.72267">
        <ele>2170.85</ele>
        <time>2015-08-03T11:02:05Z</time>
      </trkpt>
      <trkpt lat="45.52411" lon="6.72267">
        <ele>2170.83</ele>
        <time>2015-08-03T11:02:16Z</time>
      </trkpt>
      <trkpt lat="45.52431" lon="6.72257">
        <ele>2172.92</ele>
        <time>2015-08-03T11:02:30Z</time>
      </trkpt>
      <trkpt lat="45.52446" lon="6.72254">
        <ele>2175.12</ele>
        <time>2015-08-03T11:02:40Z</time>
      </trkpt>
      <trkpt lat="45.52447" lon="6.72255">
        <ele>2175.38</ele>
        <time>2015-08-03T11:02:41Z</time>
      </trkpt>
      <trkpt lat="45.52451" lon="6.7226">
        <ele>2176.99</ele>
        <time>2015-08-03T11:02:48Z</time>
      </trkpt>
      <trkpt lat="45.52452" lon="6.72261">
        <ele>2177.21</ele>
        <time>2015-08-03T11:02:49Z</time>
      </trkpt>
      <trkpt lat="45.52453" lon="6.72262">
        <ele>2177.41</ele>
        <time>2015-08-03T11:02:50Z</time>
      </trkpt>
      <trkpt lat="45.52454" lon="6.72263">
        <ele>2177.58</ele>
        <time>2015-08-03T11:02:51Z</time>
      </trkpt>
      <trkpt lat="45.52455" lon="6.72263">
        <ele>2177.88</ele>
        <time>2015-08-03T11:02:52Z</time>
      </trkpt>
      <trkpt lat="45.52457" lon="6.72263">
        <ele>2178</ele>
        <time>2015-08-03T11:02:53Z</time>
      </trkpt>
      <trkpt lat="45.52465" lon="6.72261">
        <ele>2178.87</ele>
        <time>2015-08-03T11:03:02Z</time>
      </trkpt>
      <trkpt lat="45.52475" lon="6.72256">
        <ele>2181.52</ele>
        <time>2015-08-03T11:03:18Z</time>
      </trkpt>
      <trkpt lat="45.52484" lon="6.72254">
        <ele>2183.6</ele>
        <time>2015-08-03T11:03:29Z</time>
      </trkpt>
      <trkpt lat="45.52495" lon="6.72253">
        <ele>2185</ele>
        <time>2015-08-03T11:03:40Z</time>
      </trkpt>
      <trkpt lat="45.52504" lon="6.72259">
        <ele>2186.2</ele>
        <time>2015-08-03T11:03:51Z</time>
      </trkpt>
      <trkpt lat="45.52508" lon="6.72269">
        <ele>2187.64</ele>
        <time>2015-08-03T11:04:01Z</time>
      </trkpt>
      <trkpt lat="45.52514" lon="6.72275">
        <ele>2189.07</ele>
        <time>2015-08-03T11:04:12Z</time>
      </trkpt>
      <trkpt lat="45.52522" lon="6.72271">
        <ele>2191.34</ele>
        <time>2015-08-03T11:04:26Z</time>
      </trkpt>
      <trkpt lat="45.52527" lon="6.72274">
        <ele>2193.74</ele>
        <time>2015-08-03T11:04:38Z</time>
      </trkpt>
      <trkpt lat="45.52532" lon="6.72274">
        <ele>2195.28</ele>
        <time>2015-08-03T11:04:49Z</time>
      </trkpt>
      <trkpt lat="45.52538" lon="6.72273">
        <ele>2197.32</ele>
        <time>2015-08-03T11:05:01Z</time>
      </trkpt>
      <trkpt lat="45.52543" lon="6.72273">
        <ele>2198.99</ele>
        <time>2015-08-03T11:05:13Z</time>
      </trkpt>
      <trkpt lat="45.52545" lon="6.72276">
        <ele>2200.71</ele>
        <time>2015-08-03T11:05:24Z</time>
      </trkpt>
      <trkpt lat="45.5255" lon="6.72282">
        <ele>2202.57</ele>
        <time>2015-08-03T11:05:36Z</time>
      </trkpt>
      <trkpt lat="45.52559" lon="6.72283">
        <ele>2205.11</ele>
        <time>2015-08-03T11:05:49Z</time>
      </trkpt>
      <trkpt lat="45.52564" lon="6.72282">
        <ele>2206.83</ele>
        <time>2015-08-03T11:06:00Z</time>
      </trkpt>
      <trkpt lat="45.52569" lon="6.7228">
        <ele>2208.56</ele>
        <time>2015-08-03T11:06:10Z</time>
      </trkpt>
      <trkpt lat="45.52565" lon="6.72274">
        <ele>2210.52</ele>
        <time>2015-08-03T11:06:19Z</time>
      </trkpt>
      <trkpt lat="45.52562" lon="6.72263">
        <ele>2212.41</ele>
        <time>2015-08-03T11:06:33Z</time>
      </trkpt>
      <trkpt lat="45.52561" lon="6.72254">
        <ele>2213.59</ele>
        <time>2015-08-03T11:06:44Z</time>
      </trkpt>
      <trkpt lat="45.52559" lon="6.72245">
        <ele>2215.54</ele>
        <time>2015-08-03T11:06:56Z</time>
      </trkpt>
      <trkpt lat="45.52562" lon="6.72243">
        <ele>2216.66</ele>
        <time>2015-08-03T11:07:06Z</time>
      </trkpt>
      <trkpt lat="45.52567" lon="6.72241">
        <ele>2218.72</ele>
        <time>2015-08-03T11:07:23Z</time>
      </trkpt>
      <trkpt lat="45.52566" lon="6.72242">
        <ele>2219.02</ele>
        <time>2015-08-03T11:07:35Z</time>
      </trkpt>
      <trkpt lat="45.52565" lon="6.72242">
        <ele>2218.94</ele>
        <time>2015-08-03T11:07:44Z</time>
      </trkpt>
      <trkpt lat="45.52565" lon="6.72244">
        <ele>2218.92</ele>
        <time>2015-08-03T11:07:56Z</time>
      </trkpt>
      <trkpt lat="45.5257" lon="6.72243">
        <ele>2218.84</ele>
        <time>2015-08-03T11:08:11Z</time>
      </trkpt>
      <trkpt lat="45.52572" lon="6.72243">
        <ele>2219.13</ele>
        <time>2015-08-03T11:08:24Z</time>
      </trkpt>
      <trkpt lat="45.5257" lon="6.72243">
        <ele>2219.3</ele>
        <time>2015-08-03T11:08:53Z</time>
      </trkpt>
      <trkpt lat="45.52568" lon="6.72243">
        <ele>2219.33</ele>
        <time>2015-08-03T11:09:07Z</time>
      </trkpt>
      <trkpt lat="45.52566" lon="6.72231">
        <ele>2220.33</ele>
        <time>2015-08-03T11:09:18Z</time>
      </trkpt>
      <trkpt lat="45.52564" lon="6.72225">
        <ele>2221.81</ele>
        <time>2015-08-03T11:09:33Z</time>
      </trkpt>
      <trkpt lat="45.52562" lon="6.72211">
        <ele>2224.42</ele>
        <time>2015-08-03T11:09:49Z</time>
      </trkpt>
      <trkpt lat="45.52562" lon="6.72204">
        <ele>2226.34</ele>
        <time>2015-08-03T11:10:00Z</time>
      </trkpt>
      <trkpt lat="45.52564" lon="6.72198">
        <ele>2227.58</ele>
        <time>2015-08-03T11:10:11Z</time>
      </trkpt>
      <trkpt lat="45.52562" lon="6.72189">
        <ele>2229.52</ele>
        <time>2015-08-03T11:10:25Z</time>
      </trkpt>
      <trkpt lat="45.52559" lon="6.72183">
        <ele>2231.66</ele>
        <time>2015-08-03T11:10:37Z</time>
      </trkpt>
      <trkpt lat="45.52558" lon="6.72177">
        <ele>2232.82</ele>
        <time>2015-08-03T11:10:46Z</time>
      </trkpt>
      <trkpt lat="45.52558" lon="6.72173">
        <ele>2234.21</ele>
        <time>2015-08-03T11:10:56Z</time>
      </trkpt>
      <trkpt lat="45.52554" lon="6.7217">
        <ele>2234.89</ele>
        <time>2015-08-03T11:11:07Z</time>
      </trkpt>
      <trkpt lat="45.52551" lon="6.72163">
        <ele>2236.55</ele>
        <time>2015-08-03T11:11:18Z</time>
      </trkpt>
      <trkpt lat="45.52547" lon="6.72152">
        <ele>2238.33</ele>
        <time>2015-08-03T11:11:32Z</time>
      </trkpt>
      <trkpt lat="45.52545" lon="6.72143">
        <ele>2239.55</ele>
        <time>2015-08-03T11:11:43Z</time>
      </trkpt>
      <trkpt lat="45.52545" lon="6.72136">
        <ele>2240.54</ele>
        <time>2015-08-03T11:11:52Z</time>
      </trkpt>
      <trkpt lat="45.52542" lon="6.72128">
        <ele>2241.48</ele>
        <time>2015-08-03T11:12:02Z</time>
      </trkpt>
      <trkpt lat="45.52539" lon="6.72122">
        <ele>2242.51</ele>
        <time>2015-08-03T11:12:14Z</time>
      </trkpt>
      <trkpt lat="45.52534" lon="6.72112">
        <ele>2243.93</ele>
        <time>2015-08-03T11:12:27Z</time>
      </trkpt>
      <trkpt lat="45.5253" lon="6.72105">
        <ele>2245.67</ele>
        <time>2015-08-03T11:12:39Z</time>
      </trkpt>
      <trkpt lat="45.52525" lon="6.72096">
        <ele>2247.54</ele>
        <time>2015-08-03T11:12:52Z</time>
      </trkpt>
      <trkpt lat="45.52521" lon="6.72088">
        <ele>2249.39</ele>
        <time>2015-08-03T11:13:05Z</time>
      </trkpt>
      <trkpt lat="45.52518" lon="6.7208">
        <ele>2251.12</ele>
        <time>2015-08-03T11:13:18Z</time>
      </trkpt>
      <trkpt lat="45.52517" lon="6.72073">
        <ele>2252.32</ele>
        <time>2015-08-03T11:13:29Z</time>
      </trkpt>
      <trkpt lat="45.52515" lon="6.72072">
        <ele>2253.55</ele>
        <time>2015-08-03T11:13:42Z</time>
      </trkpt>
      <trkpt lat="45.52512" lon="6.72067">
        <ele>2254.6</ele>
        <time>2015-08-03T11:13:55Z</time>
      </trkpt>
      <trkpt lat="45.5251" lon="6.7206">
        <ele>2256</ele>
        <time>2015-08-03T11:14:05Z</time>
      </trkpt>
      <trkpt lat="45.52508" lon="6.72054">
        <ele>2257.5</ele>
        <time>2015-08-03T11:14:16Z</time>
      </trkpt>
      <trkpt lat="45.52506" lon="6.72048">
        <ele>2259.09</ele>
        <time>2015-08-03T11:14:27Z</time>
      </trkpt>
      <trkpt lat="45.52503" lon="6.72041">
        <ele>2261.07</ele>
        <time>2015-08-03T11:14:39Z</time>
      </trkpt>
      <trkpt lat="45.52499" lon="6.72034">
        <ele>2262.91</ele>
        <time>2015-08-03T11:14:53Z</time>
      </trkpt>
      <trkpt lat="45.52496" lon="6.72027">
        <ele>2264.74</ele>
        <time>2015-08-03T11:15:04Z</time>
      </trkpt>
      <trkpt lat="45.52491" lon="6.72017">
        <ele>2266.88</ele>
        <time>2015-08-03T11:15:17Z</time>
      </trkpt>
      <trkpt lat="45.52487" lon="6.72011">
        <ele>2269.01</ele>
        <time>2015-08-03T11:15:30Z</time>
      </trkpt>
      <trkpt lat="45.52485" lon="6.72002">
        <ele>2270.01</ele>
        <time>2015-08-03T11:15:41Z</time>
      </trkpt>
      <trkpt lat="45.52482" lon="6.71996">
        <ele>2270.57</ele>
        <time>2015-08-03T11:15:52Z</time>
      </trkpt>
      <trkpt lat="45.52483" lon="6.71991">
        <ele>2270.39</ele>
        <time>2015-08-03T11:16:06Z</time>
      </trkpt>
      <trkpt lat="45.52483" lon="6.7199">
        <ele>2271.05</ele>
        <time>2015-08-03T11:16:19Z</time>
      </trkpt>
      <trkpt lat="45.52483" lon="6.7198">
        <ele>2271.19</ele>
        <time>2015-08-03T11:16:29Z</time>
      </trkpt>
      <trkpt lat="45.52479" lon="6.71967">
        <ele>2271.27</ele>
        <time>2015-08-03T11:16:41Z</time>
      </trkpt>
      <trkpt lat="45.52477" lon="6.71967">
        <ele>2271.24</ele>
        <time>2015-08-03T11:16:56Z</time>
      </trkpt>
      <trkpt lat="45.52478" lon="6.71965">
        <ele>2271.15</ele>
        <time>2015-08-03T11:17:12Z</time>
      </trkpt>
      <trkpt lat="45.52476" lon="6.71965">
        <ele>2271.28</ele>
        <time>2015-08-03T11:17:26Z</time>
      </trkpt>
      <trkpt lat="45.52473" lon="6.71967">
        <ele>2271.4</ele>
        <time>2015-08-03T11:17:31Z</time>
      </trkpt>
      <trkpt lat="45.52472" lon="6.71967">
        <ele>2271.42</ele>
        <time>2015-08-03T11:17:32Z</time>
      </trkpt>
      <trkpt lat="45.52471" lon="6.71967">
        <ele>2271.45</ele>
        <time>2015-08-03T11:17:33Z</time>
      </trkpt>
      <trkpt lat="45.5247" lon="6.71966">
        <ele>2271.48</ele>
        <time>2015-08-03T11:17:34Z</time>
      </trkpt>
      <trkpt lat="45.52468" lon="6.71966">
        <ele>2271.51</ele>
        <time>2015-08-03T11:17:35Z</time>
      </trkpt>
      <trkpt lat="45.52449" lon="6.7195">
        <ele>2272.45</ele>
        <time>2015-08-03T11:17:50Z</time>
      </trkpt>
      <trkpt lat="45.5243" lon="6.71934">
        <ele>2273.52</ele>
        <time>2015-08-03T11:18:05Z</time>
      </trkpt>
      <trkpt lat="45.52414" lon="6.71917">
        <ele>2275.17</ele>
        <time>2015-08-03T11:18:19Z</time>
      </trkpt>
      <trkpt lat="45.52399" lon="6.71895">
        <ele>2276.53</ele>
        <time>2015-08-03T11:18:35Z</time>
      </trkpt>
      <trkpt lat="45.5239" lon="6.71876">
        <ele>2278.45</ele>
        <time>2015-08-03T11:18:49Z</time>
      </trkpt>
      <trkpt lat="45.52385" lon="6.71861">
        <ele>2279.97</ele>
        <time>2015-08-03T11:19:00Z</time>
      </trkpt>
      <trkpt lat="45.52385" lon="6.7186">
        <ele>2280.08</ele>
        <time>2015-08-03T11:19:01Z</time>
      </trkpt>
      <trkpt lat="45.52383" lon="6.71837">
        <ele>2282.45</ele>
        <time>2015-08-03T11:19:17Z</time>
      </trkpt>
      <trkpt lat="45.52383" lon="6.71835">
        <ele>2282.59</ele>
        <time>2015-08-03T11:19:18Z</time>
      </trkpt>
      <trkpt lat="45.52382" lon="6.71833">
        <ele>2282.72</ele>
        <time>2015-08-03T11:19:19Z</time>
      </trkpt>
      <trkpt lat="45.52382" lon="6.71831">
        <ele>2282.85</ele>
        <time>2015-08-03T11:19:20Z</time>
      </trkpt>
      <trkpt lat="45.52383" lon="6.71805">
        <ele>2284.82</ele>
        <time>2015-08-03T11:19:35Z</time>
      </trkpt>
      <trkpt lat="45.52384" lon="6.71785">
        <ele>2286.59</ele>
        <time>2015-08-03T11:19:47Z</time>
      </trkpt>
      <trkpt lat="45.52384" lon="6.71762">
        <ele>2288.81</ele>
        <time>2015-08-03T11:20:01Z</time>
      </trkpt>
      <trkpt lat="45.52385" lon="6.71736">
        <ele>2290.34</ele>
        <time>2015-08-03T11:20:17Z</time>
      </trkpt>
      <trkpt lat="45.52383" lon="6.71728">
        <ele>2290.76</ele>
        <time>2015-08-03T11:20:26Z</time>
      </trkpt>
      <trkpt lat="45.52383" lon="6.71728">
        <ele>2291.97</ele>
        <time>2015-08-03T11:20:42Z</time>
      </trkpt>
      <trkpt lat="45.52383" lon="6.71716">
        <ele>2290.7</ele>
        <time>2015-08-03T11:20:50Z</time>
      </trkpt>
      <trkpt lat="45.52392" lon="6.71686">
        <ele>2291.41</ele>
        <time>2015-08-03T11:21:04Z</time>
      </trkpt>
      <trkpt lat="45.52401" lon="6.71663">
        <ele>2292.84</ele>
        <time>2015-08-03T11:21:18Z</time>
      </trkpt>
      <trkpt lat="45.52402" lon="6.71639">
        <ele>2294.51</ele>
        <time>2015-08-03T11:21:32Z</time>
      </trkpt>
      <trkpt lat="45.52402" lon="6.71635">
        <ele>2294.99</ele>
        <time>2015-08-03T11:21:34Z</time>
      </trkpt>
      <trkpt lat="45.52401" lon="6.71634">
        <ele>2294.99</ele>
        <time>2015-08-03T11:21:35Z</time>
      </trkpt>
      <trkpt lat="45.52401" lon="6.71632">
        <ele>2295.31</ele>
        <time>2015-08-03T11:21:36Z</time>
      </trkpt>
      <trkpt lat="45.524" lon="6.71631">
        <ele>2295.45</ele>
        <time>2015-08-03T11:21:37Z</time>
      </trkpt>
      <trkpt lat="45.524" lon="6.7163">
        <ele>2295.58</ele>
        <time>2015-08-03T11:21:38Z</time>
      </trkpt>
      <trkpt lat="45.52399" lon="6.71628">
        <ele>2295.7</ele>
        <time>2015-08-03T11:21:39Z</time>
      </trkpt>
      <trkpt lat="45.52399" lon="6.71627">
        <ele>2295.83</ele>
        <time>2015-08-03T11:21:40Z</time>
      </trkpt>
      <trkpt lat="45.52398" lon="6.71626">
        <ele>2295.96</ele>
        <time>2015-08-03T11:21:41Z</time>
      </trkpt>
      <trkpt lat="45.52398" lon="6.71624">
        <ele>2296.08</ele>
        <time>2015-08-03T11:21:42Z</time>
      </trkpt>
      <trkpt lat="45.52397" lon="6.71623">
        <ele>2296.23</ele>
        <time>2015-08-03T11:21:43Z</time>
      </trkpt>
      <trkpt lat="45.52396" lon="6.71622">
        <ele>2296.42</ele>
        <time>2015-08-03T11:21:44Z</time>
      </trkpt>
      <trkpt lat="45.52396" lon="6.7162">
        <ele>2296.61</ele>
        <time>2015-08-03T11:21:45Z</time>
      </trkpt>
      <trkpt lat="45.52395" lon="6.71619">
        <ele>2296.8</ele>
        <time>2015-08-03T11:21:46Z</time>
      </trkpt>
      <trkpt lat="45.52394" lon="6.71618">
        <ele>2296.99</ele>
        <time>2015-08-03T11:21:47Z</time>
      </trkpt>
      <trkpt lat="45.52393" lon="6.71617">
        <ele>2297.16</ele>
        <time>2015-08-03T11:21:48Z</time>
      </trkpt>
      <trkpt lat="45.52386" lon="6.71596">
        <ele>2299.4</ele>
        <time>2015-08-03T11:22:02Z</time>
      </trkpt>
      <trkpt lat="45.52388" lon="6.71572">
        <ele>2301.04</ele>
        <time>2015-08-03T11:22:16Z</time>
      </trkpt>
      <trkpt lat="45.52394" lon="6.71554">
        <ele>2302.54</ele>
        <time>2015-08-03T11:22:28Z</time>
      </trkpt>
      <trkpt lat="45.52402" lon="6.71535">
        <ele>2304.27</ele>
        <time>2015-08-03T11:22:42Z</time>
      </trkpt>
      <trkpt lat="45.5241" lon="6.71518">
        <ele>2306.2</ele>
        <time>2015-08-03T11:22:54Z</time>
      </trkpt>
      <trkpt lat="45.5241" lon="6.71517">
        <ele>2306.37</ele>
        <time>2015-08-03T11:22:55Z</time>
      </trkpt>
      <trkpt lat="45.52411" lon="6.71516">
        <ele>2306.52</ele>
        <time>2015-08-03T11:22:56Z</time>
      </trkpt>
      <trkpt lat="45.52411" lon="6.71514">
        <ele>2307.73</ele>
        <time>2015-08-03T11:23:08Z</time>
      </trkpt>
      <trkpt lat="45.52412" lon="6.71515">
        <ele>2307.63</ele>
        <time>2015-08-03T11:23:27Z</time>
      </trkpt>
      <trkpt lat="45.52411" lon="6.71512">
        <ele>2307.48</ele>
        <time>2015-08-03T11:23:36Z</time>
      </trkpt>
      <trkpt lat="45.5241" lon="6.71512">
        <ele>2307.48</ele>
        <time>2015-08-03T11:23:37Z</time>
      </trkpt>
      <trkpt lat="45.52409" lon="6.71511">
        <ele>2307.49</ele>
        <time>2015-08-03T11:23:38Z</time>
      </trkpt>
      <trkpt lat="45.52407" lon="6.71511">
        <ele>2307.51</ele>
        <time>2015-08-03T11:23:39Z</time>
      </trkpt>
      <trkpt lat="45.52406" lon="6.71511">
        <ele>2307.55</ele>
        <time>2015-08-03T11:23:40Z</time>
      </trkpt>
      <trkpt lat="45.52405" lon="6.7151">
        <ele>2307.58</ele>
        <time>2015-08-03T11:23:41Z</time>
      </trkpt>
      <trkpt lat="45.52404" lon="6.71509">
        <ele>2307.63</ele>
        <time>2015-08-03T11:23:42Z</time>
      </trkpt>
      <trkpt lat="45.524" lon="6.71509">
        <ele>2307.86</ele>
        <time>2015-08-03T11:23:45Z</time>
      </trkpt>
      <trkpt lat="45.52399" lon="6.71509">
        <ele>2307.94</ele>
        <time>2015-08-03T11:23:46Z</time>
      </trkpt>
      <trkpt lat="45.52398" lon="6.71511">
        <ele>2308.03</ele>
        <time>2015-08-03T11:23:47Z</time>
      </trkpt>
      <trkpt lat="45.52397" lon="6.71512">
        <ele>2308.1</ele>
        <time>2015-08-03T11:23:48Z</time>
      </trkpt>
      <trkpt lat="45.52396" lon="6.71513">
        <ele>2308.16</ele>
        <time>2015-08-03T11:23:49Z</time>
      </trkpt>
      <trkpt lat="45.52396" lon="6.71514">
        <ele>2308.27</ele>
        <time>2015-08-03T11:23:50Z</time>
      </trkpt>
      <trkpt lat="45.5239" lon="6.71527">
        <ele>2309.4</ele>
        <time>2015-08-03T11:24:00Z</time>
      </trkpt>
      <trkpt lat="45.5238" lon="6.71542">
        <ele>2311.41</ele>
        <time>2015-08-03T11:24:13Z</time>
      </trkpt>
      <trkpt lat="45.52372" lon="6.71556">
        <ele>2313.6</ele>
        <time>2015-08-03T11:24:24Z</time>
      </trkpt>
      <trkpt lat="45.52364" lon="6.71568">
        <ele>2315.36</ele>
        <time>2015-08-03T11:24:36Z</time>
      </trkpt>
      <trkpt lat="45.52363" lon="6.71569">
        <ele>2315.49</ele>
        <time>2015-08-03T11:24:37Z</time>
      </trkpt>
      <trkpt lat="45.52363" lon="6.71571">
        <ele>2315.73</ele>
        <time>2015-08-03T11:24:38Z</time>
      </trkpt>
      <trkpt lat="45.52352" lon="6.71585">
        <ele>2317.32</ele>
        <time>2015-08-03T11:24:51Z</time>
      </trkpt>
      <trkpt lat="45.52351" lon="6.71585">
        <ele>2317.47</ele>
        <time>2015-08-03T11:24:52Z</time>
      </trkpt>
      <trkpt lat="45.5235" lon="6.71586">
        <ele>2317.61</ele>
        <time>2015-08-03T11:24:53Z</time>
      </trkpt>
      <trkpt lat="45.52346" lon="6.71588">
        <ele>2318.18</ele>
        <time>2015-08-03T11:24:57Z</time>
      </trkpt>
      <trkpt lat="45.52345" lon="6.71588">
        <ele>2318.33</ele>
        <time>2015-08-03T11:24:58Z</time>
      </trkpt>
      <trkpt lat="45.52329" lon="6.71593">
        <ele>2320.27</ele>
        <time>2015-08-03T11:25:13Z</time>
      </trkpt>
      <trkpt lat="45.52318" lon="6.71604">
        <ele>2320.92</ele>
        <time>2015-08-03T11:25:24Z</time>
      </trkpt>
      <trkpt lat="45.52312" lon="6.7161">
        <ele>2320.99</ele>
        <time>2015-08-03T11:25:29Z</time>
      </trkpt>
      <trkpt lat="45.52312" lon="6.71612">
        <ele>2321</ele>
        <time>2015-08-03T11:25:30Z</time>
      </trkpt>
      <trkpt lat="45.52312" lon="6.71615">
        <ele>2321.01</ele>
        <time>2015-08-03T11:25:31Z</time>
      </trkpt>
      <trkpt lat="45.52316" lon="6.71621">
        <ele>2320.97</ele>
        <time>2015-08-03T11:25:35Z</time>
      </trkpt>
      <trkpt lat="45.52319" lon="6.71621">
        <ele>2321.29</ele>
        <time>2015-08-03T11:25:47Z</time>
      </trkpt>
      <trkpt lat="45.5232" lon="6.71622">
        <ele>2322.71</ele>
        <time>2015-08-03T11:26:02Z</time>
      </trkpt>
      <trkpt lat="45.52322" lon="6.71619">
        <ele>2321.09</ele>
        <time>2015-08-03T11:26:12Z</time>
      </trkpt>
      <trkpt lat="45.52322" lon="6.71617">
        <ele>2321.04</ele>
        <time>2015-08-03T11:26:13Z</time>
      </trkpt>
      <trkpt lat="45.52323" lon="6.71615">
        <ele>2321.02</ele>
        <time>2015-08-03T11:26:14Z</time>
      </trkpt>
      <trkpt lat="45.52331" lon="6.71589">
        <ele>2320.62</ele>
        <time>2015-08-03T11:26:23Z</time>
      </trkpt>
      <trkpt lat="45.52334" lon="6.71568">
        <ele>2319.17</ele>
        <time>2015-08-03T11:26:32Z</time>
      </trkpt>
      <trkpt lat="45.52333" lon="6.71568">
        <ele>2319.34</ele>
        <time>2015-08-03T11:26:58Z</time>
      </trkpt>
      <trkpt lat="45.52336" lon="6.71559">
        <ele>2319.18</ele>
        <time>2015-08-03T11:27:37Z</time>
      </trkpt>
      <trkpt lat="45.52342" lon="6.71531">
        <ele>2320.73</ele>
        <time>2015-08-03T11:27:51Z</time>
      </trkpt>
      <trkpt lat="45.52342" lon="6.71529">
        <ele>2321.11</ele>
        <time>2015-08-03T11:27:52Z</time>
      </trkpt>
      <trkpt lat="45.52342" lon="6.71527">
        <ele>2321.33</ele>
        <time>2015-08-03T11:27:53Z</time>
      </trkpt>
      <trkpt lat="45.52329" lon="6.71492">
        <ele>2322.26</ele>
        <time>2015-08-03T11:28:07Z</time>
      </trkpt>
      <trkpt lat="45.5232" lon="6.71481">
        <ele>2322.13</ele>
        <time>2015-08-03T11:28:10Z</time>
      </trkpt>
      <trkpt lat="45.52318" lon="6.71476">
        <ele>2321.98</ele>
        <time>2015-08-03T11:28:11Z</time>
      </trkpt>
      <trkpt lat="45.52317" lon="6.71471">
        <ele>2321.77</ele>
        <time>2015-08-03T11:28:12Z</time>
      </trkpt>
      <trkpt lat="45.52316" lon="6.71467">
        <ele>2321.55</ele>
        <time>2015-08-03T11:28:13Z</time>
      </trkpt>
      <trkpt lat="45.52313" lon="6.71466">
        <ele>2321.06</ele>
        <time>2015-08-03T11:28:14Z</time>
      </trkpt>
      <trkpt lat="45.5231" lon="6.71464">
        <ele>2321.06</ele>
        <time>2015-08-03T11:28:15Z</time>
      </trkpt>
      <trkpt lat="45.52307" lon="6.71461">
        <ele>2320.68</ele>
        <time>2015-08-03T11:28:16Z</time>
      </trkpt>
      <trkpt lat="45.52305" lon="6.71459">
        <ele>2320.6</ele>
        <time>2015-08-03T11:28:17Z</time>
      </trkpt>
      <trkpt lat="45.52281" lon="6.71439">
        <ele>2320.38</ele>
        <time>2015-08-03T11:28:26Z</time>
      </trkpt>
      <trkpt lat="45.52262" lon="6.71419">
        <ele>2318.91</ele>
        <time>2015-08-03T11:28:32Z</time>
      </trkpt>
      <trkpt lat="45.52267" lon="6.7139">
        <ele>2319.07</ele>
        <time>2015-08-03T11:28:40Z</time>
      </trkpt>
      <trkpt lat="45.5228" lon="6.71354">
        <ele>2316.48</ele>
        <time>2015-08-03T11:28:48Z</time>
      </trkpt>
      <trkpt lat="45.5228" lon="6.71348">
        <ele>2316.31</ele>
        <time>2015-08-03T11:28:49Z</time>
      </trkpt>
      <trkpt lat="45.5228" lon="6.71341">
        <ele>2316.18</ele>
        <time>2015-08-03T11:28:50Z</time>
      </trkpt>
      <trkpt lat="45.52282" lon="6.71326">
        <ele>2315.86</ele>
        <time>2015-08-03T11:28:52Z</time>
      </trkpt>
      <trkpt lat="45.52283" lon="6.7132">
        <ele>2315.49</ele>
        <time>2015-08-03T11:28:53Z</time>
      </trkpt>
      <trkpt lat="45.52284" lon="6.71314">
        <ele>2315.06</ele>
        <time>2015-08-03T11:28:54Z</time>
      </trkpt>
      <trkpt lat="45.52284" lon="6.71308">
        <ele>2314.69</ele>
        <time>2015-08-03T11:28:55Z</time>
      </trkpt>
      <trkpt lat="45.52283" lon="6.71302">
        <ele>2314.38</ele>
        <time>2015-08-03T11:28:56Z</time>
      </trkpt>
      <trkpt lat="45.52282" lon="6.71295">
        <ele>2314.1</ele>
        <time>2015-08-03T11:28:57Z</time>
      </trkpt>
      <trkpt lat="45.52281" lon="6.71287">
        <ele>2313.87</ele>
        <time>2015-08-03T11:28:58Z</time>
      </trkpt>
      <trkpt lat="45.52279" lon="6.7127">
        <ele>2311.48</ele>
        <time>2015-08-03T11:29:02Z</time>
      </trkpt>
      <trkpt lat="45.52278" lon="6.71264">
        <ele>2308.2</ele>
        <time>2015-08-03T11:29:07Z</time>
      </trkpt>
      <trkpt lat="45.52275" lon="6.71249">
        <ele>2307.25</ele>
        <time>2015-08-03T11:29:10Z</time>
      </trkpt>
      <trkpt lat="45.52274" lon="6.71228">
        <ele>2303.88</ele>
        <time>2015-08-03T11:29:16Z</time>
      </trkpt>
      <trkpt lat="45.52273" lon="6.71218">
        <ele>2301.62</ele>
        <time>2015-08-03T11:29:49Z</time>
      </trkpt>
      <trkpt lat="45.52272" lon="6.71213">
        <ele>2301.45</ele>
        <time>2015-08-03T11:29:50Z</time>
      </trkpt>
      <trkpt lat="45.52272" lon="6.71207">
        <ele>2301.24</ele>
        <time>2015-08-03T11:29:51Z</time>
      </trkpt>
      <trkpt lat="45.52272" lon="6.71198">
        <ele>2300.97</ele>
        <time>2015-08-03T11:29:52Z</time>
      </trkpt>
      <trkpt lat="45.52272" lon="6.7119">
        <ele>2300.49</ele>
        <time>2015-08-03T11:29:53Z</time>
      </trkpt>
      <trkpt lat="45.52271" lon="6.71181">
        <ele>2299.65</ele>
        <time>2015-08-03T11:29:54Z</time>
      </trkpt>
      <trkpt lat="45.5227" lon="6.71171">
        <ele>2297.16</ele>
        <time>2015-08-03T11:29:55Z</time>
      </trkpt>
      <trkpt lat="45.52266" lon="6.71145">
        <ele>2292.87</ele>
        <time>2015-08-03T11:29:58Z</time>
      </trkpt>
      <trkpt lat="45.52265" lon="6.71137">
        <ele>2291.54</ele>
        <time>2015-08-03T11:29:59Z</time>
      </trkpt>
      <trkpt lat="45.52264" lon="6.71129">
        <ele>2290.37</ele>
        <time>2015-08-03T11:30:00Z</time>
      </trkpt>
      <trkpt lat="45.52263" lon="6.71122">
        <ele>2289.39</ele>
        <time>2015-08-03T11:30:01Z</time>
      </trkpt>
      <trkpt lat="45.52261" lon="6.71116">
        <ele>2288.58</ele>
        <time>2015-08-03T11:30:02Z</time>
      </trkpt>
      <trkpt lat="45.52259" lon="6.7111">
        <ele>2287.92</ele>
        <time>2015-08-03T11:30:03Z</time>
      </trkpt>
      <trkpt lat="45.52257" lon="6.71104">
        <ele>2287.35</ele>
        <time>2015-08-03T11:30:04Z</time>
      </trkpt>
      <trkpt lat="45.52254" lon="6.71099">
        <ele>2286.81</ele>
        <time>2015-08-03T11:30:05Z</time>
      </trkpt>
      <trkpt lat="45.52251" lon="6.71092">
        <ele>2286.29</ele>
        <time>2015-08-03T11:30:06Z</time>
      </trkpt>
      <trkpt lat="45.52249" lon="6.71085">
        <ele>2285.75</ele>
        <time>2015-08-03T11:30:07Z</time>
      </trkpt>
      <trkpt lat="45.52248" lon="6.71078">
        <ele>2285.23</ele>
        <time>2015-08-03T11:30:08Z</time>
      </trkpt>
      <trkpt lat="45.52247" lon="6.7107">
        <ele>2284.67</ele>
        <time>2015-08-03T11:30:09Z</time>
      </trkpt>
      <trkpt lat="45.52247" lon="6.71063">
        <ele>2284.06</ele>
        <time>2015-08-03T11:30:10Z</time>
      </trkpt>
      <trkpt lat="45.52249" lon="6.71051">
        <ele>2282.52</ele>
        <time>2015-08-03T11:30:15Z</time>
      </trkpt>
      <trkpt lat="45.52252" lon="6.71029">
        <ele>2282.53</ele>
        <time>2015-08-03T11:30:25Z</time>
      </trkpt>
      <trkpt lat="45.52252" lon="6.71022">
        <ele>2282.28</ele>
        <time>2015-08-03T11:30:26Z</time>
      </trkpt>
      <trkpt lat="45.52253" lon="6.71014">
        <ele>2281.66</ele>
        <time>2015-08-03T11:30:27Z</time>
      </trkpt>
      <trkpt lat="45.52254" lon="6.71006">
        <ele>2280.85</ele>
        <time>2015-08-03T11:30:28Z</time>
      </trkpt>
      <trkpt lat="45.52257" lon="6.70995">
        <ele>2280.12</ele>
        <time>2015-08-03T11:30:29Z</time>
      </trkpt>
      <trkpt lat="45.52262" lon="6.70978">
        <ele>2278.09</ele>
        <time>2015-08-03T11:30:31Z</time>
      </trkpt>
      <trkpt lat="45.5227" lon="6.70954">
        <ele>2274.41</ele>
        <time>2015-08-03T11:30:34Z</time>
      </trkpt>
      <trkpt lat="45.52272" lon="6.70945">
        <ele>2273.44</ele>
        <time>2015-08-03T11:30:35Z</time>
      </trkpt>
      <trkpt lat="45.52279" lon="6.70909">
        <ele>2270.47</ele>
        <time>2015-08-03T11:30:40Z</time>
      </trkpt>
      <trkpt lat="45.5228" lon="6.709">
        <ele>2270.22</ele>
        <time>2015-08-03T11:30:41Z</time>
      </trkpt>
      <trkpt lat="45.52283" lon="6.70877">
        <ele>2269.34</ele>
        <time>2015-08-03T11:30:43Z</time>
      </trkpt>
      <trkpt lat="45.52284" lon="6.70864">
        <ele>2268.62</ele>
        <time>2015-08-03T11:30:44Z</time>
      </trkpt>
      <trkpt lat="45.52284" lon="6.70851">
        <ele>2267.6</ele>
        <time>2015-08-03T11:30:45Z</time>
      </trkpt>
      <trkpt lat="45.52283" lon="6.70814">
        <ele>2264.37</ele>
        <time>2015-08-03T11:30:48Z</time>
      </trkpt>
      <trkpt lat="45.52284" lon="6.70774">
        <ele>2262.41</ele>
        <time>2015-08-03T11:30:52Z</time>
      </trkpt>
      <trkpt lat="45.52284" lon="6.70766">
        <ele>2262.29</ele>
        <time>2015-08-03T11:30:53Z</time>
      </trkpt>
      <trkpt lat="45.52283" lon="6.70738">
        <ele>2263.01</ele>
        <time>2015-08-03T11:30:59Z</time>
      </trkpt>
      <trkpt lat="45.52285" lon="6.7071">
        <ele>2265.15</ele>
        <time>2015-08-03T11:31:12Z</time>
      </trkpt>
      <trkpt lat="45.52289" lon="6.70705">
        <ele>2266.17</ele>
        <time>2015-08-03T11:31:24Z</time>
      </trkpt>
      <trkpt lat="45.52286" lon="6.70706">
        <ele>2266.33</ele>
        <time>2015-08-03T11:31:48Z</time>
      </trkpt>
      <trkpt lat="45.52285" lon="6.70705">
        <ele>2266.33</ele>
        <time>2015-08-03T11:31:49Z</time>
      </trkpt>
      <trkpt lat="45.52285" lon="6.70704">
        <ele>2266.35</ele>
        <time>2015-08-03T11:31:50Z</time>
      </trkpt>
      <trkpt lat="45.52284" lon="6.707">
        <ele>2266.48</ele>
        <time>2015-08-03T11:31:53Z</time>
      </trkpt>
      <trkpt lat="45.52284" lon="6.70699">
        <ele>2266.52</ele>
        <time>2015-08-03T11:31:54Z</time>
      </trkpt>
      <trkpt lat="45.52287" lon="6.70683">
        <ele>2267.36</ele>
        <time>2015-08-03T11:32:05Z</time>
      </trkpt>
      <trkpt lat="45.52288" lon="6.70664">
        <ele>2270.04</ele>
        <time>2015-08-03T11:32:21Z</time>
      </trkpt>
      <trkpt lat="45.52288" lon="6.70654">
        <ele>2271.62</ele>
        <time>2015-08-03T11:32:30Z</time>
      </trkpt>
      <trkpt lat="45.52288" lon="6.70652">
        <ele>2271.75</ele>
        <time>2015-08-03T11:32:31Z</time>
      </trkpt>
      <trkpt lat="45.52288" lon="6.70651">
        <ele>2271.86</ele>
        <time>2015-08-03T11:32:32Z</time>
      </trkpt>
      <trkpt lat="45.5229" lon="6.70635">
        <ele>2272.91</ele>
        <time>2015-08-03T11:32:42Z</time>
      </trkpt>
      <trkpt lat="45.52294" lon="6.70622">
        <ele>2274.16</ele>
        <time>2015-08-03T11:32:54Z</time>
      </trkpt>
      <trkpt lat="45.52298" lon="6.70607">
        <ele>2276.23</ele>
        <time>2015-08-03T11:33:08Z</time>
      </trkpt>
      <trkpt lat="45.52301" lon="6.70589">
        <ele>2278.01</ele>
        <time>2015-08-03T11:33:23Z</time>
      </trkpt>
      <trkpt lat="45.52303" lon="6.70575">
        <ele>2279.39</ele>
        <time>2015-08-03T11:33:35Z</time>
      </trkpt>
      <trkpt lat="45.52303" lon="6.70564">
        <ele>2280.72</ele>
        <time>2015-08-03T11:33:46Z</time>
      </trkpt>
      <trkpt lat="45.52304" lon="6.70556">
        <ele>2282.68</ele>
        <time>2015-08-03T11:33:58Z</time>
      </trkpt>
      <trkpt lat="45.52304" lon="6.70551">
        <ele>2284.15</ele>
        <time>2015-08-03T11:34:10Z</time>
      </trkpt>
      <trkpt lat="45.52306" lon="6.70543">
        <ele>2285.76</ele>
        <time>2015-08-03T11:34:22Z</time>
      </trkpt>
      <trkpt lat="45.52309" lon="6.70535">
        <ele>2287.42</ele>
        <time>2015-08-03T11:34:33Z</time>
      </trkpt>
      <trkpt lat="45.5231" lon="6.70531">
        <ele>2288.63</ele>
        <time>2015-08-03T11:34:43Z</time>
      </trkpt>
      <trkpt lat="45.52311" lon="6.70528">
        <ele>2289.92</ele>
        <time>2015-08-03T11:34:54Z</time>
      </trkpt>
      <trkpt lat="45.52312" lon="6.70521">
        <ele>2290.58</ele>
        <time>2015-08-03T11:35:06Z</time>
      </trkpt>
      <trkpt lat="45.52314" lon="6.70514">
        <ele>2291.94</ele>
        <time>2015-08-03T11:35:16Z</time>
      </trkpt>
      <trkpt lat="45.52316" lon="6.70503">
        <ele>2293.42</ele>
        <time>2015-08-03T11:35:28Z</time>
      </trkpt>
      <trkpt lat="45.52319" lon="6.70502">
        <ele>2294.23</ele>
        <time>2015-08-03T11:35:39Z</time>
      </trkpt>
      <trkpt lat="45.52322" lon="6.70498">
        <ele>2294.49</ele>
        <time>2015-08-03T11:35:57Z</time>
      </trkpt>
      <trkpt lat="45.52326" lon="6.70493">
        <ele>2295.91</ele>
        <time>2015-08-03T11:36:08Z</time>
      </trkpt>
      <trkpt lat="45.5233" lon="6.70485">
        <ele>2297.86</ele>
        <time>2015-08-03T11:36:21Z</time>
      </trkpt>
      <trkpt lat="45.52334" lon="6.70479">
        <ele>2300.36</ele>
        <time>2015-08-03T11:36:35Z</time>
      </trkpt>
      <trkpt lat="45.52336" lon="6.70475">
        <ele>2301.92</ele>
        <time>2015-08-03T11:36:46Z</time>
      </trkpt>
      <trkpt lat="45.52338" lon="6.70469">
        <ele>2304.47</ele>
        <time>2015-08-03T11:37:01Z</time>
      </trkpt>
      <trkpt lat="45.5234" lon="6.70466">
        <ele>2305.42</ele>
        <time>2015-08-03T11:37:13Z</time>
      </trkpt>
      <trkpt lat="45.52342" lon="6.7046">
        <ele>2307.04</ele>
        <time>2015-08-03T11:37:26Z</time>
      </trkpt>
      <trkpt lat="45.52345" lon="6.70448">
        <ele>2309.02</ele>
        <time>2015-08-03T11:37:41Z</time>
      </trkpt>
      <trkpt lat="45.52347" lon="6.70438">
        <ele>2310.98</ele>
        <time>2015-08-03T11:37:54Z</time>
      </trkpt>
      <trkpt lat="45.5235" lon="6.70427">
        <ele>2313.05</ele>
        <time>2015-08-03T11:38:08Z</time>
      </trkpt>
      <trkpt lat="45.52351" lon="6.70418">
        <ele>2314.79</ele>
        <time>2015-08-03T11:38:21Z</time>
      </trkpt>
      <trkpt lat="45.52351" lon="6.70408">
        <ele>2316.44</ele>
        <time>2015-08-03T11:38:33Z</time>
      </trkpt>
      <trkpt lat="45.5235" lon="6.70405">
        <ele>2317.68</ele>
        <time>2015-08-03T11:38:48Z</time>
      </trkpt>
      <trkpt lat="45.5235" lon="6.70405">
        <ele>2317.79</ele>
        <time>2015-08-03T11:39:15Z</time>
      </trkpt>
      <trkpt lat="45.52348" lon="6.70394">
        <ele>2318.43</ele>
        <time>2015-08-03T11:39:31Z</time>
      </trkpt>
      <trkpt lat="45.52343" lon="6.7038">
        <ele>2320.19</ele>
        <time>2015-08-03T11:39:45Z</time>
      </trkpt>
      <trkpt lat="45.52335" lon="6.70371">
        <ele>2321.72</ele>
        <time>2015-08-03T11:39:59Z</time>
      </trkpt>
      <trkpt lat="45.5233" lon="6.70366">
        <ele>2323.46</ele>
        <time>2015-08-03T11:40:11Z</time>
      </trkpt>
      <trkpt lat="45.52326" lon="6.7036">
        <ele>2325.3</ele>
        <time>2015-08-03T11:40:24Z</time>
      </trkpt>
      <trkpt lat="45.52321" lon="6.70353">
        <ele>2327.51</ele>
        <time>2015-08-03T11:40:38Z</time>
      </trkpt>
      <trkpt lat="45.52319" lon="6.70348">
        <ele>2330.46</ele>
        <time>2015-08-03T11:40:54Z</time>
      </trkpt>
      <trkpt lat="45.52317" lon="6.70345">
        <ele>2330.85</ele>
        <time>2015-08-03T11:41:14Z</time>
      </trkpt>
      <trkpt lat="45.52314" lon="6.70337">
        <ele>2332.73</ele>
        <time>2015-08-03T11:41:28Z</time>
      </trkpt>
      <trkpt lat="45.52312" lon="6.70332">
        <ele>2333.44</ele>
        <time>2015-08-03T11:41:39Z</time>
      </trkpt>
      <trkpt lat="45.52308" lon="6.70319">
        <ele>2335.37</ele>
        <time>2015-08-03T11:41:55Z</time>
      </trkpt>
      <trkpt lat="45.52306" lon="6.70313">
        <ele>2337.41</ele>
        <time>2015-08-03T11:42:10Z</time>
      </trkpt>
      <trkpt lat="45.52302" lon="6.70306">
        <ele>2339.06</ele>
        <time>2015-08-03T11:42:34Z</time>
      </trkpt>
      <trkpt lat="45.52297" lon="6.70295">
        <ele>2342.16</ele>
        <time>2015-08-03T11:42:50Z</time>
      </trkpt>
      <trkpt lat="45.52294" lon="6.70286">
        <ele>2344.38</ele>
        <time>2015-08-03T11:43:05Z</time>
      </trkpt>
      <trkpt lat="45.5229" lon="6.7028">
        <ele>2346.32</ele>
        <time>2015-08-03T11:43:18Z</time>
      </trkpt>
      <trkpt lat="45.52287" lon="6.70275">
        <ele>2347.98</ele>
        <time>2015-08-03T11:43:29Z</time>
      </trkpt>
      <trkpt lat="45.52287" lon="6.70275">
        <ele>2349.24</ele>
        <time>2015-08-03T11:43:47Z</time>
      </trkpt>
      <trkpt lat="45.52285" lon="6.70273">
        <ele>2349.06</ele>
        <time>2015-08-03T11:44:08Z</time>
      </trkpt>
      <trkpt lat="45.52282" lon="6.70265">
        <ele>2350.43</ele>
        <time>2015-08-03T11:44:21Z</time>
      </trkpt>
      <trkpt lat="45.52278" lon="6.70259">
        <ele>2352.6</ele>
        <time>2015-08-03T11:44:35Z</time>
      </trkpt>
      <trkpt lat="45.52274" lon="6.70252">
        <ele>2354.1</ele>
        <time>2015-08-03T11:44:48Z</time>
      </trkpt>
      <trkpt lat="45.5227" lon="6.70245">
        <ele>2356.28</ele>
        <time>2015-08-03T11:45:01Z</time>
      </trkpt>
      <trkpt lat="45.52265" lon="6.70238">
        <ele>2357.48</ele>
        <time>2015-08-03T11:45:14Z</time>
      </trkpt>
      <trkpt lat="45.52266" lon="6.70236">
        <ele>2358.38</ele>
        <time>2015-08-03T11:45:24Z</time>
      </trkpt>
      <trkpt lat="45.52266" lon="6.70236">
        <ele>2358.64</ele>
        <time>2015-08-03T11:45:38Z</time>
      </trkpt>
      <trkpt lat="45.52263" lon="6.70229">
        <ele>2359.38</ele>
        <time>2015-08-03T11:46:01Z</time>
      </trkpt>
      <trkpt lat="45.52259" lon="6.70222">
        <ele>2361.95</ele>
        <time>2015-08-03T11:46:15Z</time>
      </trkpt>
      <trkpt lat="45.52255" lon="6.70218">
        <ele>2363.57</ele>
        <time>2015-08-03T11:46:28Z</time>
      </trkpt>
      <trkpt lat="45.52252" lon="6.70215">
        <ele>2365.35</ele>
        <time>2015-08-03T11:46:42Z</time>
      </trkpt>
      <trkpt lat="45.52251" lon="6.70213">
        <ele>2366.5</ele>
        <time>2015-08-03T11:46:55Z</time>
      </trkpt>
      <trkpt lat="45.52249" lon="6.70207">
        <ele>2367.7</ele>
        <time>2015-08-03T11:47:05Z</time>
      </trkpt>
      <trkpt lat="45.52246" lon="6.70201">
        <ele>2369.82</ele>
        <time>2015-08-03T11:47:19Z</time>
      </trkpt>
      <trkpt lat="45.52242" lon="6.70195">
        <ele>2370.87</ele>
        <time>2015-08-03T11:47:29Z</time>
      </trkpt>
      <trkpt lat="45.5224" lon="6.70184">
        <ele>2371.92</ele>
        <time>2015-08-03T11:47:42Z</time>
      </trkpt>
      <trkpt lat="45.52237" lon="6.70167">
        <ele>2373.27</ele>
        <time>2015-08-03T11:47:56Z</time>
      </trkpt>
      <trkpt lat="45.52238" lon="6.7016">
        <ele>2373.84</ele>
        <time>2015-08-03T11:48:02Z</time>
      </trkpt>
      <trkpt lat="45.52243" lon="6.70146">
        <ele>2374.64</ele>
        <time>2015-08-03T11:48:14Z</time>
      </trkpt>
      <trkpt lat="45.52247" lon="6.70129">
        <ele>2375.2</ele>
        <time>2015-08-03T11:48:27Z</time>
      </trkpt>
      <trkpt lat="45.52254" lon="6.70112">
        <ele>2375.16</ele>
        <time>2015-08-03T11:48:41Z</time>
      </trkpt>
      <trkpt lat="45.5226" lon="6.70101">
        <ele>2376.02</ele>
        <time>2015-08-03T11:48:55Z</time>
      </trkpt>
      <trkpt lat="45.5226" lon="6.70101">
        <ele>2376.34</ele>
        <time>2015-08-03T11:49:13Z</time>
      </trkpt>
      <trkpt lat="45.52259" lon="6.70104">
        <ele>2376.88</ele>
        <time>2015-08-03T11:49:29Z</time>
      </trkpt>
      <trkpt lat="45.5226" lon="6.70104">
        <ele>2377.08</ele>
        <time>2015-08-03T11:49:48Z</time>
      </trkpt>
      <trkpt lat="45.52259" lon="6.70103">
        <ele>2376.59</ele>
        <time>2015-08-03T11:50:05Z</time>
      </trkpt>
      <trkpt lat="45.52259" lon="6.70101">
        <ele>2375.58</ele>
        <time>2015-08-03T11:50:40Z</time>
      </trkpt>
      <trkpt lat="45.52257" lon="6.70103">
        <ele>2376.9</ele>
        <time>2015-08-03T11:51:30Z</time>
      </trkpt>
      <trkpt lat="45.52255" lon="6.70102">
        <ele>2375.76</ele>
        <time>2015-08-03T11:51:45Z</time>
      </trkpt>
      <trkpt lat="45.52256" lon="6.70102">
        <ele>2375.06</ele>
        <time>2015-08-03T11:52:09Z</time>
      </trkpt>
      <trkpt lat="45.5226" lon="6.70102">
        <ele>2374.26</ele>
        <time>2015-08-03T11:52:18Z</time>
      </trkpt>
      <trkpt lat="45.52261" lon="6.70102">
        <ele>2374.67</ele>
        <time>2015-08-03T11:52:39Z</time>
      </trkpt>
      <trkpt lat="45.52262" lon="6.70104">
        <ele>2374.97</ele>
        <time>2015-08-03T11:53:00Z</time>
      </trkpt>
      <trkpt lat="45.5226" lon="6.70105">
        <ele>2375.23</ele>
        <time>2015-08-03T11:53:22Z</time>
      </trkpt>
      <trkpt lat="45.52261" lon="6.70103">
        <ele>2375.2</ele>
        <time>2015-08-03T11:54:25Z</time>
      </trkpt>
      <trkpt lat="45.5226" lon="6.70103">
        <ele>2375.45</ele>
        <time>2015-08-03T11:55:16Z</time>
      </trkpt>
      <trkpt lat="45.52259" lon="6.70102">
        <ele>2375.14</ele>
        <time>2015-08-03T11:56:08Z</time>
      </trkpt>
      <trkpt lat="45.52259" lon="6.70103">
        <ele>2374.98</ele>
        <time>2015-08-03T11:56:26Z</time>
      </trkpt>
      <trkpt lat="45.52259" lon="6.70102">
        <ele>2375.03</ele>
        <time>2015-08-03T11:57:00Z</time>
      </trkpt>
      <trkpt lat="45.52259" lon="6.70103">
        <ele>2374.66</ele>
        <time>2015-08-03T11:58:20Z</time>
      </trkpt>
      <trkpt lat="45.52259" lon="6.70103">
        <ele>2374.53</ele>
        <time>2015-08-03T11:59:20Z</time>
      </trkpt>
      <trkpt lat="45.52259" lon="6.70103">
        <ele>2375.13</ele>
        <time>2015-08-03T12:00:09Z</time>
      </trkpt>
      <trkpt lat="45.5226" lon="6.70103">
        <ele>2374.92</ele>
        <time>2015-08-03T12:01:09Z</time>
      </trkpt>
      <trkpt lat="45.5226" lon="6.70102">
        <ele>2374.8</ele>
        <time>2015-08-03T12:02:12Z</time>
      </trkpt>
      <trkpt lat="45.52259" lon="6.70103">
        <ele>2374.67</ele>
        <time>2015-08-03T12:03:23Z</time>
      </trkpt>
      <trkpt lat="45.52259" lon="6.70104">
        <ele>2374.82</ele>
        <time>2015-08-03T12:04:16Z</time>
      </trkpt>
      <trkpt lat="45.52259" lon="6.70104">
        <ele>2374.8</ele>
        <time>2015-08-03T12:05:04Z</time>
      </trkpt>
      <trkpt lat="45.52259" lon="6.70104">
        <ele>2374.51</ele>
        <time>2015-08-03T12:05:29Z</time>
      </trkpt>
      <trkpt lat="45.52259" lon="6.70104">
        <ele>2374.41</ele>
        <time>2015-08-03T12:05:38Z</time>
      </trkpt>
      <trkpt lat="45.52245" lon="6.70116">
        <ele>2374.39</ele>
        <time>2015-08-03T12:05:46Z</time>
      </trkpt>
      <trkpt lat="45.52236" lon="6.70119">
        <ele>2373.78</ele>
        <time>2015-08-03T12:05:51Z</time>
      </trkpt>
      <trkpt lat="45.52235" lon="6.70119">
        <ele>2373.58</ele>
        <time>2015-08-03T12:05:52Z</time>
      </trkpt>
      <trkpt lat="45.52227" lon="6.70117">
        <ele>2374.74</ele>
        <time>2015-08-03T12:06:02Z</time>
      </trkpt>
      <trkpt lat="45.52221" lon="6.70116">
        <ele>2376.56</ele>
        <time>2015-08-03T12:06:12Z</time>
      </trkpt>
      <trkpt lat="45.52204" lon="6.70126">
        <ele>2376.84</ele>
        <time>2015-08-03T12:06:22Z</time>
      </trkpt>
      <trkpt lat="45.52194" lon="6.70136">
        <ele>2376.75</ele>
        <time>2015-08-03T12:06:24Z</time>
      </trkpt>
      <trkpt lat="45.52189" lon="6.70139">
        <ele>2376.51</ele>
        <time>2015-08-03T12:06:25Z</time>
      </trkpt>
      <trkpt lat="45.52185" lon="6.70141">
        <ele>2376.11</ele>
        <time>2015-08-03T12:06:26Z</time>
      </trkpt>
      <trkpt lat="45.52182" lon="6.70142">
        <ele>2374.82</ele>
        <time>2015-08-03T12:06:32Z</time>
      </trkpt>
      <trkpt lat="45.52181" lon="6.70141">
        <ele>2374.87</ele>
        <time>2015-08-03T12:06:33Z</time>
      </trkpt>
      <trkpt lat="45.52176" lon="6.7014">
        <ele>2376.37</ele>
        <time>2015-08-03T12:06:42Z</time>
      </trkpt>
      <trkpt lat="45.52168" lon="6.70137">
        <ele>2377.74</ele>
        <time>2015-08-03T12:06:51Z</time>
      </trkpt>
      <trkpt lat="45.5216" lon="6.70137">
        <ele>2378.33</ele>
        <time>2015-08-03T12:06:57Z</time>
      </trkpt>
      <trkpt lat="45.52158" lon="6.70139">
        <ele>2378.31</ele>
        <time>2015-08-03T12:06:58Z</time>
      </trkpt>
      <trkpt lat="45.52144" lon="6.70148">
        <ele>2377.36</ele>
        <time>2015-08-03T12:07:04Z</time>
      </trkpt>
      <trkpt lat="45.5214" lon="6.70148">
        <ele>2377</ele>
        <time>2015-08-03T12:07:05Z</time>
      </trkpt>
      <trkpt lat="45.52136" lon="6.70147">
        <ele>2376.63</ele>
        <time>2015-08-03T12:07:06Z</time>
      </trkpt>
      <trkpt lat="45.52133" lon="6.70146">
        <ele>2376.26</ele>
        <time>2015-08-03T12:07:07Z</time>
      </trkpt>
      <trkpt lat="45.52131" lon="6.70147">
        <ele>2375.55</ele>
        <time>2015-08-03T12:07:08Z</time>
      </trkpt>
      <trkpt lat="45.52129" lon="6.70147">
        <ele>2375.55</ele>
        <time>2015-08-03T12:07:09Z</time>
      </trkpt>
      <trkpt lat="45.52126" lon="6.70148">
        <ele>2375</ele>
        <time>2015-08-03T12:07:10Z</time>
      </trkpt>
      <trkpt lat="45.52111" lon="6.70152">
        <ele>2372.41</ele>
        <time>2015-08-03T12:07:18Z</time>
      </trkpt>
      <trkpt lat="45.52109" lon="6.70153">
        <ele>2369.34</ele>
        <time>2015-08-03T12:07:34Z</time>
      </trkpt>
      <trkpt lat="45.52107" lon="6.70152">
        <ele>2369.11</ele>
        <time>2015-08-03T12:07:37Z</time>
      </trkpt>
      <trkpt lat="45.52097" lon="6.70154">
        <ele>2367.82</ele>
        <time>2015-08-03T12:07:43Z</time>
      </trkpt>
      <trkpt lat="45.52096" lon="6.70157">
        <ele>2367.24</ele>
        <time>2015-08-03T12:07:44Z</time>
      </trkpt>
      <trkpt lat="45.52095" lon="6.7016">
        <ele>2366.56</ele>
        <time>2015-08-03T12:07:45Z</time>
      </trkpt>
      <trkpt lat="45.52096" lon="6.70164">
        <ele>2365.9</ele>
        <time>2015-08-03T12:07:46Z</time>
      </trkpt>
      <trkpt lat="45.52097" lon="6.70168">
        <ele>2365.3</ele>
        <time>2015-08-03T12:07:47Z</time>
      </trkpt>
      <trkpt lat="45.52099" lon="6.70171">
        <ele>2364.67</ele>
        <time>2015-08-03T12:07:48Z</time>
      </trkpt>
      <trkpt lat="45.52103" lon="6.7018">
        <ele>2361.29</ele>
        <time>2015-08-03T12:07:54Z</time>
      </trkpt>
      <trkpt lat="45.52101" lon="6.70181">
        <ele>2360.4</ele>
        <time>2015-08-03T12:07:56Z</time>
      </trkpt>
      <trkpt lat="45.52081" lon="6.70183">
        <ele>2358.38</ele>
        <time>2015-08-03T12:08:02Z</time>
      </trkpt>
      <trkpt lat="45.52067" lon="6.70186">
        <ele>2354.91</ele>
        <time>2015-08-03T12:08:07Z</time>
      </trkpt>
      <trkpt lat="45.52062" lon="6.70187">
        <ele>2351.57</ele>
        <time>2015-08-03T12:08:12Z</time>
      </trkpt>
      <trkpt lat="45.52052" lon="6.70188">
        <ele>2348.2</ele>
        <time>2015-08-03T12:08:17Z</time>
      </trkpt>
      <trkpt lat="45.5205" lon="6.70188">
        <ele>2344.88</ele>
        <time>2015-08-03T12:08:23Z</time>
      </trkpt>
      <trkpt lat="45.5205" lon="6.70188">
        <ele>2343.93</ele>
        <time>2015-08-03T12:08:25Z</time>
      </trkpt>
      <trkpt lat="45.52049" lon="6.70192">
        <ele>2342.01</ele>
        <time>2015-08-03T12:08:38Z</time>
      </trkpt>
      <trkpt lat="45.52047" lon="6.70191">
        <ele>2341.64</ele>
        <time>2015-08-03T12:08:45Z</time>
      </trkpt>
      <trkpt lat="45.52045" lon="6.7019">
        <ele>2341.55</ele>
        <time>2015-08-03T12:08:46Z</time>
      </trkpt>
      <trkpt lat="45.52044" lon="6.7019">
        <ele>2341.44</ele>
        <time>2015-08-03T12:08:47Z</time>
      </trkpt>
      <trkpt lat="45.5204" lon="6.70189">
        <ele>2338.78</ele>
        <time>2015-08-03T12:08:56Z</time>
      </trkpt>
      <trkpt lat="45.52038" lon="6.70193">
        <ele>2337.21</ele>
        <time>2015-08-03T12:09:12Z</time>
      </trkpt>
      <trkpt lat="45.52036" lon="6.70196">
        <ele>2335.7</ele>
        <time>2015-08-03T12:09:17Z</time>
      </trkpt>
      <trkpt lat="45.52035" lon="6.70203">
        <ele>2332.7</ele>
        <time>2015-08-03T12:09:26Z</time>
      </trkpt>
      <trkpt lat="45.52036" lon="6.70205">
        <ele>2330.25</ele>
        <time>2015-08-03T12:09:42Z</time>
      </trkpt>
      <trkpt lat="45.52036" lon="6.70205">
        <ele>2331.13</ele>
        <time>2015-08-03T12:10:03Z</time>
      </trkpt>
      <trkpt lat="45.52036" lon="6.70206">
        <ele>2330.76</ele>
        <time>2015-08-03T12:10:25Z</time>
      </trkpt>
      <trkpt lat="45.52034" lon="6.70205">
        <ele>2330.58</ele>
        <time>2015-08-03T12:10:29Z</time>
      </trkpt>
      <trkpt lat="45.52031" lon="6.70204">
        <ele>2330.72</ele>
        <time>2015-08-03T12:10:31Z</time>
      </trkpt>
      <trkpt lat="45.5203" lon="6.70204">
        <ele>2330.75</ele>
        <time>2015-08-03T12:10:32Z</time>
      </trkpt>
      <trkpt lat="45.52029" lon="6.70203">
        <ele>2330.6</ele>
        <time>2015-08-03T12:10:33Z</time>
      </trkpt>
      <trkpt lat="45.52028" lon="6.70204">
        <ele>2330.39</ele>
        <time>2015-08-03T12:10:34Z</time>
      </trkpt>
      <trkpt lat="45.52026" lon="6.70204">
        <ele>2330.23</ele>
        <time>2015-08-03T12:10:35Z</time>
      </trkpt>
      <trkpt lat="45.52024" lon="6.70203">
        <ele>2330</ele>
        <time>2015-08-03T12:10:36Z</time>
      </trkpt>
      <trkpt lat="45.52017" lon="6.70207">
        <ele>2326.72</ele>
        <time>2015-08-03T12:10:42Z</time>
      </trkpt>
      <trkpt lat="45.52016" lon="6.7021">
        <ele>2323.59</ele>
        <time>2015-08-03T12:10:47Z</time>
      </trkpt>
      <trkpt lat="45.52013" lon="6.70213">
        <ele>2321.14</ele>
        <time>2015-08-03T12:10:57Z</time>
      </trkpt>
      <trkpt lat="45.52009" lon="6.7022">
        <ele>2318.1</ele>
        <time>2015-08-03T12:11:08Z</time>
      </trkpt>
      <trkpt lat="45.52005" lon="6.70224">
        <ele>2314.92</ele>
        <time>2015-08-03T12:11:20Z</time>
      </trkpt>
      <trkpt lat="45.52003" lon="6.70226">
        <ele>2314.01</ele>
        <time>2015-08-03T12:11:30Z</time>
      </trkpt>
      <trkpt lat="45.5199" lon="6.70229">
        <ele>2311.46</ele>
        <time>2015-08-03T12:11:38Z</time>
      </trkpt>
      <trkpt lat="45.51981" lon="6.70231">
        <ele>2309.42</ele>
        <time>2015-08-03T12:11:42Z</time>
      </trkpt>
      <trkpt lat="45.51979" lon="6.70233">
        <ele>2308.87</ele>
        <time>2015-08-03T12:11:43Z</time>
      </trkpt>
      <trkpt lat="45.51978" lon="6.70236">
        <ele>2308.31</ele>
        <time>2015-08-03T12:11:44Z</time>
      </trkpt>
      <trkpt lat="45.51977" lon="6.70239">
        <ele>2307.66</ele>
        <time>2015-08-03T12:11:45Z</time>
      </trkpt>
      <trkpt lat="45.51975" lon="6.70241">
        <ele>2306.92</ele>
        <time>2015-08-03T12:11:46Z</time>
      </trkpt>
      <trkpt lat="45.51972" lon="6.70242">
        <ele>2306.13</ele>
        <time>2015-08-03T12:11:47Z</time>
      </trkpt>
      <trkpt lat="45.51964" lon="6.70246">
        <ele>2302.88</ele>
        <time>2015-08-03T12:11:50Z</time>
      </trkpt>
      <trkpt lat="45.51955" lon="6.70247">
        <ele>2299.34</ele>
        <time>2015-08-03T12:11:54Z</time>
      </trkpt>
      <trkpt lat="45.51947" lon="6.7025">
        <ele>2295.91</ele>
        <time>2015-08-03T12:11:58Z</time>
      </trkpt>
      <trkpt lat="45.5194" lon="6.70251">
        <ele>2292.4</ele>
        <time>2015-08-03T12:12:02Z</time>
      </trkpt>
      <trkpt lat="45.51933" lon="6.70252">
        <ele>2289.35</ele>
        <time>2015-08-03T12:12:06Z</time>
      </trkpt>
      <trkpt lat="45.51932" lon="6.70252">
        <ele>2288.61</ele>
        <time>2015-08-03T12:12:07Z</time>
      </trkpt>
      <trkpt lat="45.5193" lon="6.70253">
        <ele>2287.94</ele>
        <time>2015-08-03T12:12:08Z</time>
      </trkpt>
      <trkpt lat="45.51926" lon="6.70256">
        <ele>2285.81</ele>
        <time>2015-08-03T12:12:11Z</time>
      </trkpt>
      <trkpt lat="45.51923" lon="6.70259">
        <ele>2282.8</ele>
        <time>2015-08-03T12:12:14Z</time>
      </trkpt>
      <trkpt lat="45.51919" lon="6.70261">
        <ele>2280.73</ele>
        <time>2015-08-03T12:12:17Z</time>
      </trkpt>
      <trkpt lat="45.51916" lon="6.7026">
        <ele>2279.49</ele>
        <time>2015-08-03T12:12:19Z</time>
      </trkpt>
      <trkpt lat="45.51915" lon="6.70262">
        <ele>2278.28</ele>
        <time>2015-08-03T12:12:21Z</time>
      </trkpt>
      <trkpt lat="45.51913" lon="6.7027">
        <ele>2275.02</ele>
        <time>2015-08-03T12:12:26Z</time>
      </trkpt>
      <trkpt lat="45.51912" lon="6.70276">
        <ele>2273.8</ele>
        <time>2015-08-03T12:12:28Z</time>
      </trkpt>
      <trkpt lat="45.51913" lon="6.70279">
        <ele>2273.15</ele>
        <time>2015-08-03T12:12:29Z</time>
      </trkpt>
      <trkpt lat="45.51918" lon="6.70293">
        <ele>2271.27</ele>
        <time>2015-08-03T12:12:32Z</time>
      </trkpt>
      <trkpt lat="45.51924" lon="6.70314">
        <ele>2268.22</ele>
        <time>2015-08-03T12:12:37Z</time>
      </trkpt>
      <trkpt lat="45.51927" lon="6.70333">
        <ele>2264.72</ele>
        <time>2015-08-03T12:12:42Z</time>
      </trkpt>
      <trkpt lat="45.51931" lon="6.70352">
        <ele>2261.48</ele>
        <time>2015-08-03T12:12:47Z</time>
      </trkpt>
      <trkpt lat="45.51932" lon="6.70357">
        <ele>2260.8</ele>
        <time>2015-08-03T12:12:48Z</time>
      </trkpt>
      <trkpt lat="45.51933" lon="6.70363">
        <ele>2260.13</ele>
        <time>2015-08-03T12:12:49Z</time>
      </trkpt>
      <trkpt lat="45.51933" lon="6.70388">
        <ele>2256.92</ele>
        <time>2015-08-03T12:12:53Z</time>
      </trkpt>
      <trkpt lat="45.51932" lon="6.70408">
        <ele>2253.86</ele>
        <time>2015-08-03T12:12:56Z</time>
      </trkpt>
      <trkpt lat="45.51929" lon="6.70424">
        <ele>2250.76</ele>
        <time>2015-08-03T12:12:59Z</time>
      </trkpt>
      <trkpt lat="45.51927" lon="6.70429">
        <ele>2249.78</ele>
        <time>2015-08-03T12:13:00Z</time>
      </trkpt>
      <trkpt lat="45.51923" lon="6.7044">
        <ele>2248</ele>
        <time>2015-08-03T12:13:02Z</time>
      </trkpt>
      <trkpt lat="45.51916" lon="6.70452">
        <ele>2245.53</ele>
        <time>2015-08-03T12:13:05Z</time>
      </trkpt>
      <trkpt lat="45.5191" lon="6.70458">
        <ele>2242.42</ele>
        <time>2015-08-03T12:13:07Z</time>
      </trkpt>
      <trkpt lat="45.51897" lon="6.7047">
        <ele>2239.45</ele>
        <time>2015-08-03T12:13:10Z</time>
      </trkpt>
      <trkpt lat="45.51892" lon="6.70476">
        <ele>2238.33</ele>
        <time>2015-08-03T12:13:11Z</time>
      </trkpt>
      <trkpt lat="45.51888" lon="6.70482">
        <ele>2237.2</ele>
        <time>2015-08-03T12:13:12Z</time>
      </trkpt>
      <trkpt lat="45.51882" lon="6.70488">
        <ele>2236.12</ele>
        <time>2015-08-03T12:13:13Z</time>
      </trkpt>
      <trkpt lat="45.51876" lon="6.70495">
        <ele>2235.18</ele>
        <time>2015-08-03T12:13:14Z</time>
      </trkpt>
      <trkpt lat="45.5186" lon="6.70511">
        <ele>2232.12</ele>
        <time>2015-08-03T12:13:17Z</time>
      </trkpt>
      <trkpt lat="45.51855" lon="6.70516">
        <ele>2231.04</ele>
        <time>2015-08-03T12:13:18Z</time>
      </trkpt>
      <trkpt lat="45.51844" lon="6.70526">
        <ele>2228.82</ele>
        <time>2015-08-03T12:13:20Z</time>
      </trkpt>
      <trkpt lat="45.51835" lon="6.7053">
        <ele>2227.69</ele>
        <time>2015-08-03T12:13:21Z</time>
      </trkpt>
      <trkpt lat="45.51827" lon="6.70533">
        <ele>2226.5</ele>
        <time>2015-08-03T12:13:22Z</time>
      </trkpt>
      <trkpt lat="45.51818" lon="6.70535">
        <ele>2225.23</ele>
        <time>2015-08-03T12:13:23Z</time>
      </trkpt>
      <trkpt lat="45.51811" lon="6.70535">
        <ele>2223.77</ele>
        <time>2015-08-03T12:13:24Z</time>
      </trkpt>
      <trkpt lat="45.51804" lon="6.70534">
        <ele>2222.12</ele>
        <time>2015-08-03T12:13:25Z</time>
      </trkpt>
      <trkpt lat="45.51795" lon="6.70535">
        <ele>2220.3</ele>
        <time>2015-08-03T12:13:26Z</time>
      </trkpt>
      <trkpt lat="45.5178" lon="6.70537">
        <ele>2214.47</ele>
        <time>2015-08-03T12:13:28Z</time>
      </trkpt>
      <trkpt lat="45.51774" lon="6.70537">
        <ele>2214.47</ele>
        <time>2015-08-03T12:13:29Z</time>
      </trkpt>
      <trkpt lat="45.51762" lon="6.70539">
        <ele>2208.83</ele>
        <time>2015-08-03T12:13:31Z</time>
      </trkpt>
      <trkpt lat="45.51756" lon="6.7054">
        <ele>2207.27</ele>
        <time>2015-08-03T12:13:32Z</time>
      </trkpt>
      <trkpt lat="45.51736" lon="6.70547">
        <ele>2202.96</ele>
        <time>2015-08-03T12:13:35Z</time>
      </trkpt>
      <trkpt lat="45.5173" lon="6.70552">
        <ele>2201.45</ele>
        <time>2015-08-03T12:13:36Z</time>
      </trkpt>
      <trkpt lat="45.51719" lon="6.70559">
        <ele>2198.38</ele>
        <time>2015-08-03T12:13:38Z</time>
      </trkpt>
      <trkpt lat="45.51714" lon="6.70562">
        <ele>2196.81</ele>
        <time>2015-08-03T12:13:39Z</time>
      </trkpt>
      <trkpt lat="45.5171" lon="6.70567">
        <ele>2195.2</ele>
        <time>2015-08-03T12:13:40Z</time>
      </trkpt>
      <trkpt lat="45.51705" lon="6.70573">
        <ele>2193.61</ele>
        <time>2015-08-03T12:13:41Z</time>
      </trkpt>
      <trkpt lat="45.517" lon="6.70578">
        <ele>2192.17</ele>
        <time>2015-08-03T12:13:42Z</time>
      </trkpt>
      <trkpt lat="45.51695" lon="6.70582">
        <ele>2190.8</ele>
        <time>2015-08-03T12:13:43Z</time>
      </trkpt>
      <trkpt lat="45.51691" lon="6.70587">
        <ele>2189.36</ele>
        <time>2015-08-03T12:13:44Z</time>
      </trkpt>
      <trkpt lat="45.51676" lon="6.70602">
        <ele>2184.32</ele>
        <time>2015-08-03T12:13:47Z</time>
      </trkpt>
      <trkpt lat="45.51665" lon="6.70614">
        <ele>2180.85</ele>
        <time>2015-08-03T12:13:49Z</time>
      </trkpt>
      <trkpt lat="45.51658" lon="6.70621">
        <ele>2177.01</ele>
        <time>2015-08-03T12:13:50Z</time>
      </trkpt>
      <trkpt lat="45.51652" lon="6.70628">
        <ele>2177.01</ele>
        <time>2015-08-03T12:13:51Z</time>
      </trkpt>
      <trkpt lat="45.51642" lon="6.70642">
        <ele>2170.61</ele>
        <time>2015-08-03T12:13:53Z</time>
      </trkpt>
      <trkpt lat="45.51637" lon="6.70648">
        <ele>2170.61</ele>
        <time>2015-08-03T12:13:54Z</time>
      </trkpt>
      <trkpt lat="45.51632" lon="6.70658">
        <ele>2163.89</ele>
        <time>2015-08-03T12:13:56Z</time>
      </trkpt>
      <trkpt lat="45.5163" lon="6.70667">
        <ele>2159.84</ele>
        <time>2015-08-03T12:13:58Z</time>
      </trkpt>
      <trkpt lat="45.51627" lon="6.70676">
        <ele>2156.66</ele>
        <time>2015-08-03T12:14:00Z</time>
      </trkpt>
      <trkpt lat="45.5162" lon="6.70691">
        <ele>2152.78</ele>
        <time>2015-08-03T12:14:03Z</time>
      </trkpt>
      <trkpt lat="45.51618" lon="6.70691">
        <ele>2149.73</ele>
        <time>2015-08-03T12:14:06Z</time>
      </trkpt>
      <trkpt lat="45.51617" lon="6.70691">
        <ele>2148.95</ele>
        <time>2015-08-03T12:14:07Z</time>
      </trkpt>
      <trkpt lat="45.51616" lon="6.7069">
        <ele>2148.41</ele>
        <time>2015-08-03T12:14:08Z</time>
      </trkpt>
      <trkpt lat="45.51614" lon="6.7069">
        <ele>2148.13</ele>
        <time>2015-08-03T12:14:09Z</time>
      </trkpt>
      <trkpt lat="45.51588" lon="6.70686">
        <ele>2147.34</ele>
        <time>2015-08-03T12:14:20Z</time>
      </trkpt>
      <trkpt lat="45.51577" lon="6.70685">
        <ele>2146.86</ele>
        <time>2015-08-03T12:14:28Z</time>
      </trkpt>
      <trkpt lat="45.5157" lon="6.7069">
        <ele>2146.6</ele>
        <time>2015-08-03T12:14:48Z</time>
      </trkpt>
      <trkpt lat="45.5156" lon="6.70704">
        <ele>2146.61</ele>
        <time>2015-08-03T12:14:51Z</time>
      </trkpt>
      <trkpt lat="45.51552" lon="6.70718">
        <ele>2146.49</ele>
        <time>2015-08-03T12:14:53Z</time>
      </trkpt>
      <trkpt lat="45.51547" lon="6.70722">
        <ele>2146.31</ele>
        <time>2015-08-03T12:14:54Z</time>
      </trkpt>
      <trkpt lat="45.51542" lon="6.70725">
        <ele>2146.07</ele>
        <time>2015-08-03T12:14:55Z</time>
      </trkpt>
      <trkpt lat="45.51518" lon="6.70745">
        <ele>2145.02</ele>
        <time>2015-08-03T12:15:01Z</time>
      </trkpt>
      <trkpt lat="45.51511" lon="6.7075">
        <ele>2144.8</ele>
        <time>2015-08-03T12:15:02Z</time>
      </trkpt>
      <trkpt lat="45.51497" lon="6.70758">
        <ele>2144.09</ele>
        <time>2015-08-03T12:15:04Z</time>
      </trkpt>
      <trkpt lat="45.51492" lon="6.70762">
        <ele>2143.49</ele>
        <time>2015-08-03T12:15:05Z</time>
      </trkpt>
      <trkpt lat="45.51475" lon="6.70772">
        <ele>2140.42</ele>
        <time>2015-08-03T12:15:08Z</time>
      </trkpt>
      <trkpt lat="45.51461" lon="6.70781">
        <ele>2138.14</ele>
        <time>2015-08-03T12:15:10Z</time>
      </trkpt>
      <trkpt lat="45.51447" lon="6.70787">
        <ele>2135.87</ele>
        <time>2015-08-03T12:15:12Z</time>
      </trkpt>
      <trkpt lat="45.51436" lon="6.70795">
        <ele>2133.47</ele>
        <time>2015-08-03T12:15:14Z</time>
      </trkpt>
      <trkpt lat="45.51431" lon="6.70797">
        <ele>2132.26</ele>
        <time>2015-08-03T12:15:15Z</time>
      </trkpt>
      <trkpt lat="45.51427" lon="6.70798">
        <ele>2131.19</ele>
        <time>2015-08-03T12:15:16Z</time>
      </trkpt>
      <trkpt lat="45.51423" lon="6.70798">
        <ele>2130.33</ele>
        <time>2015-08-03T12:15:17Z</time>
      </trkpt>
      <trkpt lat="45.51421" lon="6.70798">
        <ele>2129.02</ele>
        <time>2015-08-03T12:15:18Z</time>
      </trkpt>
      <trkpt lat="45.51418" lon="6.70797">
        <ele>2128.54</ele>
        <time>2015-08-03T12:15:19Z</time>
      </trkpt>
      <trkpt lat="45.51397" lon="6.70788">
        <ele>2128.55</ele>
        <time>2015-08-03T12:15:29Z</time>
      </trkpt>
      <trkpt lat="45.51377" lon="6.70788">
        <ele>2129.79</ele>
        <time>2015-08-03T12:15:39Z</time>
      </trkpt>
      <trkpt lat="45.51343" lon="6.70796">
        <ele>2128.79</ele>
        <time>2015-08-03T12:15:45Z</time>
      </trkpt>
      <trkpt lat="45.5133" lon="6.70796">
        <ele>2128</ele>
        <time>2015-08-03T12:15:47Z</time>
      </trkpt>
      <trkpt lat="45.51325" lon="6.70794">
        <ele>2127.61</ele>
        <time>2015-08-03T12:15:48Z</time>
      </trkpt>
      <trkpt lat="45.51319" lon="6.70789">
        <ele>2126.67</ele>
        <time>2015-08-03T12:15:51Z</time>
      </trkpt>
      <trkpt lat="45.51318" lon="6.70787">
        <ele>2126.3</ele>
        <time>2015-08-03T12:15:52Z</time>
      </trkpt>
      <trkpt lat="45.51307" lon="6.7075">
        <ele>2124.2</ele>
        <time>2015-08-03T12:15:59Z</time>
      </trkpt>
      <trkpt lat="45.51299" lon="6.70728">
        <ele>2123.4</ele>
        <time>2015-08-03T12:16:02Z</time>
      </trkpt>
      <trkpt lat="45.51297" lon="6.70719">
        <ele>2123.08</ele>
        <time>2015-08-03T12:16:03Z</time>
      </trkpt>
      <trkpt lat="45.51294" lon="6.70701">
        <ele>2122.34</ele>
        <time>2015-08-03T12:16:05Z</time>
      </trkpt>
      <trkpt lat="45.51291" lon="6.70694">
        <ele>2121.85</ele>
        <time>2015-08-03T12:16:06Z</time>
      </trkpt>
      <trkpt lat="45.51288" lon="6.70687">
        <ele>2121.13</ele>
        <time>2015-08-03T12:16:07Z</time>
      </trkpt>
      <trkpt lat="45.51283" lon="6.70681">
        <ele>2119.36</ele>
        <time>2015-08-03T12:16:08Z</time>
      </trkpt>
      <trkpt lat="45.51279" lon="6.70676">
        <ele>2118.39</ele>
        <time>2015-08-03T12:16:09Z</time>
      </trkpt>
      <trkpt lat="45.51275" lon="6.70674">
        <ele>2117.35</ele>
        <time>2015-08-03T12:16:10Z</time>
      </trkpt>
      <trkpt lat="45.51271" lon="6.70673">
        <ele>2116.24</ele>
        <time>2015-08-03T12:16:11Z</time>
      </trkpt>
      <trkpt lat="45.51266" lon="6.70675">
        <ele>2115.08</ele>
        <time>2015-08-03T12:16:12Z</time>
      </trkpt>
      <trkpt lat="45.51261" lon="6.70679">
        <ele>2113.97</ele>
        <time>2015-08-03T12:16:13Z</time>
      </trkpt>
      <trkpt lat="45.51255" lon="6.70684">
        <ele>2112.95</ele>
        <time>2015-08-03T12:16:14Z</time>
      </trkpt>
      <trkpt lat="45.51229" lon="6.70704">
        <ele>2109.1</ele>
        <time>2015-08-03T12:16:18Z</time>
      </trkpt>
      <trkpt lat="45.51222" lon="6.70707">
        <ele>2108.16</ele>
        <time>2015-08-03T12:16:19Z</time>
      </trkpt>
      <trkpt lat="45.51199" lon="6.70711">
        <ele>2104.97</ele>
        <time>2015-08-03T12:16:22Z</time>
      </trkpt>
      <trkpt lat="45.51191" lon="6.7071">
        <ele>2103.85</ele>
        <time>2015-08-03T12:16:23Z</time>
      </trkpt>
      <trkpt lat="45.51184" lon="6.70708">
        <ele>2102.71</ele>
        <time>2015-08-03T12:16:24Z</time>
      </trkpt>
      <trkpt lat="45.51176" lon="6.70705">
        <ele>2101.5</ele>
        <time>2015-08-03T12:16:25Z</time>
      </trkpt>
      <trkpt lat="45.51167" lon="6.70702">
        <ele>2100.26</ele>
        <time>2015-08-03T12:16:26Z</time>
      </trkpt>
      <trkpt lat="45.51159" lon="6.70698">
        <ele>2099.06</ele>
        <time>2015-08-03T12:16:27Z</time>
      </trkpt>
      <trkpt lat="45.51132" lon="6.70687">
        <ele>2095.67</ele>
        <time>2015-08-03T12:16:30Z</time>
      </trkpt>
      <trkpt lat="45.51114" lon="6.70683">
        <ele>2092.07</ele>
        <time>2015-08-03T12:16:32Z</time>
      </trkpt>
      <trkpt lat="45.51105" lon="6.70681">
        <ele>2092.07</ele>
        <time>2015-08-03T12:16:33Z</time>
      </trkpt>
      <trkpt lat="45.51091" lon="6.70679">
        <ele>2088.18</ele>
        <time>2015-08-03T12:16:35Z</time>
      </trkpt>
      <trkpt lat="45.51085" lon="6.70677">
        <ele>2086.71</ele>
        <time>2015-08-03T12:16:36Z</time>
      </trkpt>
      <trkpt lat="45.51079" lon="6.70673">
        <ele>2085.16</ele>
        <time>2015-08-03T12:16:37Z</time>
      </trkpt>
      <trkpt lat="45.51074" lon="6.70668">
        <ele>2083.6</ele>
        <time>2015-08-03T12:16:38Z</time>
      </trkpt>
      <trkpt lat="45.5106" lon="6.70651">
        <ele>2079.54</ele>
        <time>2015-08-03T12:16:41Z</time>
      </trkpt>
      <trkpt lat="45.5105" lon="6.70642">
        <ele>2077.1</ele>
        <time>2015-08-03T12:16:43Z</time>
      </trkpt>
      <trkpt lat="45.51045" lon="6.70638">
        <ele>2076.03</ele>
        <time>2015-08-03T12:16:44Z</time>
      </trkpt>
      <trkpt lat="45.5104" lon="6.70636">
        <ele>2074.98</ele>
        <time>2015-08-03T12:16:45Z</time>
      </trkpt>
      <trkpt lat="45.51036" lon="6.70636">
        <ele>2073.9</ele>
        <time>2015-08-03T12:16:46Z</time>
      </trkpt>
      <trkpt lat="45.51033" lon="6.70636">
        <ele>2072.8</ele>
        <time>2015-08-03T12:16:47Z</time>
      </trkpt>
      <trkpt lat="45.5103" lon="6.70635">
        <ele>2071.6</ele>
        <time>2015-08-03T12:16:48Z</time>
      </trkpt>
      <trkpt lat="45.51021" lon="6.70635">
        <ele>2068.45</ele>
        <time>2015-08-03T12:16:51Z</time>
      </trkpt>
      <trkpt lat="45.50999" lon="6.70628">
        <ele>2065.1</ele>
        <time>2015-08-03T12:16:57Z</time>
      </trkpt>
      <trkpt lat="45.50997" lon="6.70623">
        <ele>2064.63</ele>
        <time>2015-08-03T12:16:58Z</time>
      </trkpt>
      <trkpt lat="45.50987" lon="6.70605">
        <ele>2063.43</ele>
        <time>2015-08-03T12:17:01Z</time>
      </trkpt>
      <trkpt lat="45.50982" lon="6.706">
        <ele>2063.11</ele>
        <time>2015-08-03T12:17:02Z</time>
      </trkpt>
      <trkpt lat="45.50977" lon="6.70595">
        <ele>2062.82</ele>
        <time>2015-08-03T12:17:03Z</time>
      </trkpt>
      <trkpt lat="45.50972" lon="6.70593">
        <ele>2062.5</ele>
        <time>2015-08-03T12:17:04Z</time>
      </trkpt>
      <trkpt lat="45.50966" lon="6.70594">
        <ele>2062.18</ele>
        <time>2015-08-03T12:17:05Z</time>
      </trkpt>
      <trkpt lat="45.50959" lon="6.70596">
        <ele>2061.86</ele>
        <time>2015-08-03T12:17:06Z</time>
      </trkpt>
      <trkpt lat="45.50905" lon="6.70611">
        <ele>2058.86</ele>
        <time>2015-08-03T12:17:13Z</time>
      </trkpt>
      <trkpt lat="45.50887" lon="6.70611">
        <ele>2058</ele>
        <time>2015-08-03T12:17:15Z</time>
      </trkpt>
      <trkpt lat="45.50879" lon="6.70609">
        <ele>2057.38</ele>
        <time>2015-08-03T12:17:16Z</time>
      </trkpt>
      <trkpt lat="45.50846" lon="6.706">
        <ele>2054.28</ele>
        <time>2015-08-03T12:17:20Z</time>
      </trkpt>
      <trkpt lat="45.50828" lon="6.70599">
        <ele>2053.02</ele>
        <time>2015-08-03T12:17:22Z</time>
      </trkpt>
      <trkpt lat="45.50818" lon="6.706">
        <ele>2052.39</ele>
        <time>2015-08-03T12:17:23Z</time>
      </trkpt>
      <trkpt lat="45.50808" lon="6.70604">
        <ele>2051.77</ele>
        <time>2015-08-03T12:17:24Z</time>
      </trkpt>
      <trkpt lat="45.50799" lon="6.70608">
        <ele>2050.54</ele>
        <time>2015-08-03T12:17:25Z</time>
      </trkpt>
      <trkpt lat="45.5079" lon="6.70613">
        <ele>2049.88</ele>
        <time>2015-08-03T12:17:26Z</time>
      </trkpt>
      <trkpt lat="45.50745" lon="6.70637">
        <ele>2046.43</ele>
        <time>2015-08-03T12:17:31Z</time>
      </trkpt>
      <trkpt lat="45.5073" lon="6.70641">
        <ele>2044.9</ele>
        <time>2015-08-03T12:17:33Z</time>
      </trkpt>
      <trkpt lat="45.50724" lon="6.7064">
        <ele>2044.13</ele>
        <time>2015-08-03T12:17:34Z</time>
      </trkpt>
      <trkpt lat="45.50716" lon="6.70633">
        <ele>2042.78</ele>
        <time>2015-08-03T12:17:36Z</time>
      </trkpt>
      <trkpt lat="45.50714" lon="6.70624">
        <ele>2042.21</ele>
        <time>2015-08-03T12:17:37Z</time>
      </trkpt>
      <trkpt lat="45.50712" lon="6.70616">
        <ele>2041.77</ele>
        <time>2015-08-03T12:17:38Z</time>
      </trkpt>
      <trkpt lat="45.50709" lon="6.70609">
        <ele>2041.34</ele>
        <time>2015-08-03T12:17:39Z</time>
      </trkpt>
      <trkpt lat="45.50705" lon="6.70603">
        <ele>2040.96</ele>
        <time>2015-08-03T12:17:40Z</time>
      </trkpt>
      <trkpt lat="45.50702" lon="6.70596">
        <ele>2040.6</ele>
        <time>2015-08-03T12:17:41Z</time>
      </trkpt>
      <trkpt lat="45.50703" lon="6.70588">
        <ele>2040.27</ele>
        <time>2015-08-03T12:17:42Z</time>
      </trkpt>
      <trkpt lat="45.50704" lon="6.70579">
        <ele>2039.95</ele>
        <time>2015-08-03T12:17:43Z</time>
      </trkpt>
      <trkpt lat="45.50705" lon="6.70571">
        <ele>2039.67</ele>
        <time>2015-08-03T12:17:44Z</time>
      </trkpt>
      <trkpt lat="45.50707" lon="6.70549">
        <ele>2039.23</ele>
        <time>2015-08-03T12:17:46Z</time>
      </trkpt>
      <trkpt lat="45.50707" lon="6.7053">
        <ele>2038.71</ele>
        <time>2015-08-03T12:17:48Z</time>
      </trkpt>
      <trkpt lat="45.50708" lon="6.70523">
        <ele>2037.76</ele>
        <time>2015-08-03T12:17:49Z</time>
      </trkpt>
      <trkpt lat="45.50711" lon="6.70517">
        <ele>2037.17</ele>
        <time>2015-08-03T12:17:50Z</time>
      </trkpt>
      <trkpt lat="45.50715" lon="6.70512">
        <ele>2036.58</ele>
        <time>2015-08-03T12:17:51Z</time>
      </trkpt>
      <trkpt lat="45.5072" lon="6.7051">
        <ele>2036.04</ele>
        <time>2015-08-03T12:17:52Z</time>
      </trkpt>
      <trkpt lat="45.50725" lon="6.70508">
        <ele>2035.53</ele>
        <time>2015-08-03T12:17:53Z</time>
      </trkpt>
      <trkpt lat="45.50731" lon="6.70508">
        <ele>2035.02</ele>
        <time>2015-08-03T12:17:54Z</time>
      </trkpt>
      <trkpt lat="45.50737" lon="6.70509">
        <ele>2034.5</ele>
        <time>2015-08-03T12:17:55Z</time>
      </trkpt>
      <trkpt lat="45.50773" lon="6.70506">
        <ele>2031.45</ele>
        <time>2015-08-03T12:18:00Z</time>
      </trkpt>
      <trkpt lat="45.5078" lon="6.70503">
        <ele>2030.46</ele>
        <time>2015-08-03T12:18:01Z</time>
      </trkpt>
      <trkpt lat="45.50787" lon="6.70499">
        <ele>2029.3</ele>
        <time>2015-08-03T12:18:02Z</time>
      </trkpt>
      <trkpt lat="45.50809" lon="6.70485">
        <ele>2025.23</ele>
        <time>2015-08-03T12:18:05Z</time>
      </trkpt>
      <trkpt lat="45.50831" lon="6.70469">
        <ele>2021.14</ele>
        <time>2015-08-03T12:18:08Z</time>
      </trkpt>
      <trkpt lat="45.50844" lon="6.70458">
        <ele>2018.08</ele>
        <time>2015-08-03T12:18:10Z</time>
      </trkpt>
      <trkpt lat="45.50855" lon="6.70445">
        <ele>2014.71</ele>
        <time>2015-08-03T12:18:12Z</time>
      </trkpt>
      <trkpt lat="45.50861" lon="6.70436">
        <ele>2012.97</ele>
        <time>2015-08-03T12:18:13Z</time>
      </trkpt>
      <trkpt lat="45.50866" lon="6.70428">
        <ele>2009.62</ele>
        <time>2015-08-03T12:18:14Z</time>
      </trkpt>
      <trkpt lat="45.50878" lon="6.70412">
        <ele>2006.49</ele>
        <time>2015-08-03T12:18:16Z</time>
      </trkpt>
      <trkpt lat="45.50888" lon="6.70395">
        <ele>2003.36</ele>
        <time>2015-08-03T12:18:18Z</time>
      </trkpt>
      <trkpt lat="45.509" lon="6.70379">
        <ele>1999.97</ele>
        <time>2015-08-03T12:18:20Z</time>
      </trkpt>
      <trkpt lat="45.50913" lon="6.70358">
        <ele>1996.37</ele>
        <time>2015-08-03T12:18:22Z</time>
      </trkpt>
      <trkpt lat="45.50927" lon="6.70334">
        <ele>1992.97</ele>
        <time>2015-08-03T12:18:24Z</time>
      </trkpt>
      <trkpt lat="45.50943" lon="6.70311">
        <ele>1989.73</ele>
        <time>2015-08-03T12:18:26Z</time>
      </trkpt>
      <trkpt lat="45.50969" lon="6.70276">
        <ele>1985.33</ele>
        <time>2015-08-03T12:18:29Z</time>
      </trkpt>
      <trkpt lat="45.50992" lon="6.7024">
        <ele>1980.9</ele>
        <time>2015-08-03T12:18:32Z</time>
      </trkpt>
      <trkpt lat="45.51015" lon="6.70209">
        <ele>1977.07</ele>
        <time>2015-08-03T12:18:35Z</time>
      </trkpt>
      <trkpt lat="45.51028" lon="6.70189">
        <ele>1974.76</ele>
        <time>2015-08-03T12:18:37Z</time>
      </trkpt>
      <trkpt lat="45.51035" lon="6.70179">
        <ele>1972.34</ele>
        <time>2015-08-03T12:18:38Z</time>
      </trkpt>
      <trkpt lat="45.51042" lon="6.70169">
        <ele>1971.27</ele>
        <time>2015-08-03T12:18:39Z</time>
      </trkpt>
      <trkpt lat="45.51049" lon="6.7016">
        <ele>1970.26</ele>
        <time>2015-08-03T12:18:40Z</time>
      </trkpt>
      <trkpt lat="45.51057" lon="6.70152">
        <ele>1969.23</ele>
        <time>2015-08-03T12:18:41Z</time>
      </trkpt>
      <trkpt lat="45.51079" lon="6.70128">
        <ele>1966.21</ele>
        <time>2015-08-03T12:18:44Z</time>
      </trkpt>
      <trkpt lat="45.51099" lon="6.70097">
        <ele>1963.38</ele>
        <time>2015-08-03T12:18:47Z</time>
      </trkpt>
      <trkpt lat="45.51104" lon="6.70085">
        <ele>1962.4</ele>
        <time>2015-08-03T12:18:48Z</time>
      </trkpt>
      <trkpt lat="45.51108" lon="6.70073">
        <ele>1961.41</ele>
        <time>2015-08-03T12:18:49Z</time>
      </trkpt>
      <trkpt lat="45.51111" lon="6.7006">
        <ele>1960.42</ele>
        <time>2015-08-03T12:18:50Z</time>
      </trkpt>
      <trkpt lat="45.51115" lon="6.70048">
        <ele>1959.42</ele>
        <time>2015-08-03T12:18:51Z</time>
      </trkpt>
      <trkpt lat="45.51119" lon="6.70036">
        <ele>1958.43</ele>
        <time>2015-08-03T12:18:52Z</time>
      </trkpt>
      <trkpt lat="45.51124" lon="6.70025">
        <ele>1957.5</ele>
        <time>2015-08-03T12:18:53Z</time>
      </trkpt>
      <trkpt lat="45.51135" lon="6.70004">
        <ele>1955.52</ele>
        <time>2015-08-03T12:18:55Z</time>
      </trkpt>
      <trkpt lat="45.51153" lon="6.69975">
        <ele>1952.32</ele>
        <time>2015-08-03T12:18:58Z</time>
      </trkpt>
      <trkpt lat="45.51174" lon="6.69935">
        <ele>1947.53</ele>
        <time>2015-08-03T12:19:02Z</time>
      </trkpt>
      <trkpt lat="45.51179" lon="6.69926">
        <ele>1947.53</ele>
        <time>2015-08-03T12:19:03Z</time>
      </trkpt>
      <trkpt lat="45.51191" lon="6.69895">
        <ele>1943.82</ele>
        <time>2015-08-03T12:19:06Z</time>
      </trkpt>
      <trkpt lat="45.51201" lon="6.69855">
        <ele>1940.25</ele>
        <time>2015-08-03T12:19:10Z</time>
      </trkpt>
      <trkpt lat="45.51203" lon="6.69848">
        <ele>1939.39</ele>
        <time>2015-08-03T12:19:11Z</time>
      </trkpt>
      <trkpt lat="45.51206" lon="6.69842">
        <ele>1938.6</ele>
        <time>2015-08-03T12:19:12Z</time>
      </trkpt>
      <trkpt lat="45.51211" lon="6.69831">
        <ele>1937.3</ele>
        <time>2015-08-03T12:19:14Z</time>
      </trkpt>
      <trkpt lat="45.51212" lon="6.69825">
        <ele>1936.74</ele>
        <time>2015-08-03T12:19:15Z</time>
      </trkpt>
      <trkpt lat="45.51213" lon="6.69817">
        <ele>1936.21</ele>
        <time>2015-08-03T12:19:16Z</time>
      </trkpt>
      <trkpt lat="45.51212" lon="6.69809">
        <ele>1935.73</ele>
        <time>2015-08-03T12:19:17Z</time>
      </trkpt>
      <trkpt lat="45.51212" lon="6.69801">
        <ele>1935.32</ele>
        <time>2015-08-03T12:19:18Z</time>
      </trkpt>
      <trkpt lat="45.51212" lon="6.69794">
        <ele>1934.78</ele>
        <time>2015-08-03T12:19:19Z</time>
      </trkpt>
      <trkpt lat="45.51213" lon="6.69788">
        <ele>1934.01</ele>
        <time>2015-08-03T12:19:20Z</time>
      </trkpt>
      <trkpt lat="45.51215" lon="6.69784">
        <ele>1933.22</ele>
        <time>2015-08-03T12:19:21Z</time>
      </trkpt>
      <trkpt lat="45.51218" lon="6.69781">
        <ele>1932.57</ele>
        <time>2015-08-03T12:19:22Z</time>
      </trkpt>
      <trkpt lat="45.51221" lon="6.6978">
        <ele>1931.93</ele>
        <time>2015-08-03T12:19:23Z</time>
      </trkpt>
      <trkpt lat="45.51223" lon="6.69779">
        <ele>1931.26</ele>
        <time>2015-08-03T12:19:24Z</time>
      </trkpt>
      <trkpt lat="45.51228" lon="6.69777">
        <ele>1929.87</ele>
        <time>2015-08-03T12:19:27Z</time>
      </trkpt>
      <trkpt lat="45.51229" lon="6.69774">
        <ele>1929.16</ele>
        <time>2015-08-03T12:19:28Z</time>
      </trkpt>
      <trkpt lat="45.51231" lon="6.69771">
        <ele>1928.88</ele>
        <time>2015-08-03T12:19:29Z</time>
      </trkpt>
      <trkpt lat="45.51258" lon="6.69729">
        <ele>1927.3</ele>
        <time>2015-08-03T12:19:40Z</time>
      </trkpt>
      <trkpt lat="45.51268" lon="6.69722">
        <ele>1926.75</ele>
        <time>2015-08-03T12:19:43Z</time>
      </trkpt>
      <trkpt lat="45.51272" lon="6.69722">
        <ele>1926.55</ele>
        <time>2015-08-03T12:19:44Z</time>
      </trkpt>
      <trkpt lat="45.51278" lon="6.69724">
        <ele>1926.34</ele>
        <time>2015-08-03T12:19:45Z</time>
      </trkpt>
      <trkpt lat="45.51283" lon="6.69727">
        <ele>1926.12</ele>
        <time>2015-08-03T12:19:46Z</time>
      </trkpt>
      <trkpt lat="45.51288" lon="6.6973">
        <ele>1925.9</ele>
        <time>2015-08-03T12:19:47Z</time>
      </trkpt>
      <trkpt lat="45.51309" lon="6.69739">
        <ele>1924.64</ele>
        <time>2015-08-03T12:19:52Z</time>
      </trkpt>
      <trkpt lat="45.51313" lon="6.69741">
        <ele>1924.48</ele>
        <time>2015-08-03T12:19:53Z</time>
      </trkpt>
      <trkpt lat="45.51317" lon="6.69743">
        <ele>1924.34</ele>
        <time>2015-08-03T12:19:54Z</time>
      </trkpt>
      <trkpt lat="45.51347" lon="6.69769">
        <ele>1923.75</ele>
        <time>2015-08-03T12:20:04Z</time>
      </trkpt>
      <trkpt lat="45.51374" lon="6.69782">
        <ele>1923.41</ele>
        <time>2015-08-03T12:20:13Z</time>
      </trkpt>
      <trkpt lat="45.51378" lon="6.69787">
        <ele>1923.28</ele>
        <time>2015-08-03T12:20:16Z</time>
      </trkpt>
      <trkpt lat="45.5138" lon="6.69785">
        <ele>1923.3</ele>
        <time>2015-08-03T12:20:17Z</time>
      </trkpt>
      <trkpt lat="45.51383" lon="6.69781">
        <ele>1923.34</ele>
        <time>2015-08-03T12:20:19Z</time>
      </trkpt>
      <trkpt lat="45.51386" lon="6.6978">
        <ele>1923.35</ele>
        <time>2015-08-03T12:20:20Z</time>
      </trkpt>
      <trkpt lat="45.51388" lon="6.6978">
        <ele>1923.36</ele>
        <time>2015-08-03T12:20:21Z</time>
      </trkpt>
      <trkpt lat="45.51388" lon="6.69785">
        <ele>1923.41</ele>
        <time>2015-08-03T12:20:22Z</time>
      </trkpt>
      <trkpt lat="45.51387" lon="6.69789">
        <ele>1923.43</ele>
        <time>2015-08-03T12:20:23Z</time>
      </trkpt>
      <trkpt lat="45.51386" lon="6.69791">
        <ele>1923.5</ele>
        <time>2015-08-03T12:20:26Z</time>
      </trkpt>
      <trkpt lat="45.51402" lon="6.69774">
        <ele>1923.88</ele>
        <time>2015-08-03T12:20:39Z</time>
      </trkpt>
      <trkpt lat="45.51408" lon="6.69772">
        <ele>1923.76</ele>
        <time>2015-08-03T12:20:42Z</time>
      </trkpt>
      <trkpt lat="45.5141" lon="6.69771">
        <ele>1923.72</ele>
        <time>2015-08-03T12:20:43Z</time>
      </trkpt>
      <trkpt lat="45.51413" lon="6.6977">
        <ele>1923.69</ele>
        <time>2015-08-03T12:20:44Z</time>
      </trkpt>
      <trkpt lat="45.51415" lon="6.69769">
        <ele>1923.66</ele>
        <time>2015-08-03T12:20:45Z</time>
      </trkpt>
      <trkpt lat="45.51417" lon="6.69768">
        <ele>1923.67</ele>
        <time>2015-08-03T12:20:46Z</time>
      </trkpt>
      <trkpt lat="45.51418" lon="6.69767">
        <ele>1923.68</ele>
        <time>2015-08-03T12:20:47Z</time>
      </trkpt>
      <trkpt lat="45.51421" lon="6.69766">
        <ele>1923.66</ele>
        <time>2015-08-03T12:20:49Z</time>
      </trkpt>
      <trkpt lat="45.51423" lon="6.69765">
        <ele>1923.66</ele>
        <time>2015-08-03T12:20:50Z</time>
      </trkpt>
      <trkpt lat="45.51438" lon="6.69766">
        <ele>1923.88</ele>
        <time>2015-08-03T12:20:56Z</time>
      </trkpt>
      <trkpt lat="45.5144" lon="6.69767">
        <ele>1923.92</ele>
        <time>2015-08-03T12:20:57Z</time>
      </trkpt>
      <trkpt lat="45.51466" lon="6.69784">
        <ele>1923.31</ele>
        <time>2015-08-03T12:21:07Z</time>
      </trkpt>
      <trkpt lat="45.51476" lon="6.69786">
        <ele>1922.97</ele>
        <time>2015-08-03T12:21:10Z</time>
      </trkpt>
      <trkpt lat="45.5148" lon="6.69784">
        <ele>1922.82</ele>
        <time>2015-08-03T12:21:11Z</time>
      </trkpt>
      <trkpt lat="45.51484" lon="6.6978">
        <ele>1922.68</ele>
        <time>2015-08-03T12:21:12Z</time>
      </trkpt>
      <trkpt lat="45.51488" lon="6.69777">
        <ele>1922.51</ele>
        <time>2015-08-03T12:21:13Z</time>
      </trkpt>
      <trkpt lat="45.51493" lon="6.69773">
        <ele>1922.34</ele>
        <time>2015-08-03T12:21:14Z</time>
      </trkpt>
      <trkpt lat="45.51497" lon="6.69769">
        <ele>1922.18</ele>
        <time>2015-08-03T12:21:15Z</time>
      </trkpt>
      <trkpt lat="45.51508" lon="6.69757">
        <ele>1921.76</ele>
        <time>2015-08-03T12:21:17Z</time>
      </trkpt>
      <trkpt lat="45.51519" lon="6.69743">
        <ele>1921.29</ele>
        <time>2015-08-03T12:21:19Z</time>
      </trkpt>
      <trkpt lat="45.51524" lon="6.69734">
        <ele>1921.06</ele>
        <time>2015-08-03T12:21:20Z</time>
      </trkpt>
      <trkpt lat="45.51529" lon="6.69725">
        <ele>1920.81</ele>
        <time>2015-08-03T12:21:21Z</time>
      </trkpt>
      <trkpt lat="45.51533" lon="6.69714">
        <ele>1920.5</ele>
        <time>2015-08-03T12:21:22Z</time>
      </trkpt>
      <trkpt lat="45.51537" lon="6.69703">
        <ele>1920.19</ele>
        <time>2015-08-03T12:21:23Z</time>
      </trkpt>
      <trkpt lat="45.5154" lon="6.69691">
        <ele>1919.91</ele>
        <time>2015-08-03T12:21:24Z</time>
      </trkpt>
      <trkpt lat="45.51562" lon="6.69593">
        <ele>1916.56</ele>
        <time>2015-08-03T12:21:31Z</time>
      </trkpt>
      <trkpt lat="45.51579" lon="6.69519">
        <ele>1913.59</ele>
        <time>2015-08-03T12:21:36Z</time>
      </trkpt>
      <trkpt lat="45.5158" lon="6.69505">
        <ele>1912.81</ele>
        <time>2015-08-03T12:21:37Z</time>
      </trkpt>
      <trkpt lat="45.51579" lon="6.6949">
        <ele>1912.04</ele>
        <time>2015-08-03T12:21:38Z</time>
      </trkpt>
      <trkpt lat="45.51577" lon="6.69476">
        <ele>1911.27</ele>
        <time>2015-08-03T12:21:39Z</time>
      </trkpt>
      <trkpt lat="45.51573" lon="6.69464">
        <ele>1910.52</ele>
        <time>2015-08-03T12:21:40Z</time>
      </trkpt>
      <trkpt lat="45.51567" lon="6.69454">
        <ele>1909.79</ele>
        <time>2015-08-03T12:21:41Z</time>
      </trkpt>
      <trkpt lat="45.51558" lon="6.69447">
        <ele>1909.06</ele>
        <time>2015-08-03T12:21:42Z</time>
      </trkpt>
      <trkpt lat="45.51549" lon="6.69444">
        <ele>1908.33</ele>
        <time>2015-08-03T12:21:43Z</time>
      </trkpt>
      <trkpt lat="45.5154" lon="6.69444">
        <ele>1907.6</ele>
        <time>2015-08-03T12:21:44Z</time>
      </trkpt>
      <trkpt lat="45.51531" lon="6.69446">
        <ele>1906.86</ele>
        <time>2015-08-03T12:21:45Z</time>
      </trkpt>
      <trkpt lat="45.51523" lon="6.69449">
        <ele>1906.12</ele>
        <time>2015-08-03T12:21:46Z</time>
      </trkpt>
      <trkpt lat="45.51517" lon="6.69452">
        <ele>1905.37</ele>
        <time>2015-08-03T12:21:47Z</time>
      </trkpt>
      <trkpt lat="45.51513" lon="6.69455">
        <ele>1904.57</ele>
        <time>2015-08-03T12:21:48Z</time>
      </trkpt>
      <trkpt lat="45.51509" lon="6.69456">
        <ele>1903.76</ele>
        <time>2015-08-03T12:21:49Z</time>
      </trkpt>
      <trkpt lat="45.51506" lon="6.69457">
        <ele>1902.99</ele>
        <time>2015-08-03T12:21:50Z</time>
      </trkpt>
      <trkpt lat="45.51503" lon="6.69455">
        <ele>1901.58</ele>
        <time>2015-08-03T12:21:52Z</time>
      </trkpt>
      <trkpt lat="45.51502" lon="6.69453">
        <ele>1901.02</ele>
        <time>2015-08-03T12:21:53Z</time>
      </trkpt>
      <trkpt lat="45.51502" lon="6.69451">
        <ele>1900.55</ele>
        <time>2015-08-03T12:21:54Z</time>
      </trkpt>
      <trkpt lat="45.51502" lon="6.69449">
        <ele>1899.51</ele>
        <time>2015-08-03T12:21:56Z</time>
      </trkpt>
      <trkpt lat="45.51504" lon="6.69447">
        <ele>1897.78</ele>
        <time>2015-08-03T12:22:16Z</time>
      </trkpt>
      <trkpt lat="45.51506" lon="6.69448">
        <ele>1897.93</ele>
        <time>2015-08-03T12:22:41Z</time>
      </trkpt>
      <trkpt lat="45.51508" lon="6.69446">
        <ele>1897.89</ele>
        <time>2015-08-03T12:22:43Z</time>
      </trkpt>
      <trkpt lat="45.51509" lon="6.69442">
        <ele>1897.87</ele>
        <time>2015-08-03T12:22:44Z</time>
      </trkpt>
      <trkpt lat="45.51516" lon="6.69423">
        <ele>1895.62</ele>
        <time>2015-08-03T12:22:53Z</time>
      </trkpt>
      <trkpt lat="45.51517" lon="6.69422">
        <ele>1895.36</ele>
        <time>2015-08-03T12:22:54Z</time>
      </trkpt>
      <trkpt lat="45.51519" lon="6.69421">
        <ele>1895.1</ele>
        <time>2015-08-03T12:22:55Z</time>
      </trkpt>
      <trkpt lat="45.51521" lon="6.6942">
        <ele>1894.85</ele>
        <time>2015-08-03T12:22:56Z</time>
      </trkpt>
      <trkpt lat="45.51523" lon="6.69419">
        <ele>1894.66</ele>
        <time>2015-08-03T12:22:57Z</time>
      </trkpt>
      <trkpt lat="45.51525" lon="6.69418">
        <ele>1894.45</ele>
        <time>2015-08-03T12:22:58Z</time>
      </trkpt>
      <trkpt lat="45.51526" lon="6.69418">
        <ele>1894.28</ele>
        <time>2015-08-03T12:22:59Z</time>
      </trkpt>
      <trkpt lat="45.51528" lon="6.69417">
        <ele>1892.71</ele>
        <time>2015-08-03T12:23:08Z</time>
      </trkpt>
      <trkpt lat="45.51531" lon="6.69416">
        <ele>1892.65</ele>
        <time>2015-08-03T12:23:09Z</time>
      </trkpt>
      <trkpt lat="45.51536" lon="6.69415">
        <ele>1892.62</ele>
        <time>2015-08-03T12:23:10Z</time>
      </trkpt>
      <trkpt lat="45.51574" lon="6.69405">
        <ele>1891.38</ele>
        <time>2015-08-03T12:23:15Z</time>
      </trkpt>
      <trkpt lat="45.51607" lon="6.69387">
        <ele>1887.71</ele>
        <time>2015-08-03T12:23:19Z</time>
      </trkpt>
      <trkpt lat="45.51632" lon="6.69373">
        <ele>1884.59</ele>
        <time>2015-08-03T12:23:22Z</time>
      </trkpt>
      <trkpt lat="45.51639" lon="6.6937">
        <ele>1883.54</ele>
        <time>2015-08-03T12:23:23Z</time>
      </trkpt>
      <trkpt lat="45.51648" lon="6.69368">
        <ele>1882.51</ele>
        <time>2015-08-03T12:23:24Z</time>
      </trkpt>
      <trkpt lat="45.51673" lon="6.6936">
        <ele>1879.21</ele>
        <time>2015-08-03T12:23:27Z</time>
      </trkpt>
      <trkpt lat="45.51681" lon="6.69357">
        <ele>1878.14</ele>
        <time>2015-08-03T12:23:28Z</time>
      </trkpt>
      <trkpt lat="45.51704" lon="6.69345">
        <ele>1875.05</ele>
        <time>2015-08-03T12:23:31Z</time>
      </trkpt>
      <trkpt lat="45.51735" lon="6.69329">
        <ele>1871.53</ele>
        <time>2015-08-03T12:23:35Z</time>
      </trkpt>
      <trkpt lat="45.51765" lon="6.69311">
        <ele>1867.87</ele>
        <time>2015-08-03T12:23:39Z</time>
      </trkpt>
      <trkpt lat="45.51773" lon="6.69307">
        <ele>1867.15</ele>
        <time>2015-08-03T12:23:40Z</time>
      </trkpt>
      <trkpt lat="45.51781" lon="6.69303">
        <ele>1866.43</ele>
        <time>2015-08-03T12:23:41Z</time>
      </trkpt>
      <trkpt lat="45.5179" lon="6.69298">
        <ele>1865.63</ele>
        <time>2015-08-03T12:23:42Z</time>
      </trkpt>
      <trkpt lat="45.51798" lon="6.69293">
        <ele>1864.72</ele>
        <time>2015-08-03T12:23:43Z</time>
      </trkpt>
      <trkpt lat="45.51806" lon="6.69287">
        <ele>1863.74</ele>
        <time>2015-08-03T12:23:44Z</time>
      </trkpt>
      <trkpt lat="45.51813" lon="6.69282">
        <ele>1862.71</ele>
        <time>2015-08-03T12:23:45Z</time>
      </trkpt>
      <trkpt lat="45.51824" lon="6.69273">
        <ele>1860.42</ele>
        <time>2015-08-03T12:23:47Z</time>
      </trkpt>
      <trkpt lat="45.51828" lon="6.69268">
        <ele>1859.27</ele>
        <time>2015-08-03T12:23:48Z</time>
      </trkpt>
      <trkpt lat="45.51833" lon="6.69261">
        <ele>1858.14</ele>
        <time>2015-08-03T12:23:49Z</time>
      </trkpt>
      <trkpt lat="45.51838" lon="6.69254">
        <ele>1857</ele>
        <time>2015-08-03T12:23:50Z</time>
      </trkpt>
      <trkpt lat="45.51843" lon="6.69247">
        <ele>1855.92</ele>
        <time>2015-08-03T12:23:51Z</time>
      </trkpt>
      <trkpt lat="45.51848" lon="6.6924">
        <ele>1854.96</ele>
        <time>2015-08-03T12:23:52Z</time>
      </trkpt>
      <trkpt lat="45.51852" lon="6.69231">
        <ele>1854.06</ele>
        <time>2015-08-03T12:23:53Z</time>
      </trkpt>
      <trkpt lat="45.51856" lon="6.69222">
        <ele>1853.17</ele>
        <time>2015-08-03T12:23:54Z</time>
      </trkpt>
      <trkpt lat="45.51858" lon="6.69215">
        <ele>1852.31</ele>
        <time>2015-08-03T12:23:55Z</time>
      </trkpt>
      <trkpt lat="45.51859" lon="6.69208">
        <ele>1851.47</ele>
        <time>2015-08-03T12:23:56Z</time>
      </trkpt>
      <trkpt lat="45.51867" lon="6.69182">
        <ele>1848.86</ele>
        <time>2015-08-03T12:23:59Z</time>
      </trkpt>
      <trkpt lat="45.51878" lon="6.69153">
        <ele>1845.61</ele>
        <time>2015-08-03T12:24:02Z</time>
      </trkpt>
      <trkpt lat="45.5188" lon="6.69146">
        <ele>1842.38</ele>
        <time>2015-08-03T12:24:05Z</time>
      </trkpt>
      <trkpt lat="45.51881" lon="6.69146">
        <ele>1839.22</ele>
        <time>2015-08-03T12:24:09Z</time>
      </trkpt>
      <trkpt lat="45.5188" lon="6.69143">
        <ele>1837.2</ele>
        <time>2015-08-03T12:24:31Z</time>
      </trkpt>
      <trkpt lat="45.51881" lon="6.69143">
        <ele>1836.72</ele>
        <time>2015-08-03T12:24:55Z</time>
      </trkpt>
      <trkpt lat="45.5189" lon="6.69124">
        <ele>1836.95</ele>
        <time>2015-08-03T12:25:02Z</time>
      </trkpt>
      <trkpt lat="45.51894" lon="6.69118">
        <ele>1836.9</ele>
        <time>2015-08-03T12:25:03Z</time>
      </trkpt>
      <trkpt lat="45.51899" lon="6.69111">
        <ele>1836.75</ele>
        <time>2015-08-03T12:25:04Z</time>
      </trkpt>
      <trkpt lat="45.51903" lon="6.69103">
        <ele>1836.54</ele>
        <time>2015-08-03T12:25:05Z</time>
      </trkpt>
      <trkpt lat="45.51907" lon="6.69094">
        <ele>1836.26</ele>
        <time>2015-08-03T12:25:06Z</time>
      </trkpt>
      <trkpt lat="45.51912" lon="6.69085">
        <ele>1835.87</ele>
        <time>2015-08-03T12:25:07Z</time>
      </trkpt>
      <trkpt lat="45.51915" lon="6.69076">
        <ele>1835.35</ele>
        <time>2015-08-03T12:25:08Z</time>
      </trkpt>
      <trkpt lat="45.51917" lon="6.69066">
        <ele>1834.67</ele>
        <time>2015-08-03T12:25:09Z</time>
      </trkpt>
      <trkpt lat="45.51925" lon="6.69029">
        <ele>1831.47</ele>
        <time>2015-08-03T12:25:13Z</time>
      </trkpt>
      <trkpt lat="45.51925" lon="6.69021">
        <ele>1830.6</ele>
        <time>2015-08-03T12:25:14Z</time>
      </trkpt>
      <trkpt lat="45.51923" lon="6.68997">
        <ele>1827.92</ele>
        <time>2015-08-03T12:25:17Z</time>
      </trkpt>
      <trkpt lat="45.51916" lon="6.68969">
        <ele>1824.47</ele>
        <time>2015-08-03T12:25:20Z</time>
      </trkpt>
      <trkpt lat="45.51911" lon="6.68952">
        <ele>1822.04</ele>
        <time>2015-08-03T12:25:22Z</time>
      </trkpt>
      <trkpt lat="45.51912" lon="6.68943">
        <ele>1820.77</ele>
        <time>2015-08-03T12:25:23Z</time>
      </trkpt>
      <trkpt lat="45.51918" lon="6.68908">
        <ele>1816.88</ele>
        <time>2015-08-03T12:25:26Z</time>
      </trkpt>
      <trkpt lat="45.51925" lon="6.68889">
        <ele>1814.61</ele>
        <time>2015-08-03T12:25:28Z</time>
      </trkpt>
      <trkpt lat="45.5193" lon="6.68883">
        <ele>1813.56</ele>
        <time>2015-08-03T12:25:29Z</time>
      </trkpt>
      <trkpt lat="45.51934" lon="6.68877">
        <ele>1812.64</ele>
        <time>2015-08-03T12:25:30Z</time>
      </trkpt>
      <trkpt lat="45.51938" lon="6.6887">
        <ele>1811.87</ele>
        <time>2015-08-03T12:25:31Z</time>
      </trkpt>
      <trkpt lat="45.5194" lon="6.68861">
        <ele>1811.19</ele>
        <time>2015-08-03T12:25:32Z</time>
      </trkpt>
      <trkpt lat="45.5194" lon="6.68852">
        <ele>1810.57</ele>
        <time>2015-08-03T12:25:33Z</time>
      </trkpt>
      <trkpt lat="45.5194" lon="6.68842">
        <ele>1810</ele>
        <time>2015-08-03T12:25:34Z</time>
      </trkpt>
      <trkpt lat="45.51939" lon="6.68832">
        <ele>1809.37</ele>
        <time>2015-08-03T12:25:35Z</time>
      </trkpt>
      <trkpt lat="45.51938" lon="6.68822">
        <ele>1808.66</ele>
        <time>2015-08-03T12:25:36Z</time>
      </trkpt>
      <trkpt lat="45.51938" lon="6.68814">
        <ele>1807.84</ele>
        <time>2015-08-03T12:25:37Z</time>
      </trkpt>
      <trkpt lat="45.51939" lon="6.68806">
        <ele>1806.93</ele>
        <time>2015-08-03T12:25:38Z</time>
      </trkpt>
      <trkpt lat="45.51942" lon="6.68799">
        <ele>1806.01</ele>
        <time>2015-08-03T12:25:39Z</time>
      </trkpt>
      <trkpt lat="45.51946" lon="6.68792">
        <ele>1805.08</ele>
        <time>2015-08-03T12:25:40Z</time>
      </trkpt>
      <trkpt lat="45.5195" lon="6.68784">
        <ele>1804.13</ele>
        <time>2015-08-03T12:25:41Z</time>
      </trkpt>
      <trkpt lat="45.51956" lon="6.68778">
        <ele>1803.19</ele>
        <time>2015-08-03T12:25:42Z</time>
      </trkpt>
      <trkpt lat="45.51961" lon="6.68772">
        <ele>1801.38</ele>
        <time>2015-08-03T12:25:43Z</time>
      </trkpt>
      <trkpt lat="45.51975" lon="6.68757">
        <ele>1799.17</ele>
        <time>2015-08-03T12:25:45Z</time>
      </trkpt>
      <trkpt lat="45.51995" lon="6.68732">
        <ele>1795.19</ele>
        <time>2015-08-03T12:25:48Z</time>
      </trkpt>
      <trkpt lat="45.52" lon="6.68723">
        <ele>1793.83</ele>
        <time>2015-08-03T12:25:49Z</time>
      </trkpt>
      <trkpt lat="45.52005" lon="6.68714">
        <ele>1792.45</ele>
        <time>2015-08-03T12:25:50Z</time>
      </trkpt>
      <trkpt lat="45.52009" lon="6.68704">
        <ele>1791.07</ele>
        <time>2015-08-03T12:25:51Z</time>
      </trkpt>
      <trkpt lat="45.52013" lon="6.68695">
        <ele>1789.75</ele>
        <time>2015-08-03T12:25:52Z</time>
      </trkpt>
      <trkpt lat="45.52016" lon="6.68686">
        <ele>1788.45</ele>
        <time>2015-08-03T12:25:53Z</time>
      </trkpt>
      <trkpt lat="45.52021" lon="6.68678">
        <ele>1787.11</ele>
        <time>2015-08-03T12:25:54Z</time>
      </trkpt>
      <trkpt lat="45.52033" lon="6.68658">
        <ele>1783.5</ele>
        <time>2015-08-03T12:25:57Z</time>
      </trkpt>
      <trkpt lat="45.52039" lon="6.68653">
        <ele>1779.66</ele>
        <time>2015-08-03T12:26:00Z</time>
      </trkpt>
      <trkpt lat="45.52039" lon="6.68653">
        <ele>1776.12</ele>
        <time>2015-08-03T12:26:04Z</time>
      </trkpt>
      <trkpt lat="45.52038" lon="6.68644">
        <ele>1774.04</ele>
        <time>2015-08-03T12:26:26Z</time>
      </trkpt>
      <trkpt lat="45.52035" lon="6.68642">
        <ele>1773.56</ele>
        <time>2015-08-03T12:26:51Z</time>
      </trkpt>
      <trkpt lat="45.52038" lon="6.68636">
        <ele>1773.37</ele>
        <time>2015-08-03T12:26:57Z</time>
      </trkpt>
      <trkpt lat="45.52038" lon="6.68634">
        <ele>1773.39</ele>
        <time>2015-08-03T12:26:58Z</time>
      </trkpt>
      <trkpt lat="45.52046" lon="6.68603">
        <ele>1773.03</ele>
        <time>2015-08-03T12:27:02Z</time>
      </trkpt>
      <trkpt lat="45.52048" lon="6.68592">
        <ele>1772.76</ele>
        <time>2015-08-03T12:27:03Z</time>
      </trkpt>
      <trkpt lat="45.52056" lon="6.68545">
        <ele>1769.25</ele>
        <time>2015-08-03T12:27:08Z</time>
      </trkpt>
      <trkpt lat="45.5206" lon="6.68515">
        <ele>1765.7</ele>
        <time>2015-08-03T12:27:11Z</time>
      </trkpt>
      <trkpt lat="45.52064" lon="6.68487">
        <ele>1761.57</ele>
        <time>2015-08-03T12:27:14Z</time>
      </trkpt>
      <trkpt lat="45.52067" lon="6.68471">
        <ele>1758.62</ele>
        <time>2015-08-03T12:27:16Z</time>
      </trkpt>
      <trkpt lat="45.52071" lon="6.68464">
        <ele>1757.23</ele>
        <time>2015-08-03T12:27:17Z</time>
      </trkpt>
      <trkpt lat="45.52076" lon="6.68458">
        <ele>1755.82</ele>
        <time>2015-08-03T12:27:18Z</time>
      </trkpt>
      <trkpt lat="45.52079" lon="6.6845">
        <ele>1754.34</ele>
        <time>2015-08-03T12:27:19Z</time>
      </trkpt>
      <trkpt lat="45.52081" lon="6.68442">
        <ele>1752.93</ele>
        <time>2015-08-03T12:27:20Z</time>
      </trkpt>
      <trkpt lat="45.52084" lon="6.68435">
        <ele>1751.6</ele>
        <time>2015-08-03T12:27:21Z</time>
      </trkpt>
      <trkpt lat="45.52086" lon="6.68429">
        <ele>1750.26</ele>
        <time>2015-08-03T12:27:22Z</time>
      </trkpt>
      <trkpt lat="45.52089" lon="6.68421">
        <ele>1748.79</ele>
        <time>2015-08-03T12:27:23Z</time>
      </trkpt>
      <trkpt lat="45.52092" lon="6.68415">
        <ele>1745.73</ele>
        <time>2015-08-03T12:27:24Z</time>
      </trkpt>
      <trkpt lat="45.52097" lon="6.68405">
        <ele>1742.7</ele>
        <time>2015-08-03T12:27:26Z</time>
      </trkpt>
      <trkpt lat="45.52101" lon="6.68401">
        <ele>1741.32</ele>
        <time>2015-08-03T12:27:27Z</time>
      </trkpt>
      <trkpt lat="45.52113" lon="6.68387">
        <ele>1738.04</ele>
        <time>2015-08-03T12:27:30Z</time>
      </trkpt>
      <trkpt lat="45.52118" lon="6.68377">
        <ele>1736.18</ele>
        <time>2015-08-03T12:27:32Z</time>
      </trkpt>
      <trkpt lat="45.52118" lon="6.68372">
        <ele>1735.16</ele>
        <time>2015-08-03T12:27:33Z</time>
      </trkpt>
      <trkpt lat="45.52114" lon="6.68369">
        <ele>1734.14</ele>
        <time>2015-08-03T12:27:34Z</time>
      </trkpt>
      <trkpt lat="45.52109" lon="6.68368">
        <ele>1733.13</ele>
        <time>2015-08-03T12:27:35Z</time>
      </trkpt>
      <trkpt lat="45.52104" lon="6.68369">
        <ele>1732.11</ele>
        <time>2015-08-03T12:27:36Z</time>
      </trkpt>
      <trkpt lat="45.52098" lon="6.68369">
        <ele>1731.07</ele>
        <time>2015-08-03T12:27:37Z</time>
      </trkpt>
      <trkpt lat="45.52087" lon="6.68368">
        <ele>1729.06</ele>
        <time>2015-08-03T12:27:39Z</time>
      </trkpt>
      <trkpt lat="45.52084" lon="6.68368">
        <ele>1725.98</ele>
        <time>2015-08-03T12:27:42Z</time>
      </trkpt>
      <trkpt lat="45.52085" lon="6.68367">
        <ele>1722.38</ele>
        <time>2015-08-03T12:27:46Z</time>
      </trkpt>
      <trkpt lat="45.52091" lon="6.68361">
        <ele>1719.71</ele>
        <time>2015-08-03T12:27:59Z</time>
      </trkpt>
      <trkpt lat="45.52093" lon="6.68359">
        <ele>1719.76</ele>
        <time>2015-08-03T12:28:01Z</time>
      </trkpt>
      <trkpt lat="45.52094" lon="6.68356">
        <ele>1719.79</ele>
        <time>2015-08-03T12:28:02Z</time>
      </trkpt>
      <trkpt lat="45.52097" lon="6.68352">
        <ele>1719.78</ele>
        <time>2015-08-03T12:28:03Z</time>
      </trkpt>
      <trkpt lat="45.52101" lon="6.68347">
        <ele>1719.68</ele>
        <time>2015-08-03T12:28:04Z</time>
      </trkpt>
      <trkpt lat="45.52107" lon="6.68343">
        <ele>1719.45</ele>
        <time>2015-08-03T12:28:05Z</time>
      </trkpt>
      <trkpt lat="45.52112" lon="6.6834">
        <ele>1719.26</ele>
        <time>2015-08-03T12:28:06Z</time>
      </trkpt>
      <trkpt lat="45.52116" lon="6.68337">
        <ele>1718.9</ele>
        <time>2015-08-03T12:28:07Z</time>
      </trkpt>
      <trkpt lat="45.52121" lon="6.68333">
        <ele>1718.45</ele>
        <time>2015-08-03T12:28:08Z</time>
      </trkpt>
      <trkpt lat="45.52125" lon="6.68326">
        <ele>1717.92</ele>
        <time>2015-08-03T12:28:09Z</time>
      </trkpt>
      <trkpt lat="45.5213" lon="6.68315">
        <ele>1717.36</ele>
        <time>2015-08-03T12:28:10Z</time>
      </trkpt>
      <trkpt lat="45.52134" lon="6.68304">
        <ele>1716.7</ele>
        <time>2015-08-03T12:28:11Z</time>
      </trkpt>
      <trkpt lat="45.52138" lon="6.68294">
        <ele>1715.89</ele>
        <time>2015-08-03T12:28:12Z</time>
      </trkpt>
      <trkpt lat="45.52147" lon="6.68271">
        <ele>1712.57</ele>
        <time>2015-08-03T12:28:15Z</time>
      </trkpt>
      <trkpt lat="45.52152" lon="6.6826">
        <ele>1706.83</ele>
        <time>2015-08-03T12:28:18Z</time>
      </trkpt>
      <trkpt lat="45.52153" lon="6.68257">
        <ele>1702.99</ele>
        <time>2015-08-03T12:28:21Z</time>
      </trkpt>
      <trkpt lat="45.52155" lon="6.68244">
        <ele>1699.72</ele>
        <time>2015-08-03T12:28:26Z</time>
      </trkpt>
      <trkpt lat="45.52157" lon="6.68239">
        <ele>1699.24</ele>
        <time>2015-08-03T12:28:27Z</time>
      </trkpt>
      <trkpt lat="45.52163" lon="6.68226">
        <ele>1698.39</ele>
        <time>2015-08-03T12:28:29Z</time>
      </trkpt>
      <trkpt lat="45.52165" lon="6.68222">
        <ele>1697.86</ele>
        <time>2015-08-03T12:28:30Z</time>
      </trkpt>
      <trkpt lat="45.52169" lon="6.6821">
        <ele>1694.64</ele>
        <time>2015-08-03T12:28:34Z</time>
      </trkpt>
      <trkpt lat="45.5217" lon="6.68209">
        <ele>1693.81</ele>
        <time>2015-08-03T12:28:35Z</time>
      </trkpt>
      <trkpt lat="45.52171" lon="6.68209">
        <ele>1692.98</ele>
        <time>2015-08-03T12:28:36Z</time>
      </trkpt>
      <trkpt lat="45.52175" lon="6.68205">
        <ele>1689.76</ele>
        <time>2015-08-03T12:28:44Z</time>
      </trkpt>
      <trkpt lat="45.52179" lon="6.68197">
        <ele>1687.97</ele>
        <time>2015-08-03T12:28:55Z</time>
      </trkpt>
      <trkpt lat="45.52181" lon="6.6818">
        <ele>1687.76</ele>
        <time>2015-08-03T12:28:58Z</time>
      </trkpt>
      <trkpt lat="45.52181" lon="6.68171">
        <ele>1687.51</ele>
        <time>2015-08-03T12:28:59Z</time>
      </trkpt>
      <trkpt lat="45.52181" lon="6.68162">
        <ele>1687.25</ele>
        <time>2015-08-03T12:29:00Z</time>
      </trkpt>
      <trkpt lat="45.5218" lon="6.68152">
        <ele>1686.82</ele>
        <time>2015-08-03T12:29:01Z</time>
      </trkpt>
      <trkpt lat="45.52179" lon="6.68142">
        <ele>1686.2</ele>
        <time>2015-08-03T12:29:02Z</time>
      </trkpt>
      <trkpt lat="45.52178" lon="6.68134">
        <ele>1685.5</ele>
        <time>2015-08-03T12:29:03Z</time>
      </trkpt>
      <trkpt lat="45.52178" lon="6.68125">
        <ele>1684.71</ele>
        <time>2015-08-03T12:29:04Z</time>
      </trkpt>
      <trkpt lat="45.52178" lon="6.68101">
        <ele>1681.54</ele>
        <time>2015-08-03T12:29:08Z</time>
      </trkpt>
      <trkpt lat="45.52178" lon="6.68096">
        <ele>1680.81</ele>
        <time>2015-08-03T12:29:09Z</time>
      </trkpt>
      <trkpt lat="45.5218" lon="6.68092">
        <ele>1679.55</ele>
        <time>2015-08-03T12:29:10Z</time>
      </trkpt>
      <trkpt lat="45.52181" lon="6.68089">
        <ele>1679.55</ele>
        <time>2015-08-03T12:29:11Z</time>
      </trkpt>
      <trkpt lat="45.52183" lon="6.68086">
        <ele>1678.41</ele>
        <time>2015-08-03T12:29:12Z</time>
      </trkpt>
      <trkpt lat="45.52184" lon="6.68083">
        <ele>1677.94</ele>
        <time>2015-08-03T12:29:13Z</time>
      </trkpt>
      <trkpt lat="45.52186" lon="6.6808">
        <ele>1677.54</ele>
        <time>2015-08-03T12:29:14Z</time>
      </trkpt>
      <trkpt lat="45.52187" lon="6.68078">
        <ele>1677.22</ele>
        <time>2015-08-03T12:29:15Z</time>
      </trkpt>
      <trkpt lat="45.52207" lon="6.68048">
        <ele>1676.92</ele>
        <time>2015-08-03T12:29:25Z</time>
      </trkpt>
      <trkpt lat="45.52239" lon="6.68019">
        <ele>1676.54</ele>
        <time>2015-08-03T12:29:35Z</time>
      </trkpt>
      <trkpt lat="45.52248" lon="6.68014">
        <ele>1675.05</ele>
        <time>2015-08-03T12:29:40Z</time>
      </trkpt>
      <trkpt lat="45.52249" lon="6.68009">
        <ele>1673.43</ele>
        <time>2015-08-03T12:29:51Z</time>
      </trkpt>
      <trkpt lat="45.52246" lon="6.68007">
        <ele>1673.42</ele>
        <time>2015-08-03T12:30:11Z</time>
      </trkpt>
      <trkpt lat="45.52249" lon="6.68008">
        <ele>1673.31</ele>
        <time>2015-08-03T12:30:20Z</time>
      </trkpt>
      <trkpt lat="45.52251" lon="6.68007">
        <ele>1673.35</ele>
        <time>2015-08-03T12:30:21Z</time>
      </trkpt>
      <trkpt lat="45.52254" lon="6.68006">
        <ele>1673.38</ele>
        <time>2015-08-03T12:30:22Z</time>
      </trkpt>
      <trkpt lat="45.52284" lon="6.68003">
        <ele>1672.72</ele>
        <time>2015-08-03T12:30:31Z</time>
      </trkpt>
      <trkpt lat="45.52309" lon="6.68007">
        <ele>1672.15</ele>
        <time>2015-08-03T12:30:38Z</time>
      </trkpt>
      <trkpt lat="45.52315" lon="6.68006">
        <ele>1672.28</ele>
        <time>2015-08-03T12:30:39Z</time>
      </trkpt>
      <trkpt lat="45.5232" lon="6.68005">
        <ele>1672.39</ele>
        <time>2015-08-03T12:30:40Z</time>
      </trkpt>
      <trkpt lat="45.52324" lon="6.68003">
        <ele>1672.47</ele>
        <time>2015-08-03T12:30:41Z</time>
      </trkpt>
      <trkpt lat="45.52328" lon="6.68001">
        <ele>1672.54</ele>
        <time>2015-08-03T12:30:42Z</time>
      </trkpt>
      <trkpt lat="45.52331" lon="6.68">
        <ele>1672.57</ele>
        <time>2015-08-03T12:30:43Z</time>
      </trkpt>
      <trkpt lat="45.52334" lon="6.67998">
        <ele>1672.6</ele>
        <time>2015-08-03T12:30:44Z</time>
      </trkpt>
      <trkpt lat="45.52337" lon="6.67996">
        <ele>1672.61</ele>
        <time>2015-08-03T12:30:45Z</time>
      </trkpt>
      <trkpt lat="45.52347" lon="6.67988">
        <ele>1672.94</ele>
        <time>2015-08-03T12:30:48Z</time>
      </trkpt>
      <trkpt lat="45.52383" lon="6.67966">
        <ele>1672.43</ele>
        <time>2015-08-03T12:30:56Z</time>
      </trkpt>
      <trkpt lat="45.52398" lon="6.67949">
        <ele>1671.65</ele>
        <time>2015-08-03T12:30:59Z</time>
      </trkpt>
      <trkpt lat="45.5242" lon="6.67925">
        <ele>1670</ele>
        <time>2015-08-03T12:31:03Z</time>
      </trkpt>
      <trkpt lat="45.52437" lon="6.67901">
        <ele>1667.44</ele>
        <time>2015-08-03T12:31:07Z</time>
      </trkpt>
      <trkpt lat="45.52441" lon="6.67895">
        <ele>1666.74</ele>
        <time>2015-08-03T12:31:08Z</time>
      </trkpt>
      <trkpt lat="45.52447" lon="6.67888">
        <ele>1665.97</ele>
        <time>2015-08-03T12:31:09Z</time>
      </trkpt>
      <trkpt lat="45.52452" lon="6.67881">
        <ele>1665.19</ele>
        <time>2015-08-03T12:31:10Z</time>
      </trkpt>
      <trkpt lat="45.52456" lon="6.67875">
        <ele>1664.35</ele>
        <time>2015-08-03T12:31:11Z</time>
      </trkpt>
      <trkpt lat="45.52468" lon="6.67856">
        <ele>1660.66</ele>
        <time>2015-08-03T12:31:15Z</time>
      </trkpt>
      <trkpt lat="45.52478" lon="6.67847">
        <ele>1657.52</ele>
        <time>2015-08-03T12:31:19Z</time>
      </trkpt>
      <trkpt lat="45.52484" lon="6.67842">
        <ele>1656.44</ele>
        <time>2015-08-03T12:31:21Z</time>
      </trkpt>
      <trkpt lat="45.52501" lon="6.67831">
        <ele>1654.54</ele>
        <time>2015-08-03T12:31:26Z</time>
      </trkpt>
      <trkpt lat="45.5252" lon="6.67818">
        <ele>1653.23</ele>
        <time>2015-08-03T12:31:32Z</time>
      </trkpt>
      <trkpt lat="45.52533" lon="6.67803">
        <ele>1652.21</ele>
        <time>2015-08-03T12:31:36Z</time>
      </trkpt>
      <trkpt lat="45.52541" lon="6.67793">
        <ele>1651.51</ele>
        <time>2015-08-03T12:31:38Z</time>
      </trkpt>
      <trkpt lat="45.52546" lon="6.67788">
        <ele>1651.03</ele>
        <time>2015-08-03T12:31:39Z</time>
      </trkpt>
      <trkpt lat="45.52564" lon="6.67772">
        <ele>1649.28</ele>
        <time>2015-08-03T12:31:42Z</time>
      </trkpt>
      <trkpt lat="45.52572" lon="6.67762">
        <ele>1647.94</ele>
        <time>2015-08-03T12:31:44Z</time>
      </trkpt>
      <trkpt lat="45.52576" lon="6.67758">
        <ele>1647.22</ele>
        <time>2015-08-03T12:31:45Z</time>
      </trkpt>
      <trkpt lat="45.5258" lon="6.67753">
        <ele>1645.71</ele>
        <time>2015-08-03T12:31:46Z</time>
      </trkpt>
      <trkpt lat="45.52584" lon="6.6775">
        <ele>1645.01</ele>
        <time>2015-08-03T12:31:47Z</time>
      </trkpt>
      <trkpt lat="45.52589" lon="6.67746">
        <ele>1644.31</ele>
        <time>2015-08-03T12:31:48Z</time>
      </trkpt>
      <trkpt lat="45.52599" lon="6.6774">
        <ele>1642.98</ele>
        <time>2015-08-03T12:31:50Z</time>
      </trkpt>
      <trkpt lat="45.52629" lon="6.67722">
        <ele>1639.9</ele>
        <time>2015-08-03T12:31:57Z</time>
      </trkpt>
      <trkpt lat="45.52645" lon="6.67721">
        <ele>1639.7</ele>
        <time>2015-08-03T12:32:04Z</time>
      </trkpt>
      <trkpt lat="45.5266" lon="6.67712">
        <ele>1641.1</ele>
        <time>2015-08-03T12:32:11Z</time>
      </trkpt>
      <trkpt lat="45.52662" lon="6.67711">
        <ele>1641.38</ele>
        <time>2015-08-03T12:32:12Z</time>
      </trkpt>
      <trkpt lat="45.52664" lon="6.67711">
        <ele>1641.49</ele>
        <time>2015-08-03T12:32:13Z</time>
      </trkpt>
      <trkpt lat="45.52666" lon="6.6771">
        <ele>1641.55</ele>
        <time>2015-08-03T12:32:14Z</time>
      </trkpt>
      <trkpt lat="45.52685" lon="6.67697">
        <ele>1641.37</ele>
        <time>2015-08-03T12:32:21Z</time>
      </trkpt>
      <trkpt lat="45.52691" lon="6.6769">
        <ele>1641.12</ele>
        <time>2015-08-03T12:32:23Z</time>
      </trkpt>
      <trkpt lat="45.52694" lon="6.67686">
        <ele>1640.89</ele>
        <time>2015-08-03T12:32:24Z</time>
      </trkpt>
      <trkpt lat="45.52697" lon="6.67683">
        <ele>1640.42</ele>
        <time>2015-08-03T12:32:25Z</time>
      </trkpt>
      <trkpt lat="45.5271" lon="6.67671">
        <ele>1637.68</ele>
        <time>2015-08-03T12:32:29Z</time>
      </trkpt>
      <trkpt lat="45.52711" lon="6.67668">
        <ele>1636.84</ele>
        <time>2015-08-03T12:32:30Z</time>
      </trkpt>
      <trkpt lat="45.52724" lon="6.67655">
        <ele>1633.36</ele>
        <time>2015-08-03T12:32:34Z</time>
      </trkpt>
      <trkpt lat="45.52733" lon="6.6765">
        <ele>1631.64</ele>
        <time>2015-08-03T12:32:36Z</time>
      </trkpt>
      <trkpt lat="45.52737" lon="6.67648">
        <ele>1630.87</ele>
        <time>2015-08-03T12:32:37Z</time>
      </trkpt>
      <trkpt lat="45.52746" lon="6.67645">
        <ele>1629.65</ele>
        <time>2015-08-03T12:32:39Z</time>
      </trkpt>
      <trkpt lat="45.5275" lon="6.67643">
        <ele>1628.83</ele>
        <time>2015-08-03T12:32:40Z</time>
      </trkpt>
      <trkpt lat="45.52755" lon="6.67641">
        <ele>1628.49</ele>
        <time>2015-08-03T12:32:41Z</time>
      </trkpt>
      <trkpt lat="45.52765" lon="6.67636">
        <ele>1627.86</ele>
        <time>2015-08-03T12:32:43Z</time>
      </trkpt>
      <trkpt lat="45.52796" lon="6.67619">
        <ele>1626.86</ele>
        <time>2015-08-03T12:32:48Z</time>
      </trkpt>
      <trkpt lat="45.52849" lon="6.6757">
        <ele>1624.34</ele>
        <time>2015-08-03T12:32:55Z</time>
      </trkpt>
      <trkpt lat="45.5289" lon="6.67534">
        <ele>1622.02</ele>
        <time>2015-08-03T12:33:00Z</time>
      </trkpt>
      <trkpt lat="45.52909" lon="6.67515">
        <ele>1620.28</ele>
        <time>2015-08-03T12:33:03Z</time>
      </trkpt>
      <trkpt lat="45.52914" lon="6.67509">
        <ele>1619.23</ele>
        <time>2015-08-03T12:33:04Z</time>
      </trkpt>
      <trkpt lat="45.52919" lon="6.67502">
        <ele>1618.67</ele>
        <time>2015-08-03T12:33:05Z</time>
      </trkpt>
      <trkpt lat="45.52923" lon="6.67497">
        <ele>1618.1</ele>
        <time>2015-08-03T12:33:06Z</time>
      </trkpt>
      <trkpt lat="45.52927" lon="6.67493">
        <ele>1617.51</ele>
        <time>2015-08-03T12:33:07Z</time>
      </trkpt>
      <trkpt lat="45.52932" lon="6.67493">
        <ele>1616.89</ele>
        <time>2015-08-03T12:33:08Z</time>
      </trkpt>
      <trkpt lat="45.52939" lon="6.67494">
        <ele>1616.3</ele>
        <time>2015-08-03T12:33:09Z</time>
      </trkpt>
      <trkpt lat="45.52945" lon="6.67495">
        <ele>1615.75</ele>
        <time>2015-08-03T12:33:10Z</time>
      </trkpt>
      <trkpt lat="45.52966" lon="6.67503">
        <ele>1613.53</ele>
        <time>2015-08-03T12:33:16Z</time>
      </trkpt>
      <trkpt lat="45.52965" lon="6.67504">
        <ele>1613.31</ele>
        <time>2015-08-03T12:33:29Z</time>
      </trkpt>
      <trkpt lat="45.52972" lon="6.675">
        <ele>1612.9</ele>
        <time>2015-08-03T12:33:53Z</time>
      </trkpt>
      <trkpt lat="45.52988" lon="6.67513">
        <ele>1613.2</ele>
        <time>2015-08-03T12:34:01Z</time>
      </trkpt>
      <trkpt lat="45.52998" lon="6.67526">
        <ele>1613.6</ele>
        <time>2015-08-03T12:34:06Z</time>
      </trkpt>
      <trkpt lat="45.52999" lon="6.67529">
        <ele>1613.66</ele>
        <time>2015-08-03T12:34:07Z</time>
      </trkpt>
      <trkpt lat="45.53" lon="6.67532">
        <ele>1613.78</ele>
        <time>2015-08-03T12:34:08Z</time>
      </trkpt>
      <trkpt lat="45.53001" lon="6.67534">
        <ele>1613.93</ele>
        <time>2015-08-03T12:34:09Z</time>
      </trkpt>
      <trkpt lat="45.53001" lon="6.67536">
        <ele>1614.1</ele>
        <time>2015-08-03T12:34:10Z</time>
      </trkpt>
      <trkpt lat="45.53002" lon="6.67538">
        <ele>1614.29</ele>
        <time>2015-08-03T12:34:11Z</time>
      </trkpt>
      <trkpt lat="45.53003" lon="6.6754">
        <ele>1614.52</ele>
        <time>2015-08-03T12:34:12Z</time>
      </trkpt>
      <trkpt lat="45.53004" lon="6.67542">
        <ele>1614.77</ele>
        <time>2015-08-03T12:34:13Z</time>
      </trkpt>
      <trkpt lat="45.53005" lon="6.67545">
        <ele>1615.02</ele>
        <time>2015-08-03T12:34:14Z</time>
      </trkpt>
      <trkpt lat="45.53005" lon="6.67547">
        <ele>1615.26</ele>
        <time>2015-08-03T12:34:15Z</time>
      </trkpt>
      <trkpt lat="45.53006" lon="6.6755">
        <ele>1615.49</ele>
        <time>2015-08-03T12:34:16Z</time>
      </trkpt>
      <trkpt lat="45.53007" lon="6.67552">
        <ele>1615.74</ele>
        <time>2015-08-03T12:34:17Z</time>
      </trkpt>
      <trkpt lat="45.53008" lon="6.67554">
        <ele>1616.01</ele>
        <time>2015-08-03T12:34:18Z</time>
      </trkpt>
      <trkpt lat="45.53008" lon="6.67556">
        <ele>1616.25</ele>
        <time>2015-08-03T12:34:19Z</time>
      </trkpt>
      <trkpt lat="45.53009" lon="6.67558">
        <ele>1616.69</ele>
        <time>2015-08-03T12:34:20Z</time>
      </trkpt>
      <trkpt lat="45.53009" lon="6.6756">
        <ele>1616.69</ele>
        <time>2015-08-03T12:34:21Z</time>
      </trkpt>
      <trkpt lat="45.53015" lon="6.67574">
        <ele>1619.27</ele>
        <time>2015-08-03T12:34:30Z</time>
      </trkpt>
      <trkpt lat="45.53016" lon="6.67575">
        <ele>1619.46</ele>
        <time>2015-08-03T12:34:31Z</time>
      </trkpt>
      <trkpt lat="45.53017" lon="6.67577">
        <ele>1619.61</ele>
        <time>2015-08-03T12:34:32Z</time>
      </trkpt>
      <trkpt lat="45.53018" lon="6.67578">
        <ele>1619.73</ele>
        <time>2015-08-03T12:34:33Z</time>
      </trkpt>
      <trkpt lat="45.53018" lon="6.6758">
        <ele>1619.82</ele>
        <time>2015-08-03T12:34:34Z</time>
      </trkpt>
      <trkpt lat="45.5302" lon="6.67582">
        <ele>1619.92</ele>
        <time>2015-08-03T12:34:35Z</time>
      </trkpt>
      <trkpt lat="45.53021" lon="6.67583">
        <ele>1620.03</ele>
        <time>2015-08-03T12:34:36Z</time>
      </trkpt>
      <trkpt lat="45.53022" lon="6.67584">
        <ele>1620.15</ele>
        <time>2015-08-03T12:34:37Z</time>
      </trkpt>
      <trkpt lat="45.53023" lon="6.67586">
        <ele>1620.27</ele>
        <time>2015-08-03T12:34:38Z</time>
      </trkpt>
      <trkpt lat="45.53023" lon="6.67589">
        <ele>1620.48</ele>
        <time>2015-08-03T12:34:40Z</time>
      </trkpt>
      <trkpt lat="45.53024" lon="6.6759">
        <ele>1620.57</ele>
        <time>2015-08-03T12:34:41Z</time>
      </trkpt>
      <trkpt lat="45.53025" lon="6.67591">
        <ele>1620.68</ele>
        <time>2015-08-03T12:34:42Z</time>
      </trkpt>
      <trkpt lat="45.53025" lon="6.67593">
        <ele>1620.79</ele>
        <time>2015-08-03T12:34:43Z</time>
      </trkpt>
      <trkpt lat="45.53031" lon="6.67611">
        <ele>1622.18</ele>
        <time>2015-08-03T12:34:54Z</time>
      </trkpt>
      <trkpt lat="45.53034" lon="6.67627">
        <ele>1622.47</ele>
        <time>2015-08-03T12:35:01Z</time>
      </trkpt>
      <trkpt lat="45.53034" lon="6.67629">
        <ele>1622.49</ele>
        <time>2015-08-03T12:35:02Z</time>
      </trkpt>
      <trkpt lat="45.53034" lon="6.67632">
        <ele>1622.48</ele>
        <time>2015-08-03T12:35:03Z</time>
      </trkpt>
      <trkpt lat="45.53034" lon="6.67634">
        <ele>1622.48</ele>
        <time>2015-08-03T12:35:04Z</time>
      </trkpt>
      <trkpt lat="45.53035" lon="6.67637">
        <ele>1622.5</ele>
        <time>2015-08-03T12:35:05Z</time>
      </trkpt>
      <trkpt lat="45.53036" lon="6.67638">
        <ele>1622.55</ele>
        <time>2015-08-03T12:35:06Z</time>
      </trkpt>
      <trkpt lat="45.53037" lon="6.67641">
        <ele>1622.6</ele>
        <time>2015-08-03T12:35:07Z</time>
      </trkpt>
      <trkpt lat="45.53037" lon="6.67643">
        <ele>1622.66</ele>
        <time>2015-08-03T12:35:08Z</time>
      </trkpt>
      <trkpt lat="45.53037" lon="6.67644">
        <ele>1622.72</ele>
        <time>2015-08-03T12:35:09Z</time>
      </trkpt>
      <trkpt lat="45.53037" lon="6.67647">
        <ele>1622.77</ele>
        <time>2015-08-03T12:35:10Z</time>
      </trkpt>
      <trkpt lat="45.53037" lon="6.67649">
        <ele>1622.84</ele>
        <time>2015-08-03T12:35:11Z</time>
      </trkpt>
      <trkpt lat="45.53037" lon="6.67651">
        <ele>1622.92</ele>
        <time>2015-08-03T12:35:12Z</time>
      </trkpt>
      <trkpt lat="45.53037" lon="6.67653">
        <ele>1623.01</ele>
        <time>2015-08-03T12:35:13Z</time>
      </trkpt>
      <trkpt lat="45.53037" lon="6.67655">
        <ele>1623.34</ele>
        <time>2015-08-03T12:35:14Z</time>
      </trkpt>
      <trkpt lat="45.53037" lon="6.67657">
        <ele>1623.48</ele>
        <time>2015-08-03T12:35:15Z</time>
      </trkpt>
      <trkpt lat="45.53038" lon="6.67659">
        <ele>1623.62</ele>
        <time>2015-08-03T12:35:16Z</time>
      </trkpt>
      <trkpt lat="45.53039" lon="6.67661">
        <ele>1623.78</ele>
        <time>2015-08-03T12:35:17Z</time>
      </trkpt>
      <trkpt lat="45.53043" lon="6.67673">
        <ele>1624.95</ele>
        <time>2015-08-03T12:35:25Z</time>
      </trkpt>
      <trkpt lat="45.53049" lon="6.67677">
        <ele>1626.12</ele>
        <time>2015-08-03T12:35:38Z</time>
      </trkpt>
      <trkpt lat="45.53053" lon="6.67691">
        <ele>1626.05</ele>
        <time>2015-08-03T12:35:57Z</time>
      </trkpt>
      <trkpt lat="45.53054" lon="6.67696">
        <ele>1626.17</ele>
        <time>2015-08-03T12:36:00Z</time>
      </trkpt>
      <trkpt lat="45.53054" lon="6.67698">
        <ele>1626.32</ele>
        <time>2015-08-03T12:36:01Z</time>
      </trkpt>
      <trkpt lat="45.53054" lon="6.677">
        <ele>1626.57</ele>
        <time>2015-08-03T12:36:02Z</time>
      </trkpt>
      <trkpt lat="45.53055" lon="6.67701">
        <ele>1626.57</ele>
        <time>2015-08-03T12:36:03Z</time>
      </trkpt>
      <trkpt lat="45.53055" lon="6.67703">
        <ele>1626.74</ele>
        <time>2015-08-03T12:36:04Z</time>
      </trkpt>
      <trkpt lat="45.53055" lon="6.67708">
        <ele>1627.03</ele>
        <time>2015-08-03T12:36:07Z</time>
      </trkpt>
      <trkpt lat="45.53056" lon="6.6771">
        <ele>1627.15</ele>
        <time>2015-08-03T12:36:08Z</time>
      </trkpt>
      <trkpt lat="45.53056" lon="6.67712">
        <ele>1627.31</ele>
        <time>2015-08-03T12:36:09Z</time>
      </trkpt>
      <trkpt lat="45.53056" lon="6.67713">
        <ele>1627.48</ele>
        <time>2015-08-03T12:36:10Z</time>
      </trkpt>
      <trkpt lat="45.53056" lon="6.67715">
        <ele>1627.62</ele>
        <time>2015-08-03T12:36:11Z</time>
      </trkpt>
      <trkpt lat="45.53056" lon="6.67719">
        <ele>1627.96</ele>
        <time>2015-08-03T12:36:13Z</time>
      </trkpt>
      <trkpt lat="45.53057" lon="6.67726">
        <ele>1628.37</ele>
        <time>2015-08-03T12:36:16Z</time>
      </trkpt>
      <trkpt lat="45.53057" lon="6.67729">
        <ele>1628.51</ele>
        <time>2015-08-03T12:36:17Z</time>
      </trkpt>
      <trkpt lat="45.53057" lon="6.67731">
        <ele>1628.65</ele>
        <time>2015-08-03T12:36:18Z</time>
      </trkpt>
      <trkpt lat="45.53058" lon="6.67734">
        <ele>1628.74</ele>
        <time>2015-08-03T12:36:19Z</time>
      </trkpt>
      <trkpt lat="45.53059" lon="6.67736">
        <ele>1628.84</ele>
        <time>2015-08-03T12:36:20Z</time>
      </trkpt>
      <trkpt lat="45.53059" lon="6.67738">
        <ele>1628.91</ele>
        <time>2015-08-03T12:36:21Z</time>
      </trkpt>
      <trkpt lat="45.53061" lon="6.6774">
        <ele>1628.99</ele>
        <time>2015-08-03T12:36:22Z</time>
      </trkpt>
      <trkpt lat="45.53063" lon="6.67748">
        <ele>1629.27</ele>
        <time>2015-08-03T12:36:25Z</time>
      </trkpt>
      <trkpt lat="45.53064" lon="6.67751">
        <ele>1629.42</ele>
        <time>2015-08-03T12:36:26Z</time>
      </trkpt>
      <trkpt lat="45.53075" lon="6.67778">
        <ele>1631.1</ele>
        <time>2015-08-03T12:36:37Z</time>
      </trkpt>
      <trkpt lat="45.53081" lon="6.67792">
        <ele>1632.23</ele>
        <time>2015-08-03T12:36:45Z</time>
      </trkpt>
      <trkpt lat="45.53082" lon="6.67794">
        <ele>1632.38</ele>
        <time>2015-08-03T12:36:46Z</time>
      </trkpt>
      <trkpt lat="45.53096" lon="6.6782">
        <ele>1633.21</ele>
        <time>2015-08-03T12:36:57Z</time>
      </trkpt>
      <trkpt lat="45.53099" lon="6.6783">
        <ele>1633.82</ele>
        <time>2015-08-03T12:37:01Z</time>
      </trkpt>
      <trkpt lat="45.53099" lon="6.67833">
        <ele>1634.09</ele>
        <time>2015-08-03T12:37:02Z</time>
      </trkpt>
      <trkpt lat="45.53099" lon="6.67836">
        <ele>1634.19</ele>
        <time>2015-08-03T12:37:03Z</time>
      </trkpt>
      <trkpt lat="45.53105" lon="6.67864">
        <ele>1634.49</ele>
        <time>2015-08-03T12:37:12Z</time>
      </trkpt>
      <trkpt lat="45.53108" lon="6.67867">
        <ele>1634.49</ele>
        <time>2015-08-03T12:37:13Z</time>
      </trkpt>
      <trkpt lat="45.53132" lon="6.67891">
        <ele>1634.91</ele>
        <time>2015-08-03T12:37:22Z</time>
      </trkpt>
      <trkpt lat="45.53157" lon="6.67912">
        <ele>1635.81</ele>
        <time>2015-08-03T12:37:31Z</time>
      </trkpt>
      <trkpt lat="45.5317" lon="6.67938">
        <ele>1636.83</ele>
        <time>2015-08-03T12:37:41Z</time>
      </trkpt>
      <trkpt lat="45.5317" lon="6.67944">
        <ele>1637.41</ele>
        <time>2015-08-03T12:38:01Z</time>
      </trkpt>
      <trkpt lat="45.5318" lon="6.67938">
        <ele>1637.89</ele>
        <time>2015-08-03T12:38:25Z</time>
      </trkpt>
      <trkpt lat="45.53188" lon="6.67941">
        <ele>1636.87</ele>
        <time>2015-08-03T12:38:44Z</time>
      </trkpt>
      <trkpt lat="45.5319" lon="6.67941">
        <ele>1636.94</ele>
        <time>2015-08-03T12:38:45Z</time>
      </trkpt>
      <trkpt lat="45.53191" lon="6.67941">
        <ele>1636.91</ele>
        <time>2015-08-03T12:38:46Z</time>
      </trkpt>
      <trkpt lat="45.53194" lon="6.67941">
        <ele>1636.81</ele>
        <time>2015-08-03T12:38:47Z</time>
      </trkpt>
      <trkpt lat="45.53199" lon="6.67943">
        <ele>1636.71</ele>
        <time>2015-08-03T12:38:48Z</time>
      </trkpt>
      <trkpt lat="45.53203" lon="6.67945">
        <ele>1636.63</ele>
        <time>2015-08-03T12:38:49Z</time>
      </trkpt>
      <trkpt lat="45.53209" lon="6.67948">
        <ele>1636.46</ele>
        <time>2015-08-03T12:38:50Z</time>
      </trkpt>
      <trkpt lat="45.5324" lon="6.67976">
        <ele>1633.14</ele>
        <time>2015-08-03T12:38:56Z</time>
      </trkpt>
      <trkpt lat="45.53241" lon="6.67984">
        <ele>1632.18</ele>
        <time>2015-08-03T12:38:57Z</time>
      </trkpt>
      <trkpt lat="45.53242" lon="6.67992">
        <ele>1631.2</ele>
        <time>2015-08-03T12:38:58Z</time>
      </trkpt>
      <trkpt lat="45.53249" lon="6.68023">
        <ele>1628.42</ele>
        <time>2015-08-03T12:39:01Z</time>
      </trkpt>
      <trkpt lat="45.53253" lon="6.68031">
        <ele>1627.49</ele>
        <time>2015-08-03T12:39:02Z</time>
      </trkpt>
      <trkpt lat="45.53257" lon="6.68036">
        <ele>1626.56</ele>
        <time>2015-08-03T12:39:03Z</time>
      </trkpt>
      <trkpt lat="45.53261" lon="6.68041">
        <ele>1624.57</ele>
        <time>2015-08-03T12:39:04Z</time>
      </trkpt>
      <trkpt lat="45.53265" lon="6.68044">
        <ele>1623.52</ele>
        <time>2015-08-03T12:39:05Z</time>
      </trkpt>
      <trkpt lat="45.53268" lon="6.68042">
        <ele>1622.45</ele>
        <time>2015-08-03T12:39:06Z</time>
      </trkpt>
      <trkpt lat="45.53272" lon="6.68038">
        <ele>1621.45</ele>
        <time>2015-08-03T12:39:07Z</time>
      </trkpt>
      <trkpt lat="45.53274" lon="6.68033">
        <ele>1620.51</ele>
        <time>2015-08-03T12:39:08Z</time>
      </trkpt>
      <trkpt lat="45.53275" lon="6.68028">
        <ele>1619.6</ele>
        <time>2015-08-03T12:39:09Z</time>
      </trkpt>
      <trkpt lat="45.53277" lon="6.68027">
        <ele>1616.58</ele>
        <time>2015-08-03T12:39:13Z</time>
      </trkpt>
      <trkpt lat="45.5328" lon="6.68021">
        <ele>1613.47</ele>
        <time>2015-08-03T12:39:30Z</time>
      </trkpt>
      <trkpt lat="45.53278" lon="6.68016">
        <ele>1613.5</ele>
        <time>2015-08-03T12:39:31Z</time>
      </trkpt>
      <trkpt lat="45.53277" lon="6.68011">
        <ele>1613.57</ele>
        <time>2015-08-03T12:39:32Z</time>
      </trkpt>
      <trkpt lat="45.53274" lon="6.68005">
        <ele>1613.51</ele>
        <time>2015-08-03T12:39:33Z</time>
      </trkpt>
      <trkpt lat="45.53273" lon="6.67997">
        <ele>1613.37</ele>
        <time>2015-08-03T12:39:34Z</time>
      </trkpt>
      <trkpt lat="45.53272" lon="6.6799">
        <ele>1613.14</ele>
        <time>2015-08-03T12:39:35Z</time>
      </trkpt>
      <trkpt lat="45.53273" lon="6.67983">
        <ele>1612.88</ele>
        <time>2015-08-03T12:39:36Z</time>
      </trkpt>
      <trkpt lat="45.53275" lon="6.67977">
        <ele>1612.39</ele>
        <time>2015-08-03T12:39:37Z</time>
      </trkpt>
      <trkpt lat="45.53279" lon="6.67971">
        <ele>1611.73</ele>
        <time>2015-08-03T12:39:38Z</time>
      </trkpt>
      <trkpt lat="45.53283" lon="6.67964">
        <ele>1610.95</ele>
        <time>2015-08-03T12:39:39Z</time>
      </trkpt>
      <trkpt lat="45.53287" lon="6.67955">
        <ele>1610.11</ele>
        <time>2015-08-03T12:39:40Z</time>
      </trkpt>
      <trkpt lat="45.53289" lon="6.67945">
        <ele>1609.21</ele>
        <time>2015-08-03T12:39:41Z</time>
      </trkpt>
      <trkpt lat="45.53291" lon="6.67935">
        <ele>1608.2</ele>
        <time>2015-08-03T12:39:42Z</time>
      </trkpt>
      <trkpt lat="45.53291" lon="6.67926">
        <ele>1607.12</ele>
        <time>2015-08-03T12:39:43Z</time>
      </trkpt>
      <trkpt lat="45.5329" lon="6.67915">
        <ele>1606.06</ele>
        <time>2015-08-03T12:39:44Z</time>
      </trkpt>
      <trkpt lat="45.53289" lon="6.67906">
        <ele>1604.97</ele>
        <time>2015-08-03T12:39:45Z</time>
      </trkpt>
      <trkpt lat="45.53288" lon="6.67893">
        <ele>1601.38</ele>
        <time>2015-08-03T12:39:48Z</time>
      </trkpt>
      <trkpt lat="45.5329" lon="6.67893">
        <ele>1597.93</ele>
        <time>2015-08-03T12:39:51Z</time>
      </trkpt>
      <trkpt lat="45.53292" lon="6.67897">
        <ele>1596.44</ele>
        <time>2015-08-03T12:39:53Z</time>
      </trkpt>
      <trkpt lat="45.53304" lon="6.67912">
        <ele>1592.93</ele>
        <time>2015-08-03T12:39:58Z</time>
      </trkpt>
      <trkpt lat="45.53319" lon="6.6793">
        <ele>1589.71</ele>
        <time>2015-08-03T12:40:03Z</time>
      </trkpt>
      <trkpt lat="45.53326" lon="6.67932">
        <ele>1588.34</ele>
        <time>2015-08-03T12:40:05Z</time>
      </trkpt>
      <trkpt lat="45.53352" lon="6.67935">
        <ele>1584.25</ele>
        <time>2015-08-03T12:40:11Z</time>
      </trkpt>
      <trkpt lat="45.53366" lon="6.67933">
        <ele>1581.13</ele>
        <time>2015-08-03T12:40:15Z</time>
      </trkpt>
      <trkpt lat="45.53381" lon="6.6794">
        <ele>1577.76</ele>
        <time>2015-08-03T12:40:19Z</time>
      </trkpt>
      <trkpt lat="45.53392" lon="6.67946">
        <ele>1574.52</ele>
        <time>2015-08-03T12:40:22Z</time>
      </trkpt>
      <trkpt lat="45.53412" lon="6.67961">
        <ele>1570.85</ele>
        <time>2015-08-03T12:40:27Z</time>
      </trkpt>
      <trkpt lat="45.53436" lon="6.67974">
        <ele>1567.01</ele>
        <time>2015-08-03T12:40:34Z</time>
      </trkpt>
      <trkpt lat="45.53456" lon="6.67994">
        <ele>1565.08</ele>
        <time>2015-08-03T12:40:42Z</time>
      </trkpt>
      <trkpt lat="45.53477" lon="6.68008">
        <ele>1564.41</ele>
        <time>2015-08-03T12:40:48Z</time>
      </trkpt>
      <trkpt lat="45.53497" lon="6.68034">
        <ele>1560.8</ele>
        <time>2015-08-03T12:40:55Z</time>
      </trkpt>
      <trkpt lat="45.53499" lon="6.68039">
        <ele>1559.78</ele>
        <time>2015-08-03T12:40:57Z</time>
      </trkpt>
      <trkpt lat="45.53513" lon="6.68069">
        <ele>1558.39</ele>
        <time>2015-08-03T12:41:07Z</time>
      </trkpt>
      <trkpt lat="45.53515" lon="6.68077">
        <ele>1557.96</ele>
        <time>2015-08-03T12:41:09Z</time>
      </trkpt>
      <trkpt lat="45.53518" lon="6.68102">
        <ele>1554.09</ele>
        <time>2015-08-03T12:41:15Z</time>
      </trkpt>
      <trkpt lat="45.53529" lon="6.68127">
        <ele>1550.72</ele>
        <time>2015-08-03T12:41:19Z</time>
      </trkpt>
      <trkpt lat="45.5354" lon="6.6815">
        <ele>1547.04</ele>
        <time>2015-08-03T12:41:25Z</time>
      </trkpt>
      <trkpt lat="45.53541" lon="6.68154">
        <ele>1545.62</ele>
        <time>2015-08-03T12:41:28Z</time>
      </trkpt>
      <trkpt lat="45.53547" lon="6.68164">
        <ele>1543.59</ele>
        <time>2015-08-03T12:41:32Z</time>
      </trkpt>
      <trkpt lat="45.53572" lon="6.68182">
        <ele>1541.43</ele>
        <time>2015-08-03T12:41:40Z</time>
      </trkpt>
      <trkpt lat="45.53589" lon="6.68177">
        <ele>1538.24</ele>
        <time>2015-08-03T12:41:46Z</time>
      </trkpt>
      <trkpt lat="45.53592" lon="6.68164">
        <ele>1534.74</ele>
        <time>2015-08-03T12:41:50Z</time>
      </trkpt>
      <trkpt lat="45.53595" lon="6.68164">
        <ele>1533.01</ele>
        <time>2015-08-03T12:41:52Z</time>
      </trkpt>
      <trkpt lat="45.5361" lon="6.68174">
        <ele>1527.72</ele>
        <time>2015-08-03T12:41:58Z</time>
      </trkpt>
      <trkpt lat="45.53612" lon="6.68174">
        <ele>1527.72</ele>
        <time>2015-08-03T12:41:59Z</time>
      </trkpt>
      <trkpt lat="45.53615" lon="6.68172">
        <ele>1525.2</ele>
        <time>2015-08-03T12:42:01Z</time>
      </trkpt>
      <trkpt lat="45.53624" lon="6.68172">
        <ele>1522.78</ele>
        <time>2015-08-03T12:42:04Z</time>
      </trkpt>
      <trkpt lat="45.53638" lon="6.68189">
        <ele>1518.54</ele>
        <time>2015-08-03T12:42:09Z</time>
      </trkpt>
      <trkpt lat="45.5364" lon="6.68191">
        <ele>1517.53</ele>
        <time>2015-08-03T12:42:10Z</time>
      </trkpt>
      <trkpt lat="45.5365" lon="6.68206">
        <ele>1513.54</ele>
        <time>2015-08-03T12:42:14Z</time>
      </trkpt>
      <trkpt lat="45.53656" lon="6.68201">
        <ele>1509.01</ele>
        <time>2015-08-03T12:42:20Z</time>
      </trkpt>
      <trkpt lat="45.53659" lon="6.68194">
        <ele>1507.42</ele>
        <time>2015-08-03T12:42:22Z</time>
      </trkpt>
      <trkpt lat="45.53665" lon="6.68181">
        <ele>1502.99</ele>
        <time>2015-08-03T12:42:26Z</time>
      </trkpt>
      <trkpt lat="45.53668" lon="6.68186">
        <ele>1500.25</ele>
        <time>2015-08-03T12:42:29Z</time>
      </trkpt>
      <trkpt lat="45.53673" lon="6.68176">
        <ele>1497</ele>
        <time>2015-08-03T12:42:33Z</time>
      </trkpt>
      <trkpt lat="45.53674" lon="6.68176">
        <ele>1496.19</ele>
        <time>2015-08-03T12:42:34Z</time>
      </trkpt>
      <trkpt lat="45.53686" lon="6.68185">
        <ele>1493.14</ele>
        <time>2015-08-03T12:42:38Z</time>
      </trkpt>
      <trkpt lat="45.53688" lon="6.68188">
        <ele>1492.46</ele>
        <time>2015-08-03T12:42:39Z</time>
      </trkpt>
      <trkpt lat="45.53693" lon="6.68194">
        <ele>1491.18</ele>
        <time>2015-08-03T12:42:41Z</time>
      </trkpt>
      <trkpt lat="45.53699" lon="6.68207">
        <ele>1488.46</ele>
        <time>2015-08-03T12:42:45Z</time>
      </trkpt>
      <trkpt lat="45.5371" lon="6.68209">
        <ele>1484.55</ele>
        <time>2015-08-03T12:42:50Z</time>
      </trkpt>
      <trkpt lat="45.53711" lon="6.68207">
        <ele>1483.68</ele>
        <time>2015-08-03T12:42:51Z</time>
      </trkpt>
      <trkpt lat="45.53712" lon="6.68202">
        <ele>1481.84</ele>
        <time>2015-08-03T12:42:53Z</time>
      </trkpt>
      <trkpt lat="45.53713" lon="6.682">
        <ele>1479.97</ele>
        <time>2015-08-03T12:42:54Z</time>
      </trkpt>
      <trkpt lat="45.53718" lon="6.68196">
        <ele>1477.57</ele>
        <time>2015-08-03T12:42:57Z</time>
      </trkpt>
      <trkpt lat="45.53723" lon="6.68207">
        <ele>1473.33</ele>
        <time>2015-08-03T12:43:02Z</time>
      </trkpt>
      <trkpt lat="45.5373" lon="6.68218">
        <ele>1470</ele>
        <time>2015-08-03T12:43:06Z</time>
      </trkpt>
      <trkpt lat="45.5374" lon="6.68229">
        <ele>1466.85</ele>
        <time>2015-08-03T12:43:10Z</time>
      </trkpt>
      <trkpt lat="45.53749" lon="6.68243">
        <ele>1463.2</ele>
        <time>2015-08-03T12:43:14Z</time>
      </trkpt>
      <trkpt lat="45.5375" lon="6.68246">
        <ele>1462.18</ele>
        <time>2015-08-03T12:43:15Z</time>
      </trkpt>
      <trkpt lat="45.53753" lon="6.6825">
        <ele>1460.06</ele>
        <time>2015-08-03T12:43:17Z</time>
      </trkpt>
      <trkpt lat="45.53755" lon="6.68255">
        <ele>1457.08</ele>
        <time>2015-08-03T12:43:19Z</time>
      </trkpt>
      <trkpt lat="45.53763" lon="6.68253">
        <ele>1454.09</ele>
        <time>2015-08-03T12:43:23Z</time>
      </trkpt>
      <trkpt lat="45.53768" lon="6.68251">
        <ele>1450.13</ele>
        <time>2015-08-03T12:43:28Z</time>
      </trkpt>
      <trkpt lat="45.53776" lon="6.68256">
        <ele>1447.04</ele>
        <time>2015-08-03T12:43:33Z</time>
      </trkpt>
      <trkpt lat="45.53777" lon="6.68258">
        <ele>1445.9</ele>
        <time>2015-08-03T12:43:37Z</time>
      </trkpt>
      <trkpt lat="45.53782" lon="6.68282">
        <ele>1443.12</ele>
        <time>2015-08-03T12:43:44Z</time>
      </trkpt>
      <trkpt lat="45.53783" lon="6.68284">
        <ele>1442.3</ele>
        <time>2015-08-03T12:43:45Z</time>
      </trkpt>
      <trkpt lat="45.53798" lon="6.68271">
        <ele>1437.89</ele>
        <time>2015-08-03T12:43:51Z</time>
      </trkpt>
      <trkpt lat="45.53802" lon="6.68268">
        <ele>1434.43</ele>
        <time>2015-08-03T12:43:55Z</time>
      </trkpt>
      <trkpt lat="45.53802" lon="6.68272">
        <ele>1432.59</ele>
        <time>2015-08-03T12:43:58Z</time>
      </trkpt>
      <trkpt lat="45.53792" lon="6.68296">
        <ele>1431.3</ele>
        <time>2015-08-03T12:44:07Z</time>
      </trkpt>
      <trkpt lat="45.53792" lon="6.68299">
        <ele>1431.33</ele>
        <time>2015-08-03T12:44:08Z</time>
      </trkpt>
      <trkpt lat="45.53794" lon="6.68306">
        <ele>1431.4</ele>
        <time>2015-08-03T12:44:11Z</time>
      </trkpt>
      <trkpt lat="45.53796" lon="6.68317">
        <ele>1431.48</ele>
        <time>2015-08-03T12:44:16Z</time>
      </trkpt>
      <trkpt lat="45.53795" lon="6.68319">
        <ele>1431.47</ele>
        <time>2015-08-03T12:44:17Z</time>
      </trkpt>
      <trkpt lat="45.53795" lon="6.68322">
        <ele>1431.79</ele>
        <time>2015-08-03T12:44:25Z</time>
      </trkpt>
      <trkpt lat="45.53796" lon="6.68322">
        <ele>1432.19</ele>
        <time>2015-08-03T12:44:34Z</time>
      </trkpt>
      <trkpt lat="45.53801" lon="6.6832">
        <ele>1432.11</ele>
        <time>2015-08-03T12:44:37Z</time>
      </trkpt>
      <trkpt lat="45.53803" lon="6.68318">
        <ele>1432</ele>
        <time>2015-08-03T12:44:38Z</time>
      </trkpt>
      <trkpt lat="45.53806" lon="6.68312">
        <ele>1431.67</ele>
        <time>2015-08-03T12:44:40Z</time>
      </trkpt>
      <trkpt lat="45.53806" lon="6.6831">
        <ele>1431.44</ele>
        <time>2015-08-03T12:44:41Z</time>
      </trkpt>
      <trkpt lat="45.53806" lon="6.68307">
        <ele>1431.2</ele>
        <time>2015-08-03T12:44:42Z</time>
      </trkpt>
      <trkpt lat="45.53807" lon="6.68303">
        <ele>1430.87</ele>
        <time>2015-08-03T12:44:43Z</time>
      </trkpt>
      <trkpt lat="45.53808" lon="6.683">
        <ele>1430.34</ele>
        <time>2015-08-03T12:44:44Z</time>
      </trkpt>
      <trkpt lat="45.53811" lon="6.68298">
        <ele>1429.66</ele>
        <time>2015-08-03T12:44:45Z</time>
      </trkpt>
      <trkpt lat="45.53813" lon="6.68296">
        <ele>1428.93</ele>
        <time>2015-08-03T12:44:46Z</time>
      </trkpt>
      <trkpt lat="45.53816" lon="6.68295">
        <ele>1428.22</ele>
        <time>2015-08-03T12:44:47Z</time>
      </trkpt>
      <trkpt lat="45.53819" lon="6.68293">
        <ele>1427.53</ele>
        <time>2015-08-03T12:44:48Z</time>
      </trkpt>
      <trkpt lat="45.53822" lon="6.6829">
        <ele>1426.84</ele>
        <time>2015-08-03T12:44:49Z</time>
      </trkpt>
      <trkpt lat="45.53825" lon="6.68286">
        <ele>1426.02</ele>
        <time>2015-08-03T12:44:50Z</time>
      </trkpt>
      <trkpt lat="45.53827" lon="6.68282">
        <ele>1425.18</ele>
        <time>2015-08-03T12:44:51Z</time>
      </trkpt>
      <trkpt lat="45.53829" lon="6.68278">
        <ele>1424.4</ele>
        <time>2015-08-03T12:44:52Z</time>
      </trkpt>
      <trkpt lat="45.5383" lon="6.68274">
        <ele>1423.63</ele>
        <time>2015-08-03T12:44:53Z</time>
      </trkpt>
      <trkpt lat="45.5383" lon="6.6827">
        <ele>1422.83</ele>
        <time>2015-08-03T12:44:54Z</time>
      </trkpt>
      <trkpt lat="45.53843" lon="6.68242">
        <ele>1419.59</ele>
        <time>2015-08-03T12:44:59Z</time>
      </trkpt>
      <trkpt lat="45.53848" lon="6.68235">
        <ele>1418.87</ele>
        <time>2015-08-03T12:45:00Z</time>
      </trkpt>
      <trkpt lat="45.53854" lon="6.68228">
        <ele>1418</ele>
        <time>2015-08-03T12:45:01Z</time>
      </trkpt>
      <trkpt lat="45.53867" lon="6.68219">
        <ele>1414.42</ele>
        <time>2015-08-03T12:45:03Z</time>
      </trkpt>
      <trkpt lat="45.53875" lon="6.68215">
        <ele>1413.17</ele>
        <time>2015-08-03T12:45:04Z</time>
      </trkpt>
      <trkpt lat="45.53897" lon="6.68205">
        <ele>1406.81</ele>
        <time>2015-08-03T12:45:09Z</time>
      </trkpt>
      <trkpt lat="45.53903" lon="6.682">
        <ele>1403.06</ele>
        <time>2015-08-03T12:45:12Z</time>
      </trkpt>
      <trkpt lat="45.5391" lon="6.68189">
        <ele>1397.16</ele>
        <time>2015-08-03T12:45:17Z</time>
      </trkpt>
      <trkpt lat="45.53912" lon="6.68175">
        <ele>1393.37</ele>
        <time>2015-08-03T12:45:21Z</time>
      </trkpt>
      <trkpt lat="45.53915" lon="6.68151">
        <ele>1390.28</ele>
        <time>2015-08-03T12:45:26Z</time>
      </trkpt>
      <trkpt lat="45.53917" lon="6.68141">
        <ele>1387.85</ele>
        <time>2015-08-03T12:45:30Z</time>
      </trkpt>
      <trkpt lat="45.5392" lon="6.68139">
        <ele>1383.56</ele>
        <time>2015-08-03T12:45:35Z</time>
      </trkpt>
      <trkpt lat="45.53921" lon="6.68136">
        <ele>1381.51</ele>
        <time>2015-08-03T12:45:39Z</time>
      </trkpt>
      <trkpt lat="45.53926" lon="6.68134">
        <ele>1379.2</ele>
        <time>2015-08-03T12:45:45Z</time>
      </trkpt>
      <trkpt lat="45.53931" lon="6.68132">
        <ele>1378.23</ele>
        <time>2015-08-03T12:45:48Z</time>
      </trkpt>
      <trkpt lat="45.53932" lon="6.68125">
        <ele>1376.44</ele>
        <time>2015-08-03T12:45:51Z</time>
      </trkpt>
      <trkpt lat="45.53934" lon="6.68121">
        <ele>1373.29</ele>
        <time>2015-08-03T12:45:54Z</time>
      </trkpt>
      <trkpt lat="45.53932" lon="6.68106">
        <ele>1370.19</ele>
        <time>2015-08-03T12:46:05Z</time>
      </trkpt>
      <trkpt lat="45.53933" lon="6.68104">
        <ele>1369.99</ele>
        <time>2015-08-03T12:46:06Z</time>
      </trkpt>
      <trkpt lat="45.53942" lon="6.6809">
        <ele>1366.28</ele>
        <time>2015-08-03T12:46:13Z</time>
      </trkpt>
      <trkpt lat="45.53943" lon="6.68087">
        <ele>1362.92</ele>
        <time>2015-08-03T12:46:17Z</time>
      </trkpt>
      <trkpt lat="45.53946" lon="6.68082">
        <ele>1359.86</ele>
        <time>2015-08-03T12:46:22Z</time>
      </trkpt>
      <trkpt lat="45.53949" lon="6.68073">
        <ele>1356.65</ele>
        <time>2015-08-03T12:46:30Z</time>
      </trkpt>
      <trkpt lat="45.53951" lon="6.68071">
        <ele>1355.96</ele>
        <time>2015-08-03T12:46:32Z</time>
      </trkpt>
      <trkpt lat="45.53964" lon="6.68063">
        <ele>1353.24</ele>
        <time>2015-08-03T12:46:38Z</time>
      </trkpt>
      <trkpt lat="45.5398" lon="6.68052">
        <ele>1350.01</ele>
        <time>2015-08-03T12:46:42Z</time>
      </trkpt>
      <trkpt lat="45.53989" lon="6.68039">
        <ele>1346.11</ele>
        <time>2015-08-03T12:46:45Z</time>
      </trkpt>
      <trkpt lat="45.53994" lon="6.68026">
        <ele>1342.7</ele>
        <time>2015-08-03T12:46:47Z</time>
      </trkpt>
      <trkpt lat="45.53997" lon="6.6801">
        <ele>1341</ele>
        <time>2015-08-03T12:46:49Z</time>
      </trkpt>
      <trkpt lat="45.53997" lon="6.67979">
        <ele>1336.64</ele>
        <time>2015-08-03T12:46:55Z</time>
      </trkpt>
      <trkpt lat="45.53996" lon="6.67978">
        <ele>1335.83</ele>
        <time>2015-08-03T12:46:56Z</time>
      </trkpt>
      <trkpt lat="45.53995" lon="6.67976">
        <ele>1334.5</ele>
        <time>2015-08-03T12:46:58Z</time>
      </trkpt>
      <trkpt lat="45.5399" lon="6.67962">
        <ele>1332.46</ele>
        <time>2015-08-03T12:47:17Z</time>
      </trkpt>
      <trkpt lat="45.53987" lon="6.6795">
        <ele>1332.18</ele>
        <time>2015-08-03T12:47:22Z</time>
      </trkpt>
      <trkpt lat="45.53987" lon="6.67944">
        <ele>1331.95</ele>
        <time>2015-08-03T12:47:24Z</time>
      </trkpt>
      <trkpt lat="45.53987" lon="6.67941">
        <ele>1331.87</ele>
        <time>2015-08-03T12:47:25Z</time>
      </trkpt>
      <trkpt lat="45.53987" lon="6.67926">
        <ele>1331.46</ele>
        <time>2015-08-03T12:47:29Z</time>
      </trkpt>
      <trkpt lat="45.53986" lon="6.67923">
        <ele>1331.32</ele>
        <time>2015-08-03T12:47:30Z</time>
      </trkpt>
      <trkpt lat="45.53985" lon="6.67919">
        <ele>1331.12</ele>
        <time>2015-08-03T12:47:31Z</time>
      </trkpt>
      <trkpt lat="45.53983" lon="6.67915">
        <ele>1330.91</ele>
        <time>2015-08-03T12:47:32Z</time>
      </trkpt>
      <trkpt lat="45.53982" lon="6.6791">
        <ele>1330.69</ele>
        <time>2015-08-03T12:47:33Z</time>
      </trkpt>
      <trkpt lat="45.53982" lon="6.67904">
        <ele>1330.29</ele>
        <time>2015-08-03T12:47:34Z</time>
      </trkpt>
      <trkpt lat="45.53981" lon="6.67899">
        <ele>1330.1</ele>
        <time>2015-08-03T12:47:35Z</time>
      </trkpt>
      <trkpt lat="45.53981" lon="6.67898">
        <ele>1329.92</ele>
        <time>2015-08-03T12:47:36Z</time>
      </trkpt>
      <trkpt lat="45.5399" lon="6.67881">
        <ele>1328.88</ele>
        <time>2015-08-03T12:47:49Z</time>
      </trkpt>
      <trkpt lat="45.53991" lon="6.67879">
        <ele>1328.16</ele>
        <time>2015-08-03T12:47:54Z</time>
      </trkpt>
      <trkpt lat="45.54006" lon="6.67859">
        <ele>1327.05</ele>
        <time>2015-08-03T12:48:01Z</time>
      </trkpt>
      <trkpt lat="45.54012" lon="6.67852">
        <ele>1325.88</ele>
        <time>2015-08-03T12:48:10Z</time>
      </trkpt>
      <trkpt lat="45.54012" lon="6.6785">
        <ele>1325.82</ele>
        <time>2015-08-03T12:48:11Z</time>
      </trkpt>
      <trkpt lat="45.54011" lon="6.67848">
        <ele>1325.77</ele>
        <time>2015-08-03T12:48:12Z</time>
      </trkpt>
      <trkpt lat="45.5401" lon="6.67847">
        <ele>1325.72</ele>
        <time>2015-08-03T12:48:13Z</time>
      </trkpt>
      <trkpt lat="45.54008" lon="6.67848">
        <ele>1325.71</ele>
        <time>2015-08-03T12:48:14Z</time>
      </trkpt>
      <trkpt lat="45.54006" lon="6.67849">
        <ele>1325.7</ele>
        <time>2015-08-03T12:48:15Z</time>
      </trkpt>
      <trkpt lat="45.53993" lon="6.67862">
        <ele>1325.89</ele>
        <time>2015-08-03T12:48:23Z</time>
      </trkpt>
      <trkpt lat="45.53979" lon="6.67868">
        <ele>1327.61</ele>
        <time>2015-08-03T12:48:31Z</time>
      </trkpt>
      <trkpt lat="45.53968" lon="6.67875">
        <ele>1328.5</ele>
        <time>2015-08-03T12:48:38Z</time>
      </trkpt>
      <trkpt lat="45.53968" lon="6.67884">
        <ele>1328.65</ele>
        <time>2015-08-03T12:48:49Z</time>
      </trkpt>
      <trkpt lat="45.53973" lon="6.67892">
        <ele>1327.88</ele>
        <time>2015-08-03T12:48:53Z</time>
      </trkpt>
      <trkpt lat="45.53974" lon="6.67893">
        <ele>1327.44</ele>
        <time>2015-08-03T12:48:54Z</time>
      </trkpt>
      <trkpt lat="45.5398" lon="6.67891">
        <ele>1325.26</ele>
        <time>2015-08-03T12:48:58Z</time>
      </trkpt>
      <trkpt lat="45.53982" lon="6.67892">
        <ele>1324.51</ele>
        <time>2015-08-03T12:48:59Z</time>
      </trkpt>
      <trkpt lat="45.53986" lon="6.67892">
        <ele>1323.74</ele>
        <time>2015-08-03T12:49:00Z</time>
      </trkpt>
      <trkpt lat="45.53989" lon="6.67892">
        <ele>1323.01</ele>
        <time>2015-08-03T12:49:01Z</time>
      </trkpt>
      <trkpt lat="45.53993" lon="6.67894">
        <ele>1322.28</ele>
        <time>2015-08-03T12:49:02Z</time>
      </trkpt>
      <trkpt lat="45.53997" lon="6.67896">
        <ele>1321.52</ele>
        <time>2015-08-03T12:49:03Z</time>
      </trkpt>
      <trkpt lat="45.54002" lon="6.67899">
        <ele>1320.71</ele>
        <time>2015-08-03T12:49:04Z</time>
      </trkpt>
      <trkpt lat="45.54012" lon="6.67904">
        <ele>1318.89</ele>
        <time>2015-08-03T12:49:06Z</time>
      </trkpt>
      <trkpt lat="45.54016" lon="6.67906">
        <ele>1317.94</ele>
        <time>2015-08-03T12:49:07Z</time>
      </trkpt>
      <trkpt lat="45.54022" lon="6.67912">
        <ele>1316.22</ele>
        <time>2015-08-03T12:49:09Z</time>
      </trkpt>
      <trkpt lat="45.54033" lon="6.67929">
        <ele>1312.39</ele>
        <time>2015-08-03T12:49:13Z</time>
      </trkpt>
      <trkpt lat="45.54037" lon="6.6794">
        <ele>1310.64</ele>
        <time>2015-08-03T12:49:15Z</time>
      </trkpt>
      <trkpt lat="45.54038" lon="6.67945">
        <ele>1309.67</ele>
        <time>2015-08-03T12:49:16Z</time>
      </trkpt>
      <trkpt lat="45.5404" lon="6.67949">
        <ele>1308.67</ele>
        <time>2015-08-03T12:49:17Z</time>
      </trkpt>
      <trkpt lat="45.54042" lon="6.67952">
        <ele>1307.71</ele>
        <time>2015-08-03T12:49:18Z</time>
      </trkpt>
      <trkpt lat="45.54043" lon="6.67956">
        <ele>1306.84</ele>
        <time>2015-08-03T12:49:19Z</time>
      </trkpt>
      <trkpt lat="45.54044" lon="6.67962">
        <ele>1306.03</ele>
        <time>2015-08-03T12:49:20Z</time>
      </trkpt>
      <trkpt lat="45.54046" lon="6.67968">
        <ele>1305.16</ele>
        <time>2015-08-03T12:49:21Z</time>
      </trkpt>
      <trkpt lat="45.54048" lon="6.67971">
        <ele>1304.22</ele>
        <time>2015-08-03T12:49:22Z</time>
      </trkpt>
      <trkpt lat="45.5405" lon="6.67975">
        <ele>1302.24</ele>
        <time>2015-08-03T12:49:24Z</time>
      </trkpt>
      <trkpt lat="45.54051" lon="6.67977">
        <ele>1301.35</ele>
        <time>2015-08-03T12:49:25Z</time>
      </trkpt>
      <trkpt lat="45.54052" lon="6.67979">
        <ele>1300.55</ele>
        <time>2015-08-03T12:49:26Z</time>
      </trkpt>
      <trkpt lat="45.54054" lon="6.67982">
        <ele>1299.78</ele>
        <time>2015-08-03T12:49:27Z</time>
      </trkpt>
      <trkpt lat="45.54057" lon="6.67984">
        <ele>1298.96</ele>
        <time>2015-08-03T12:49:28Z</time>
      </trkpt>
      <trkpt lat="45.5406" lon="6.67988">
        <ele>1298.07</ele>
        <time>2015-08-03T12:49:29Z</time>
      </trkpt>
      <trkpt lat="45.54064" lon="6.67992">
        <ele>1297.11</ele>
        <time>2015-08-03T12:49:30Z</time>
      </trkpt>
      <trkpt lat="45.54067" lon="6.67995">
        <ele>1296.07</ele>
        <time>2015-08-03T12:49:31Z</time>
      </trkpt>
      <trkpt lat="45.54069" lon="6.68">
        <ele>1295</ele>
        <time>2015-08-03T12:49:32Z</time>
      </trkpt>
      <trkpt lat="45.54072" lon="6.68006">
        <ele>1293.96</ele>
        <time>2015-08-03T12:49:33Z</time>
      </trkpt>
      <trkpt lat="45.54074" lon="6.68012">
        <ele>1290.32</ele>
        <time>2015-08-03T12:49:36Z</time>
      </trkpt>
      <trkpt lat="45.54075" lon="6.68016">
        <ele>1288.23</ele>
        <time>2015-08-03T12:49:40Z</time>
      </trkpt>
      <trkpt lat="45.54075" lon="6.68024">
        <ele>1287.71</ele>
        <time>2015-08-03T12:49:55Z</time>
      </trkpt>
      <trkpt lat="45.54076" lon="6.68035">
        <ele>1289.51</ele>
        <time>2015-08-03T12:50:04Z</time>
      </trkpt>
      <trkpt lat="45.5408" lon="6.68042">
        <ele>1289.46</ele>
        <time>2015-08-03T12:50:13Z</time>
      </trkpt>
      <trkpt lat="45.54091" lon="6.68045">
        <ele>1287.5</ele>
        <time>2015-08-03T12:50:26Z</time>
      </trkpt>
      <trkpt lat="45.54091" lon="6.6805">
        <ele>1286.19</ele>
        <time>2015-08-03T12:50:31Z</time>
      </trkpt>
      <trkpt lat="45.54096" lon="6.68063">
        <ele>1285.84</ele>
        <time>2015-08-03T12:50:36Z</time>
      </trkpt>
      <trkpt lat="45.54098" lon="6.68068">
        <ele>1285.73</ele>
        <time>2015-08-03T12:50:37Z</time>
      </trkpt>
      <trkpt lat="45.541" lon="6.68075">
        <ele>1285.58</ele>
        <time>2015-08-03T12:50:38Z</time>
      </trkpt>
      <trkpt lat="45.54102" lon="6.68081">
        <ele>1285.4</ele>
        <time>2015-08-03T12:50:39Z</time>
      </trkpt>
      <trkpt lat="45.54104" lon="6.68092">
        <ele>1284.74</ele>
        <time>2015-08-03T12:50:41Z</time>
      </trkpt>
      <trkpt lat="45.54105" lon="6.68113">
        <ele>1282.84</ele>
        <time>2015-08-03T12:50:46Z</time>
      </trkpt>
      <trkpt lat="45.54104" lon="6.68115">
        <ele>1282.56</ele>
        <time>2015-08-03T12:50:47Z</time>
      </trkpt>
      <trkpt lat="45.54103" lon="6.68122">
        <ele>1282</ele>
        <time>2015-08-03T12:50:51Z</time>
      </trkpt>
      <trkpt lat="45.54103" lon="6.68125">
        <ele>1281.99</ele>
        <time>2015-08-03T12:50:52Z</time>
      </trkpt>
      <trkpt lat="45.54103" lon="6.68129">
        <ele>1281.99</ele>
        <time>2015-08-03T12:50:53Z</time>
      </trkpt>
      <trkpt lat="45.54104" lon="6.68132">
        <ele>1281.99</ele>
        <time>2015-08-03T12:50:54Z</time>
      </trkpt>
      <trkpt lat="45.54106" lon="6.68135">
        <ele>1281.97</ele>
        <time>2015-08-03T12:50:55Z</time>
      </trkpt>
      <trkpt lat="45.54108" lon="6.68136">
        <ele>1281.84</ele>
        <time>2015-08-03T12:50:56Z</time>
      </trkpt>
      <trkpt lat="45.54109" lon="6.68138">
        <ele>1281.72</ele>
        <time>2015-08-03T12:50:57Z</time>
      </trkpt>
      <trkpt lat="45.5411" lon="6.68139">
        <ele>1281.6</ele>
        <time>2015-08-03T12:50:58Z</time>
      </trkpt>
      <trkpt lat="45.54111" lon="6.68141">
        <ele>1281.48</ele>
        <time>2015-08-03T12:50:59Z</time>
      </trkpt>
      <trkpt lat="45.54112" lon="6.68144">
        <ele>1281.36</ele>
        <time>2015-08-03T12:51:00Z</time>
      </trkpt>
      <trkpt lat="45.54118" lon="6.68161">
        <ele>1278.5</ele>
        <time>2015-08-03T12:51:10Z</time>
      </trkpt>
      <trkpt lat="45.5414" lon="6.68181">
        <ele>1275.34</ele>
        <time>2015-08-03T12:51:17Z</time>
      </trkpt>
      <trkpt lat="45.54144" lon="6.68185">
        <ele>1274.7</ele>
        <time>2015-08-03T12:51:18Z</time>
      </trkpt>
      <trkpt lat="45.54148" lon="6.6819">
        <ele>1274</ele>
        <time>2015-08-03T12:51:19Z</time>
      </trkpt>
      <trkpt lat="45.54152" lon="6.68193">
        <ele>1272.52</ele>
        <time>2015-08-03T12:51:20Z</time>
      </trkpt>
      <trkpt lat="45.54155" lon="6.68195">
        <ele>1271.74</ele>
        <time>2015-08-03T12:51:21Z</time>
      </trkpt>
      <trkpt lat="45.5417" lon="6.68199">
        <ele>1268.7</ele>
        <time>2015-08-03T12:51:25Z</time>
      </trkpt>
      <trkpt lat="45.54188" lon="6.68198">
        <ele>1265.11</ele>
        <time>2015-08-03T12:51:30Z</time>
      </trkpt>
      <trkpt lat="45.54206" lon="6.68196">
        <ele>1261.88</ele>
        <time>2015-08-03T12:51:35Z</time>
      </trkpt>
      <trkpt lat="45.54217" lon="6.68194">
        <ele>1259.61</ele>
        <time>2015-08-03T12:51:38Z</time>
      </trkpt>
      <trkpt lat="45.54222" lon="6.68191">
        <ele>1257.46</ele>
        <time>2015-08-03T12:51:41Z</time>
      </trkpt>
      <trkpt lat="45.54221" lon="6.6819">
        <ele>1256.95</ele>
        <time>2015-08-03T12:51:42Z</time>
      </trkpt>
      <trkpt lat="45.5422" lon="6.68189">
        <ele>1256.51</ele>
        <time>2015-08-03T12:51:43Z</time>
      </trkpt>
      <trkpt lat="45.54219" lon="6.68187">
        <ele>1255.73</ele>
        <time>2015-08-03T12:51:44Z</time>
      </trkpt>
      <trkpt lat="45.54218" lon="6.68183">
        <ele>1255.73</ele>
        <time>2015-08-03T12:51:45Z</time>
      </trkpt>
      <trkpt lat="45.54217" lon="6.68179">
        <ele>1254.84</ele>
        <time>2015-08-03T12:51:46Z</time>
      </trkpt>
      <trkpt lat="45.54217" lon="6.68176">
        <ele>1254.32</ele>
        <time>2015-08-03T12:51:47Z</time>
      </trkpt>
      <trkpt lat="45.54225" lon="6.68173">
        <ele>1251.42</ele>
        <time>2015-08-03T12:51:51Z</time>
      </trkpt>
      <trkpt lat="45.54227" lon="6.68173">
        <ele>1250.72</ele>
        <time>2015-08-03T12:51:52Z</time>
      </trkpt>
      <trkpt lat="45.54228" lon="6.68173">
        <ele>1250.1</ele>
        <time>2015-08-03T12:51:53Z</time>
      </trkpt>
      <trkpt lat="45.5423" lon="6.68173">
        <ele>1249.56</ele>
        <time>2015-08-03T12:51:54Z</time>
      </trkpt>
      <trkpt lat="45.54246" lon="6.68173">
        <ele>1246.4</ele>
        <time>2015-08-03T12:52:03Z</time>
      </trkpt>
      <trkpt lat="45.5425" lon="6.68174">
        <ele>1244.78</ele>
        <time>2015-08-03T12:52:06Z</time>
      </trkpt>
      <trkpt lat="45.54252" lon="6.6817">
        <ele>1243.68</ele>
        <time>2015-08-03T12:52:09Z</time>
      </trkpt>
      <trkpt lat="45.54274" lon="6.68166">
        <ele>1239.28</ele>
        <time>2015-08-03T12:52:15Z</time>
      </trkpt>
      <trkpt lat="45.54281" lon="6.68165">
        <ele>1237.42</ele>
        <time>2015-08-03T12:52:17Z</time>
      </trkpt>
      <trkpt lat="45.54286" lon="6.68165">
        <ele>1236.48</ele>
        <time>2015-08-03T12:52:18Z</time>
      </trkpt>
      <trkpt lat="45.54289" lon="6.68165">
        <ele>1235.57</ele>
        <time>2015-08-03T12:52:19Z</time>
      </trkpt>
      <trkpt lat="45.54293" lon="6.68164">
        <ele>1234.73</ele>
        <time>2015-08-03T12:52:20Z</time>
      </trkpt>
      <trkpt lat="45.54297" lon="6.68164">
        <ele>1234</ele>
        <time>2015-08-03T12:52:21Z</time>
      </trkpt>
      <trkpt lat="45.54301" lon="6.68164">
        <ele>1233.33</ele>
        <time>2015-08-03T12:52:22Z</time>
      </trkpt>
      <trkpt lat="45.54326" lon="6.68167">
        <ele>1230.13</ele>
        <time>2015-08-03T12:52:29Z</time>
      </trkpt>
      <trkpt lat="45.54354" lon="6.68166">
        <ele>1228.58</ele>
        <time>2015-08-03T12:52:36Z</time>
      </trkpt>
      <trkpt lat="45.54364" lon="6.68164">
        <ele>1226.75</ele>
        <time>2015-08-03T12:52:39Z</time>
      </trkpt>
      <trkpt lat="45.54377" lon="6.68163">
        <ele>1222.99</ele>
        <time>2015-08-03T12:52:42Z</time>
      </trkpt>
      <trkpt lat="45.54382" lon="6.68164">
        <ele>1221.88</ele>
        <time>2015-08-03T12:52:43Z</time>
      </trkpt>
      <trkpt lat="45.54386" lon="6.68164">
        <ele>1220.73</ele>
        <time>2015-08-03T12:52:44Z</time>
      </trkpt>
      <trkpt lat="45.54389" lon="6.68165">
        <ele>1219.59</ele>
        <time>2015-08-03T12:52:45Z</time>
      </trkpt>
      <trkpt lat="45.54393" lon="6.68167">
        <ele>1218.45</ele>
        <time>2015-08-03T12:52:46Z</time>
      </trkpt>
      <trkpt lat="45.54407" lon="6.6817">
        <ele>1214.94</ele>
        <time>2015-08-03T12:52:49Z</time>
      </trkpt>
      <trkpt lat="45.54411" lon="6.6817">
        <ele>1213.84</ele>
        <time>2015-08-03T12:52:50Z</time>
      </trkpt>
      <trkpt lat="45.54416" lon="6.68169">
        <ele>1212.83</ele>
        <time>2015-08-03T12:52:51Z</time>
      </trkpt>
      <trkpt lat="45.54421" lon="6.6817">
        <ele>1211.74</ele>
        <time>2015-08-03T12:52:52Z</time>
      </trkpt>
      <trkpt lat="45.54427" lon="6.68171">
        <ele>1210.56</ele>
        <time>2015-08-03T12:52:53Z</time>
      </trkpt>
      <trkpt lat="45.54434" lon="6.6817">
        <ele>1209.35</ele>
        <time>2015-08-03T12:52:54Z</time>
      </trkpt>
      <trkpt lat="45.54439" lon="6.6817">
        <ele>1208.19</ele>
        <time>2015-08-03T12:52:55Z</time>
      </trkpt>
      <trkpt lat="45.54445" lon="6.68171">
        <ele>1207.08</ele>
        <time>2015-08-03T12:52:56Z</time>
      </trkpt>
      <trkpt lat="45.54452" lon="6.68172">
        <ele>1205.9</ele>
        <time>2015-08-03T12:52:57Z</time>
      </trkpt>
      <trkpt lat="45.5447" lon="6.68174">
        <ele>1201.75</ele>
        <time>2015-08-03T12:53:00Z</time>
      </trkpt>
      <trkpt lat="45.54475" lon="6.68174">
        <ele>1200.31</ele>
        <time>2015-08-03T12:53:01Z</time>
      </trkpt>
      <trkpt lat="45.54489" lon="6.68175">
        <ele>1194.86</ele>
        <time>2015-08-03T12:53:04Z</time>
      </trkpt>
      <trkpt lat="45.545" lon="6.68175">
        <ele>1190.51</ele>
        <time>2015-08-03T12:53:07Z</time>
      </trkpt>
      <trkpt lat="45.54513" lon="6.68178">
        <ele>1185.96</ele>
        <time>2015-08-03T12:53:10Z</time>
      </trkpt>
      <trkpt lat="45.54517" lon="6.6818">
        <ele>1181.89</ele>
        <time>2015-08-03T12:53:13Z</time>
      </trkpt>
      <trkpt lat="45.54524" lon="6.68184">
        <ele>1178.75</ele>
        <time>2015-08-03T12:53:17Z</time>
      </trkpt>
      <trkpt lat="45.54526" lon="6.68185">
        <ele>1178.28</ele>
        <time>2015-08-03T12:53:18Z</time>
      </trkpt>
      <trkpt lat="45.54551" lon="6.68191">
        <ele>1176.25</ele>
        <time>2015-08-03T12:53:39Z</time>
      </trkpt>
      <trkpt lat="45.54555" lon="6.68185">
        <ele>1176.33</ele>
        <time>2015-08-03T12:53:54Z</time>
      </trkpt>
      <trkpt lat="45.5455" lon="6.68175">
        <ele>1175.92</ele>
        <time>2015-08-03T12:53:59Z</time>
      </trkpt>
      <trkpt lat="45.54549" lon="6.68172">
        <ele>1175.73</ele>
        <time>2015-08-03T12:54:00Z</time>
      </trkpt>
      <trkpt lat="45.54548" lon="6.68168">
        <ele>1175.54</ele>
        <time>2015-08-03T12:54:01Z</time>
      </trkpt>
      <trkpt lat="45.54546" lon="6.68165">
        <ele>1175.34</ele>
        <time>2015-08-03T12:54:02Z</time>
      </trkpt>
      <trkpt lat="45.54544" lon="6.68161">
        <ele>1175.15</ele>
        <time>2015-08-03T12:54:03Z</time>
      </trkpt>
      <trkpt lat="45.54536" lon="6.68135">
        <ele>1172.98</ele>
        <time>2015-08-03T12:54:10Z</time>
      </trkpt>
      <trkpt lat="45.54531" lon="6.68126">
        <ele>1172.11</ele>
        <time>2015-08-03T12:54:12Z</time>
      </trkpt>
      <trkpt lat="45.54528" lon="6.68122">
        <ele>1171.71</ele>
        <time>2015-08-03T12:54:13Z</time>
      </trkpt>
      <trkpt lat="45.54524" lon="6.68119">
        <ele>1171.3</ele>
        <time>2015-08-03T12:54:14Z</time>
      </trkpt>
      <trkpt lat="45.54509" lon="6.68108">
        <ele>1169.83</ele>
        <time>2015-08-03T12:54:19Z</time>
      </trkpt>
      <trkpt lat="45.54508" lon="6.68106">
        <ele>1169.7</ele>
        <time>2015-08-03T12:54:20Z</time>
      </trkpt>
      <trkpt lat="45.54499" lon="6.68095">
        <ele>1169.54</ele>
        <time>2015-08-03T12:54:28Z</time>
      </trkpt>
      <trkpt lat="45.54497" lon="6.68097">
        <ele>1169.45</ele>
        <time>2015-08-03T12:54:31Z</time>
      </trkpt>
      <trkpt lat="45.54498" lon="6.68106">
        <ele>1169.61</ele>
        <time>2015-08-03T12:54:40Z</time>
      </trkpt>
      <trkpt lat="45.54499" lon="6.68106">
        <ele>1169.74</ele>
        <time>2015-08-03T12:54:41Z</time>
      </trkpt>
      <trkpt lat="45.545" lon="6.68107">
        <ele>1169.8</ele>
        <time>2015-08-03T12:54:42Z</time>
      </trkpt>
      <trkpt lat="45.54512" lon="6.68121">
        <ele>1169.38</ele>
        <time>2015-08-03T12:54:51Z</time>
      </trkpt>
      <trkpt lat="45.54515" lon="6.68129">
        <ele>1169.42</ele>
        <time>2015-08-03T12:54:55Z</time>
      </trkpt>
      <trkpt lat="45.54516" lon="6.68131">
        <ele>1169.44</ele>
        <time>2015-08-03T12:54:56Z</time>
      </trkpt>
      <trkpt lat="45.54516" lon="6.68134">
        <ele>1169.47</ele>
        <time>2015-08-03T12:54:57Z</time>
      </trkpt>
      <trkpt lat="45.54519" lon="6.6815">
        <ele>1171.57</ele>
        <time>2015-08-03T12:55:08Z</time>
      </trkpt>
      <trkpt lat="45.54521" lon="6.68167">
        <ele>1174.67</ele>
        <time>2015-08-03T12:55:21Z</time>
      </trkpt>
      <trkpt lat="45.54528" lon="6.6818">
        <ele>1176.4</ele>
        <time>2015-08-03T12:55:39Z</time>
      </trkpt>
      <trkpt lat="45.54541" lon="6.68194">
        <ele>1176.55</ele>
        <time>2015-08-03T12:55:57Z</time>
      </trkpt>
      <trkpt lat="45.5455" lon="6.68204">
        <ele>1177.24</ele>
        <time>2015-08-03T12:56:06Z</time>
      </trkpt>
      <trkpt lat="45.54564" lon="6.68208">
        <ele>1177.47</ele>
        <time>2015-08-03T12:56:26Z</time>
      </trkpt>
      <trkpt lat="45.54567" lon="6.68208">
        <ele>1177.75</ele>
        <time>2015-08-03T12:56:29Z</time>
      </trkpt>
      <trkpt lat="45.54574" lon="6.68209">
        <ele>1177.82</ele>
        <time>2015-08-03T12:56:50Z</time>
      </trkpt>
      <trkpt lat="45.54577" lon="6.68214">
        <ele>1177.58</ele>
        <time>2015-08-03T12:57:06Z</time>
      </trkpt>
      <trkpt lat="45.54581" lon="6.68224">
        <ele>1178.11</ele>
        <time>2015-08-03T12:57:13Z</time>
      </trkpt>
      <trkpt lat="45.54582" lon="6.68225">
        <ele>1178.25</ele>
        <time>2015-08-03T12:57:14Z</time>
      </trkpt>
      <trkpt lat="45.54583" lon="6.68231">
        <ele>1180.01</ele>
        <time>2015-08-03T12:57:22Z</time>
      </trkpt>
      <trkpt lat="45.5459" lon="6.68244">
        <ele>1182.21</ele>
        <time>2015-08-03T12:57:35Z</time>
      </trkpt>
      <trkpt lat="45.54593" lon="6.68246">
        <ele>1182.28</ele>
        <time>2015-08-03T12:57:36Z</time>
      </trkpt>
      <trkpt lat="45.54608" lon="6.68261">
        <ele>1181.81</ele>
        <time>2015-08-03T12:57:41Z</time>
      </trkpt>
      <trkpt lat="45.54613" lon="6.68264">
        <ele>1181.65</ele>
        <time>2015-08-03T12:57:42Z</time>
      </trkpt>
      <trkpt lat="45.54623" lon="6.68267">
        <ele>1181.34</ele>
        <time>2015-08-03T12:57:44Z</time>
      </trkpt>
      <trkpt lat="45.54643" lon="6.68271">
        <ele>1180.57</ele>
        <time>2015-08-03T12:57:48Z</time>
      </trkpt>
      <trkpt lat="45.54688" lon="6.68278">
        <ele>1178.79</ele>
        <time>2015-08-03T12:57:56Z</time>
      </trkpt>
      <trkpt lat="45.54697" lon="6.68278">
        <ele>1178.27</ele>
        <time>2015-08-03T12:57:58Z</time>
      </trkpt>
      <trkpt lat="45.54713" lon="6.68279">
        <ele>1177.37</ele>
        <time>2015-08-03T12:58:01Z</time>
      </trkpt>
      <trkpt lat="45.54745" lon="6.68287">
        <ele>1173.95</ele>
        <time>2015-08-03T12:58:07Z</time>
      </trkpt>
      <trkpt lat="45.5475" lon="6.6829">
        <ele>1173.02</ele>
        <time>2015-08-03T12:58:08Z</time>
      </trkpt>
      <trkpt lat="45.54754" lon="6.68293">
        <ele>1172.06</ele>
        <time>2015-08-03T12:58:09Z</time>
      </trkpt>
      <trkpt lat="45.54767" lon="6.68304">
        <ele>1169.08</ele>
        <time>2015-08-03T12:58:12Z</time>
      </trkpt>
      <trkpt lat="45.54775" lon="6.68311">
        <ele>1165.88</ele>
        <time>2015-08-03T12:58:14Z</time>
      </trkpt>
      <trkpt lat="45.54786" lon="6.68314">
        <ele>1162.27</ele>
        <time>2015-08-03T12:58:17Z</time>
      </trkpt>
      <trkpt lat="45.54797" lon="6.68308">
        <ele>1159.12</ele>
        <time>2015-08-03T12:58:20Z</time>
      </trkpt>
      <trkpt lat="45.54802" lon="6.68307">
        <ele>1158.34</ele>
        <time>2015-08-03T12:58:21Z</time>
      </trkpt>
      <trkpt lat="45.54807" lon="6.68305">
        <ele>1157.65</ele>
        <time>2015-08-03T12:58:22Z</time>
      </trkpt>
      <trkpt lat="45.54831" lon="6.68298">
        <ele>1154.26</ele>
        <time>2015-08-03T12:58:26Z</time>
      </trkpt>
      <trkpt lat="45.54842" lon="6.68297">
        <ele>1152.15</ele>
        <time>2015-08-03T12:58:28Z</time>
      </trkpt>
      <trkpt lat="45.54848" lon="6.68299">
        <ele>1151.05</ele>
        <time>2015-08-03T12:58:29Z</time>
      </trkpt>
      <trkpt lat="45.54854" lon="6.683">
        <ele>1149.94</ele>
        <time>2015-08-03T12:58:30Z</time>
      </trkpt>
      <trkpt lat="45.54865" lon="6.68302">
        <ele>1147.48</ele>
        <time>2015-08-03T12:58:32Z</time>
      </trkpt>
      <trkpt lat="45.5487" lon="6.68302">
        <ele>1146.19</ele>
        <time>2015-08-03T12:58:33Z</time>
      </trkpt>
      <trkpt lat="45.54884" lon="6.68298">
        <ele>1143.57</ele>
        <time>2015-08-03T12:58:35Z</time>
      </trkpt>
      <trkpt lat="45.54898" lon="6.68293">
        <ele>1139.9</ele>
        <time>2015-08-03T12:58:37Z</time>
      </trkpt>
      <trkpt lat="45.54905" lon="6.68291">
        <ele>1138.77</ele>
        <time>2015-08-03T12:58:38Z</time>
      </trkpt>
      <trkpt lat="45.54919" lon="6.68289">
        <ele>1136.58</ele>
        <time>2015-08-03T12:58:40Z</time>
      </trkpt>
      <trkpt lat="45.54926" lon="6.68286">
        <ele>1135.46</ele>
        <time>2015-08-03T12:58:41Z</time>
      </trkpt>
      <trkpt lat="45.54949" lon="6.6828">
        <ele>1132.14</ele>
        <time>2015-08-03T12:58:44Z</time>
      </trkpt>
      <trkpt lat="45.54972" lon="6.68276">
        <ele>1128.91</ele>
        <time>2015-08-03T12:58:47Z</time>
      </trkpt>
      <trkpt lat="45.54993" lon="6.68276">
        <ele>1125.56</ele>
        <time>2015-08-03T12:58:50Z</time>
      </trkpt>
      <trkpt lat="45.55007" lon="6.6828">
        <ele>1122.18</ele>
        <time>2015-08-03T12:58:53Z</time>
      </trkpt>
      <trkpt lat="45.55017" lon="6.68286">
        <ele>1118.85</ele>
        <time>2015-08-03T12:58:56Z</time>
      </trkpt>
      <trkpt lat="45.55024" lon="6.68293">
        <ele>1116.29</ele>
        <time>2015-08-03T12:58:59Z</time>
      </trkpt>
      <trkpt lat="45.5503" lon="6.68303">
        <ele>1113.58</ele>
        <time>2015-08-03T12:59:03Z</time>
      </trkpt>
      <trkpt lat="45.55042" lon="6.68315">
        <ele>1110.52</ele>
        <time>2015-08-03T12:59:08Z</time>
      </trkpt>
      <trkpt lat="45.55054" lon="6.68329">
        <ele>1107.48</ele>
        <time>2015-08-03T12:59:16Z</time>
      </trkpt>
      <trkpt lat="45.55072" lon="6.68356">
        <ele>1105.58</ele>
        <time>2015-08-03T12:59:22Z</time>
      </trkpt>
      <trkpt lat="45.55076" lon="6.68362">
        <ele>1105.11</ele>
        <time>2015-08-03T12:59:23Z</time>
      </trkpt>
      <trkpt lat="45.5508" lon="6.68368">
        <ele>1104.53</ele>
        <time>2015-08-03T12:59:24Z</time>
      </trkpt>
      <trkpt lat="45.55085" lon="6.6837">
        <ele>1103.84</ele>
        <time>2015-08-03T12:59:25Z</time>
      </trkpt>
      <trkpt lat="45.55091" lon="6.68372">
        <ele>1102.39</ele>
        <time>2015-08-03T12:59:26Z</time>
      </trkpt>
      <trkpt lat="45.55097" lon="6.68373">
        <ele>1102.39</ele>
        <time>2015-08-03T12:59:27Z</time>
      </trkpt>
      <trkpt lat="45.55102" lon="6.68375">
        <ele>1100.9</ele>
        <time>2015-08-03T12:59:28Z</time>
      </trkpt>
      <trkpt lat="45.55108" lon="6.68379">
        <ele>1100.16</ele>
        <time>2015-08-03T12:59:29Z</time>
      </trkpt>
      <trkpt lat="45.55114" lon="6.68385">
        <ele>1099.4</ele>
        <time>2015-08-03T12:59:30Z</time>
      </trkpt>
      <trkpt lat="45.5512" lon="6.68391">
        <ele>1098.58</ele>
        <time>2015-08-03T12:59:31Z</time>
      </trkpt>
      <trkpt lat="45.55124" lon="6.68395">
        <ele>1097.73</ele>
        <time>2015-08-03T12:59:32Z</time>
      </trkpt>
      <trkpt lat="45.55127" lon="6.68398">
        <ele>1096.91</ele>
        <time>2015-08-03T12:59:33Z</time>
      </trkpt>
      <trkpt lat="45.55134" lon="6.68409">
        <ele>1093.78</ele>
        <time>2015-08-03T12:59:37Z</time>
      </trkpt>
      <trkpt lat="45.55143" lon="6.68422">
        <ele>1092.3</ele>
        <time>2015-08-03T12:59:40Z</time>
      </trkpt>
      <trkpt lat="45.55155" lon="6.68435">
        <ele>1089.2</ele>
        <time>2015-08-03T12:59:45Z</time>
      </trkpt>
      <trkpt lat="45.55159" lon="6.68439">
        <ele>1086.2</ele>
        <time>2015-08-03T12:59:50Z</time>
      </trkpt>
      <trkpt lat="45.55172" lon="6.68444">
        <ele>1085.48</ele>
        <time>2015-08-03T13:00:10Z</time>
      </trkpt>
      <trkpt lat="45.55183" lon="6.68451">
        <ele>1085.07</ele>
        <time>2015-08-03T13:00:31Z</time>
      </trkpt>
      <trkpt lat="45.55185" lon="6.68454">
        <ele>1085.01</ele>
        <time>2015-08-03T13:00:33Z</time>
      </trkpt>
      <trkpt lat="45.55191" lon="6.68457">
        <ele>1084.85</ele>
        <time>2015-08-03T13:00:35Z</time>
      </trkpt>
      <trkpt lat="45.55209" lon="6.68466">
        <ele>1083.64</ele>
        <time>2015-08-03T13:00:40Z</time>
      </trkpt>
      <trkpt lat="45.55211" lon="6.68463">
        <ele>1083.15</ele>
        <time>2015-08-03T13:00:41Z</time>
      </trkpt>
      <trkpt lat="45.55212" lon="6.68459">
        <ele>1082.57</ele>
        <time>2015-08-03T13:00:42Z</time>
      </trkpt>
      <trkpt lat="45.55216" lon="6.68441">
        <ele>1080.94</ele>
        <time>2015-08-03T13:00:45Z</time>
      </trkpt>
      <trkpt lat="45.55217" lon="6.68435">
        <ele>1080.46</ele>
        <time>2015-08-03T13:00:46Z</time>
      </trkpt>
      <trkpt lat="45.55218" lon="6.68429">
        <ele>1079.98</ele>
        <time>2015-08-03T13:00:47Z</time>
      </trkpt>
      <trkpt lat="45.5522" lon="6.68423">
        <ele>1079.4</ele>
        <time>2015-08-03T13:00:48Z</time>
      </trkpt>
      <trkpt lat="45.55223" lon="6.68417">
        <ele>1078.75</ele>
        <time>2015-08-03T13:00:49Z</time>
      </trkpt>
      <trkpt lat="45.55226" lon="6.6841">
        <ele>1077.52</ele>
        <time>2015-08-03T13:00:50Z</time>
      </trkpt>
      <trkpt lat="45.5523" lon="6.68404">
        <ele>1077.52</ele>
        <time>2015-08-03T13:00:51Z</time>
      </trkpt>
      <trkpt lat="45.55234" lon="6.68399">
        <ele>1076.15</ele>
        <time>2015-08-03T13:00:52Z</time>
      </trkpt>
      <trkpt lat="45.55238" lon="6.68394">
        <ele>1075.33</ele>
        <time>2015-08-03T13:00:53Z</time>
      </trkpt>
      <trkpt lat="45.55243" lon="6.68382">
        <ele>1072.22</ele>
        <time>2015-08-03T13:00:57Z</time>
      </trkpt>
      <trkpt lat="45.55245" lon="6.68377">
        <ele>1071.37</ele>
        <time>2015-08-03T13:00:59Z</time>
      </trkpt>
      <trkpt lat="45.55246" lon="6.68375">
        <ele>1071.08</ele>
        <time>2015-08-03T13:01:00Z</time>
      </trkpt>
      <trkpt lat="45.5526" lon="6.68346">
        <ele>1069.75</ele>
        <time>2015-08-03T13:01:08Z</time>
      </trkpt>
      <trkpt lat="45.55272" lon="6.68329">
        <ele>1065.62</ele>
        <time>2015-08-03T13:01:14Z</time>
      </trkpt>
      <trkpt lat="45.55272" lon="6.68326">
        <ele>1065.62</ele>
        <time>2015-08-03T13:01:15Z</time>
      </trkpt>
      <trkpt lat="45.55271" lon="6.68322">
        <ele>1063.82</ele>
        <time>2015-08-03T13:01:16Z</time>
      </trkpt>
      <trkpt lat="45.55271" lon="6.68315">
        <ele>1062.15</ele>
        <time>2015-08-03T13:01:18Z</time>
      </trkpt>
      <trkpt lat="45.55274" lon="6.68312">
        <ele>1061.41</ele>
        <time>2015-08-03T13:01:19Z</time>
      </trkpt>
      <trkpt lat="45.55277" lon="6.68308">
        <ele>1060.73</ele>
        <time>2015-08-03T13:01:20Z</time>
      </trkpt>
      <trkpt lat="45.5528" lon="6.68302">
        <ele>1060.11</ele>
        <time>2015-08-03T13:01:21Z</time>
      </trkpt>
      <trkpt lat="45.55284" lon="6.68296">
        <ele>1059.55</ele>
        <time>2015-08-03T13:01:22Z</time>
      </trkpt>
      <trkpt lat="45.55293" lon="6.68288">
        <ele>1058.02</ele>
        <time>2015-08-03T13:01:25Z</time>
      </trkpt>
      <trkpt lat="45.55295" lon="6.68317">
        <ele>1055.31</ele>
        <time>2015-08-03T13:01:30Z</time>
      </trkpt>
      <trkpt lat="45.55293" lon="6.68326">
        <ele>1054.68</ele>
        <time>2015-08-03T13:01:31Z</time>
      </trkpt>
      <trkpt lat="45.55283" lon="6.68382">
        <ele>1050.88</ele>
        <time>2015-08-03T13:01:37Z</time>
      </trkpt>
      <trkpt lat="45.55281" lon="6.68397">
        <ele>1049.48</ele>
        <time>2015-08-03T13:01:39Z</time>
      </trkpt>
      <trkpt lat="45.55282" lon="6.68403">
        <ele>1048.22</ele>
        <time>2015-08-03T13:01:40Z</time>
      </trkpt>
      <trkpt lat="45.55281" lon="6.68415">
        <ele>1047</ele>
        <time>2015-08-03T13:01:42Z</time>
      </trkpt>
      <trkpt lat="45.55279" lon="6.68421">
        <ele>1046.39</ele>
        <time>2015-08-03T13:01:43Z</time>
      </trkpt>
      <trkpt lat="45.55273" lon="6.68439">
        <ele>1044.29</ele>
        <time>2015-08-03T13:01:46Z</time>
      </trkpt>
      <trkpt lat="45.55273" lon="6.68445">
        <ele>1043.57</ele>
        <time>2015-08-03T13:01:47Z</time>
      </trkpt>
      <trkpt lat="45.55273" lon="6.68452">
        <ele>1042.9</ele>
        <time>2015-08-03T13:01:48Z</time>
      </trkpt>
      <trkpt lat="45.55275" lon="6.68457">
        <ele>1042.26</ele>
        <time>2015-08-03T13:01:49Z</time>
      </trkpt>
      <trkpt lat="45.55277" lon="6.68463">
        <ele>1041.65</ele>
        <time>2015-08-03T13:01:50Z</time>
      </trkpt>
      <trkpt lat="45.55277" lon="6.68468">
        <ele>1041.01</ele>
        <time>2015-08-03T13:01:51Z</time>
      </trkpt>
      <trkpt lat="45.55275" lon="6.68475">
        <ele>1040.39</ele>
        <time>2015-08-03T13:01:52Z</time>
      </trkpt>
      <trkpt lat="45.55272" lon="6.68483">
        <ele>1039.81</ele>
        <time>2015-08-03T13:01:53Z</time>
      </trkpt>
      <trkpt lat="45.5527" lon="6.68492">
        <ele>1039.26</ele>
        <time>2015-08-03T13:01:54Z</time>
      </trkpt>
      <trkpt lat="45.55262" lon="6.68515">
        <ele>1037.48</ele>
        <time>2015-08-03T13:01:57Z</time>
      </trkpt>
      <trkpt lat="45.55264" lon="6.68522">
        <ele>1036.8</ele>
        <time>2015-08-03T13:01:58Z</time>
      </trkpt>
      <trkpt lat="45.55267" lon="6.68529">
        <ele>1036.07</ele>
        <time>2015-08-03T13:01:59Z</time>
      </trkpt>
      <trkpt lat="45.5527" lon="6.68535">
        <ele>1035.32</ele>
        <time>2015-08-03T13:02:00Z</time>
      </trkpt>
      <trkpt lat="45.55273" lon="6.68539">
        <ele>1034.68</ele>
        <time>2015-08-03T13:02:01Z</time>
      </trkpt>
      <trkpt lat="45.55276" lon="6.68543">
        <ele>1034.12</ele>
        <time>2015-08-03T13:02:02Z</time>
      </trkpt>
      <trkpt lat="45.55279" lon="6.68546">
        <ele>1033.63</ele>
        <time>2015-08-03T13:02:03Z</time>
      </trkpt>
      <trkpt lat="45.55282" lon="6.68551">
        <ele>1033.16</ele>
        <time>2015-08-03T13:02:04Z</time>
      </trkpt>
      <trkpt lat="45.55283" lon="6.68555">
        <ele>1032.62</ele>
        <time>2015-08-03T13:02:05Z</time>
      </trkpt>
      <trkpt lat="45.55283" lon="6.6856">
        <ele>1031.93</ele>
        <time>2015-08-03T13:02:06Z</time>
      </trkpt>
      <trkpt lat="45.55282" lon="6.68566">
        <ele>1030.11</ele>
        <time>2015-08-03T13:02:07Z</time>
      </trkpt>
      <trkpt lat="45.55281" lon="6.68572">
        <ele>1029.14</ele>
        <time>2015-08-03T13:02:08Z</time>
      </trkpt>
      <trkpt lat="45.5528" lon="6.68577">
        <ele>1028.23</ele>
        <time>2015-08-03T13:02:09Z</time>
      </trkpt>
      <trkpt lat="45.5528" lon="6.68585">
        <ele>1026.6</ele>
        <time>2015-08-03T13:02:11Z</time>
      </trkpt>
      <trkpt lat="45.55281" lon="6.68589">
        <ele>1025.86</ele>
        <time>2015-08-03T13:02:12Z</time>
      </trkpt>
      <trkpt lat="45.55283" lon="6.68593">
        <ele>1025.14</ele>
        <time>2015-08-03T13:02:13Z</time>
      </trkpt>
      <trkpt lat="45.55281" lon="6.68597">
        <ele>1024.37</ele>
        <time>2015-08-03T13:02:14Z</time>
      </trkpt>
      <trkpt lat="45.5528" lon="6.68598">
        <ele>1023.57</ele>
        <time>2015-08-03T13:02:15Z</time>
      </trkpt>
      <trkpt lat="45.55274" lon="6.68602">
        <ele>1020.43</ele>
        <time>2015-08-03T13:02:21Z</time>
      </trkpt>
      <trkpt lat="45.55276" lon="6.68608">
        <ele>1020.16</ele>
        <time>2015-08-03T13:02:24Z</time>
      </trkpt>
      <trkpt lat="45.55275" lon="6.6861">
        <ele>1020.18</ele>
        <time>2015-08-03T13:02:25Z</time>
      </trkpt>
      <trkpt lat="45.55277" lon="6.68626">
        <ele>1020.16</ele>
        <time>2015-08-03T13:02:28Z</time>
      </trkpt>
      <trkpt lat="45.55283" lon="6.68652">
        <ele>1019.62</ele>
        <time>2015-08-03T13:02:31Z</time>
      </trkpt>
      <trkpt lat="45.55283" lon="6.6866">
        <ele>1019.23</ele>
        <time>2015-08-03T13:02:32Z</time>
      </trkpt>
      <trkpt lat="45.55281" lon="6.68667">
        <ele>1018.83</ele>
        <time>2015-08-03T13:02:33Z</time>
      </trkpt>
      <trkpt lat="45.55278" lon="6.68672">
        <ele>1018.45</ele>
        <time>2015-08-03T13:02:34Z</time>
      </trkpt>
      <trkpt lat="45.55277" lon="6.68677">
        <ele>1018.14</ele>
        <time>2015-08-03T13:02:35Z</time>
      </trkpt>
      <trkpt lat="45.55277" lon="6.68681">
        <ele>1017.88</ele>
        <time>2015-08-03T13:02:36Z</time>
      </trkpt>
      <trkpt lat="45.55276" lon="6.68685">
        <ele>1017.68</ele>
        <time>2015-08-03T13:02:37Z</time>
      </trkpt>
      <trkpt lat="45.55276" lon="6.68689">
        <ele>1017.53</ele>
        <time>2015-08-03T13:02:38Z</time>
      </trkpt>
      <trkpt lat="45.55275" lon="6.68695">
        <ele>1017.4</ele>
        <time>2015-08-03T13:02:39Z</time>
      </trkpt>
      <trkpt lat="45.55277" lon="6.68718">
        <ele>1016.55</ele>
        <time>2015-08-03T13:02:43Z</time>
      </trkpt>
      <trkpt lat="45.5528" lon="6.68732">
        <ele>1015.88</ele>
        <time>2015-08-03T13:02:45Z</time>
      </trkpt>
      <trkpt lat="45.55284" lon="6.68758">
        <ele>1013.06</ele>
        <time>2015-08-03T13:02:49Z</time>
      </trkpt>
      <trkpt lat="45.55287" lon="6.68765">
        <ele>1012.33</ele>
        <time>2015-08-03T13:02:50Z</time>
      </trkpt>
      <trkpt lat="45.55292" lon="6.68777">
        <ele>1010.91</ele>
        <time>2015-08-03T13:02:52Z</time>
      </trkpt>
      <trkpt lat="45.55296" lon="6.68781">
        <ele>1010.2</ele>
        <time>2015-08-03T13:02:53Z</time>
      </trkpt>
      <trkpt lat="45.553" lon="6.68785">
        <ele>1009.58</ele>
        <time>2015-08-03T13:02:54Z</time>
      </trkpt>
      <trkpt lat="45.55305" lon="6.6879">
        <ele>1009.02</ele>
        <time>2015-08-03T13:02:55Z</time>
      </trkpt>
      <trkpt lat="45.5531" lon="6.68793">
        <ele>1007.94</ele>
        <time>2015-08-03T13:02:56Z</time>
      </trkpt>
      <trkpt lat="45.55316" lon="6.68798">
        <ele>1007.44</ele>
        <time>2015-08-03T13:02:57Z</time>
      </trkpt>
      <trkpt lat="45.55321" lon="6.68805">
        <ele>1006.92</ele>
        <time>2015-08-03T13:02:58Z</time>
      </trkpt>
      <trkpt lat="45.55326" lon="6.68812">
        <ele>1006.33</ele>
        <time>2015-08-03T13:02:59Z</time>
      </trkpt>
      <trkpt lat="45.55329" lon="6.68822">
        <ele>1005.68</ele>
        <time>2015-08-03T13:03:00Z</time>
      </trkpt>
      <trkpt lat="45.55333" lon="6.68832">
        <ele>1004.96</ele>
        <time>2015-08-03T13:03:01Z</time>
      </trkpt>
      <trkpt lat="45.55344" lon="6.68864">
        <ele>1002.56</ele>
        <time>2015-08-03T13:03:04Z</time>
      </trkpt>
      <trkpt lat="45.55356" lon="6.68901">
        <ele>999.02</ele>
        <time>2015-08-03T13:03:08Z</time>
      </trkpt>
      <trkpt lat="45.5536" lon="6.68918">
        <ele>997.12</ele>
        <time>2015-08-03T13:03:10Z</time>
      </trkpt>
      <trkpt lat="45.55359" lon="6.68927">
        <ele>996.14</ele>
        <time>2015-08-03T13:03:11Z</time>
      </trkpt>
      <trkpt lat="45.5536" lon="6.68932">
        <ele>995.04</ele>
        <time>2015-08-03T13:03:12Z</time>
      </trkpt>
      <trkpt lat="45.55361" lon="6.68933">
        <ele>993.86</ele>
        <time>2015-08-03T13:03:13Z</time>
      </trkpt>
      <trkpt lat="45.55362" lon="6.68929">
        <ele>991.75</ele>
        <time>2015-08-03T13:03:15Z</time>
      </trkpt>
      <trkpt lat="45.55369" lon="6.68919">
        <ele>989.32</ele>
        <time>2015-08-03T13:03:18Z</time>
      </trkpt>
      <trkpt lat="45.5537" lon="6.68906">
        <ele>986.57</ele>
        <time>2015-08-03T13:03:21Z</time>
      </trkpt>
      <trkpt lat="45.55369" lon="6.689">
        <ele>985.93</ele>
        <time>2015-08-03T13:03:22Z</time>
      </trkpt>
      <trkpt lat="45.5537" lon="6.68894">
        <ele>985.34</ele>
        <time>2015-08-03T13:03:23Z</time>
      </trkpt>
      <trkpt lat="45.55371" lon="6.68884">
        <ele>984.73</ele>
        <time>2015-08-03T13:03:24Z</time>
      </trkpt>
      <trkpt lat="45.55372" lon="6.68865">
        <ele>982.97</ele>
        <time>2015-08-03T13:03:26Z</time>
      </trkpt>
      <trkpt lat="45.55372" lon="6.68856">
        <ele>982.04</ele>
        <time>2015-08-03T13:03:27Z</time>
      </trkpt>
      <trkpt lat="45.55372" lon="6.68824">
        <ele>978.14</ele>
        <time>2015-08-03T13:03:31Z</time>
      </trkpt>
      <trkpt lat="45.55372" lon="6.68816">
        <ele>977.1</ele>
        <time>2015-08-03T13:03:32Z</time>
      </trkpt>
      <trkpt lat="45.55372" lon="6.68807">
        <ele>976.1</ele>
        <time>2015-08-03T13:03:33Z</time>
      </trkpt>
      <trkpt lat="45.55373" lon="6.6879">
        <ele>974.16</ele>
        <time>2015-08-03T13:03:35Z</time>
      </trkpt>
      <trkpt lat="45.55376" lon="6.68781">
        <ele>973.18</ele>
        <time>2015-08-03T13:03:36Z</time>
      </trkpt>
      <trkpt lat="45.55378" lon="6.68773">
        <ele>972.16</ele>
        <time>2015-08-03T13:03:37Z</time>
      </trkpt>
      <trkpt lat="45.55381" lon="6.68765">
        <ele>971.17</ele>
        <time>2015-08-03T13:03:38Z</time>
      </trkpt>
      <trkpt lat="45.55384" lon="6.68758">
        <ele>970.22</ele>
        <time>2015-08-03T13:03:39Z</time>
      </trkpt>
      <trkpt lat="45.55384" lon="6.68752">
        <ele>969.23</ele>
        <time>2015-08-03T13:03:40Z</time>
      </trkpt>
      <trkpt lat="45.55384" lon="6.68748">
        <ele>968.22</ele>
        <time>2015-08-03T13:03:41Z</time>
      </trkpt>
      <trkpt lat="45.55384" lon="6.68746">
        <ele>967.23</ele>
        <time>2015-08-03T13:03:42Z</time>
      </trkpt>
      <trkpt lat="45.55388" lon="6.68749">
        <ele>966.27</ele>
        <time>2015-08-03T13:03:43Z</time>
      </trkpt>
      <trkpt lat="45.5539" lon="6.68751">
        <ele>964.49</ele>
        <time>2015-08-03T13:03:44Z</time>
      </trkpt>
      <trkpt lat="45.55394" lon="6.6876">
        <ele>962.84</ele>
        <time>2015-08-03T13:03:46Z</time>
      </trkpt>
      <trkpt lat="45.55395" lon="6.68765">
        <ele>962.11</ele>
        <time>2015-08-03T13:03:47Z</time>
      </trkpt>
      <trkpt lat="45.55398" lon="6.6876">
        <ele>960.05</ele>
        <time>2015-08-03T13:03:50Z</time>
      </trkpt>
      <trkpt lat="45.55399" lon="6.68754">
        <ele>959.32</ele>
        <time>2015-08-03T13:03:51Z</time>
      </trkpt>
      <trkpt lat="45.55399" lon="6.68749">
        <ele>958.63</ele>
        <time>2015-08-03T13:03:52Z</time>
      </trkpt>
      <trkpt lat="45.55398" lon="6.68743">
        <ele>958.02</ele>
        <time>2015-08-03T13:03:53Z</time>
      </trkpt>
      <trkpt lat="45.55396" lon="6.68738">
        <ele>957.51</ele>
        <time>2015-08-03T13:03:54Z</time>
      </trkpt>
      <trkpt lat="45.55393" lon="6.68732">
        <ele>957.06</ele>
        <time>2015-08-03T13:03:55Z</time>
      </trkpt>
      <trkpt lat="45.55392" lon="6.68725">
        <ele>956.62</ele>
        <time>2015-08-03T13:03:56Z</time>
      </trkpt>
      <trkpt lat="45.55393" lon="6.68717">
        <ele>956.16</ele>
        <time>2015-08-03T13:03:57Z</time>
      </trkpt>
      <trkpt lat="45.55396" lon="6.68709">
        <ele>955.64</ele>
        <time>2015-08-03T13:03:58Z</time>
      </trkpt>
      <trkpt lat="45.55398" lon="6.68701">
        <ele>955.09</ele>
        <time>2015-08-03T13:03:59Z</time>
      </trkpt>
      <trkpt lat="45.55401" lon="6.68693">
        <ele>954.46</ele>
        <time>2015-08-03T13:04:00Z</time>
      </trkpt>
      <trkpt lat="45.55406" lon="6.68685">
        <ele>953.7</ele>
        <time>2015-08-03T13:04:01Z</time>
      </trkpt>
      <trkpt lat="45.5541" lon="6.68679">
        <ele>952.9</ele>
        <time>2015-08-03T13:04:02Z</time>
      </trkpt>
      <trkpt lat="45.55413" lon="6.68675">
        <ele>952.02</ele>
        <time>2015-08-03T13:04:03Z</time>
      </trkpt>
      <trkpt lat="45.55417" lon="6.68676">
        <ele>949.85</ele>
        <time>2015-08-03T13:04:05Z</time>
      </trkpt>
      <trkpt lat="45.55417" lon="6.6868">
        <ele>948.75</ele>
        <time>2015-08-03T13:04:06Z</time>
      </trkpt>
      <trkpt lat="45.55416" lon="6.68685">
        <ele>947.74</ele>
        <time>2015-08-03T13:04:07Z</time>
      </trkpt>
      <trkpt lat="45.55417" lon="6.68687">
        <ele>946.09</ele>
        <time>2015-08-03T13:04:08Z</time>
      </trkpt>
      <trkpt lat="45.5542" lon="6.68685">
        <ele>946.09</ele>
        <time>2015-08-03T13:04:09Z</time>
      </trkpt>
      <trkpt lat="45.55431" lon="6.68676">
        <ele>943.19</ele>
        <time>2015-08-03T13:04:12Z</time>
      </trkpt>
      <trkpt lat="45.55434" lon="6.68675">
        <ele>942.4</ele>
        <time>2015-08-03T13:04:13Z</time>
      </trkpt>
      <trkpt lat="45.55436" lon="6.68677">
        <ele>941.59</ele>
        <time>2015-08-03T13:04:14Z</time>
      </trkpt>
      <trkpt lat="45.55438" lon="6.68697">
        <ele>938.23</ele>
        <time>2015-08-03T13:04:19Z</time>
      </trkpt>
      <trkpt lat="45.5544" lon="6.68702">
        <ele>937.76</ele>
        <time>2015-08-03T13:04:20Z</time>
      </trkpt>
      <trkpt lat="45.55439" lon="6.68708">
        <ele>937.24</ele>
        <time>2015-08-03T13:04:21Z</time>
      </trkpt>
      <trkpt lat="45.5544" lon="6.68718">
        <ele>936.68</ele>
        <time>2015-08-03T13:04:22Z</time>
      </trkpt>
      <trkpt lat="45.55443" lon="6.68727">
        <ele>936.12</ele>
        <time>2015-08-03T13:04:23Z</time>
      </trkpt>
      <trkpt lat="45.55445" lon="6.68734">
        <ele>935.56</ele>
        <time>2015-08-03T13:04:24Z</time>
      </trkpt>
      <trkpt lat="45.55444" lon="6.68739">
        <ele>934.97</ele>
        <time>2015-08-03T13:04:25Z</time>
      </trkpt>
      <trkpt lat="45.55446" lon="6.68742">
        <ele>934.31</ele>
        <time>2015-08-03T13:04:26Z</time>
      </trkpt>
      <trkpt lat="45.55445" lon="6.68738">
        <ele>932.83</ele>
        <time>2015-08-03T13:04:28Z</time>
      </trkpt>
      <trkpt lat="45.55444" lon="6.68731">
        <ele>932.09</ele>
        <time>2015-08-03T13:04:29Z</time>
      </trkpt>
      <trkpt lat="45.55444" lon="6.68723">
        <ele>931.34</ele>
        <time>2015-08-03T13:04:30Z</time>
      </trkpt>
      <trkpt lat="45.55445" lon="6.68712">
        <ele>930.59</ele>
        <time>2015-08-03T13:04:31Z</time>
      </trkpt>
      <trkpt lat="45.55449" lon="6.68685">
        <ele>928.67</ele>
        <time>2015-08-03T13:04:34Z</time>
      </trkpt>
      <trkpt lat="45.55457" lon="6.68662">
        <ele>926.22</ele>
        <time>2015-08-03T13:04:37Z</time>
      </trkpt>
      <trkpt lat="45.5546" lon="6.68652">
        <ele>924.29</ele>
        <time>2015-08-03T13:04:38Z</time>
      </trkpt>
      <trkpt lat="45.55465" lon="6.68643">
        <ele>923.41</ele>
        <time>2015-08-03T13:04:39Z</time>
      </trkpt>
      <trkpt lat="45.55471" lon="6.68634">
        <ele>922.46</ele>
        <time>2015-08-03T13:04:40Z</time>
      </trkpt>
      <trkpt lat="45.55477" lon="6.68623">
        <ele>921.48</ele>
        <time>2015-08-03T13:04:41Z</time>
      </trkpt>
      <trkpt lat="45.55486" lon="6.68615">
        <ele>920.52</ele>
        <time>2015-08-03T13:04:42Z</time>
      </trkpt>
      <trkpt lat="45.55511" lon="6.6859">
        <ele>917.44</ele>
        <time>2015-08-03T13:04:45Z</time>
      </trkpt>
      <trkpt lat="45.55538" lon="6.68572">
        <ele>914.04</ele>
        <time>2015-08-03T13:04:48Z</time>
      </trkpt>
      <trkpt lat="45.55562" lon="6.68555">
        <ele>910.03</ele>
        <time>2015-08-03T13:04:51Z</time>
      </trkpt>
      <trkpt lat="45.55568" lon="6.68547">
        <ele>908.64</ele>
        <time>2015-08-03T13:04:52Z</time>
      </trkpt>
      <trkpt lat="45.55572" lon="6.68539">
        <ele>907.25</ele>
        <time>2015-08-03T13:04:53Z</time>
      </trkpt>
      <trkpt lat="45.55576" lon="6.68532">
        <ele>905.88</ele>
        <time>2015-08-03T13:04:54Z</time>
      </trkpt>
      <trkpt lat="45.5558" lon="6.68523">
        <ele>904.56</ele>
        <time>2015-08-03T13:04:55Z</time>
      </trkpt>
      <trkpt lat="45.55584" lon="6.68512">
        <ele>903.26</ele>
        <time>2015-08-03T13:04:56Z</time>
      </trkpt>
      <trkpt lat="45.55588" lon="6.685">
        <ele>902.03</ele>
        <time>2015-08-03T13:04:57Z</time>
      </trkpt>
      <trkpt lat="45.55592" lon="6.68488">
        <ele>900.87</ele>
        <time>2015-08-03T13:04:58Z</time>
      </trkpt>
      <trkpt lat="45.55595" lon="6.68476">
        <ele>899.76</ele>
        <time>2015-08-03T13:04:59Z</time>
      </trkpt>
      <trkpt lat="45.55593" lon="6.68461">
        <ele>898.68</ele>
        <time>2015-08-03T13:05:00Z</time>
      </trkpt>
      <trkpt lat="45.55597" lon="6.6845">
        <ele>897.49</ele>
        <time>2015-08-03T13:05:01Z</time>
      </trkpt>
      <trkpt lat="45.55605" lon="6.68428">
        <ele>893.58</ele>
        <time>2015-08-03T13:05:03Z</time>
      </trkpt>
      <trkpt lat="45.55611" lon="6.68404">
        <ele>891.41</ele>
        <time>2015-08-03T13:05:05Z</time>
      </trkpt>
      <trkpt lat="45.55614" lon="6.68399">
        <ele>890.4</ele>
        <time>2015-08-03T13:05:06Z</time>
      </trkpt>
      <trkpt lat="45.55618" lon="6.68398">
        <ele>889.35</ele>
        <time>2015-08-03T13:05:07Z</time>
      </trkpt>
      <trkpt lat="45.5562" lon="6.68398">
        <ele>888.33</ele>
        <time>2015-08-03T13:05:08Z</time>
      </trkpt>
      <trkpt lat="45.5562" lon="6.68403">
        <ele>887.4</ele>
        <time>2015-08-03T13:05:09Z</time>
      </trkpt>
      <trkpt lat="45.5562" lon="6.68411">
        <ele>886.54</ele>
        <time>2015-08-03T13:05:10Z</time>
      </trkpt>
      <trkpt lat="45.55622" lon="6.68416">
        <ele>885.81</ele>
        <time>2015-08-03T13:05:11Z</time>
      </trkpt>
      <trkpt lat="45.55625" lon="6.6842">
        <ele>885.17</ele>
        <time>2015-08-03T13:05:12Z</time>
      </trkpt>
      <trkpt lat="45.5563" lon="6.68421">
        <ele>884.44</ele>
        <time>2015-08-03T13:05:13Z</time>
      </trkpt>
      <trkpt lat="45.55634" lon="6.6842">
        <ele>883.6</ele>
        <time>2015-08-03T13:05:14Z</time>
      </trkpt>
      <trkpt lat="45.55637" lon="6.68419">
        <ele>882.73</ele>
        <time>2015-08-03T13:05:15Z</time>
      </trkpt>
      <trkpt lat="45.55639" lon="6.68418">
        <ele>882.03</ele>
        <time>2015-08-03T13:05:16Z</time>
      </trkpt>
      <trkpt lat="45.5564" lon="6.68417">
        <ele>881.33</ele>
        <time>2015-08-03T13:05:17Z</time>
      </trkpt>
      <trkpt lat="45.55637" lon="6.68418">
        <ele>879.41</ele>
        <time>2015-08-03T13:05:21Z</time>
      </trkpt>
      <trkpt lat="45.55635" lon="6.68417">
        <ele>877.83</ele>
        <time>2015-08-03T13:05:38Z</time>
      </trkpt>
      <trkpt lat="45.55631" lon="6.68419">
        <ele>878.03</ele>
        <time>2015-08-03T13:05:53Z</time>
      </trkpt>
      <trkpt lat="45.55632" lon="6.68417">
        <ele>878.07</ele>
        <time>2015-08-03T13:06:07Z</time>
      </trkpt>
      <trkpt lat="45.55631" lon="6.68417">
        <ele>877.97</ele>
        <time>2015-08-03T13:06:35Z</time>
      </trkpt>
      <trkpt lat="45.55632" lon="6.68415">
        <ele>878.09</ele>
        <time>2015-08-03T13:07:04Z</time>
      </trkpt>
      <trkpt lat="45.55631" lon="6.68411">
        <ele>878.02</ele>
        <time>2015-08-03T13:07:40Z</time>
      </trkpt>
      <trkpt lat="45.55632" lon="6.68411">
        <ele>878.21</ele>
        <time>2015-08-03T13:08:00Z</time>
      </trkpt>
      <trkpt lat="45.55633" lon="6.68409">
        <ele>878.38</ele>
        <time>2015-08-03T13:08:28Z</time>
      </trkpt>
      <trkpt lat="45.55635" lon="6.6841">
        <ele>878.32</ele>
        <time>2015-08-03T13:08:47Z</time>
      </trkpt>
      <trkpt lat="45.55636" lon="6.68411">
        <ele>877.52</ele>
        <time>2015-08-03T13:09:08Z</time>
      </trkpt>
      <trkpt lat="45.55635" lon="6.68413">
        <ele>877.33</ele>
        <time>2015-08-03T13:09:49Z</time>
      </trkpt>
      <trkpt lat="45.55634" lon="6.68412">
        <ele>877.48</ele>
        <time>2015-08-03T13:10:26Z</time>
      </trkpt>
      <trkpt lat="45.55637" lon="6.68413">
        <ele>877.19</ele>
        <time>2015-08-03T13:11:00Z</time>
      </trkpt>
      <trkpt lat="45.55638" lon="6.68414">
        <ele>877.81</ele>
        <time>2015-08-03T13:11:28Z</time>
      </trkpt>
      <trkpt lat="45.55639" lon="6.68408">
        <ele>878.07</ele>
        <time>2015-08-03T13:11:33Z</time>
      </trkpt>
      <trkpt lat="45.55641" lon="6.68406">
        <ele>878.06</ele>
        <time>2015-08-03T13:11:34Z</time>
      </trkpt>
      <trkpt lat="45.5565" lon="6.68403">
        <ele>877.75</ele>
        <time>2015-08-03T13:11:36Z</time>
      </trkpt>
      <trkpt lat="45.55655" lon="6.68402">
        <ele>877.43</ele>
        <time>2015-08-03T13:11:37Z</time>
      </trkpt>
      <trkpt lat="45.55661" lon="6.68401">
        <ele>877.02</ele>
        <time>2015-08-03T13:11:38Z</time>
      </trkpt>
      <trkpt lat="45.55667" lon="6.684">
        <ele>876.57</ele>
        <time>2015-08-03T13:11:39Z</time>
      </trkpt>
      <trkpt lat="45.55673" lon="6.68401">
        <ele>876.07</ele>
        <time>2015-08-03T13:11:40Z</time>
      </trkpt>
      <trkpt lat="45.55679" lon="6.68403">
        <ele>875.55</ele>
        <time>2015-08-03T13:11:41Z</time>
      </trkpt>
      <trkpt lat="45.55685" lon="6.68405">
        <ele>875.01</ele>
        <time>2015-08-03T13:11:42Z</time>
      </trkpt>
      <trkpt lat="45.55691" lon="6.68407">
        <ele>874.5</ele>
        <time>2015-08-03T13:11:43Z</time>
      </trkpt>
      <trkpt lat="45.55702" lon="6.68412">
        <ele>873.7</ele>
        <time>2015-08-03T13:11:45Z</time>
      </trkpt>
      <trkpt lat="45.55725" lon="6.68429">
        <ele>872.41</ele>
        <time>2015-08-03T13:11:49Z</time>
      </trkpt>
      <trkpt lat="45.5573" lon="6.68435">
        <ele>871.72</ele>
        <time>2015-08-03T13:11:50Z</time>
      </trkpt>
      <trkpt lat="45.55734" lon="6.68443">
        <ele>871.72</ele>
        <time>2015-08-03T13:11:51Z</time>
      </trkpt>
      <trkpt lat="45.55763" lon="6.68529">
        <ele>869.95</ele>
        <time>2015-08-03T13:12:01Z</time>
      </trkpt>
      <trkpt lat="45.55774" lon="6.68556">
        <ele>869.49</ele>
        <time>2015-08-03T13:12:04Z</time>
      </trkpt>
      <trkpt lat="45.55778" lon="6.68564">
        <ele>869.23</ele>
        <time>2015-08-03T13:12:05Z</time>
      </trkpt>
      <trkpt lat="45.55827" lon="6.68647">
        <ele>866.13</ele>
        <time>2015-08-03T13:12:14Z</time>
      </trkpt>
      <trkpt lat="45.55844" lon="6.68675">
        <ele>864.9</ele>
        <time>2015-08-03T13:12:17Z</time>
      </trkpt>
      <trkpt lat="45.55905" lon="6.68762">
        <ele>861.81</ele>
        <time>2015-08-03T13:12:27Z</time>
      </trkpt>
      <trkpt lat="45.55975" lon="6.68865">
        <ele>858.87</ele>
        <time>2015-08-03T13:12:38Z</time>
      </trkpt>
      <trkpt lat="45.56006" lon="6.689">
        <ele>857.18</ele>
        <time>2015-08-03T13:12:42Z</time>
      </trkpt>
      <trkpt lat="45.56019" lon="6.68919">
        <ele>856.6</ele>
        <time>2015-08-03T13:12:44Z</time>
      </trkpt>
      <trkpt lat="45.56024" lon="6.6893">
        <ele>856.38</ele>
        <time>2015-08-03T13:12:45Z</time>
      </trkpt>
      <trkpt lat="45.56029" lon="6.68942">
        <ele>856.12</ele>
        <time>2015-08-03T13:12:46Z</time>
      </trkpt>
      <trkpt lat="45.56059" lon="6.69011">
        <ele>854.04</ele>
        <time>2015-08-03T13:12:52Z</time>
      </trkpt>
      <trkpt lat="45.56062" lon="6.69024">
        <ele>853.72</ele>
        <time>2015-08-03T13:12:53Z</time>
      </trkpt>
      <trkpt lat="45.56074" lon="6.69061">
        <ele>852.71</ele>
        <time>2015-08-03T13:12:56Z</time>
      </trkpt>
      <trkpt lat="45.56081" lon="6.69072">
        <ele>852.37</ele>
        <time>2015-08-03T13:12:57Z</time>
      </trkpt>
      <trkpt lat="45.56092" lon="6.69093">
        <ele>851.78</ele>
        <time>2015-08-03T13:12:59Z</time>
      </trkpt>
      <trkpt lat="45.56097" lon="6.69105">
        <ele>851.52</ele>
        <time>2015-08-03T13:13:00Z</time>
      </trkpt>
      <trkpt lat="45.56129" lon="6.69201">
        <ele>848.95</ele>
        <time>2015-08-03T13:13:08Z</time>
      </trkpt>
      <trkpt lat="45.56131" lon="6.69213">
        <ele>848.67</ele>
        <time>2015-08-03T13:13:09Z</time>
      </trkpt>
      <trkpt lat="45.56133" lon="6.69226">
        <ele>848.37</ele>
        <time>2015-08-03T13:13:10Z</time>
      </trkpt>
      <trkpt lat="45.56134" lon="6.69239">
        <ele>848.04</ele>
        <time>2015-08-03T13:13:11Z</time>
      </trkpt>
      <trkpt lat="45.56135" lon="6.69252">
        <ele>847.7</ele>
        <time>2015-08-03T13:13:12Z</time>
      </trkpt>
      <trkpt lat="45.56141" lon="6.69307">
        <ele>846.32</ele>
        <time>2015-08-03T13:13:16Z</time>
      </trkpt>
      <trkpt lat="45.56143" lon="6.6932">
        <ele>846.03</ele>
        <time>2015-08-03T13:13:17Z</time>
      </trkpt>
      <trkpt lat="45.56148" lon="6.69433">
        <ele>843.03</ele>
        <time>2015-08-03T13:13:25Z</time>
      </trkpt>
      <trkpt lat="45.56155" lon="6.69517">
        <ele>839.62</ele>
        <time>2015-08-03T13:13:31Z</time>
      </trkpt>
      <trkpt lat="45.56174" lon="6.69612">
        <ele>836.1</ele>
        <time>2015-08-03T13:13:38Z</time>
      </trkpt>
      <trkpt lat="45.56184" lon="6.69651">
        <ele>834.8</ele>
        <time>2015-08-03T13:13:41Z</time>
      </trkpt>
      <trkpt lat="45.56186" lon="6.69664">
        <ele>834.43</ele>
        <time>2015-08-03T13:13:42Z</time>
      </trkpt>
      <trkpt lat="45.56191" lon="6.69718">
        <ele>832.98</ele>
        <time>2015-08-03T13:13:46Z</time>
      </trkpt>
      <trkpt lat="45.56192" lon="6.69732">
        <ele>832.65</ele>
        <time>2015-08-03T13:13:47Z</time>
      </trkpt>
      <trkpt lat="45.562" lon="6.69798">
        <ele>831.26</ele>
        <time>2015-08-03T13:13:52Z</time>
      </trkpt>
      <trkpt lat="45.56203" lon="6.6981">
        <ele>830.97</ele>
        <time>2015-08-03T13:13:53Z</time>
      </trkpt>
      <trkpt lat="45.56207" lon="6.69823">
        <ele>830.69</ele>
        <time>2015-08-03T13:13:54Z</time>
      </trkpt>
      <trkpt lat="45.56247" lon="6.69937">
        <ele>828.68</ele>
        <time>2015-08-03T13:14:04Z</time>
      </trkpt>
      <trkpt lat="45.56248" lon="6.69949">
        <ele>828.5</ele>
        <time>2015-08-03T13:14:05Z</time>
      </trkpt>
      <trkpt lat="45.56249" lon="6.69961">
        <ele>828.33</ele>
        <time>2015-08-03T13:14:06Z</time>
      </trkpt>
      <trkpt lat="45.56249" lon="6.69974">
        <ele>828.16</ele>
        <time>2015-08-03T13:14:07Z</time>
      </trkpt>
      <trkpt lat="45.56249" lon="6.69986">
        <ele>827.98</ele>
        <time>2015-08-03T13:14:08Z</time>
      </trkpt>
      <trkpt lat="45.56249" lon="6.70024">
        <ele>827.28</ele>
        <time>2015-08-03T13:14:11Z</time>
      </trkpt>
      <trkpt lat="45.56251" lon="6.70037">
        <ele>827.04</ele>
        <time>2015-08-03T13:14:12Z</time>
      </trkpt>
      <trkpt lat="45.56255" lon="6.70049">
        <ele>826.81</ele>
        <time>2015-08-03T13:14:13Z</time>
      </trkpt>
      <trkpt lat="45.56263" lon="6.70086">
        <ele>826.15</ele>
        <time>2015-08-03T13:14:16Z</time>
      </trkpt>
      <trkpt lat="45.56264" lon="6.70099">
        <ele>825.88</ele>
        <time>2015-08-03T13:14:17Z</time>
      </trkpt>
      <trkpt lat="45.56269" lon="6.70191">
        <ele>822.85</ele>
        <time>2015-08-03T13:14:24Z</time>
      </trkpt>
      <trkpt lat="45.56277" lon="6.70229">
        <ele>822.14</ele>
        <time>2015-08-03T13:14:27Z</time>
      </trkpt>
      <trkpt lat="45.56305" lon="6.70312">
        <ele>820.1</ele>
        <time>2015-08-03T13:14:34Z</time>
      </trkpt>
      <trkpt lat="45.56311" lon="6.70322">
        <ele>819.79</ele>
        <time>2015-08-03T13:14:35Z</time>
      </trkpt>
      <trkpt lat="45.56361" lon="6.70416">
        <ele>817.04</ele>
        <time>2015-08-03T13:14:44Z</time>
      </trkpt>
      <trkpt lat="45.56383" lon="6.70513">
        <ele>814.68</ele>
        <time>2015-08-03T13:14:52Z</time>
      </trkpt>
      <trkpt lat="45.56388" lon="6.70524">
        <ele>814.42</ele>
        <time>2015-08-03T13:14:53Z</time>
      </trkpt>
      <trkpt lat="45.56392" lon="6.70535">
        <ele>814.18</ele>
        <time>2015-08-03T13:14:54Z</time>
      </trkpt>
      <trkpt lat="45.56432" lon="6.70601">
        <ele>812.57</ele>
        <time>2015-08-03T13:15:01Z</time>
      </trkpt>
      <trkpt lat="45.5644" lon="6.70608">
        <ele>812.33</ele>
        <time>2015-08-03T13:15:02Z</time>
      </trkpt>
      <trkpt lat="45.56448" lon="6.70614">
        <ele>812.12</ele>
        <time>2015-08-03T13:15:03Z</time>
      </trkpt>
      <trkpt lat="45.5648" lon="6.70634">
        <ele>811.36</ele>
        <time>2015-08-03T13:15:07Z</time>
      </trkpt>
      <trkpt lat="45.56488" lon="6.70641">
        <ele>811.2</ele>
        <time>2015-08-03T13:15:08Z</time>
      </trkpt>
      <trkpt lat="45.56495" lon="6.70648">
        <ele>811.05</ele>
        <time>2015-08-03T13:15:09Z</time>
      </trkpt>
      <trkpt lat="45.56502" lon="6.70657">
        <ele>810.72</ele>
        <time>2015-08-03T13:15:10Z</time>
      </trkpt>
      <trkpt lat="45.56507" lon="6.70667">
        <ele>810.72</ele>
        <time>2015-08-03T13:15:11Z</time>
      </trkpt>
      <trkpt lat="45.56512" lon="6.70678">
        <ele>810.12</ele>
        <time>2015-08-03T13:15:12Z</time>
      </trkpt>
      <trkpt lat="45.56515" lon="6.7069">
        <ele>809.8</ele>
        <time>2015-08-03T13:15:13Z</time>
      </trkpt>
      <trkpt lat="45.56518" lon="6.70703">
        <ele>809.52</ele>
        <time>2015-08-03T13:15:14Z</time>
      </trkpt>
      <trkpt lat="45.56521" lon="6.70715">
        <ele>809.24</ele>
        <time>2015-08-03T13:15:15Z</time>
      </trkpt>
      <trkpt lat="45.56522" lon="6.70727">
        <ele>808.95</ele>
        <time>2015-08-03T13:15:16Z</time>
      </trkpt>
      <trkpt lat="45.56521" lon="6.7074">
        <ele>808.65</ele>
        <time>2015-08-03T13:15:17Z</time>
      </trkpt>
      <trkpt lat="45.56514" lon="6.70789">
        <ele>807.59</ele>
        <time>2015-08-03T13:15:21Z</time>
      </trkpt>
      <trkpt lat="45.56513" lon="6.70801">
        <ele>807.42</ele>
        <time>2015-08-03T13:15:22Z</time>
      </trkpt>
      <trkpt lat="45.56513" lon="6.70813">
        <ele>807.27</ele>
        <time>2015-08-03T13:15:23Z</time>
      </trkpt>
      <trkpt lat="45.56524" lon="6.70913">
        <ele>805.75</ele>
        <time>2015-08-03T13:15:31Z</time>
      </trkpt>
      <trkpt lat="45.56532" lon="6.71056">
        <ele>803.61</ele>
        <time>2015-08-03T13:15:43Z</time>
      </trkpt>
      <trkpt lat="45.5653" lon="6.71181">
        <ele>801.84</ele>
        <time>2015-08-03T13:15:54Z</time>
      </trkpt>
      <trkpt lat="45.56532" lon="6.71193">
        <ele>801.63</ele>
        <time>2015-08-03T13:15:55Z</time>
      </trkpt>
      <trkpt lat="45.56535" lon="6.71203">
        <ele>801.41</ele>
        <time>2015-08-03T13:15:56Z</time>
      </trkpt>
      <trkpt lat="45.56539" lon="6.71214">
        <ele>801.12</ele>
        <time>2015-08-03T13:15:57Z</time>
      </trkpt>
      <trkpt lat="45.56544" lon="6.71223">
        <ele>800.82</ele>
        <time>2015-08-03T13:15:58Z</time>
      </trkpt>
      <trkpt lat="45.56549" lon="6.71233">
        <ele>800.31</ele>
        <time>2015-08-03T13:15:59Z</time>
      </trkpt>
      <trkpt lat="45.56554" lon="6.71242">
        <ele>800.07</ele>
        <time>2015-08-03T13:16:00Z</time>
      </trkpt>
      <trkpt lat="45.56568" lon="6.71271">
        <ele>799.5</ele>
        <time>2015-08-03T13:16:03Z</time>
      </trkpt>
      <trkpt lat="45.56584" lon="6.71314">
        <ele>798.61</ele>
        <time>2015-08-03T13:16:07Z</time>
      </trkpt>
      <trkpt lat="45.5659" lon="6.71323">
        <ele>798.36</ele>
        <time>2015-08-03T13:16:08Z</time>
      </trkpt>
      <trkpt lat="45.56596" lon="6.71331">
        <ele>798.12</ele>
        <time>2015-08-03T13:16:09Z</time>
      </trkpt>
      <trkpt lat="45.56614" lon="6.71349">
        <ele>797.48</ele>
        <time>2015-08-03T13:16:12Z</time>
      </trkpt>
      <trkpt lat="45.56618" lon="6.71358">
        <ele>797.38</ele>
        <time>2015-08-03T13:16:13Z</time>
      </trkpt>
      <trkpt lat="45.5662" lon="6.71367">
        <ele>797.29</ele>
        <time>2015-08-03T13:16:14Z</time>
      </trkpt>
      <trkpt lat="45.56622" lon="6.71377">
        <ele>797.23</ele>
        <time>2015-08-03T13:16:15Z</time>
      </trkpt>
      <trkpt lat="45.56623" lon="6.71388">
        <ele>797.13</ele>
        <time>2015-08-03T13:16:16Z</time>
      </trkpt>
      <trkpt lat="45.56625" lon="6.71399">
        <ele>797.03</ele>
        <time>2015-08-03T13:16:17Z</time>
      </trkpt>
      <trkpt lat="45.56628" lon="6.7141">
        <ele>796.93</ele>
        <time>2015-08-03T13:16:18Z</time>
      </trkpt>
      <trkpt lat="45.56631" lon="6.71421">
        <ele>796.72</ele>
        <time>2015-08-03T13:16:19Z</time>
      </trkpt>
      <trkpt lat="45.5666" lon="6.71508">
        <ele>793.99</ele>
        <time>2015-08-03T13:16:27Z</time>
      </trkpt>
      <trkpt lat="45.56665" lon="6.71525">
        <ele>793.58</ele>
        <time>2015-08-03T13:16:29Z</time>
      </trkpt>
      <trkpt lat="45.56668" lon="6.71532">
        <ele>793.49</ele>
        <time>2015-08-03T13:16:30Z</time>
      </trkpt>
      <trkpt lat="45.56671" lon="6.7154">
        <ele>793.48</ele>
        <time>2015-08-03T13:16:31Z</time>
      </trkpt>
      <trkpt lat="45.56673" lon="6.71547">
        <ele>793.52</ele>
        <time>2015-08-03T13:16:32Z</time>
      </trkpt>
      <trkpt lat="45.56675" lon="6.71555">
        <ele>793.58</ele>
        <time>2015-08-03T13:16:33Z</time>
      </trkpt>
      <trkpt lat="45.56677" lon="6.71563">
        <ele>793.63</ele>
        <time>2015-08-03T13:16:34Z</time>
      </trkpt>
      <trkpt lat="45.56679" lon="6.7157">
        <ele>793.68</ele>
        <time>2015-08-03T13:16:35Z</time>
      </trkpt>
      <trkpt lat="45.56683" lon="6.71585">
        <ele>793.82</ele>
        <time>2015-08-03T13:16:37Z</time>
      </trkpt>
      <trkpt lat="45.56685" lon="6.71595">
        <ele>793.87</ele>
        <time>2015-08-03T13:16:38Z</time>
      </trkpt>
      <trkpt lat="45.56686" lon="6.71605">
        <ele>793.87</ele>
        <time>2015-08-03T13:16:39Z</time>
      </trkpt>
      <trkpt lat="45.56688" lon="6.71627">
        <ele>793.58</ele>
        <time>2015-08-03T13:16:41Z</time>
      </trkpt>
      <trkpt lat="45.56691" lon="6.71638">
        <ele>793.24</ele>
        <time>2015-08-03T13:16:42Z</time>
      </trkpt>
      <trkpt lat="45.56696" lon="6.71648">
        <ele>792.78</ele>
        <time>2015-08-03T13:16:43Z</time>
      </trkpt>
      <trkpt lat="45.56702" lon="6.71656">
        <ele>792.23</ele>
        <time>2015-08-03T13:16:44Z</time>
      </trkpt>
      <trkpt lat="45.56708" lon="6.71664">
        <ele>791.68</ele>
        <time>2015-08-03T13:16:45Z</time>
      </trkpt>
      <trkpt lat="45.56725" lon="6.71689">
        <ele>790.12</ele>
        <time>2015-08-03T13:16:48Z</time>
      </trkpt>
      <trkpt lat="45.56748" lon="6.7173">
        <ele>789.62</ele>
        <time>2015-08-03T13:16:53Z</time>
      </trkpt>
      <trkpt lat="45.56772" lon="6.71762">
        <ele>789.84</ele>
        <time>2015-08-03T13:16:58Z</time>
      </trkpt>
      <trkpt lat="45.56798" lon="6.71825">
        <ele>790.46</ele>
        <time>2015-08-03T13:17:07Z</time>
      </trkpt>
      <trkpt lat="45.56802" lon="6.71848">
        <ele>790.98</ele>
        <time>2015-08-03T13:17:10Z</time>
      </trkpt>
      <trkpt lat="45.56803" lon="6.71856">
        <ele>790.98</ele>
        <time>2015-08-03T13:17:11Z</time>
      </trkpt>
      <trkpt lat="45.5681" lon="6.71879">
        <ele>791.22</ele>
        <time>2015-08-03T13:17:14Z</time>
      </trkpt>
      <trkpt lat="45.5682" lon="6.71918">
        <ele>791.26</ele>
        <time>2015-08-03T13:17:19Z</time>
      </trkpt>
      <trkpt lat="45.56821" lon="6.71925">
        <ele>791.29</ele>
        <time>2015-08-03T13:17:20Z</time>
      </trkpt>
      <trkpt lat="45.56821" lon="6.71938">
        <ele>791.49</ele>
        <time>2015-08-03T13:17:22Z</time>
      </trkpt>
      <trkpt lat="45.56821" lon="6.71957">
        <ele>791.98</ele>
        <time>2015-08-03T13:17:25Z</time>
      </trkpt>
      <trkpt lat="45.56821" lon="6.71963">
        <ele>792.14</ele>
        <time>2015-08-03T13:17:26Z</time>
      </trkpt>
      <trkpt lat="45.56822" lon="6.71978">
        <ele>792.42</ele>
        <time>2015-08-03T13:17:28Z</time>
      </trkpt>
      <trkpt lat="45.56822" lon="6.71986">
        <ele>792.53</ele>
        <time>2015-08-03T13:17:29Z</time>
      </trkpt>
      <trkpt lat="45.56822" lon="6.71994">
        <ele>792.61</ele>
        <time>2015-08-03T13:17:30Z</time>
      </trkpt>
      <trkpt lat="45.56816" lon="6.72054">
        <ele>792.66</ele>
        <time>2015-08-03T13:17:38Z</time>
      </trkpt>
      <trkpt lat="45.56815" lon="6.72061">
        <ele>792.66</ele>
        <time>2015-08-03T13:17:39Z</time>
      </trkpt>
      <trkpt lat="45.56814" lon="6.72069">
        <ele>792.48</ele>
        <time>2015-08-03T13:17:40Z</time>
      </trkpt>
      <trkpt lat="45.56813" lon="6.72076">
        <ele>792.4</ele>
        <time>2015-08-03T13:17:41Z</time>
      </trkpt>
      <trkpt lat="45.56812" lon="6.72085">
        <ele>792.34</ele>
        <time>2015-08-03T13:17:42Z</time>
      </trkpt>
      <trkpt lat="45.56812" lon="6.72094">
        <ele>792.29</ele>
        <time>2015-08-03T13:17:43Z</time>
      </trkpt>
      <trkpt lat="45.56813" lon="6.72103">
        <ele>792.25</ele>
        <time>2015-08-03T13:17:44Z</time>
      </trkpt>
      <trkpt lat="45.56822" lon="6.72201">
        <ele>792.13</ele>
        <time>2015-08-03T13:17:55Z</time>
      </trkpt>
      <trkpt lat="45.56829" lon="6.72239">
        <ele>792.38</ele>
        <time>2015-08-03T13:18:00Z</time>
      </trkpt>
      <trkpt lat="45.56831" lon="6.72247">
        <ele>792.47</ele>
        <time>2015-08-03T13:18:01Z</time>
      </trkpt>
      <trkpt lat="45.56833" lon="6.72256">
        <ele>792.62</ele>
        <time>2015-08-03T13:18:02Z</time>
      </trkpt>
      <trkpt lat="45.5685" lon="6.72309">
        <ele>792.81</ele>
        <time>2015-08-03T13:18:09Z</time>
      </trkpt>
      <trkpt lat="45.56855" lon="6.72314">
        <ele>792.81</ele>
        <time>2015-08-03T13:18:10Z</time>
      </trkpt>
      <trkpt lat="45.56859" lon="6.72318">
        <ele>792.85</ele>
        <time>2015-08-03T13:18:11Z</time>
      </trkpt>
      <trkpt lat="45.56864" lon="6.72322">
        <ele>792.91</ele>
        <time>2015-08-03T13:18:12Z</time>
      </trkpt>
      <trkpt lat="45.56869" lon="6.72325">
        <ele>792.95</ele>
        <time>2015-08-03T13:18:13Z</time>
      </trkpt>
      <trkpt lat="45.56874" lon="6.72329">
        <ele>792.99</ele>
        <time>2015-08-03T13:18:14Z</time>
      </trkpt>
      <trkpt lat="45.56925" lon="6.72361">
        <ele>793.65</ele>
        <time>2015-08-03T13:18:25Z</time>
      </trkpt>
      <trkpt lat="45.56969" lon="6.72395">
        <ele>794.17</ele>
        <time>2015-08-03T13:18:35Z</time>
      </trkpt>
      <trkpt lat="45.56974" lon="6.72398">
        <ele>794.2</ele>
        <time>2015-08-03T13:18:36Z</time>
      </trkpt>
      <trkpt lat="45.56983" lon="6.72405">
        <ele>794.27</ele>
        <time>2015-08-03T13:18:38Z</time>
      </trkpt>
      <trkpt lat="45.57044" lon="6.72464">
        <ele>794.9</ele>
        <time>2015-08-03T13:18:52Z</time>
      </trkpt>
      <trkpt lat="45.57066" lon="6.72485">
        <ele>795.04</ele>
        <time>2015-08-03T13:18:57Z</time>
      </trkpt>
      <trkpt lat="45.57069" lon="6.72491">
        <ele>795.1</ele>
        <time>2015-08-03T13:18:58Z</time>
      </trkpt>
      <trkpt lat="45.57071" lon="6.72498">
        <ele>795.17</ele>
        <time>2015-08-03T13:18:59Z</time>
      </trkpt>
      <trkpt lat="45.57073" lon="6.72504">
        <ele>795.23</ele>
        <time>2015-08-03T13:19:00Z</time>
      </trkpt>
      <trkpt lat="45.57075" lon="6.72511">
        <ele>795.3</ele>
        <time>2015-08-03T13:19:01Z</time>
      </trkpt>
      <trkpt lat="45.57078" lon="6.72517">
        <ele>795.35</ele>
        <time>2015-08-03T13:19:02Z</time>
      </trkpt>
      <trkpt lat="45.57081" lon="6.72522">
        <ele>795.42</ele>
        <time>2015-08-03T13:19:03Z</time>
      </trkpt>
      <trkpt lat="45.57084" lon="6.72527">
        <ele>795.51</ele>
        <time>2015-08-03T13:19:04Z</time>
      </trkpt>
      <trkpt lat="45.57088" lon="6.72531">
        <ele>795.63</ele>
        <time>2015-08-03T13:19:05Z</time>
      </trkpt>
      <trkpt lat="45.57117" lon="6.72564">
        <ele>796.47</ele>
        <time>2015-08-03T13:19:13Z</time>
      </trkpt>
      <trkpt lat="45.57152" lon="6.72586">
        <ele>796.87</ele>
        <time>2015-08-03T13:19:21Z</time>
      </trkpt>
      <trkpt lat="45.57155" lon="6.72591">
        <ele>796.86</ele>
        <time>2015-08-03T13:19:22Z</time>
      </trkpt>
      <trkpt lat="45.57159" lon="6.72596">
        <ele>796.85</ele>
        <time>2015-08-03T13:19:23Z</time>
      </trkpt>
      <trkpt lat="45.57161" lon="6.72602">
        <ele>796.85</ele>
        <time>2015-08-03T13:19:24Z</time>
      </trkpt>
      <trkpt lat="45.57164" lon="6.72607">
        <ele>796.85</ele>
        <time>2015-08-03T13:19:25Z</time>
      </trkpt>
      <trkpt lat="45.57166" lon="6.72613">
        <ele>796.86</ele>
        <time>2015-08-03T13:19:26Z</time>
      </trkpt>
      <trkpt lat="45.57168" lon="6.72619">
        <ele>796.89</ele>
        <time>2015-08-03T13:19:27Z</time>
      </trkpt>
      <trkpt lat="45.57185" lon="6.72658">
        <ele>797.21</ele>
        <time>2015-08-03T13:19:34Z</time>
      </trkpt>
      <trkpt lat="45.57188" lon="6.72662">
        <ele>797.33</ele>
        <time>2015-08-03T13:19:35Z</time>
      </trkpt>
      <trkpt lat="45.57191" lon="6.72667">
        <ele>797.49</ele>
        <time>2015-08-03T13:19:36Z</time>
      </trkpt>
      <trkpt lat="45.57197" lon="6.72676">
        <ele>797.82</ele>
        <time>2015-08-03T13:19:38Z</time>
      </trkpt>
      <trkpt lat="45.57212" lon="6.72695">
        <ele>798.22</ele>
        <time>2015-08-03T13:19:42Z</time>
      </trkpt>
      <trkpt lat="45.57222" lon="6.72712">
        <ele>798.22</ele>
        <time>2015-08-03T13:19:45Z</time>
      </trkpt>
      <trkpt lat="45.57254" lon="6.72769">
        <ele>798.45</ele>
        <time>2015-08-03T13:19:55Z</time>
      </trkpt>
      <trkpt lat="45.57305" lon="6.72808">
        <ele>798.92</ele>
        <time>2015-08-03T13:20:07Z</time>
      </trkpt>
      <trkpt lat="45.57369" lon="6.72839">
        <ele>799.37</ele>
        <time>2015-08-03T13:20:21Z</time>
      </trkpt>
      <trkpt lat="45.57397" lon="6.72854">
        <ele>799.54</ele>
        <time>2015-08-03T13:20:27Z</time>
      </trkpt>
      <trkpt lat="45.57401" lon="6.72857">
        <ele>799.62</ele>
        <time>2015-08-03T13:20:28Z</time>
      </trkpt>
      <trkpt lat="45.57404" lon="6.72862">
        <ele>799.62</ele>
        <time>2015-08-03T13:20:29Z</time>
      </trkpt>
      <trkpt lat="45.57407" lon="6.72867">
        <ele>799.72</ele>
        <time>2015-08-03T13:20:30Z</time>
      </trkpt>
      <trkpt lat="45.5741" lon="6.72872">
        <ele>799.78</ele>
        <time>2015-08-03T13:20:31Z</time>
      </trkpt>
      <trkpt lat="45.57413" lon="6.72878">
        <ele>799.8</ele>
        <time>2015-08-03T13:20:32Z</time>
      </trkpt>
      <trkpt lat="45.57415" lon="6.72884">
        <ele>799.81</ele>
        <time>2015-08-03T13:20:33Z</time>
      </trkpt>
      <trkpt lat="45.57416" lon="6.72891">
        <ele>799.86</ele>
        <time>2015-08-03T13:20:34Z</time>
      </trkpt>
      <trkpt lat="45.57417" lon="6.72897">
        <ele>799.93</ele>
        <time>2015-08-03T13:20:35Z</time>
      </trkpt>
      <trkpt lat="45.57417" lon="6.72904">
        <ele>800.01</ele>
        <time>2015-08-03T13:20:36Z</time>
      </trkpt>
      <trkpt lat="45.57417" lon="6.7291">
        <ele>800.08</ele>
        <time>2015-08-03T13:20:37Z</time>
      </trkpt>
      <trkpt lat="45.57412" lon="6.72962">
        <ele>800.88</ele>
        <time>2015-08-03T13:20:45Z</time>
      </trkpt>
      <trkpt lat="45.5741" lon="6.72975">
        <ele>801.05</ele>
        <time>2015-08-03T13:20:47Z</time>
      </trkpt>
      <trkpt lat="45.57409" lon="6.72982">
        <ele>801.12</ele>
        <time>2015-08-03T13:20:48Z</time>
      </trkpt>
      <trkpt lat="45.57409" lon="6.72989">
        <ele>801.17</ele>
        <time>2015-08-03T13:20:49Z</time>
      </trkpt>
      <trkpt lat="45.5741" lon="6.72996">
        <ele>801.22</ele>
        <time>2015-08-03T13:20:50Z</time>
      </trkpt>
      <trkpt lat="45.57411" lon="6.73003">
        <ele>801.26</ele>
        <time>2015-08-03T13:20:51Z</time>
      </trkpt>
      <trkpt lat="45.57432" lon="6.73097">
        <ele>801.16</ele>
        <time>2015-08-03T13:21:04Z</time>
      </trkpt>
      <trkpt lat="45.57443" lon="6.73131">
        <ele>801.39</ele>
        <time>2015-08-03T13:21:09Z</time>
      </trkpt>
      <trkpt lat="45.57479" lon="6.7319">
        <ele>802.01</ele>
        <time>2015-08-03T13:21:20Z</time>
      </trkpt>
      <trkpt lat="45.57493" lon="6.73202">
        <ele>801.96</ele>
        <time>2015-08-03T13:21:23Z</time>
      </trkpt>
      <trkpt lat="45.57497" lon="6.73206">
        <ele>801.94</ele>
        <time>2015-08-03T13:21:24Z</time>
      </trkpt>
      <trkpt lat="45.57538" lon="6.73239">
        <ele>802.27</ele>
        <time>2015-08-03T13:21:34Z</time>
      </trkpt>
      <trkpt lat="45.57572" lon="6.73264">
        <ele>802.65</ele>
        <time>2015-08-03T13:21:42Z</time>
      </trkpt>
      <trkpt lat="45.57576" lon="6.73268">
        <ele>802.7</ele>
        <time>2015-08-03T13:21:43Z</time>
      </trkpt>
      <trkpt lat="45.57579" lon="6.73272">
        <ele>802.75</ele>
        <time>2015-08-03T13:21:44Z</time>
      </trkpt>
      <trkpt lat="45.57595" lon="6.73293">
        <ele>803.1</ele>
        <time>2015-08-03T13:21:49Z</time>
      </trkpt>
      <trkpt lat="45.57599" lon="6.73297">
        <ele>803.14</ele>
        <time>2015-08-03T13:21:50Z</time>
      </trkpt>
      <trkpt lat="45.57631" lon="6.73339">
        <ele>803.53</ele>
        <time>2015-08-03T13:21:59Z</time>
      </trkpt>
      <trkpt lat="45.57634" lon="6.73344">
        <ele>803.6</ele>
        <time>2015-08-03T13:22:00Z</time>
      </trkpt>
      <trkpt lat="45.57637" lon="6.7335">
        <ele>803.68</ele>
        <time>2015-08-03T13:22:01Z</time>
      </trkpt>
      <trkpt lat="45.57642" lon="6.73361">
        <ele>803.82</ele>
        <time>2015-08-03T13:22:03Z</time>
      </trkpt>
      <trkpt lat="45.57666" lon="6.73399">
        <ele>804.57</ele>
        <time>2015-08-03T13:22:11Z</time>
      </trkpt>
      <trkpt lat="45.57667" lon="6.73406">
        <ele>804.65</ele>
        <time>2015-08-03T13:22:12Z</time>
      </trkpt>
      <trkpt lat="45.57666" lon="6.73443">
        <ele>805.08</ele>
        <time>2015-08-03T13:22:18Z</time>
      </trkpt>
      <trkpt lat="45.57674" lon="6.73492">
        <ele>805.99</ele>
        <time>2015-08-03T13:22:27Z</time>
      </trkpt>
      <trkpt lat="45.57689" lon="6.73529">
        <ele>806.41</ele>
        <time>2015-08-03T13:22:34Z</time>
      </trkpt>
      <trkpt lat="45.57693" lon="6.73541">
        <ele>806.44</ele>
        <time>2015-08-03T13:22:36Z</time>
      </trkpt>
      <trkpt lat="45.57695" lon="6.73547">
        <ele>806.43</ele>
        <time>2015-08-03T13:22:37Z</time>
      </trkpt>
      <trkpt lat="45.57697" lon="6.73553">
        <ele>806.42</ele>
        <time>2015-08-03T13:22:38Z</time>
      </trkpt>
      <trkpt lat="45.57698" lon="6.73559">
        <ele>806.42</ele>
        <time>2015-08-03T13:22:39Z</time>
      </trkpt>
      <trkpt lat="45.577" lon="6.73565">
        <ele>806.43</ele>
        <time>2015-08-03T13:22:40Z</time>
      </trkpt>
      <trkpt lat="45.57704" lon="6.73585">
        <ele>806.46</ele>
        <time>2015-08-03T13:22:43Z</time>
      </trkpt>
      <trkpt lat="45.57704" lon="6.73591">
        <ele>806.46</ele>
        <time>2015-08-03T13:22:44Z</time>
      </trkpt>
      <trkpt lat="45.57704" lon="6.73596">
        <ele>806.45</ele>
        <time>2015-08-03T13:22:45Z</time>
      </trkpt>
      <trkpt lat="45.57701" lon="6.73651">
        <ele>806.74</ele>
        <time>2015-08-03T13:22:55Z</time>
      </trkpt>
      <trkpt lat="45.577" lon="6.73658">
        <ele>806.76</ele>
        <time>2015-08-03T13:22:56Z</time>
      </trkpt>
      <trkpt lat="45.57699" lon="6.73664">
        <ele>806.79</ele>
        <time>2015-08-03T13:22:57Z</time>
      </trkpt>
      <trkpt lat="45.57692" lon="6.73691">
        <ele>807.33</ele>
        <time>2015-08-03T13:23:02Z</time>
      </trkpt>
      <trkpt lat="45.57689" lon="6.73695">
        <ele>807.45</ele>
        <time>2015-08-03T13:23:03Z</time>
      </trkpt>
      <trkpt lat="45.57686" lon="6.73697">
        <ele>807.58</ele>
        <time>2015-08-03T13:23:04Z</time>
      </trkpt>
      <trkpt lat="45.57683" lon="6.737">
        <ele>807.69</ele>
        <time>2015-08-03T13:23:05Z</time>
      </trkpt>
      <trkpt lat="45.57682" lon="6.73704">
        <ele>807.8</ele>
        <time>2015-08-03T13:23:06Z</time>
      </trkpt>
      <trkpt lat="45.57682" lon="6.73709">
        <ele>807.92</ele>
        <time>2015-08-03T13:23:07Z</time>
      </trkpt>
      <trkpt lat="45.57683" lon="6.73714">
        <ele>808.06</ele>
        <time>2015-08-03T13:23:08Z</time>
      </trkpt>
      <trkpt lat="45.57684" lon="6.73719">
        <ele>808.21</ele>
        <time>2015-08-03T13:23:09Z</time>
      </trkpt>
      <trkpt lat="45.57685" lon="6.73724">
        <ele>808.36</ele>
        <time>2015-08-03T13:23:10Z</time>
      </trkpt>
      <trkpt lat="45.57687" lon="6.73744">
        <ele>808.66</ele>
        <time>2015-08-03T13:23:14Z</time>
      </trkpt>
      <trkpt lat="45.57685" lon="6.73749">
        <ele>808.6</ele>
        <time>2015-08-03T13:23:15Z</time>
      </trkpt>
      <trkpt lat="45.57683" lon="6.73755">
        <ele>808.48</ele>
        <time>2015-08-03T13:23:16Z</time>
      </trkpt>
      <trkpt lat="45.57681" lon="6.73761">
        <ele>808.34</ele>
        <time>2015-08-03T13:23:17Z</time>
      </trkpt>
      <trkpt lat="45.5768" lon="6.73766">
        <ele>808.21</ele>
        <time>2015-08-03T13:23:18Z</time>
      </trkpt>
      <trkpt lat="45.57678" lon="6.73771">
        <ele>808.11</ele>
        <time>2015-08-03T13:23:19Z</time>
      </trkpt>
      <trkpt lat="45.57676" lon="6.73776">
        <ele>808.03</ele>
        <time>2015-08-03T13:23:20Z</time>
      </trkpt>
      <trkpt lat="45.57675" lon="6.73782">
        <ele>807.97</ele>
        <time>2015-08-03T13:23:21Z</time>
      </trkpt>
      <trkpt lat="45.57675" lon="6.73788">
        <ele>807.92</ele>
        <time>2015-08-03T13:23:22Z</time>
      </trkpt>
      <trkpt lat="45.57671" lon="6.73817">
        <ele>807.82</ele>
        <time>2015-08-03T13:23:26Z</time>
      </trkpt>
      <trkpt lat="45.57669" lon="6.73859">
        <ele>807.78</ele>
        <time>2015-08-03T13:23:31Z</time>
      </trkpt>
      <trkpt lat="45.57671" lon="6.73955">
        <ele>807.55</ele>
        <time>2015-08-03T13:23:43Z</time>
      </trkpt>
      <trkpt lat="45.57673" lon="6.73963">
        <ele>807.59</ele>
        <time>2015-08-03T13:23:44Z</time>
      </trkpt>
      <trkpt lat="45.57693" lon="6.74042">
        <ele>809.6</ele>
        <time>2015-08-03T13:23:57Z</time>
      </trkpt>
      <trkpt lat="45.57703" lon="6.74075">
        <ele>811.04</ele>
        <time>2015-08-03T13:24:03Z</time>
      </trkpt>
      <trkpt lat="45.57735" lon="6.74112">
        <ele>813.17</ele>
        <time>2015-08-03T13:24:13Z</time>
      </trkpt>
      <trkpt lat="45.57739" lon="6.74112">
        <ele>813.32</ele>
        <time>2015-08-03T13:24:14Z</time>
      </trkpt>
      <trkpt lat="45.57742" lon="6.74113">
        <ele>813.46</ele>
        <time>2015-08-03T13:24:15Z</time>
      </trkpt>
      <trkpt lat="45.57746" lon="6.74115">
        <ele>813.59</ele>
        <time>2015-08-03T13:24:16Z</time>
      </trkpt>
      <trkpt lat="45.57749" lon="6.74116">
        <ele>813.74</ele>
        <time>2015-08-03T13:24:17Z</time>
      </trkpt>
      <trkpt lat="45.57753" lon="6.74117">
        <ele>813.92</ele>
        <time>2015-08-03T13:24:18Z</time>
      </trkpt>
      <trkpt lat="45.57756" lon="6.74119">
        <ele>814.13</ele>
        <time>2015-08-03T13:24:19Z</time>
      </trkpt>
      <trkpt lat="45.5779" lon="6.7414">
        <ele>816.57</ele>
        <time>2015-08-03T13:24:30Z</time>
      </trkpt>
      <trkpt lat="45.57821" lon="6.74159">
        <ele>815.96</ele>
        <time>2015-08-03T13:24:35Z</time>
      </trkpt>
      <trkpt lat="45.57829" lon="6.74159">
        <ele>815.63</ele>
        <time>2015-08-03T13:24:36Z</time>
      </trkpt>
      <trkpt lat="45.57836" lon="6.74158">
        <ele>814.6</ele>
        <time>2015-08-03T13:24:37Z</time>
      </trkpt>
      <trkpt lat="45.57843" lon="6.74156">
        <ele>813.94</ele>
        <time>2015-08-03T13:24:38Z</time>
      </trkpt>
      <trkpt lat="45.5785" lon="6.74153">
        <ele>813.24</ele>
        <time>2015-08-03T13:24:39Z</time>
      </trkpt>
      <trkpt lat="45.57864" lon="6.74146">
        <ele>812.17</ele>
        <time>2015-08-03T13:24:41Z</time>
      </trkpt>
      <trkpt lat="45.57915" lon="6.74125">
        <ele>811.49</ele>
        <time>2015-08-03T13:24:50Z</time>
      </trkpt>
      <trkpt lat="45.5792" lon="6.74122">
        <ele>811.55</ele>
        <time>2015-08-03T13:24:51Z</time>
      </trkpt>
      <trkpt lat="45.57924" lon="6.74117">
        <ele>811.62</ele>
        <time>2015-08-03T13:24:52Z</time>
      </trkpt>
      <trkpt lat="45.57929" lon="6.74113">
        <ele>811.68</ele>
        <time>2015-08-03T13:24:53Z</time>
      </trkpt>
      <trkpt lat="45.57933" lon="6.7411">
        <ele>811.76</ele>
        <time>2015-08-03T13:24:54Z</time>
      </trkpt>
      <trkpt lat="45.57939" lon="6.74109">
        <ele>811.85</ele>
        <time>2015-08-03T13:24:55Z</time>
      </trkpt>
      <trkpt lat="45.57944" lon="6.74107">
        <ele>811.96</ele>
        <time>2015-08-03T13:24:56Z</time>
      </trkpt>
      <trkpt lat="45.57994" lon="6.74107">
        <ele>812.89</ele>
        <time>2015-08-03T13:25:06Z</time>
      </trkpt>
      <trkpt lat="45.5802" lon="6.74115">
        <ele>813.35</ele>
        <time>2015-08-03T13:25:12Z</time>
      </trkpt>
      <trkpt lat="45.58062" lon="6.74133">
        <ele>813.83</ele>
        <time>2015-08-03T13:25:21Z</time>
      </trkpt>
      <trkpt lat="45.58066" lon="6.74136">
        <ele>813.87</ele>
        <time>2015-08-03T13:25:22Z</time>
      </trkpt>
      <trkpt lat="45.58071" lon="6.7414">
        <ele>813.91</ele>
        <time>2015-08-03T13:25:23Z</time>
      </trkpt>
      <trkpt lat="45.58074" lon="6.74144">
        <ele>813.95</ele>
        <time>2015-08-03T13:25:24Z</time>
      </trkpt>
      <trkpt lat="45.58078" lon="6.74149">
        <ele>814</ele>
        <time>2015-08-03T13:25:25Z</time>
      </trkpt>
      <trkpt lat="45.58081" lon="6.74155">
        <ele>814.13</ele>
        <time>2015-08-03T13:25:26Z</time>
      </trkpt>
      <trkpt lat="45.58084" lon="6.7416">
        <ele>814.18</ele>
        <time>2015-08-03T13:25:27Z</time>
      </trkpt>
      <trkpt lat="45.58086" lon="6.74166">
        <ele>814.23</ele>
        <time>2015-08-03T13:25:28Z</time>
      </trkpt>
      <trkpt lat="45.58114" lon="6.74242">
        <ele>814.79</ele>
        <time>2015-08-03T13:25:40Z</time>
      </trkpt>
      <trkpt lat="45.58115" lon="6.74249">
        <ele>814.83</ele>
        <time>2015-08-03T13:25:41Z</time>
      </trkpt>
      <trkpt lat="45.58117" lon="6.74261">
        <ele>814.97</ele>
        <time>2015-08-03T13:25:43Z</time>
      </trkpt>
      <trkpt lat="45.58118" lon="6.74268">
        <ele>815.04</ele>
        <time>2015-08-03T13:25:44Z</time>
      </trkpt>
      <trkpt lat="45.5812" lon="6.74303">
        <ele>815.41</ele>
        <time>2015-08-03T13:25:49Z</time>
      </trkpt>
      <trkpt lat="45.58122" lon="6.7431">
        <ele>815.48</ele>
        <time>2015-08-03T13:25:50Z</time>
      </trkpt>
      <trkpt lat="45.58161" lon="6.74404">
        <ele>815.33</ele>
        <time>2015-08-03T13:26:04Z</time>
      </trkpt>
      <trkpt lat="45.58188" lon="6.74458">
        <ele>815.45</ele>
        <time>2015-08-03T13:26:13Z</time>
      </trkpt>
      <trkpt lat="45.5819" lon="6.74465">
        <ele>815.48</ele>
        <time>2015-08-03T13:26:14Z</time>
      </trkpt>
      <trkpt lat="45.58192" lon="6.74472">
        <ele>815.49</ele>
        <time>2015-08-03T13:26:15Z</time>
      </trkpt>
      <trkpt lat="45.58192" lon="6.7448">
        <ele>815.45</ele>
        <time>2015-08-03T13:26:16Z</time>
      </trkpt>
      <trkpt lat="45.58193" lon="6.74487">
        <ele>815.46</ele>
        <time>2015-08-03T13:26:17Z</time>
      </trkpt>
      <trkpt lat="45.58202" lon="6.74553">
        <ele>815.61</ele>
        <time>2015-08-03T13:26:26Z</time>
      </trkpt>
      <trkpt lat="45.58213" lon="6.74586">
        <ele>815.78</ele>
        <time>2015-08-03T13:26:31Z</time>
      </trkpt>
      <trkpt lat="45.58218" lon="6.74598">
        <ele>815.94</ele>
        <time>2015-08-03T13:26:33Z</time>
      </trkpt>
      <trkpt lat="45.5822" lon="6.74605">
        <ele>816.03</ele>
        <time>2015-08-03T13:26:34Z</time>
      </trkpt>
      <trkpt lat="45.58225" lon="6.7463">
        <ele>816.47</ele>
        <time>2015-08-03T13:26:38Z</time>
      </trkpt>
      <trkpt lat="45.58227" lon="6.74636">
        <ele>816.61</ele>
        <time>2015-08-03T13:26:39Z</time>
      </trkpt>
      <trkpt lat="45.58229" lon="6.74642">
        <ele>816.94</ele>
        <time>2015-08-03T13:26:40Z</time>
      </trkpt>
      <trkpt lat="45.58242" lon="6.74663">
        <ele>817.64</ele>
        <time>2015-08-03T13:26:44Z</time>
      </trkpt>
      <trkpt lat="45.58246" lon="6.74668">
        <ele>817.78</ele>
        <time>2015-08-03T13:26:45Z</time>
      </trkpt>
      <trkpt lat="45.5825" lon="6.74673">
        <ele>817.88</ele>
        <time>2015-08-03T13:26:46Z</time>
      </trkpt>
      <trkpt lat="45.58255" lon="6.74677">
        <ele>817.93</ele>
        <time>2015-08-03T13:26:47Z</time>
      </trkpt>
      <trkpt lat="45.58259" lon="6.74681">
        <ele>818.01</ele>
        <time>2015-08-03T13:26:48Z</time>
      </trkpt>
      <trkpt lat="45.58311" lon="6.74736">
        <ele>818.14</ele>
        <time>2015-08-03T13:27:00Z</time>
      </trkpt>
      <trkpt lat="45.58368" lon="6.74775">
        <ele>818.89</ele>
        <time>2015-08-03T13:27:12Z</time>
      </trkpt>
      <trkpt lat="45.58388" lon="6.74783">
        <ele>818.93</ele>
        <time>2015-08-03T13:27:16Z</time>
      </trkpt>
      <trkpt lat="45.58444" lon="6.74795">
        <ele>818.96</ele>
        <time>2015-08-03T13:27:27Z</time>
      </trkpt>
      <trkpt lat="45.585" lon="6.74809">
        <ele>819.31</ele>
        <time>2015-08-03T13:27:38Z</time>
      </trkpt>
      <trkpt lat="45.58504" lon="6.74812">
        <ele>819.43</ele>
        <time>2015-08-03T13:27:39Z</time>
      </trkpt>
      <trkpt lat="45.58507" lon="6.74816">
        <ele>819.6</ele>
        <time>2015-08-03T13:27:40Z</time>
      </trkpt>
      <trkpt lat="45.5851" lon="6.74821">
        <ele>819.81</ele>
        <time>2015-08-03T13:27:41Z</time>
      </trkpt>
      <trkpt lat="45.58513" lon="6.74827">
        <ele>820.03</ele>
        <time>2015-08-03T13:27:42Z</time>
      </trkpt>
      <trkpt lat="45.58516" lon="6.74832">
        <ele>820.25</ele>
        <time>2015-08-03T13:27:43Z</time>
      </trkpt>
      <trkpt lat="45.5852" lon="6.74836">
        <ele>820.42</ele>
        <time>2015-08-03T13:27:44Z</time>
      </trkpt>
      <trkpt lat="45.58524" lon="6.7484">
        <ele>820.56</ele>
        <time>2015-08-03T13:27:45Z</time>
      </trkpt>
      <trkpt lat="45.58529" lon="6.74843">
        <ele>820.66</ele>
        <time>2015-08-03T13:27:46Z</time>
      </trkpt>
      <trkpt lat="45.58534" lon="6.74846">
        <ele>820.69</ele>
        <time>2015-08-03T13:27:47Z</time>
      </trkpt>
      <trkpt lat="45.58539" lon="6.74848">
        <ele>820.69</ele>
        <time>2015-08-03T13:27:48Z</time>
      </trkpt>
      <trkpt lat="45.58548" lon="6.74851">
        <ele>820.69</ele>
        <time>2015-08-03T13:27:50Z</time>
      </trkpt>
      <trkpt lat="45.58553" lon="6.74853">
        <ele>820.69</ele>
        <time>2015-08-03T13:27:51Z</time>
      </trkpt>
      <trkpt lat="45.58574" lon="6.74862">
        <ele>821.15</ele>
        <time>2015-08-03T13:27:56Z</time>
      </trkpt>
      <trkpt lat="45.58598" lon="6.74885">
        <ele>821.27</ele>
        <time>2015-08-03T13:28:02Z</time>
      </trkpt>
      <trkpt lat="45.58603" lon="6.74888">
        <ele>821.28</ele>
        <time>2015-08-03T13:28:03Z</time>
      </trkpt>
      <trkpt lat="45.58608" lon="6.74891">
        <ele>821.29</ele>
        <time>2015-08-03T13:28:04Z</time>
      </trkpt>
      <trkpt lat="45.58612" lon="6.74893">
        <ele>821.31</ele>
        <time>2015-08-03T13:28:05Z</time>
      </trkpt>
      <trkpt lat="45.58617" lon="6.74894">
        <ele>821.35</ele>
        <time>2015-08-03T13:28:06Z</time>
      </trkpt>
      <trkpt lat="45.58659" lon="6.749">
        <ele>821.65</ele>
        <time>2015-08-03T13:28:14Z</time>
      </trkpt>
      <trkpt lat="45.58664" lon="6.74899">
        <ele>821.68</ele>
        <time>2015-08-03T13:28:15Z</time>
      </trkpt>
      <trkpt lat="45.58669" lon="6.74898">
        <ele>821.74</ele>
        <time>2015-08-03T13:28:16Z</time>
      </trkpt>
      <trkpt lat="45.58674" lon="6.74898">
        <ele>821.79</ele>
        <time>2015-08-03T13:28:17Z</time>
      </trkpt>
      <trkpt lat="45.5868" lon="6.74899">
        <ele>821.82</ele>
        <time>2015-08-03T13:28:18Z</time>
      </trkpt>
      <trkpt lat="45.58685" lon="6.749">
        <ele>821.85</ele>
        <time>2015-08-03T13:28:19Z</time>
      </trkpt>
      <trkpt lat="45.58701" lon="6.74902">
        <ele>821.67</ele>
        <time>2015-08-03T13:28:22Z</time>
      </trkpt>
      <trkpt lat="45.58744" lon="6.74903">
        <ele>821.88</ele>
        <time>2015-08-03T13:28:31Z</time>
      </trkpt>
      <trkpt lat="45.58749" lon="6.74905">
        <ele>821.89</ele>
        <time>2015-08-03T13:28:32Z</time>
      </trkpt>
      <trkpt lat="45.58762" lon="6.74911">
        <ele>821.89</ele>
        <time>2015-08-03T13:28:35Z</time>
      </trkpt>
      <trkpt lat="45.58768" lon="6.74913">
        <ele>821.89</ele>
        <time>2015-08-03T13:28:36Z</time>
      </trkpt>
      <trkpt lat="45.58773" lon="6.74913">
        <ele>821.9</ele>
        <time>2015-08-03T13:28:37Z</time>
      </trkpt>
      <trkpt lat="45.58837" lon="6.74911">
        <ele>822.87</ele>
        <time>2015-08-03T13:28:49Z</time>
      </trkpt>
      <trkpt lat="45.58858" lon="6.74912">
        <ele>823.05</ele>
        <time>2015-08-03T13:28:53Z</time>
      </trkpt>
      <trkpt lat="45.58877" lon="6.74913">
        <ele>823.47</ele>
        <time>2015-08-03T13:28:57Z</time>
      </trkpt>
      <trkpt lat="45.58882" lon="6.74911">
        <ele>823.59</ele>
        <time>2015-08-03T13:28:58Z</time>
      </trkpt>
      <trkpt lat="45.58891" lon="6.74909">
        <ele>823.79</ele>
        <time>2015-08-03T13:29:00Z</time>
      </trkpt>
      <trkpt lat="45.58895" lon="6.74909">
        <ele>823.89</ele>
        <time>2015-08-03T13:29:01Z</time>
      </trkpt>
      <trkpt lat="45.589" lon="6.74909">
        <ele>823.96</ele>
        <time>2015-08-03T13:29:02Z</time>
      </trkpt>
      <trkpt lat="45.58904" lon="6.74911">
        <ele>824.04</ele>
        <time>2015-08-03T13:29:03Z</time>
      </trkpt>
      <trkpt lat="45.58909" lon="6.74913">
        <ele>824.13</ele>
        <time>2015-08-03T13:29:04Z</time>
      </trkpt>
      <trkpt lat="45.58914" lon="6.74914">
        <ele>824.2</ele>
        <time>2015-08-03T13:29:05Z</time>
      </trkpt>
      <trkpt lat="45.58939" lon="6.74918">
        <ele>824.49</ele>
        <time>2015-08-03T13:29:10Z</time>
      </trkpt>
      <trkpt lat="45.58943" lon="6.7492">
        <ele>824.49</ele>
        <time>2015-08-03T13:29:11Z</time>
      </trkpt>
      <trkpt lat="45.58948" lon="6.74923">
        <ele>824.65</ele>
        <time>2015-08-03T13:29:12Z</time>
      </trkpt>
      <trkpt lat="45.58952" lon="6.74926">
        <ele>824.73</ele>
        <time>2015-08-03T13:29:13Z</time>
      </trkpt>
      <trkpt lat="45.58957" lon="6.74929">
        <ele>824.8</ele>
        <time>2015-08-03T13:29:14Z</time>
      </trkpt>
      <trkpt lat="45.58961" lon="6.74932">
        <ele>824.87</ele>
        <time>2015-08-03T13:29:15Z</time>
      </trkpt>
      <trkpt lat="45.59023" lon="6.74962">
        <ele>825.97</ele>
        <time>2015-08-03T13:29:28Z</time>
      </trkpt>
      <trkpt lat="45.59042" lon="6.7497">
        <ele>825.77</ele>
        <time>2015-08-03T13:29:32Z</time>
      </trkpt>
      <trkpt lat="45.59047" lon="6.74975">
        <ele>825.7</ele>
        <time>2015-08-03T13:29:33Z</time>
      </trkpt>
      <trkpt lat="45.5905" lon="6.7498">
        <ele>825.63</ele>
        <time>2015-08-03T13:29:34Z</time>
      </trkpt>
      <trkpt lat="45.59064" lon="6.75001">
        <ele>825.57</ele>
        <time>2015-08-03T13:29:38Z</time>
      </trkpt>
      <trkpt lat="45.59068" lon="6.75004">
        <ele>825.59</ele>
        <time>2015-08-03T13:29:39Z</time>
      </trkpt>
      <trkpt lat="45.59073" lon="6.75006">
        <ele>825.61</ele>
        <time>2015-08-03T13:29:40Z</time>
      </trkpt>
      <trkpt lat="45.59079" lon="6.75006">
        <ele>825.64</ele>
        <time>2015-08-03T13:29:41Z</time>
      </trkpt>
      <trkpt lat="45.59084" lon="6.75007">
        <ele>825.66</ele>
        <time>2015-08-03T13:29:42Z</time>
      </trkpt>
      <trkpt lat="45.59133" lon="6.75011">
        <ele>826.13</ele>
        <time>2015-08-03T13:29:51Z</time>
      </trkpt>
      <trkpt lat="45.59165" lon="6.75019">
        <ele>826.51</ele>
        <time>2015-08-03T13:29:57Z</time>
      </trkpt>
      <trkpt lat="45.59187" lon="6.75037">
        <ele>826.87</ele>
        <time>2015-08-03T13:30:02Z</time>
      </trkpt>
      <trkpt lat="45.59227" lon="6.75083">
        <ele>827</ele>
        <time>2015-08-03T13:30:12Z</time>
      </trkpt>
      <trkpt lat="45.59261" lon="6.75133">
        <ele>828.07</ele>
        <time>2015-08-03T13:30:23Z</time>
      </trkpt>
      <trkpt lat="45.59267" lon="6.75142">
        <ele>828.3</ele>
        <time>2015-08-03T13:30:25Z</time>
      </trkpt>
      <trkpt lat="45.59275" lon="6.75149">
        <ele>828.6</ele>
        <time>2015-08-03T13:30:27Z</time>
      </trkpt>
      <trkpt lat="45.59278" lon="6.75152">
        <ele>828.76</ele>
        <time>2015-08-03T13:30:28Z</time>
      </trkpt>
      <trkpt lat="45.59291" lon="6.75157">
        <ele>829.31</ele>
        <time>2015-08-03T13:30:31Z</time>
      </trkpt>
      <trkpt lat="45.59296" lon="6.75157">
        <ele>829.46</ele>
        <time>2015-08-03T13:30:32Z</time>
      </trkpt>
      <trkpt lat="45.593" lon="6.75158">
        <ele>829.57</ele>
        <time>2015-08-03T13:30:33Z</time>
      </trkpt>
      <trkpt lat="45.59321" lon="6.75164">
        <ele>829.93</ele>
        <time>2015-08-03T13:30:38Z</time>
      </trkpt>
      <trkpt lat="45.59371" lon="6.75192">
        <ele>830.15</ele>
        <time>2015-08-03T13:30:49Z</time>
      </trkpt>
      <trkpt lat="45.59376" lon="6.75193">
        <ele>830.19</ele>
        <time>2015-08-03T13:30:50Z</time>
      </trkpt>
      <trkpt lat="45.59404" lon="6.75199">
        <ele>830.45</ele>
        <time>2015-08-03T13:30:56Z</time>
      </trkpt>
      <trkpt lat="45.59408" lon="6.75202">
        <ele>830.41</ele>
        <time>2015-08-03T13:30:57Z</time>
      </trkpt>
      <trkpt lat="45.59417" lon="6.75209">
        <ele>830.29</ele>
        <time>2015-08-03T13:30:59Z</time>
      </trkpt>
      <trkpt lat="45.5942" lon="6.75213">
        <ele>830.21</ele>
        <time>2015-08-03T13:31:00Z</time>
      </trkpt>
      <trkpt lat="45.59426" lon="6.75224">
        <ele>830.08</ele>
        <time>2015-08-03T13:31:02Z</time>
      </trkpt>
      <trkpt lat="45.59454" lon="6.7527">
        <ele>829.93</ele>
        <time>2015-08-03T13:31:11Z</time>
      </trkpt>
      <trkpt lat="45.59496" lon="6.75313">
        <ele>830.98</ele>
        <time>2015-08-03T13:31:22Z</time>
      </trkpt>
      <trkpt lat="45.59503" lon="6.75321">
        <ele>831.04</ele>
        <time>2015-08-03T13:31:24Z</time>
      </trkpt>
      <trkpt lat="45.59539" lon="6.75368">
        <ele>831.64</ele>
        <time>2015-08-03T13:31:35Z</time>
      </trkpt>
      <trkpt lat="45.59542" lon="6.75372">
        <ele>831.7</ele>
        <time>2015-08-03T13:31:36Z</time>
      </trkpt>
      <trkpt lat="45.59546" lon="6.75376">
        <ele>831.77</ele>
        <time>2015-08-03T13:31:37Z</time>
      </trkpt>
      <trkpt lat="45.59558" lon="6.75386">
        <ele>832</ele>
        <time>2015-08-03T13:31:40Z</time>
      </trkpt>
      <trkpt lat="45.59562" lon="6.75389">
        <ele>832.07</ele>
        <time>2015-08-03T13:31:41Z</time>
      </trkpt>
      <trkpt lat="45.59566" lon="6.75391">
        <ele>832.12</ele>
        <time>2015-08-03T13:31:42Z</time>
      </trkpt>
      <trkpt lat="45.5957" lon="6.75395">
        <ele>832.17</ele>
        <time>2015-08-03T13:31:43Z</time>
      </trkpt>
      <trkpt lat="45.59573" lon="6.754">
        <ele>832.23</ele>
        <time>2015-08-03T13:31:44Z</time>
      </trkpt>
      <trkpt lat="45.59576" lon="6.75404">
        <ele>832.29</ele>
        <time>2015-08-03T13:31:45Z</time>
      </trkpt>
      <trkpt lat="45.59578" lon="6.75409">
        <ele>832.36</ele>
        <time>2015-08-03T13:31:46Z</time>
      </trkpt>
      <trkpt lat="45.59581" lon="6.75414">
        <ele>832.4</ele>
        <time>2015-08-03T13:31:47Z</time>
      </trkpt>
      <trkpt lat="45.59585" lon="6.75417">
        <ele>832.44</ele>
        <time>2015-08-03T13:31:48Z</time>
      </trkpt>
      <trkpt lat="45.59589" lon="6.75419">
        <ele>832.48</ele>
        <time>2015-08-03T13:31:49Z</time>
      </trkpt>
      <trkpt lat="45.59593" lon="6.7542">
        <ele>832.5</ele>
        <time>2015-08-03T13:31:50Z</time>
      </trkpt>
      <trkpt lat="45.59597" lon="6.7542">
        <ele>832.51</ele>
        <time>2015-08-03T13:31:51Z</time>
      </trkpt>
      <trkpt lat="45.59607" lon="6.75423">
        <ele>832.47</ele>
        <time>2015-08-03T13:31:53Z</time>
      </trkpt>
      <trkpt lat="45.59649" lon="6.75448">
        <ele>832.2</ele>
        <time>2015-08-03T13:32:02Z</time>
      </trkpt>
      <trkpt lat="45.59654" lon="6.75451">
        <ele>832.19</ele>
        <time>2015-08-03T13:32:03Z</time>
      </trkpt>
      <trkpt lat="45.59659" lon="6.75453">
        <ele>832.18</ele>
        <time>2015-08-03T13:32:04Z</time>
      </trkpt>
      <trkpt lat="45.59668" lon="6.75459">
        <ele>832.13</ele>
        <time>2015-08-03T13:32:06Z</time>
      </trkpt>
      <trkpt lat="45.59673" lon="6.75463">
        <ele>832.11</ele>
        <time>2015-08-03T13:32:07Z</time>
      </trkpt>
      <trkpt lat="45.59677" lon="6.75468">
        <ele>832.06</ele>
        <time>2015-08-03T13:32:08Z</time>
      </trkpt>
      <trkpt lat="45.59681" lon="6.75472">
        <ele>832.02</ele>
        <time>2015-08-03T13:32:09Z</time>
      </trkpt>
      <trkpt lat="45.59685" lon="6.75475">
        <ele>831.99</ele>
        <time>2015-08-03T13:32:10Z</time>
      </trkpt>
      <trkpt lat="45.59689" lon="6.75478">
        <ele>831.99</ele>
        <time>2015-08-03T13:32:11Z</time>
      </trkpt>
      <trkpt lat="45.59697" lon="6.75481">
        <ele>832.13</ele>
        <time>2015-08-03T13:32:13Z</time>
      </trkpt>
      <trkpt lat="45.59719" lon="6.75484">
        <ele>832.57</ele>
        <time>2015-08-03T13:32:18Z</time>
      </trkpt>
      <trkpt lat="45.59723" lon="6.75485">
        <ele>832.66</ele>
        <time>2015-08-03T13:32:19Z</time>
      </trkpt>
      <trkpt lat="45.59727" lon="6.75488">
        <ele>832.73</ele>
        <time>2015-08-03T13:32:20Z</time>
      </trkpt>
      <trkpt lat="45.5973" lon="6.75492">
        <ele>832.79</ele>
        <time>2015-08-03T13:32:21Z</time>
      </trkpt>
      <trkpt lat="45.59734" lon="6.75497">
        <ele>832.83</ele>
        <time>2015-08-03T13:32:22Z</time>
      </trkpt>
      <trkpt lat="45.59753" lon="6.75524">
        <ele>833.02</ele>
        <time>2015-08-03T13:32:28Z</time>
      </trkpt>
      <trkpt lat="45.59774" lon="6.75563">
        <ele>833.77</ele>
        <time>2015-08-03T13:32:37Z</time>
      </trkpt>
      <trkpt lat="45.59799" lon="6.75618">
        <ele>834.79</ele>
        <time>2015-08-03T13:32:47Z</time>
      </trkpt>
      <trkpt lat="45.598" lon="6.75624">
        <ele>834.87</ele>
        <time>2015-08-03T13:32:48Z</time>
      </trkpt>
      <trkpt lat="45.59801" lon="6.75631">
        <ele>834.93</ele>
        <time>2015-08-03T13:32:49Z</time>
      </trkpt>
      <trkpt lat="45.59812" lon="6.75709">
        <ele>835.99</ele>
        <time>2015-08-03T13:33:01Z</time>
      </trkpt>
      <trkpt lat="45.59814" lon="6.75715">
        <ele>836.11</ele>
        <time>2015-08-03T13:33:02Z</time>
      </trkpt>
      <trkpt lat="45.59818" lon="6.7572">
        <ele>836.27</ele>
        <time>2015-08-03T13:33:03Z</time>
      </trkpt>
      <trkpt lat="45.59822" lon="6.75725">
        <ele>836.43</ele>
        <time>2015-08-03T13:33:04Z</time>
      </trkpt>
      <trkpt lat="45.59825" lon="6.75729">
        <ele>836.56</ele>
        <time>2015-08-03T13:33:05Z</time>
      </trkpt>
      <trkpt lat="45.59828" lon="6.75733">
        <ele>836.67</ele>
        <time>2015-08-03T13:33:06Z</time>
      </trkpt>
      <trkpt lat="45.59845" lon="6.7577">
        <ele>837.64</ele>
        <time>2015-08-03T13:33:14Z</time>
      </trkpt>
      <trkpt lat="45.59863" lon="6.758">
        <ele>838.83</ele>
        <time>2015-08-03T13:33:22Z</time>
      </trkpt>
      <trkpt lat="45.59887" lon="6.75829">
        <ele>840.26</ele>
        <time>2015-08-03T13:33:32Z</time>
      </trkpt>
      <trkpt lat="45.59904" lon="6.75877">
        <ele>841.84</ele>
        <time>2015-08-03T13:33:43Z</time>
      </trkpt>
      <trkpt lat="45.59912" lon="6.75885">
        <ele>842.37</ele>
        <time>2015-08-03T13:33:46Z</time>
      </trkpt>
      <trkpt lat="45.59915" lon="6.75886">
        <ele>842.52</ele>
        <time>2015-08-03T13:33:47Z</time>
      </trkpt>
      <trkpt lat="45.59919" lon="6.75886">
        <ele>842.65</ele>
        <time>2015-08-03T13:33:48Z</time>
      </trkpt>
      <trkpt lat="45.59922" lon="6.75885">
        <ele>842.75</ele>
        <time>2015-08-03T13:33:49Z</time>
      </trkpt>
      <trkpt lat="45.59926" lon="6.75884">
        <ele>842.83</ele>
        <time>2015-08-03T13:33:50Z</time>
      </trkpt>
      <trkpt lat="45.5993" lon="6.75883">
        <ele>842.87</ele>
        <time>2015-08-03T13:33:51Z</time>
      </trkpt>
      <trkpt lat="45.59933" lon="6.75883">
        <ele>842.88</ele>
        <time>2015-08-03T13:33:52Z</time>
      </trkpt>
      <trkpt lat="45.59937" lon="6.75883">
        <ele>842.85</ele>
        <time>2015-08-03T13:33:53Z</time>
      </trkpt>
      <trkpt lat="45.59941" lon="6.75884">
        <ele>842.77</ele>
        <time>2015-08-03T13:33:54Z</time>
      </trkpt>
      <trkpt lat="45.59945" lon="6.75887">
        <ele>842.69</ele>
        <time>2015-08-03T13:33:55Z</time>
      </trkpt>
      <trkpt lat="45.59948" lon="6.75892">
        <ele>842.58</ele>
        <time>2015-08-03T13:33:56Z</time>
      </trkpt>
      <trkpt lat="45.59952" lon="6.75896">
        <ele>842.42</ele>
        <time>2015-08-03T13:33:57Z</time>
      </trkpt>
      <trkpt lat="45.59969" lon="6.75921">
        <ele>841.98</ele>
        <time>2015-08-03T13:34:04Z</time>
      </trkpt>
      <trkpt lat="45.59975" lon="6.75936">
        <ele>843.3</ele>
        <time>2015-08-03T13:34:08Z</time>
      </trkpt>
      <trkpt lat="45.59978" lon="6.75938">
        <ele>843.65</ele>
        <time>2015-08-03T13:34:09Z</time>
      </trkpt>
      <trkpt lat="45.59981" lon="6.7594">
        <ele>843.99</ele>
        <time>2015-08-03T13:34:10Z</time>
      </trkpt>
      <trkpt lat="45.59985" lon="6.75942">
        <ele>844.3</ele>
        <time>2015-08-03T13:34:11Z</time>
      </trkpt>
      <trkpt lat="45.59988" lon="6.75944">
        <ele>844.54</ele>
        <time>2015-08-03T13:34:12Z</time>
      </trkpt>
      <trkpt lat="45.60006" lon="6.75961">
        <ele>845.14</ele>
        <time>2015-08-03T13:34:17Z</time>
      </trkpt>
      <trkpt lat="45.60036" lon="6.76001">
        <ele>845.23</ele>
        <time>2015-08-03T13:34:27Z</time>
      </trkpt>
      <trkpt lat="45.60067" lon="6.76049">
        <ele>845.3</ele>
        <time>2015-08-03T13:34:38Z</time>
      </trkpt>
      <trkpt lat="45.60082" lon="6.76082">
        <ele>845.57</ele>
        <time>2015-08-03T13:34:44Z</time>
      </trkpt>
      <trkpt lat="45.60083" lon="6.76089">
        <ele>845.54</ele>
        <time>2015-08-03T13:34:45Z</time>
      </trkpt>
      <trkpt lat="45.60084" lon="6.76097">
        <ele>845.47</ele>
        <time>2015-08-03T13:34:46Z</time>
      </trkpt>
      <trkpt lat="45.60084" lon="6.76103">
        <ele>845.38</ele>
        <time>2015-08-03T13:34:47Z</time>
      </trkpt>
      <trkpt lat="45.60083" lon="6.7611">
        <ele>845.31</ele>
        <time>2015-08-03T13:34:48Z</time>
      </trkpt>
      <trkpt lat="45.60082" lon="6.76116">
        <ele>845.25</ele>
        <time>2015-08-03T13:34:49Z</time>
      </trkpt>
      <trkpt lat="45.60082" lon="6.76173">
        <ele>846.49</ele>
        <time>2015-08-03T13:35:00Z</time>
      </trkpt>
      <trkpt lat="45.60096" lon="6.76243">
        <ele>846.46</ele>
        <time>2015-08-03T13:35:11Z</time>
      </trkpt>
      <trkpt lat="45.60097" lon="6.76255">
        <ele>846.55</ele>
        <time>2015-08-03T13:35:13Z</time>
      </trkpt>
      <trkpt lat="45.60097" lon="6.76261">
        <ele>846.66</ele>
        <time>2015-08-03T13:35:14Z</time>
      </trkpt>
      <trkpt lat="45.60096" lon="6.76267">
        <ele>846.76</ele>
        <time>2015-08-03T13:35:15Z</time>
      </trkpt>
      <trkpt lat="45.60087" lon="6.76308">
        <ele>846.99</ele>
        <time>2015-08-03T13:35:22Z</time>
      </trkpt>
      <trkpt lat="45.60087" lon="6.76314">
        <ele>847.04</ele>
        <time>2015-08-03T13:35:23Z</time>
      </trkpt>
      <trkpt lat="45.60082" lon="6.76372">
        <ele>847.68</ele>
        <time>2015-08-03T13:35:33Z</time>
      </trkpt>
      <trkpt lat="45.60076" lon="6.76419">
        <ele>848.59</ele>
        <time>2015-08-03T13:35:43Z</time>
      </trkpt>
      <trkpt lat="45.60075" lon="6.76421">
        <ele>849.77</ele>
        <time>2015-08-03T13:35:51Z</time>
      </trkpt>
      <trkpt lat="45.60079" lon="6.7642">
        <ele>850.25</ele>
        <time>2015-08-03T13:36:18Z</time>
      </trkpt>
      <trkpt lat="45.60077" lon="6.76419">
        <ele>850.56</ele>
        <time>2015-08-03T13:36:50Z</time>
      </trkpt>
      <trkpt lat="45.60078" lon="6.76417">
        <ele>850.14</ele>
        <time>2015-08-03T13:37:19Z</time>
      </trkpt>
      <trkpt lat="45.60076" lon="6.76419">
        <ele>850.3</ele>
        <time>2015-08-03T13:37:54Z</time>
      </trkpt>
      <trkpt lat="45.60077" lon="6.7642">
        <ele>850.34</ele>
        <time>2015-08-03T13:38:10Z</time>
      </trkpt>
      <trkpt lat="45.60079" lon="6.76422">
        <ele>850.4</ele>
        <time>2015-08-03T13:38:13Z</time>
      </trkpt>
      <trkpt lat="45.6008" lon="6.76423">
        <ele>850.4</ele>
        <time>2015-08-03T13:38:14Z</time>
      </trkpt>
      <trkpt lat="45.60085" lon="6.7643">
        <ele>850.51</ele>
        <time>2015-08-03T13:38:18Z</time>
      </trkpt>
      <trkpt lat="45.60087" lon="6.76432">
        <ele>850.52</ele>
        <time>2015-08-03T13:38:19Z</time>
      </trkpt>
      <trkpt lat="45.60088" lon="6.76433">
        <ele>850.55</ele>
        <time>2015-08-03T13:38:20Z</time>
      </trkpt>
      <trkpt lat="45.60089" lon="6.76435">
        <ele>850.58</ele>
        <time>2015-08-03T13:38:21Z</time>
      </trkpt>
      <trkpt lat="45.6009" lon="6.76436">
        <ele>850.59</ele>
        <time>2015-08-03T13:38:22Z</time>
      </trkpt>
      <trkpt lat="45.60092" lon="6.76438">
        <ele>850.6</ele>
        <time>2015-08-03T13:38:23Z</time>
      </trkpt>
      <trkpt lat="45.60093" lon="6.76439">
        <ele>850.61</ele>
        <time>2015-08-03T13:38:24Z</time>
      </trkpt>
      <trkpt lat="45.60094" lon="6.76442">
        <ele>850.59</ele>
        <time>2015-08-03T13:38:25Z</time>
      </trkpt>
      <trkpt lat="45.60094" lon="6.76444">
        <ele>850.55</ele>
        <time>2015-08-03T13:38:26Z</time>
      </trkpt>
      <trkpt lat="45.60094" lon="6.76447">
        <ele>850.52</ele>
        <time>2015-08-03T13:38:27Z</time>
      </trkpt>
      <trkpt lat="45.60094" lon="6.7645">
        <ele>850.49</ele>
        <time>2015-08-03T13:38:28Z</time>
      </trkpt>
      <trkpt lat="45.601" lon="6.7648">
        <ele>851.03</ele>
        <time>2015-08-03T13:38:38Z</time>
      </trkpt>
      <trkpt lat="45.60102" lon="6.76487">
        <ele>851.19</ele>
        <time>2015-08-03T13:38:40Z</time>
      </trkpt>
      <trkpt lat="45.60103" lon="6.7649">
        <ele>851.26</ele>
        <time>2015-08-03T13:38:41Z</time>
      </trkpt>
      <trkpt lat="45.60103" lon="6.76494">
        <ele>851.33</ele>
        <time>2015-08-03T13:38:42Z</time>
      </trkpt>
      <trkpt lat="45.60104" lon="6.76496">
        <ele>851.39</ele>
        <time>2015-08-03T13:38:43Z</time>
      </trkpt>
      <trkpt lat="45.60104" lon="6.76499">
        <ele>851.46</ele>
        <time>2015-08-03T13:38:44Z</time>
      </trkpt>
      <trkpt lat="45.60106" lon="6.76503">
        <ele>851.52</ele>
        <time>2015-08-03T13:38:45Z</time>
      </trkpt>
      <trkpt lat="45.60107" lon="6.76505">
        <ele>851.61</ele>
        <time>2015-08-03T13:38:46Z</time>
      </trkpt>
      <trkpt lat="45.60132" lon="6.76551">
        <ele>853.77</ele>
        <time>2015-08-03T13:39:02Z</time>
      </trkpt>
      <trkpt lat="45.60153" lon="6.76585">
        <ele>855.04</ele>
        <time>2015-08-03T13:39:14Z</time>
      </trkpt>
      <trkpt lat="45.60154" lon="6.76619">
        <ele>856.58</ele>
        <time>2015-08-03T13:39:24Z</time>
      </trkpt>
      <trkpt lat="45.60163" lon="6.76641">
        <ele>857.78</ele>
        <time>2015-08-03T13:39:32Z</time>
      </trkpt>
      <trkpt lat="45.60192" lon="6.76667">
        <ele>857.95</ele>
        <time>2015-08-03T13:39:41Z</time>
      </trkpt>
      <trkpt lat="45.60242" lon="6.76689">
        <ele>857.77</ele>
        <time>2015-08-03T13:39:54Z</time>
      </trkpt>
      <trkpt lat="45.60264" lon="6.76686">
        <ele>857.57</ele>
        <time>2015-08-03T13:40:00Z</time>
      </trkpt>
      <trkpt lat="45.60266" lon="6.76682">
        <ele>857.55</ele>
        <time>2015-08-03T13:40:01Z</time>
      </trkpt>
      <trkpt lat="45.60269" lon="6.76678">
        <ele>857.54</ele>
        <time>2015-08-03T13:40:02Z</time>
      </trkpt>
      <trkpt lat="45.60272" lon="6.76674">
        <ele>857.52</ele>
        <time>2015-08-03T13:40:03Z</time>
      </trkpt>
      <trkpt lat="45.60274" lon="6.7667">
        <ele>857.5</ele>
        <time>2015-08-03T13:40:04Z</time>
      </trkpt>
      <trkpt lat="45.60299" lon="6.76626">
        <ele>857.78</ele>
        <time>2015-08-03T13:40:15Z</time>
      </trkpt>
      <trkpt lat="45.60305" lon="6.7662">
        <ele>857.78</ele>
        <time>2015-08-03T13:40:17Z</time>
      </trkpt>
      <trkpt lat="45.60309" lon="6.7662">
        <ele>857.75</ele>
        <time>2015-08-03T13:40:18Z</time>
      </trkpt>
      <trkpt lat="45.60312" lon="6.7662">
        <ele>857.68</ele>
        <time>2015-08-03T13:40:19Z</time>
      </trkpt>
      <trkpt lat="45.60314" lon="6.76621">
        <ele>857.62</ele>
        <time>2015-08-03T13:40:20Z</time>
      </trkpt>
      <trkpt lat="45.60316" lon="6.76622">
        <ele>857.6</ele>
        <time>2015-08-03T13:40:21Z</time>
      </trkpt>
      <trkpt lat="45.60317" lon="6.76624">
        <ele>857.65</ele>
        <time>2015-08-03T13:40:22Z</time>
      </trkpt>
      <trkpt lat="45.60318" lon="6.76626">
        <ele>857.86</ele>
        <time>2015-08-03T13:40:23Z</time>
      </trkpt>
      <trkpt lat="45.60319" lon="6.76627">
        <ele>858.14</ele>
        <time>2015-08-03T13:40:24Z</time>
      </trkpt>
      <trkpt lat="45.6033" lon="6.76636">
        <ele>860.32</ele>
        <time>2015-08-03T13:40:31Z</time>
      </trkpt>
      <trkpt lat="45.60331" lon="6.76637">
        <ele>860.63</ele>
        <time>2015-08-03T13:40:32Z</time>
      </trkpt>
      <trkpt lat="45.6035" lon="6.76654">
        <ele>862.51</ele>
        <time>2015-08-03T13:40:43Z</time>
      </trkpt>
      <trkpt lat="45.6037" lon="6.76665">
        <ele>863.4</ele>
        <time>2015-08-03T13:40:52Z</time>
      </trkpt>
      <trkpt lat="45.60395" lon="6.76703">
        <ele>864.81</ele>
        <time>2015-08-03T13:41:08Z</time>
      </trkpt>
      <trkpt lat="45.60406" lon="6.76734">
        <ele>866.22</ele>
        <time>2015-08-03T13:41:20Z</time>
      </trkpt>
      <trkpt lat="45.60428" lon="6.76753">
        <ele>867.4</ele>
        <time>2015-08-03T13:41:32Z</time>
      </trkpt>
      <trkpt lat="45.60455" lon="6.76767">
        <ele>868.21</ele>
        <time>2015-08-03T13:41:43Z</time>
      </trkpt>
      <trkpt lat="45.60495" lon="6.76792">
        <ele>869.48</ele>
        <time>2015-08-03T13:41:58Z</time>
      </trkpt>
      <trkpt lat="45.60521" lon="6.76823">
        <ele>870.25</ele>
        <time>2015-08-03T13:42:10Z</time>
      </trkpt>
      <trkpt lat="45.6055" lon="6.76859">
        <ele>870.23</ele>
        <time>2015-08-03T13:42:22Z</time>
      </trkpt>
      <trkpt lat="45.60577" lon="6.76909">
        <ele>869.51</ele>
        <time>2015-08-03T13:42:32Z</time>
      </trkpt>
      <trkpt lat="45.60594" lon="6.76955">
        <ele>869.21</ele>
        <time>2015-08-03T13:42:41Z</time>
      </trkpt>
      <trkpt lat="45.60605" lon="6.76978">
        <ele>869.44</ele>
        <time>2015-08-03T13:42:47Z</time>
      </trkpt>
      <trkpt lat="45.6062" lon="6.77014">
        <ele>871.11</ele>
        <time>2015-08-03T13:42:58Z</time>
      </trkpt>
      <trkpt lat="45.60644" lon="6.77041">
        <ele>871.49</ele>
        <time>2015-08-03T13:43:07Z</time>
      </trkpt>
      <trkpt lat="45.60676" lon="6.77061">
        <ele>872.15</ele>
        <time>2015-08-03T13:43:17Z</time>
      </trkpt>
      <trkpt lat="45.60696" lon="6.77068">
        <ele>873.27</ele>
        <time>2015-08-03T13:43:23Z</time>
      </trkpt>
      <trkpt lat="45.607" lon="6.7707">
        <ele>873.33</ele>
        <time>2015-08-03T13:43:24Z</time>
      </trkpt>
      <trkpt lat="45.60721" lon="6.77081">
        <ele>873.09</ele>
        <time>2015-08-03T13:43:29Z</time>
      </trkpt>
      <trkpt lat="45.60725" lon="6.77085">
        <ele>873.04</ele>
        <time>2015-08-03T13:43:30Z</time>
      </trkpt>
      <trkpt lat="45.60731" lon="6.77093">
        <ele>872.97</ele>
        <time>2015-08-03T13:43:32Z</time>
      </trkpt>
      <trkpt lat="45.60735" lon="6.77097">
        <ele>872.93</ele>
        <time>2015-08-03T13:43:33Z</time>
      </trkpt>
      <trkpt lat="45.60739" lon="6.77099">
        <ele>872.87</ele>
        <time>2015-08-03T13:43:34Z</time>
      </trkpt>
      <trkpt lat="45.60744" lon="6.77101">
        <ele>872.83</ele>
        <time>2015-08-03T13:43:35Z</time>
      </trkpt>
      <trkpt lat="45.60748" lon="6.77102">
        <ele>872.77</ele>
        <time>2015-08-03T13:43:36Z</time>
      </trkpt>
      <trkpt lat="45.60752" lon="6.77104">
        <ele>872.7</ele>
        <time>2015-08-03T13:43:37Z</time>
      </trkpt>
      <trkpt lat="45.60782" lon="6.77118">
        <ele>873.73</ele>
        <time>2015-08-03T13:43:46Z</time>
      </trkpt>
      <trkpt lat="45.60806" lon="6.77131">
        <ele>875.14</ele>
        <time>2015-08-03T13:43:55Z</time>
      </trkpt>
      <trkpt lat="45.60847" lon="6.77148">
        <ele>875.71</ele>
        <time>2015-08-03T13:44:08Z</time>
      </trkpt>
      <trkpt lat="45.60895" lon="6.77163">
        <ele>876.18</ele>
        <time>2015-08-03T13:44:22Z</time>
      </trkpt>
      <trkpt lat="45.60933" lon="6.77177">
        <ele>877.27</ele>
        <time>2015-08-03T13:44:34Z</time>
      </trkpt>
      <trkpt lat="45.60966" lon="6.77192">
        <ele>878.42</ele>
        <time>2015-08-03T13:44:44Z</time>
      </trkpt>
      <trkpt lat="45.61002" lon="6.77202">
        <ele>878.48</ele>
        <time>2015-08-03T13:44:53Z</time>
      </trkpt>
      <trkpt lat="45.61005" lon="6.77204">
        <ele>878.41</ele>
        <time>2015-08-03T13:44:54Z</time>
      </trkpt>
      <trkpt lat="45.61008" lon="6.77205">
        <ele>878.36</ele>
        <time>2015-08-03T13:44:55Z</time>
      </trkpt>
      <trkpt lat="45.61011" lon="6.77206">
        <ele>878.31</ele>
        <time>2015-08-03T13:44:56Z</time>
      </trkpt>
      <trkpt lat="45.61014" lon="6.77206">
        <ele>878.32</ele>
        <time>2015-08-03T13:44:57Z</time>
      </trkpt>
      <trkpt lat="45.61018" lon="6.77207">
        <ele>878.33</ele>
        <time>2015-08-03T13:44:58Z</time>
      </trkpt>
      <trkpt lat="45.61028" lon="6.7721">
        <ele>878.45</ele>
        <time>2015-08-03T13:45:01Z</time>
      </trkpt>
      <trkpt lat="45.61056" lon="6.77226">
        <ele>878.65</ele>
        <time>2015-08-03T13:45:10Z</time>
      </trkpt>
      <trkpt lat="45.61077" lon="6.77242">
        <ele>878.96</ele>
        <time>2015-08-03T13:45:17Z</time>
      </trkpt>
      <trkpt lat="45.61108" lon="6.77256">
        <ele>879.25</ele>
        <time>2015-08-03T13:45:27Z</time>
      </trkpt>
      <trkpt lat="45.61143" lon="6.77286">
        <ele>879.77</ele>
        <time>2015-08-03T13:45:38Z</time>
      </trkpt>
      <trkpt lat="45.61171" lon="6.77324">
        <ele>878.94</ele>
        <time>2015-08-03T13:45:47Z</time>
      </trkpt>
      <trkpt lat="45.61175" lon="6.77328">
        <ele>878.85</ele>
        <time>2015-08-03T13:45:48Z</time>
      </trkpt>
      <trkpt lat="45.61185" lon="6.77339">
        <ele>878.65</ele>
        <time>2015-08-03T13:45:51Z</time>
      </trkpt>
      <trkpt lat="45.61188" lon="6.77344">
        <ele>878.61</ele>
        <time>2015-08-03T13:45:52Z</time>
      </trkpt>
      <trkpt lat="45.61223" lon="6.77401">
        <ele>877.49</ele>
        <time>2015-08-03T13:46:02Z</time>
      </trkpt>
      <trkpt lat="45.61255" lon="6.77438">
        <ele>877.01</ele>
        <time>2015-08-03T13:46:10Z</time>
      </trkpt>
      <trkpt lat="45.6126" lon="6.7744">
        <ele>877.02</ele>
        <time>2015-08-03T13:46:11Z</time>
      </trkpt>
      <trkpt lat="45.61269" lon="6.77444">
        <ele>877.05</ele>
        <time>2015-08-03T13:46:13Z</time>
      </trkpt>
      <trkpt lat="45.61287" lon="6.7747">
        <ele>878.15</ele>
        <time>2015-08-03T13:46:20Z</time>
      </trkpt>
      <trkpt lat="45.61308" lon="6.77498">
        <ele>879</ele>
        <time>2015-08-03T13:46:29Z</time>
      </trkpt>
      <trkpt lat="45.61352" lon="6.77494">
        <ele>878.88</ele>
        <time>2015-08-03T13:46:40Z</time>
      </trkpt>
      <trkpt lat="45.614" lon="6.77485">
        <ele>878.81</ele>
        <time>2015-08-03T13:46:53Z</time>
      </trkpt>
      <trkpt lat="45.61431" lon="6.77476">
        <ele>878.74</ele>
        <time>2015-08-03T13:47:04Z</time>
      </trkpt>
      <trkpt lat="45.61437" lon="6.77471">
        <ele>878.83</ele>
        <time>2015-08-03T13:47:07Z</time>
      </trkpt>
      <trkpt lat="45.61438" lon="6.77469">
        <ele>878.86</ele>
        <time>2015-08-03T13:47:08Z</time>
      </trkpt>
      <trkpt lat="45.61438" lon="6.77466">
        <ele>878.9</ele>
        <time>2015-08-03T13:47:09Z</time>
      </trkpt>
      <trkpt lat="45.61437" lon="6.77464">
        <ele>878.94</ele>
        <time>2015-08-03T13:47:10Z</time>
      </trkpt>
      <trkpt lat="45.61435" lon="6.77463">
        <ele>878.98</ele>
        <time>2015-08-03T13:47:11Z</time>
      </trkpt>
      <trkpt lat="45.61434" lon="6.77464">
        <ele>879.02</ele>
        <time>2015-08-03T13:47:12Z</time>
      </trkpt>
      <trkpt lat="45.61432" lon="6.77464">
        <ele>879.07</ele>
        <time>2015-08-03T13:47:13Z</time>
      </trkpt>
      <trkpt lat="45.61429" lon="6.77465">
        <ele>879.43</ele>
        <time>2015-08-03T13:47:20Z</time>
      </trkpt>
      <trkpt lat="45.61425" lon="6.77465">
        <ele>879.47</ele>
        <time>2015-08-03T13:47:46Z</time>
      </trkpt>
    </trkseg>
  </trk>
</gpx>